# Wetter Temperatur Luftdruck Luftfeuchtigkeit Sichtweite Windgeschwindigkeit Windrichtung Zeit
1 Clouds 20 1009 68 10000 2.1 210 13:27 23.09.2020
2 Clouds 20 1009 72 10000 2.1 200 12:56 23.09.2020
3 Clouds 18 1009 77 10000 1.5 170 12:23 23.09.2020
4 Clouds 17 1009 93 10000 2.1 120 11:48 23.09.2020
5 Rain 16 1009 93 10000 2.1 120 11:23 23.09.2020
6 Rain 16 1009 93 10000 2.6 220 10:43 23.09.2020
7 Rain 16 1009 87 10000 3.1 250 10:22 23.09.2020
8 Rain 15 1008 93 9000 1 0 09:43 23.09.2020
9 Rain 14 1008 93 10000 1.5 250 08:57 23.09.2020
10 Rain 14 1008 93 10000 1 0 08:19 23.09.2020
11 Rain 13 1008 93 10000 2.1 130 07:43 23.09.2020
12 Rain 14 1008 93 10000 2.1 120 05:49 23.09.2020
13 Clouds 14 1008 87 10000 2.6 110 03:43 23.09.2020
14 Rain 15 1009 93 10000 2.1 120 01:28 23.09.2020
15 Clouds 16 1009 82 10000 2.6 110 23:56 22.09.2020
16 Clouds 16 1009 82 10000 2.6 110 23:32 22.09.2020
17 Clouds 16 1009 82 10000 3.1 100 22:36 22.09.2020
18 Rain 17 1009 82 10000 3.1 100 22:18 22.09.2020
19 Clouds 17 1009 77 10000 1 100 21:39 22.09.2020
20 Clouds 18 1009 77 10000 1 100 21:19 22.09.2020
21 Clouds 19 1009 72 10000 0.5 20 20:45 22.09.2020
22 Clouds 20 1009 72 10000 0.5 20 20:26 22.09.2020
23 Clouds 23 1009 60 10000 1 270 19:49 22.09.2020
24 Clouds 23 1009 60 10000 1 270 19:30 22.09.2020
25 Clouds 23 1009 56 10000 1.5 270 18:56 22.09.2020
26 Clouds 24 1009 56 10000 2.1 280 18:33 22.09.2020
27 Clouds 25 1010 47 10000 1.5 250 17:33 22.09.2020
28 Clouds 25 1010 47 10000 1.5 250 17:33 22.09.2020
29 Clouds 25 1011 44 10000 2.6 0 16:50 22.09.2020
30 Clouds 25 1011 44 10000 2.6 0 16:27 22.09.2020
31 Clouds 26 1011 41 10000 2.1 160 15:45 22.09.2020
32 Clear 26 1012 44 10000 1.5 0 14:52 22.09.2020
33 Clear 25 1012 44 10000 1.5 0 14:29 22.09.2020
34 Clouds 25 1012 50 10000 3.1 110 13:53 22.09.2020
35 Clouds 24 1012 50 10000 2.6 170 13:20 22.09.2020
36 Clear 23 1013 53 10000 3.1 150 12:45 22.09.2020
37 Clear 23 1013 53 10000 3.1 150 12:25 22.09.2020
38 Clear 21 1014 64 10000 2.1 130 11:37 22.09.2020
39 Clear 20 1014 64 10000 2.1 130 11:18 22.09.2020
40 Clear 18 1014 72 10000 2.1 140 10:35 22.09.2020
41 Clear 15 1014 82 10000 1 0 09:52 22.09.2020
42 Clear 14 1014 82 10000 1 0 09:34 22.09.2020
43 Clear 13 1014 87 10000 0.5 130 08:52 22.09.2020
44 Clear 11 1014 93 10000 2.6 110 07:56 22.09.2020
45 Clear 11 1014 93 10000 2.1 110 07:38 22.09.2020
46 Clear 12 1014 93 10000 2.1 120 06:58 22.09.2020
47 Clear 12 1014 93 10000 2.6 110 06:28 22.09.2020
48 Clear 13 1014 93 10000 2.1 100 04:52 22.09.2020
49 Clear 13 1015 87 10000 1.5 120 01:57 22.09.2020
50 Clear 14 1015 82 10000 2.6 100 00:56 22.09.2020
51 Clear 14 1015 82 10000 1.5 110 23:58 21.09.2020
52 Clear 15 1015 82 10000 1 110 23:21 21.09.2020
53 Clear 16 1015 77 10000 3.1 110 22:41 21.09.2020
54 Clear 15 1015 77 10000 3.1 110 22:22 21.09.2020
55 Clear 15 1015 72 10000 1.5 80 21:39 21.09.2020
56 Clear 17 1015 72 10000 1.5 80 21:20 21.09.2020
57 Clear 18 1015 63 10000 1 10 20:44 21.09.2020
58 Clear 18 1015 63 10000 1 10 20:25 21.09.2020
59 Clear 20 1015 56 10000 1 10 19:44 21.09.2020
60 Clear 22 1015 56 10000 1 10 19:21 21.09.2020
61 Clear 23 1015 46 10000 1.5 320 18:48 21.09.2020
62 Clear 24 1015 41 10000 1.5 350 18:23 21.09.2020
63 Clear 24 1015 38 10000 0.5 0 17:34 21.09.2020
64 Clear 25 1016 44 10000 1.5 0 16:42 21.09.2020
65 Clear 25 1016 41 10000 1 0 16:23 21.09.2020
66 Clear 24 1016 41 10000 1 0 15:36 21.09.2020
67 Clear 24 1016 43 10000 1.5 280 14:59 21.09.2020
68 Clear 24 1016 46 10000 1.5 230 14:24 21.09.2020
69 Clear 22 1017 56 10000 1.5 280 13:43 21.09.2020
70 Clear 21 1017 56 10000 1 0 12:52 21.09.2020
71 Clear 20 1017 60 10000 1 0 12:30 21.09.2020
72 Clear 19 1017 59 10000 1.5 150 11:56 21.09.2020
73 Clear 18 1017 63 10000 1.5 130 11:22 21.09.2020
74 Clear 17 1017 63 10000 1 0 10:52 21.09.2020
75 Clear 15 1017 67 10000 1.5 110 10:25 21.09.2020
76 Clear 14 1017 71 10000 1.5 110 09:52 21.09.2020
77 Clear 11 1017 81 10000 1 0 09:28 21.09.2020
78 Clear 9 1017 93 10000 0.5 0 07:59 21.09.2020
79 Clear 9 1016 93 10000 0.5 0 07:38 21.09.2020
80 Clear 9 1016 93 10000 1.5 90 06:46 21.09.2020
81 Clear 10 1016 93 10000 0.5 0 03:31 21.09.2020
82 Clear 10 1016 87 10000 0.5 0 01:55 21.09.2020
83 Clear 11 1016 81 10000 0.5 0 23:47 20.09.2020
84 Clear 13 1016 87 10000 0.5 0 22:39 20.09.2020
85 Clear 13 1016 87 10000 0.5 0 22:21 20.09.2020
86 Clear 15 1016 76 10000 1 0 21:46 20.09.2020
87 Clear 16 1016 67 10000 1 0 21:21 20.09.2020
88 Clear 17 1016 63 10000 1.5 80 20:24 20.09.2020
89 Clear 18 1015 55 10000 2.1 80 19:50 20.09.2020
90 Clear 20 1015 49 10000 2.1 80 19:28 20.09.2020
91 Clear 22 1015 46 10000 2.6 90 18:52 20.09.2020
92 Clear 22 1015 43 10000 3.1 90 18:26 20.09.2020
93 Clear 23 1015 40 10000 2.1 80 17:58 20.09.2020
94 Clear 23 1015 40 10000 2.1 80 17:58 20.09.2020
95 Clear 23 1015 43 10000 2.6 50 17:35 20.09.2020
96 Clear 22 1015 43 10000 2.6 20 16:54 20.09.2020
97 Clear 23 1015 43 10000 3.1 20 16:28 20.09.2020
98 Clear 22 1016 43 10000 1 0 15:26 20.09.2020
99 Clear 22 1016 46 10000 2.1 40 14:42 20.09.2020
100 Clear 21 1016 46 10000 1 0 14:18 20.09.2020
101 Clear 20 1016 45 10000 2.1 0 13:21 20.09.2020
102 Clear 19 1016 52 10000 2.1 90 12:45 20.09.2020
103 Clear 18 1016 52 10000 2.1 90 12:24 20.09.2020
104 Clear 17 1017 51 10000 4.6 110 11:40 20.09.2020
105 Clear 16 1017 55 10000 4.1 100 11:18 20.09.2020
106 Clear 16 1017 55 10000 4.1 100 10:51 20.09.2020
107 Clear 14 1017 71 10000 1 0 10:25 20.09.2020
108 Clear 13 1017 71 10000 1 0 09:49 20.09.2020
109 Clear 8 1017 100 10000 1 0 08:31 20.09.2020
110 Clear 8 1017 93 10000 1 0 07:29 20.09.2020
111 Clouds 10 1017 87 10000 1 10 02:18 20.09.2020
112 Clouds 12 1018 81 10000 0.5 0 00:34 20.09.2020
113 Clouds 13 1017 62 10000 2.6 80 23:37 19.09.2020
114 Clouds 12 1017 66 10000 2.1 100 22:57 19.09.2020
115 Clouds 13 1017 58 10000 3.1 90 22:30 19.09.2020
116 Clouds 14 1018 58 10000 3.1 90 21:47 19.09.2020
117 Clouds 15 1017 55 10000 3.1 90 21:21 19.09.2020
118 Clouds 15 1017 51 10000 2.6 70 20:47 19.09.2020
119 Clear 20 1017 43 10000 2.1 70 19:47 19.09.2020
120 Clear 21 1017 35 10000 2.1 80 19:18 19.09.2020
121 Clear 22 1017 33 10000 2.1 70 18:24 19.09.2020
122 Clear 24 1017 31 10000 1.5 90 17:43 19.09.2020
123 Clear 23 1017 31 10000 1.5 90 17:24 19.09.2020
124 Clear 23 1018 33 10000 2.1 120 16:26 19.09.2020
125 Clear 24 1018 31 10000 2.1 0 15:59 19.09.2020
126 Clear 22 1019 33 10000 1.5 0 15:40 19.09.2020
127 Clouds 21 1020 40 10000 3.1 130 13:28 19.09.2020
128 Clouds 17 1020 45 10000 3.1 100 11:59 19.09.2020
129 Clouds 16 1021 51 10000 3.1 110 11:30 19.09.2020
130 Clouds 14 1021 50 10000 4.1 90 10:26 19.09.2020
131 Clouds 11 1021 76 10000 0.5 60 09:40 19.09.2020
132 Clouds 9 1021 81 10000 0.5 0 09:22 19.09.2020
133 Clouds 7 1021 86 10000 1 50 08:41 19.09.2020
134 Clouds 6 1021 86 10000 1 0 07:37 19.09.2020
135 Clear 7 1021 86 10000 1 350 06:48 19.09.2020
136 Clear 8 1021 86 10000 1.5 60 05:51 19.09.2020
137 Clear 8 1022 81 10000 1 0 04:19 19.09.2020
138 Clear 10 1023 70 10000 3.1 100 00:50 19.09.2020
139 Clear 12 1024 62 10000 2.6 90 23:24 18.09.2020
140 Clear 12 1024 62 10000 2.6 100 22:58 18.09.2020
141 Clear 13 1024 58 10000 2.1 80 22:18 18.09.2020
142 Clear 13 1024 62 10000 2.1 70 21:41 18.09.2020
143 Clear 14 1024 51 10000 2.1 70 21:21 18.09.2020
144 Clear 15 1023 54 10000 2.1 50 20:19 18.09.2020
145 Clear 18 1024 39 10000 3.6 90 19:39 18.09.2020
146 Clear 20 1024 35 10000 5.1 100 18:55 18.09.2020
147 Clear 21 1024 35 10000 4.1 90 17:56 18.09.2020
148 Clear 22 1024 32 10000 4.6 90 17:19 18.09.2020
149 Clear 22 1024 30 10000 4.6 100 16:35 18.09.2020
150 Clear 22 1024 35 10000 4.6 80 15:55 18.09.2020
151 Clear 20 1025 35 10000 4.6 90 15:34 18.09.2020
152 Clear 20 1025 42 10000 3.1 70 14:29 18.09.2020
153 Clear 20 1025 48 10000 3.6 110 13:56 18.09.2020
154 Clear 18 1026 52 10000 3.6 100 12:56 18.09.2020
155 Clear 18 1026 55 10000 4.1 60 12:27 18.09.2020
156 Clouds 15 1026 54 10000 5.7 100 10:50 18.09.2020
157 Clouds 15 1026 58 10000 5.1 90 10:32 18.09.2020
158 Clouds 14 1026 58 10000 5.1 90 09:48 18.09.2020
159 Clouds 12 1025 66 10000 3.6 80 09:23 18.09.2020
160 Clouds 11 1025 71 10000 3.6 80 08:25 18.09.2020
161 Clouds 11 1025 71 10000 3.1 90 07:32 18.09.2020
162 Clouds 12 1025 62 10000 3.1 70 02:30 18.09.2020
163 Clouds 12 1025 62 10000 2.6 80 01:48 18.09.2020
164 Clear 13 1026 66 10000 2.6 40 00:32 18.09.2020
165 Clear 13 1026 62 10000 2.6 80 23:47 17.09.2020
166 Clear 14 1026 62 10000 2.6 80 22:48 17.09.2020
167 Clear 14 1026 67 10000 1.5 50 22:20 17.09.2020
168 Clear 15 1025 62 10000 4.1 10 21:36 17.09.2020
169 Clear 16 1025 62 10000 3.1 10 20:55 17.09.2020
170 Clouds 16 1025 59 10000 3.6 10 20:28 17.09.2020
171 Clouds 18 1024 55 10000 4.1 10 19:27 17.09.2020
172 Clouds 19 1024 55 10000 3.6 10 18:52 17.09.2020
173 Clouds 20 1024 60 10000 3.1 40 17:58 17.09.2020
174 Clouds 21 1024 60 10000 3.1 40 17:38 17.09.2020
175 Clouds 21 1024 60 10000 3.6 30 17:19 17.09.2020
176 Clouds 21 1024 60 10000 4.6 30 15:48 17.09.2020
177 Clouds 21 1025 64 10000 3.6 40 15:22 17.09.2020
178 Clouds 20 1025 68 10000 5.1 30 14:36 17.09.2020
179 Clouds 19 1025 68 10000 5.1 20 13:57 17.09.2020
180 Clouds 19 1024 64 10000 3.6 20 13:26 17.09.2020
181 Clouds 19 1024 64 10000 3.6 30 12:32 17.09.2020
182 Clouds 19 1024 64 10000 3.6 30 12:32 17.09.2020
183 Clouds 19 1024 68 10000 2.6 50 11:44 17.09.2020
184 Clouds 19 1024 72 10000 3.1 50 10:59 17.09.2020
185 Clouds 19 1024 72 10000 3.1 30 10:33 17.09.2020
186 Clouds 17 1024 77 10000 3.6 20 09:54 17.09.2020
187 Clouds 17 1023 77 10000 2.6 20 09:28 17.09.2020
188 Clouds 16 1023 82 10000 2.1 20 08:42 17.09.2020
189 Rain 16 1023 82 10000 2.1 20 08:23 17.09.2020
190 Clear 15 1022 87 10000 1.5 350 07:41 17.09.2020
191 Clear 16 1021 93 10000 2.1 350 06:56 17.09.2020
192 Clear 16 1020 93 10000 2.1 360 05:24 17.09.2020
193 Clouds 18 1020 93 10000 1.5 330 01:49 17.09.2020
194 Clouds 18 1020 93 10000 0.5 70 01:29 17.09.2020
195 Clouds 18 1020 93 10000 0.5 70 01:29 17.09.2020
196 Clouds 18 1020 93 10000 0.5 70 01:29 17.09.2020
197 Clouds 18 1020 93 10000 0.5 70 01:29 17.09.2020
198 Clouds 18 1019 88 10000 1 10 00:39 17.09.2020
199 Rain 19 1019 82 10000 1 0 23:33 16.09.2020
200 Clouds 19 1019 77 10000 1 0 22:46 16.09.2020
201 Clouds 19 1019 77 10000 1 0 22:23 16.09.2020
202 Clouds 20 1019 77 10000 1 0 21:43 16.09.2020
203 Clouds 21 1019 77 10000 0.5 20 20:59 16.09.2020
204 Clouds 22 1018 73 10000 1 350 20:32 16.09.2020
205 Clouds 24 1018 60 10000 1 360 19:44 16.09.2020
206 Clouds 27 1018 44 10000 2.1 350 17:30 16.09.2020
207 Clouds 28 1018 44 10000 2.6 300 16:51 16.09.2020
208 Clouds 27 1019 54 10000 3.1 290 15:53 16.09.2020
209 Clouds 27 1019 54 10000 4.1 300 15:24 16.09.2020
210 Rain 26 1019 61 10000 1.5 300 14:49 16.09.2020
211 Clouds 24 1019 64 10000 1.5 330 14:19 16.09.2020
212 Clouds 23 1020 73 10000 1 0 12:56 16.09.2020
213 Clouds 21 1020 73 10000 1 0 11:51 16.09.2020
214 Clouds 21 1020 77 10000 1 0 11:20 16.09.2020
215 Clouds 18 1020 88 10000 0.5 0 09:58 16.09.2020
216 Clouds 17 1020 93 10000 1.5 340 09:37 16.09.2020
217 Clouds 17 1020 100 10000 2.6 100 09:18 16.09.2020
218 Fog 14 1019 100 8000 1 0 07:53 16.09.2020
219 Fog 14 1019 100 6000 2.1 110 06:30 16.09.2020
220 Clouds 18 1020 88 10000 0.5 0 00:27 16.09.2020
221 Clouds 19 1020 88 10000 0.5 290 23:41 15.09.2020
222 Clear 19 1020 77 10000 0.5 0 22:52 15.09.2020
223 Clear 19 1020 72 10000 1 0 22:28 15.09.2020
224 Clear 20 1020 68 10000 0.5 0 21:42 15.09.2020
225 Clear 20 1020 68 10000 0.5 0 21:22 15.09.2020
226 Clear 22 1019 68 10000 2.1 20 20:42 15.09.2020
227 Clear 23 1019 64 10000 2.1 20 20:22 15.09.2020
228 Clear 25 1019 61 10000 1.5 20 19:29 15.09.2020
229 Clear 29 1020 42 10000 0.5 0 17:49 15.09.2020
230 Clear 29 1020 42 10000 1 290 16:55 15.09.2020
231 Clear 29 1020 45 10000 1.5 0 16:36 15.09.2020
232 Clear 29 1021 45 10000 1 0 15:31 15.09.2020
233 Clear 28 1021 48 10000 1.5 180 14:53 15.09.2020
234 Clear 26 1022 54 10000 1 0 13:38 15.09.2020
235 Clear 23 1023 64 10000 2.1 160 11:40 15.09.2020
236 Clear 17 1023 82 10000 1.5 100 09:23 15.09.2020
237 Clear 17 1023 82 10000 1.5 100 08:50 15.09.2020
238 Clouds 14 1023 87 10000 3.6 110 07:53 15.09.2020
239 Clouds 14 1023 93 10000 3.1 90 07:21 15.09.2020
240 Clouds 16 1024 82 10000 1 0 03:33 15.09.2020
241 Clouds 19 1024 72 10000 1 140 23:30 14.09.2020
242 Clouds 19 1024 60 10000 2.1 70 22:28 14.09.2020
243 Clouds 23 1024 50 10000 2.1 50 20:45 14.09.2020
244 Clear 26 1024 39 10000 2.1 70 19:24 14.09.2020
245 Clear 26 1024 39 10000 2.1 70 19:24 14.09.2020
246 Clear 29 1024 35 10000 3.6 80 18:29 14.09.2020
247 Clear 29 1025 30 10000 3.1 140 16:23 14.09.2020
248 Clear 29 1026 35 10000 4.1 110 15:52 14.09.2020
249 Clouds 29 1026 39 10000 5.1 120 14:24 14.09.2020
250 Clouds 28 1027 42 10000 3.6 110 13:47 14.09.2020
251 Clouds 23 1028 60 10000 2.1 120 11:29 14.09.2020
252 Clouds 17 1028 87 10000 1 0 09:19 14.09.2020
253 Fog 15 1027 93 10000 1 120 08:42 14.09.2020
254 Clouds 17 1028 87 10000 1.5 100 00:26 14.09.2020
255 Clouds 19 1027 68 10000 2.1 80 21:53 13.09.2020
256 Clouds 23 1026 64 10000 1 30 19:47 13.09.2020
257 Clouds 28 1026 39 10000 1 0 16:34 13.09.2020
258 Clouds 25 1027 57 10000 1 0 12:45 13.09.2020
259 Clear 20 1027 72 10000 1.5 130 10:37 13.09.2020
260 Clear 19 1027 77 10000 2.1 120 10:19 13.09.2020
261 Clouds 12 1025 100 10000 3.1 110 06:55 13.09.2020
262 Clear 17 1023 88 10000 0.5 0 22:44 12.09.2020
263 Clear 19 1022 77 10000 1.5 130 21:20 12.09.2020
264 Clouds 23 1020 60 10000 1 0 19:44 12.09.2020
265 Clouds 25 1020 50 10000 2.1 260 18:25 12.09.2020
266 Clouds 26 1020 47 10000 2.6 300 17:48 12.09.2020
267 Clouds 27 1020 44 10000 3.1 280 16:55 12.09.2020
268 Clear 27 1020 44 10000 2.1 240 15:29 12.09.2020
269 Clouds 26 1020 50 10000 2.1 240 14:34 12.09.2020
270 Clear 22 1020 68 10000 1 0 11:45 12.09.2020
271 Clear 14 1020 93 10000 2.1 140 08:53 12.09.2020
272 Clear 13 1019 93 10000 0.5 0 05:22 12.09.2020
273 Clear 14 1019 93 10000 0.5 0 04:58 12.09.2020
274 Clear 16 1018 87 10000 1.5 100 22:51 11.09.2020
275 Clear 18 1017 72 10000 1.5 100 21:38 11.09.2020
276 Clouds 19 1017 77 10000 1 0 20:43 11.09.2020
277 Clear 23 1017 69 10000 1.23 345 19:20 11.09.2020
278 Clouds 25 1017 63 10000 1.45 335 17:43 11.09.2020
279 Clouds 25 1018 60 10000 1.5 50 16:21 11.09.2020
280 Clouds 22 1018 68 10000 1 0 13:38 11.09.2020
281 Clouds 18 1018 77 10000 1.5 100 10:50 11.09.2020
282 Clouds 15 1017 82 10000 1.5 80 07:37 11.09.2020
283 Clouds 15 1017 82 10000 1.5 80 07:18 11.09.2020
284 Clear 16 1019 87 10000 0.5 0 21:29 10.09.2020
285 Clouds 20 1019 68 10000 1 0 19:31 10.09.2020
286 Clouds 19 1021 68 10000 1.5 90 15:55 10.09.2020
287 Clouds 18 1021 86 10000 2.37 20 14:46 10.09.2020
288 Clouds 16 1022 91 10000 2.41 9 12:43 10.09.2020
289 Clouds 17 1022 93 10000 4.6 360 11:30 10.09.2020
290 Clouds 15 1021 77 10000 0.5 0 08:42 10.09.2020
291 Clouds 14 1021 82 10000 3.1 100 07:45 10.09.2020
292 Clear 17 1021 65 10000 1.8 245 22:54 09.09.2020
293 Clear 22 1018 48 10000 2.14 266 19:59 09.09.2020
294 Clear 26 1021 41 10000 1.5 0 17:24 09.09.2020
295 Clear 26 1021 41 10000 1.5 0 16:30 09.09.2020
296 Clear 24 1023 49 10000 2.1 220 13:36 09.09.2020
297 Clear 18 1024 68 10000 2.1 140 10:33 09.09.2020
298 Clear 15 1025 77 10000 2.6 120 09:52 09.09.2020
299 Clear 16 1025 72 10000 2.1 130 09:52 09.09.2020
300 Clear 12 1025 93 10000 3.1 100 07:39 09.09.2020
301 Clear 12 1025 87 10000 3.1 100 05:40 09.09.2020
302 Clear 12 1026 93 10000 2.6 120 04:41 09.09.2020
303 Clear 14 1027 76 10000 3.1 100 23:36 08.09.2020
304 Clear 14 1027 76 10000 3.1 100 23:36 08.09.2020
305 Clear 14 1027 76 10000 3.1 100 23:36 08.09.2020
306 Clear 15 1026 67 10000 1.5 100 21:47 08.09.2020
307 Clear 16 1026 67 10000 1.5 100 21:24 08.09.2020
308 Clear 21 1026 43 10000 1 250 19:48 08.09.2020
309 Clear 24 1026 41 10000 1.5 0 16:58 08.09.2020
310 Clouds 20 1028 60 10000 2.1 210 12:27 08.09.2020
311 Clear 18 1028 68 10000 2.1 190 11:24 08.09.2020
312 Clear 17 1028 72 10000 2.6 180 10:53 08.09.2020
313 Clear 13 1028 82 10000 3.1 130 09:40 08.09.2020
314 Clear 9 1027 93 10000 2.1 90 07:46 08.09.2020
315 Clear 11 1026 81 10000 2.6 110 01:37 08.09.2020
316 Clear 12 1026 71 10000 1.5 110 22:47 07.09.2020
317 Clear 13 1025 71 10000 0.5 0 21:55 07.09.2020
318 Clear 20 1024 42 10000 2.6 20 18:47 07.09.2020
319 Clear 20 1024 45 10000 3.1 10 15:46 07.09.2020
320 Clear 20 1024 45 10000 2.6 20 13:31 07.09.2020
321 Clouds 19 1024 45 10000 2.1 0 12:19 07.09.2020
322 Clear 18 1024 59 10000 1.5 330 11:41 07.09.2020
323 Clear 16 1023 62 10000 1.5 330 10:49 07.09.2020
324 Clouds 8 1022 93 10000 0.5 0 07:33 07.09.2020
325 Clouds 12 1020 76 10000 1 0 23:45 06.09.2020
326 Clouds 14 1020 71 10000 1.5 360 21:37 06.09.2020
327 Clouds 16 1019 55 10000 2.1 350 20:39 06.09.2020
328 Clouds 18 1019 45 10000 3.1 360 19:33 06.09.2020
329 Clouds 19 1018 42 10000 4.6 320 17:45 06.09.2020
330 Clouds 19 1019 48 10000 3.1 310 15:28 06.09.2020
331 Clouds 19 1019 48 10000 3.1 310 13:56 06.09.2020
332 Clouds 18 1019 52 10000 2.1 320 12:51 06.09.2020
333 Clouds 14 1020 82 10000 1 0 09:29 06.09.2020
334 Clouds 12 1019 87 10000 0.5 0 07:48 06.09.2020
335 Clouds 16 1018 72 10000 2.6 300 22:41 05.09.2020
336 Clouds 17 1018 72 10000 3.1 290 21:26 05.09.2020
337 Clouds 24 1017 53 10000 5.7 280 16:19 05.09.2020
338 Clouds 24 1017 56 10000 5.1 280 14:24 05.09.2020
339 Rain 23 1017 60 10000 3.6 250 12:43 05.09.2020
340 Rain 23 1017 64 10000 1.5 250 11:59 05.09.2020
341 Rain 22 1016 68 10000 2.1 170 10:57 05.09.2020
342 Clouds 20 1017 72 10000 2.6 140 09:45 05.09.2020
343 Clear 15 1017 87 10000 3.1 110 07:46 05.09.2020
344 Clear 15 1018 87 10000 2.6 90 05:20 05.09.2020
345 Clouds 24 1021 53 10000 2.6 200 19:58 04.09.2020
346 Clouds 25 1021 50 10000 2.1 220 19:28 04.09.2020
347 Clouds 26 1022 47 10000 2.1 220 18:32 04.09.2020
348 Clouds 27 1023 42 10000 4.6 230 16:18 04.09.2020
349 Clouds 26 1023 41 10000 5.1 250 15:22 04.09.2020
350 Clouds 21 1025 56 10000 2.1 190 11:21 04.09.2020
351 Clear 17 1024 68 10000 2.6 130 08:49 04.09.2020
352 Clouds 16 1024 72 10000 1.5 140 05:58 04.09.2020
353 Clouds 17 1023 68 10000 1.5 240 22:51 03.09.2020
354 Clouds 18 1023 63 10000 1 0 22:33 03.09.2020
355 Rain 18 1022 52 10000 2.1 250 21:18 03.09.2020
356 Rain 19 1022 52 10000 2.1 250 20:27 03.09.2020
357 Clouds 21 1021 40 10000 3.6 210 18:24 03.09.2020
358 Clouds 22 1022 46 10000 4.1 190 16:35 03.09.2020
359 Clouds 22 1022 43 10000 3.1 260 15:26 03.09.2020
360 Clouds 20 1022 52 10000 2.6 190 12:32 03.09.2020
361 Clouds 17 1022 63 10000 2.1 160 10:51 03.09.2020
362 Clear 11 1022 81 10000 2.1 110 09:24 03.09.2020
363 Clouds 10 1021 93 10000 1.5 90 00:24 03.09.2020
364 Clouds 13 1020 76 10000 2.1 90 22:19 02.09.2020
365 Clouds 16 1019 63 10000 1.5 90 20:32 02.09.2020
366 Clouds 18 1018 42 10000 3.6 250 18:18 02.09.2020
367 Clouds 20 1018 40 10000 2.6 300 17:25 02.09.2020
368 Clouds 16 1019 67 10000 1.5 320 12:28 02.09.2020
369 Fog 11 1018 100 8000 0.5 0 08:54 02.09.2020
370 Fog 9 1018 100 7000 1 360 07:46 02.09.2020
371 Clouds 12 1017 100 10000 1 360 00:24 02.09.2020
372 Clouds 12 1017 100 10000 0.5 0 22:30 01.09.2020
373 Clouds 14 1017 93 10000 1 30 20:21 01.09.2020
374 Clouds 14 1016 87 10000 2.1 100 18:48 01.09.2020
375 Rain 15 1016 82 9000 3.1 60 18:20 01.09.2020
376 Clouds 17 1016 82 10000 1.5 20 16:40 01.09.2020
377 Clouds 17 1016 82 10000 1 0 15:57 01.09.2020
378 Rain 16 1017 87 10000 2.6 330 14:58 01.09.2020
379 Clouds 14 1017 93 10000 2.6 30 12:24 01.09.2020
380 Rain 14 1017 100 7000 1.5 330 09:46 01.09.2020
381 Rain 13 1017 100 6000 1.5 340 08:41 01.09.2020
382 Drizzle 14 1017 93 10000 1.5 300 23:39 31.08.2020
383 Rain 15 1017 82 10000 2.1 330 21:45 31.08.2020
384 Clouds 18 1017 68 10000 2.1 190 18:27 31.08.2020
385 Clouds 18 1017 72 10000 3.1 200 17:18 31.08.2020
386 Clouds 18 1018 72 10000 2.1 110 14:35 31.08.2020
387 Clouds 16 1018 77 10000 1 0 12:29 31.08.2020
388 Clouds 13 1017 93 10000 2.1 170 09:36 31.08.2020
389 Rain 12 1016 100 10000 1.5 130 06:58 31.08.2020
390 Rain 13 1015 93 10000 3.1 260 02:22 31.08.2020
391 Rain 13 1012 93 10000 4.6 270 23:21 30.08.2020
392 Rain 13 1011 93 8000 7.2 290 21:29 30.08.2020
393 Rain 13 1008 100 3800 8.2 300 19:23 30.08.2020
394 Rain 14 1007 93 5000 7.2 300 18:42 30.08.2020
395 Drizzle 15 1006 93 3500 4.1 300 17:32 30.08.2020
396 Rain 15 1006 93 3800 4.1 320 15:24 30.08.2020
397 Rain 15 1006 93 3800 4.1 320 14:52 30.08.2020
398 Rain 15 1007 93 10000 3.1 340 11:59 30.08.2020
399 Rain 15 1007 93 10000 2.6 340 11:40 30.08.2020
400 Rain 14 1007 93 10000 1.5 360 10:21 30.08.2020
401 Rain 14 1007 93 10000 2.1 340 08:48 30.08.2020
402 Rain 15 1009 87 10000 3.1 130 23:22 29.08.2020
403 Clouds 16 1008 82 10000 4.1 180 21:18 29.08.2020
404 Clouds 16 1008 77 10000 4.6 160 20:24 29.08.2020
405 Rain 18 1008 72 10000 4.6 180 18:38 29.08.2020
406 Clouds 19 1007 72 10000 6.2 170 17:51 29.08.2020
407 Clouds 19 1008 68 10000 4.1 180 16:47 29.08.2020
408 Clouds 19 1008 63 10000 3.6 180 15:55 29.08.2020
409 Clouds 17 1008 72 10000 2.6 240 11:32 29.08.2020
410 Rain 14 1006 82 10000 1.5 180 08:28 29.08.2020
411 Rain 14 1006 87 10000 1.5 170 06:40 29.08.2020
412 Clouds 16 1005 87 10000 1.5 240 22:23 28.08.2020
413 Clouds 17 1004 88 10000 5.1 160 21:28 28.08.2020
414 Clouds 17 1004 93 10000 3.6 130 19:20 28.08.2020
415 Rain 17 1005 88 10000 2.6 100 17:51 28.08.2020
416 Rain 17 1006 93 8000 3.1 210 16:57 28.08.2020
417 Rain 19 1004 88 10000 1.5 20 16:23 28.08.2020
418 Clouds 24 1005 47 10000 1.5 0 14:44 28.08.2020
419 Clouds 25 1005 47 10000 1.5 0 14:24 28.08.2020
420 Clouds 24 1006 50 10000 4.6 220 12:53 28.08.2020
421 Clouds 22 1007 53 10000 3.6 180 11:31 28.08.2020
422 Rain 18 1008 63 10000 2.1 140 09:27 28.08.2020
423 Rain 15 1008 67 10000 3.6 150 07:30 28.08.2020
424 Clouds 13 1008 76 10000 3.6 120 05:39 28.08.2020
425 Clouds 15 1013 71 10000 3.1 90 23:52 27.08.2020
426 Clear 15 1013 71 10000 3.1 90 23:34 27.08.2020
427 Clear 18 1014 52 10000 1.5 180 20:55 27.08.2020
428 Clouds 19 1014 52 10000 2.6 180 20:29 27.08.2020
429 Clouds 21 1014 46 10000 3.1 200 19:40 27.08.2020
430 Clouds 22 1015 43 10000 2.6 250 17:25 27.08.2020
431 Clouds 22 1016 46 10000 1.5 0 16:45 27.08.2020
432 Clouds 21 1017 46 10000 2.1 260 14:34 27.08.2020
433 Clouds 21 1017 49 10000 3.6 270 13:32 27.08.2020
434 Clouds 19 1018 59 10000 3.1 280 11:26 27.08.2020
435 Clouds 16 1019 67 10000 2.6 280 09:29 27.08.2020
436 Clear 15 1019 72 10000 1.5 210 08:45 27.08.2020
437 Clouds 13 1018 81 10000 1 0 05:52 27.08.2020
438 Clouds 19 1017 48 10000 4.6 260 23:54 26.08.2020
439 Clouds 20 1016 43 10000 5.1 260 22:34 26.08.2020
440 Clear 21 1015 40 10000 8.2 270 20:43 26.08.2020
441 Clouds 22 1015 40 10000 8.7 280 19:58 26.08.2020
442 Clouds 23 1013 38 10000 10.8 270 17:47 26.08.2020
443 Clouds 23 1013 38 10000 10.8 270 16:31 26.08.2020
444 Clouds 23 1012 40 10000 9.3 260 14:52 26.08.2020
445 Clouds 21 1012 46 10000 11.3 250 11:48 26.08.2020
446 Clouds 20 1010 56 10000 9.8 270 09:19 26.08.2020
447 Clouds 19 1011 56 10000 3.1 150 00:25 26.08.2020
448 Clouds 20 1011 49 10000 3.1 150 21:53 25.08.2020
449 Clouds 21 1011 46 10000 4.1 160 21:23 25.08.2020
450 Clouds 21 1011 46 10000 3.1 170 20:41 25.08.2020
451 Clouds 22 1011 46 10000 3.1 170 20:20 25.08.2020
452 Clouds 23 1012 43 10000 4.6 210 19:41 25.08.2020
453 Clouds 24 1012 43 10000 5.1 190 18:24 25.08.2020
454 Clouds 24 1014 43 10000 4.1 220 16:58 25.08.2020
455 Clouds 23 1014 43 10000 3.6 230 15:50 25.08.2020
456 Clouds 23 1015 43 10000 4.1 0 14:42 25.08.2020
457 Clouds 22 1016 43 10000 4.1 210 12:53 25.08.2020
458 Clouds 21 1016 49 10000 2.6 170 11:36 25.08.2020
459 Clouds 13 1016 81 10000 3.1 100 08:56 25.08.2020
460 Clear 11 1016 93 10000 4.1 100 07:38 25.08.2020
461 Clear 11 1016 93 10000 3.6 100 06:59 25.08.2020
462 Clear 11 1016 93 10000 3.6 100 06:32 25.08.2020
463 Clear 11 1016 93 10000 4.1 100 05:50 25.08.2020
464 Clear 11 1016 93 10000 4.1 100 05:27 25.08.2020
465 Clear 12 1017 87 10000 3.6 100 03:48 25.08.2020
466 Clear 12 1017 87 10000 3.6 100 03:30 25.08.2020
467 Clear 11 1017 93 10000 3.6 90 02:45 25.08.2020
468 Clouds 14 1017 76 10000 0.5 0 22:54 24.08.2020
469 Clouds 16 1016 67 10000 0.5 0 21:50 24.08.2020
470 Clouds 19 1016 52 10000 1 270 20:43 24.08.2020
471 Clouds 19 1016 52 10000 3.6 290 19:52 24.08.2020
472 Clouds 21 1016 49 10000 3.6 310 18:31 24.08.2020
473 Clouds 21 1016 46 10000 2.6 290 17:34 24.08.2020
474 Clouds 21 1017 46 10000 4.6 260 16:33 24.08.2020
475 Clouds 21 1017 43 10000 4.6 270 15:24 24.08.2020
476 Clouds 21 1017 45 10000 5.1 270 14:31 24.08.2020
477 Clouds 21 1018 56 10000 3.1 270 13:28 24.08.2020
478 Clouds 20 1018 59 10000 2.6 250 12:20 24.08.2020
479 Clouds 20 1018 56 10000 3.6 270 11:53 24.08.2020
480 Clouds 20 1018 59 10000 2.1 280 11:33 24.08.2020
481 Clouds 19 1018 59 10000 2.1 240 10:35 24.08.2020
482 Clouds 15 1018 72 10000 1 0 09:28 24.08.2020
483 Clouds 12 1018 87 10000 3.1 100 07:52 24.08.2020
484 Clear 14 1019 72 10000 1 0 01:20 24.08.2020
485 Clear 14 1018 72 10000 1 0 00:24 24.08.2020
486 Clear 15 1018 67 10000 1 0 23:44 23.08.2020
487 Clear 17 1018 59 10000 2.1 280 22:21 23.08.2020
488 Clouds 22 1017 43 10000 5.7 270 19:56 23.08.2020
489 Clouds 23 1017 43 10000 7.2 270 18:48 23.08.2020
490 Rain 23 1017 40 10000 7.7 260 17:53 23.08.2020
491 Rain 24 1017 41 10000 6.7 260 16:44 23.08.2020
492 Clouds 23 1017 49 10000 5.7 240 15:33 23.08.2020
493 Clouds 23 1017 49 10000 6.2 250 14:50 23.08.2020
494 Clouds 23 1018 49 10000 6.2 250 13:20 23.08.2020
495 Rain 21 1018 64 10000 1.5 210 11:19 23.08.2020
496 Rain 20 1018 68 10000 0.5 0 10:31 23.08.2020
497 Clouds 16 1018 87 10000 3.1 100 08:24 23.08.2020
498 Clouds 14 1018 93 10000 3.1 100 06:38 23.08.2020
499 Clouds 17 1019 72 10000 2.6 180 00:42 23.08.2020
500 Clouds 17 1019 72 10000 2.6 180 00:22 23.08.2020
501 Clouds 17 1019 68 10000 2.1 220 23:46 22.08.2020
502 Clouds 18 1019 63 10000 2.6 200 22:51 22.08.2020
503 Clouds 23 1018 44 10000 5.1 270 19:57 22.08.2020
504 Clouds 25 1018 57 10000 4.6 250 18:33 22.08.2020
505 Clouds 25 1018 57 10000 5.1 250 17:44 22.08.2020
506 Clouds 25 1018 57 10000 5.1 250 17:44 22.08.2020
507 Clouds 24 1018 69 10000 4.1 230 16:58 22.08.2020
508 Rain 19 1019 93 10000 2.6 210 13:52 22.08.2020
509 Rain 19 1019 93 9000 3.6 250 13:32 22.08.2020
510 Rain 19 1019 100 5000 4.6 230 11:47 22.08.2020
511 Clouds 20 1018 88 10000 0.5 0 10:28 22.08.2020
512 Rain 20 1017 88 10000 1 0 09:23 22.08.2020
513 Rain 22 1015 68 10000 2.1 110 03:36 22.08.2020
514 Rain 25 1014 57 10000 0.5 0 23:30 21.08.2020
515 Clear 28 1013 45 10000 1.5 310 21:28 21.08.2020
516 Clear 32 1012 35 10000 2.6 190 19:53 21.08.2020
517 Clear 35 1012 28 10000 5.1 220 16:52 21.08.2020
518 Clear 35 1013 32 10000 4.1 150 14:39 21.08.2020
519 Clear 32 1013 38 10000 4.1 170 12:49 21.08.2020
520 Clear 29 1013 45 10000 5.1 150 11:25 21.08.2020
521 Clear 22 1013 60 10000 3.1 130 08:53 21.08.2020
522 Clear 20 1013 77 10000 2.6 100 07:25 21.08.2020
523 Clear 21 1013 73 10000 4.6 100 00:19 21.08.2020
524 Clear 23 1013 60 10000 2.1 90 22:37 20.08.2020
525 Clear 28 1012 45 10000 0.5 0 20:23 20.08.2020
526 Clear 31 1012 42 10000 2.1 70 18:21 20.08.2020
527 Clear 31 1012 40 10000 3.1 200 16:48 20.08.2020
528 Clear 29 1012 42 10000 2.6 230 14:56 20.08.2020
529 Clouds 28 1013 44 10000 1.5 0 13:41 20.08.2020
530 Rain 24 1012 53 10000 3.1 180 11:45 20.08.2020
531 Clouds 24 1012 53 10000 3.6 170 10:58 20.08.2020
532 Clouds 21 1012 68 10000 2.6 100 09:40 20.08.2020
533 Clouds 19 1011 68 10000 3.1 130 08:47 20.08.2020
534 Clouds 17 1011 82 10000 3.6 110 07:43 20.08.2020
535 Clouds 16 1011 82 10000 2.6 100 04:52 20.08.2020
536 Clear 17 1011 82 10000 3.6 100 02:45 20.08.2020
537 Clouds 17 1011 72 10000 3.6 100 00:41 20.08.2020
538 Clouds 19 1011 69 10000 1 104 21:51 19.08.2020
539 Clouds 24 1011 44 10000 0.5 0 20:26 19.08.2020
540 Clouds 26 1011 41 10000 1 0 17:57 19.08.2020
541 Clouds 26 1011 41 10000 1.5 0 17:36 19.08.2020
542 Clouds 26 1012 44 10000 2.1 200 15:40 19.08.2020
543 Clear 24 1012 50 10000 1 0 14:45 19.08.2020
544 Clouds 25 1013 44 10000 2.1 0 13:35 19.08.2020
545 Clouds 22 1013 64 10000 1.5 0 11:25 19.08.2020
546 Clouds 19 1013 68 10000 1.5 160 10:34 19.08.2020
547 Clear 18 1013 77 10000 1.5 0 09:47 19.08.2020
548 Clouds 13 1013 100 10000 2.1 120 07:19 19.08.2020
549 Clouds 18 1012 93 10000 1 0 22:44 18.08.2020
550 Clouds 18 1012 88 10000 0.5 0 22:18 18.08.2020
551 Thunderstorm 18 1012 88 10000 1 0 21:44 18.08.2020
552 Rain 20 1011 52 10000 3.6 0 20:47 18.08.2020
553 Thunderstorm 21 1011 53 10000 2.6 290 20:24 18.08.2020
554 Rain 25 1011 47 10000 3.1 290 18:38 18.08.2020
555 Clear 26 1011 41 10000 3.6 280 17:46 18.08.2020
556 Clear 25 1011 44 10000 4.1 260 17:46 18.08.2020
557 Clouds 26 1011 44 10000 4.6 270 16:24 18.08.2020
558 Clouds 24 1012 64 10000 3.6 240 14:39 18.08.2020
559 Rain 24 1012 56 10000 4.6 250 13:30 18.08.2020
560 Clouds 23 1012 53 10000 4.6 260 12:49 18.08.2020
561 Rain 21 1013 72 10000 1 0 10:35 18.08.2020
562 Clouds 16 1012 88 10000 1.5 110 08:21 18.08.2020
563 Clouds 16 1012 93 10000 1 0 07:56 18.08.2020
564 Clouds 17 1012 100 10000 0.5 330 02:45 18.08.2020
565 Clouds 17 1012 100 10000 2.6 100 23:47 17.08.2020
566 Clouds 18 1012 100 10000 1.5 100 23:24 17.08.2020
567 Clouds 19 1012 93 10000 1.5 110 21:49 17.08.2020
568 Clouds 20 1011 88 10000 1.5 160 20:42 17.08.2020
569 Clouds 20 1011 88 10000 2.6 190 19:51 17.08.2020
570 Rain 24 1011 57 10000 2.6 210 17:38 17.08.2020
571 Clouds 24 1012 53 10000 2.6 140 15:39 17.08.2020
572 Clouds 24 1012 53 10000 2.6 0 14:58 17.08.2020
573 Clouds 23 1012 64 10000 4.1 230 13:54 17.08.2020
574 Clouds 21 1012 68 10000 4.6 230 12:25 17.08.2020
575 Clouds 22 1012 68 10000 3.6 220 11:41 17.08.2020
576 Clouds 22 1012 68 10000 3.6 220 11:21 17.08.2020
577 Clouds 22 1011 68 10000 3.6 260 10:20 17.08.2020
578 Clouds 19 1011 82 10000 0.5 0 07:59 17.08.2020
579 Clouds 18 1011 82 10000 2.1 230 06:46 17.08.2020
580 Clouds 20 1011 77 10000 3.6 100 00:19 17.08.2020
581 Clouds 23 1011 57 10000 3.1 100 22:19 16.08.2020
582 Clouds 27 1011 47 10000 3.6 130 20:22 16.08.2020
583 Clouds 29 1009 24 10000 0.45 177 18:38 16.08.2020
584 Clouds 29 1009 51 10000 2.28 152 17:42 16.08.2020
585 Clear 29 1011 56 10000 0.89 101 16:34 16.08.2020
586 Clear 28 1013 53 10000 0.89 202 15:42 16.08.2020
587 Clear 29 1010 55 10000 0.89 130 15:18 16.08.2020
588 Clear 25 1013 69 10000 0.89 242 12:36 16.08.2020
589 Clear 24 1013 74 10000 1.34 149 11:59 16.08.2020
590 Clear 24 1014 73 10000 0.89 139 11:25 16.08.2020
591 Clear 23 1014 73 10000 0.89 116 10:51 16.08.2020
592 Clear 21 1014 84 10000 2.12 120 09:46 16.08.2020
593 Clear 18 1014 88 10000 1 0 08:27 16.08.2020
594 Clear 16 1014 93 10000 0.5 0 07:21 16.08.2020
595 Clear 18 1014 93 10000 0.5 0 02:19 16.08.2020
596 Clear 18 1014 93 10000 0.5 0 02:19 16.08.2020
597 Clear 20 1015 88 10000 1.5 50 22:46 15.08.2020
598 Clear 21 1015 83 10000 3.6 360 20:38 15.08.2020
599 Rain 24 1014 57 10000 4.1 360 19:28 15.08.2020
600 Thunderstorm 24 1014 50 10000 3.6 10 18:57 15.08.2020
601 Clouds 26 1014 51 10000 3.1 20 16:48 15.08.2020
602 Clouds 26 1015 51 10000 3.6 360 15:52 15.08.2020
603 Clouds 26 1015 57 10000 3.6 360 14:49 15.08.2020
604 Clouds 24 1015 64 10000 3.1 350 12:43 15.08.2020
605 Clouds 24 1016 64 10000 2.6 320 11:56 15.08.2020
606 Clouds 23 1016 64 10000 2.6 320 11:31 15.08.2020
607 Clouds 23 1016 64 10000 2.6 320 11:31 15.08.2020
608 Clouds 23 1016 64 10000 2.6 320 11:31 15.08.2020
609 Clouds 22 1016 73 10000 2.1 0 10:42 15.08.2020
610 Clouds 21 1016 83 10000 2.6 0 10:18 15.08.2020
611 Clouds 20 1016 88 10000 2.6 270 09:31 15.08.2020
612 Clouds 19 1015 93 10000 2.1 290 08:27 15.08.2020
613 Clouds 19 1014 88 10000 0.5 0 05:54 15.08.2020
614 Clouds 20 1015 88 10000 1.5 270 01:57 15.08.2020
615 Clouds 20 1015 88 10000 0.5 0 23:33 14.08.2020
616 Clouds 22 1015 78 10000 1 0 20:53 14.08.2020
617 Clouds 22 1015 78 10000 1 0 20:33 14.08.2020
618 Clouds 25 1014 69 10000 3.1 290 17:45 14.08.2020
619 Clouds 25 1014 54 10000 4.6 310 15:28 14.08.2020
620 Clouds 25 1015 54 10000 4.6 300 14:52 14.08.2020
621 Clouds 25 1015 57 10000 3.1 310 13:56 14.08.2020
622 Clouds 23 1015 73 10000 1.5 310 11:37 14.08.2020
623 Clouds 21 1015 83 10000 1 0 10:18 14.08.2020
624 Rain 19 1015 93 10000 1 0 08:43 14.08.2020
625 Clouds 19 1015 93 10000 3.1 100 01:22 14.08.2020
626 Clouds 19 1016 93 10000 3.1 100 00:44 14.08.2020
627 Rain 19 1016 93 10000 0.5 170 23:27 13.08.2020
628 Rain 20 1016 88 10000 3.1 130 22:18 13.08.2020
629 Rain 20 1016 88 10000 2.1 140 21:20 13.08.2020
630 Rain 21 1015 88 10000 2.1 170 20:52 13.08.2020
631 Clouds 21 1015 88 10000 1.5 160 19:39 13.08.2020
632 Rain 22 1016 88 10000 3.1 280 17:31 13.08.2020
633 Clouds 22 1016 77 10000 6.2 250 15:42 13.08.2020
634 Thunderstorm 26 1015 83 8000 5.1 250 13:34 13.08.2020
635 Thunderstorm 30 1014 40 10000 2.6 240 12:49 13.08.2020
636 Rain 29 1014 45 10000 2.6 150 11:55 13.08.2020
637 Clear 22 1014 60 10000 3.6 110 08:53 13.08.2020
638 Clouds 19 1015 77 10000 3.1 110 07:42 13.08.2020
639 Clouds 22 1015 60 10000 4.6 100 23:56 12.08.2020
640 Clouds 23 1016 44 10000 2.6 100 22:47 12.08.2020
641 Clear 24 1016 39 10000 2.6 90 22:20 12.08.2020
642 Clear 25 1015 39 10000 2.1 100 21:56 12.08.2020
643 Clear 27 1015 34 10000 3.1 120 20:56 12.08.2020
644 Clear 27 1015 34 10000 3.1 120 20:38 12.08.2020
645 Clear 30 1015 30 10000 2.6 140 20:19 12.08.2020
646 Clear 31 1015 29 10000 3.6 110 19:31 12.08.2020
647 Clear 32 1016 27 10000 4.1 110 17:34 12.08.2020
648 Clear 32 1016 29 10000 4.1 140 15:44 12.08.2020
649 Clear 31 1017 33 10000 4.6 140 14:52 12.08.2020
650 Clouds 30 1017 37 10000 4.6 110 13:43 12.08.2020
651 Clouds 29 1018 45 10000 2.6 140 12:33 12.08.2020
652 Clouds 26 1018 57 10000 2.6 120 10:54 12.08.2020
653 Clouds 22 1018 69 10000 2.1 120 09:43 12.08.2020
654 Rain 18 1018 88 10000 0.5 0 01:56 12.08.2020
655 Clouds 19 1018 77 10000 3.1 40 22:57 11.08.2020
656 Clouds 19 1018 77 10000 4.1 120 22:22 11.08.2020
657 Clouds 20 1018 82 10000 4.1 100 21:42 11.08.2020
658 Clouds 22 1018 77 10000 5.1 60 21:19 11.08.2020
659 Thunderstorm 22 1017 88 10000 3.1 100 19:33 11.08.2020
660 Thunderstorm 23 1018 82 10000 7.2 300 18:48 11.08.2020
661 Thunderstorm 30 1016 54 10000 1.5 150 17:28 11.08.2020
662 Rain 29 1016 61 10000 1 0 16:26 11.08.2020
663 Clear 32 1017 36 10000 3.1 0 15:23 11.08.2020
664 Clear 32 1017 40 10000 3.6 100 14:50 11.08.2020
665 Clouds 30 1018 43 10000 3.1 110 12:55 11.08.2020
666 Clouds 29 1018 45 10000 2.1 0 12:32 11.08.2020
667 Clouds 28 1018 48 10000 2.1 0 11:40 11.08.2020
668 Clouds 26 1018 51 10000 3.1 100 10:42 11.08.2020
669 Clouds 22 1018 64 10000 3.1 100 08:55 11.08.2020
670 Clouds 19 1017 77 10000 1.5 70 07:23 11.08.2020
671 Clouds 19 1017 77 10000 2.1 100 05:48 11.08.2020
672 Clouds 19 1017 77 10000 2.1 100 05:48 11.08.2020
673 Rain 20 1017 72 10000 2.1 70 03:19 11.08.2020
674 Rain 21 1017 68 10000 1 0 02:40 11.08.2020
675 Rain 21 1016 68 10000 1.5 70 02:19 11.08.2020
676 Clouds 22 1016 60 10000 3.1 80 00:33 11.08.2020
677 Rain 24 1016 57 10000 2.6 80 22:48 10.08.2020
678 Rain 25 1015 54 10000 4.1 80 21:26 10.08.2020
679 Rain 26 1015 51 10000 4.1 70 20:53 10.08.2020
680 Rain 29 1014 45 10000 5.7 60 19:39 10.08.2020
681 Clouds 30 1014 45 10000 4.6 70 19:19 10.08.2020
682 Rain 29 1014 51 10000 4.6 60 18:21 10.08.2020
683 Clouds 32 1014 28 10000 3.1 140 15:53 10.08.2020
684 Clouds 33 1015 29 10000 2.1 0 14:18 10.08.2020
685 Clouds 31 1016 33 10000 3.6 90 12:27 10.08.2020
686 Clouds 29 1016 39 10000 2.6 100 10:55 10.08.2020
687 Clouds 26 1016 44 10000 3.1 90 09:53 10.08.2020
688 Clouds 22 1016 60 10000 0.5 0 08:55 10.08.2020
689 Clouds 23 1016 53 10000 3.1 100 23:56 09.08.2020
690 Clear 26 1016 42 10000 2.1 120 22:26 09.08.2020
691 Clouds 31 1016 29 10000 2.6 140 19:53 09.08.2020
692 Clouds 32 1016 27 10000 2.1 130 19:35 09.08.2020
693 Clouds 32 1016 29 10000 2.6 140 19:35 09.08.2020
694 Clouds 33 1016 24 10000 1.5 0 18:46 09.08.2020
695 Clouds 33 1016 24 10000 1 0 17:54 09.08.2020
696 Clouds 33 1016 24 10000 2.1 160 17:21 09.08.2020
697 Clouds 34 1017 26 10000 1.5 0 15:43 09.08.2020
698 Clouds 33 1017 27 10000 2.6 220 14:48 09.08.2020
699 Clear 32 1018 31 10000 3.1 0 13:55 09.08.2020
700 Clear 31 1019 29 10000 2.6 200 12:57 09.08.2020
701 Clear 31 1019 31 10000 2.1 0 12:29 09.08.2020
702 Clear 28 1020 44 10000 2.1 160 10:54 09.08.2020
703 Clear 24 1020 50 10000 1.5 120 09:37 09.08.2020
704 Clear 21 1020 64 10000 2.1 120 08:44 09.08.2020
705 Clear 18 1019 77 10000 2.6 100 05:45 09.08.2020
706 Clear 20 1019 60 10000 3.6 100 00:51 09.08.2020
707 Clear 28 1019 35 10000 2.1 110 21:18 08.08.2020
708 Clear 33 1019 26 10000 3.1 120 18:28 08.08.2020
709 Clear 33 1019 24 10000 2.1 210 17:52 08.08.2020
710 Clear 33 1020 26 10000 3.6 160 16:34 08.08.2020
711 Clear 34 1020 27 10000 2.1 0 15:50 08.08.2020
712 Clear 33 1020 26 10000 3.1 0 14:49 08.08.2020
713 Clear 32 1020 26 10000 2.1 0 14:25 08.08.2020
714 Clear 31 1021 27 10000 2.6 180 12:43 08.08.2020
715 Clear 29 1022 45 10000 1.5 230 11:19 08.08.2020
716 Clear 19 1022 77 10000 0.5 0 07:50 08.08.2020
717 Clear 18 1022 87 10000 1 330 07:30 08.08.2020
718 Clear 19 1021 72 10000 1.5 100 02:25 08.08.2020
719 Clear 24 1020 47 10000 2.6 90 22:22 07.08.2020
720 Clear 28 1020 39 10000 2.6 90 21:21 07.08.2020
721 Clouds 29 1020 39 10000 2.6 90 20:45 07.08.2020
722 Clear 31 1020 33 10000 3.1 110 18:45 07.08.2020
723 Clear 32 1020 33 10000 2.1 0 17:20 07.08.2020
724 Clear 31 1021 35 10000 2.1 0 14:53 07.08.2020
725 Clear 30 1021 37 10000 3.6 110 13:28 07.08.2020
726 Clear 28 1021 42 10000 2.6 30 12:25 07.08.2020
727 Clear 25 1022 47 10000 1 0 10:19 07.08.2020
728 Clear 22 1022 56 10000 2.1 90 09:25 07.08.2020
729 Clear 16 1021 87 10000 0.5 0 06:32 07.08.2020
730 Clear 17 1021 77 10000 1.5 90 01:42 07.08.2020
731 Clear 17 1021 77 10000 1.5 90 01:42 07.08.2020
732 Clear 18 1021 68 10000 1 100 00:35 07.08.2020
733 Clear 21 1021 56 10000 1.5 100 22:48 06.08.2020
734 Clear 25 1020 41 10000 1 100 21:20 06.08.2020
735 Clear 27 1020 39 10000 2.1 90 20:33 06.08.2020
736 Clear 28 1020 39 10000 2.6 360 19:36 06.08.2020
737 Clear 29 1020 33 10000 0.5 0 18:51 06.08.2020
738 Clear 29 1020 35 10000 1.5 0 18:22 06.08.2020
739 Clear 29 1020 32 10000 2.6 140 17:25 06.08.2020
740 Clear 28 1020 34 10000 3.6 110 15:48 06.08.2020
741 Clear 28 1021 36 10000 3.6 0 14:54 06.08.2020
742 Clouds 27 1021 36 10000 4.1 0 13:43 06.08.2020
743 Clouds 26 1022 38 10000 4.1 110 12:59 06.08.2020
744 Clear 24 1022 38 10000 5.1 110 11:36 06.08.2020
745 Clear 22 1022 49 10000 2.1 0 10:34 06.08.2020
746 Clear 18 1022 68 10000 1 0 09:25 06.08.2020
747 Clear 17 1022 67 10000 1 0 08:45 06.08.2020
748 Clear 15 1021 82 10000 1 0 07:48 06.08.2020
749 Clear 15 1020 82 10000 1 0 01:57 06.08.2020
750 Clear 16 1020 67 10000 3.1 100 23:49 05.08.2020
751 Clear 17 1020 55 10000 2.6 100 22:57 05.08.2020
752 Clear 18 1020 55 10000 2.6 90 22:25 05.08.2020
753 Clear 20 1019 52 10000 1.5 100 21:41 05.08.2020
754 Clear 22 1019 46 10000 3.1 130 20:45 05.08.2020
755 Clear 24 1018 38 10000 2.6 130 19:37 05.08.2020
756 Clear 25 1018 33 10000 3.6 120 18:39 05.08.2020
757 Clear 25 1019 31 10000 2.6 0 17:42 05.08.2020
758 Clear 25 1019 33 10000 4.1 140 16:37 05.08.2020
759 Clear 25 1019 36 10000 4.6 120 15:44 05.08.2020
760 Clear 24 1019 41 10000 4.1 160 14:49 05.08.2020
761 Clear 25 1019 41 10000 4.1 160 14:29 05.08.2020
762 Clouds 23 1020 40 10000 2.1 0 13:23 05.08.2020
763 Clouds 22 1020 49 10000 2.6 130 12:22 05.08.2020
764 Clouds 20 1020 63 10000 2.6 120 10:58 05.08.2020
765 Clouds 19 1020 63 10000 2.6 120 10:40 05.08.2020
766 Clouds 18 1020 68 10000 2.1 110 10:20 05.08.2020
767 Clouds 14 1020 82 10000 1.5 90 08:35 05.08.2020
768 Clear 11 1020 93 10000 2.1 100 07:39 05.08.2020
769 Clouds 12 1019 100 10000 3.1 100 01:29 05.08.2020
770 Clouds 13 1019 93 10000 3.1 90 23:58 04.08.2020
771 Clouds 13 1019 93 10000 3.1 90 23:40 04.08.2020
772 Fog 14 1019 87 10000 1.5 160 23:20 04.08.2020
773 Clouds 14 1019 82 10000 1.5 140 22:31 04.08.2020
774 Clouds 16 1018 77 10000 2.1 160 21:59 04.08.2020
775 Clouds 17 1018 72 10000 2.1 190 20:44 04.08.2020
776 Clouds 17 1018 68 10000 2.1 210 19:32 04.08.2020
777 Rain 17 1017 77 10000 2.6 320 18:33 04.08.2020
778 Clouds 18 1016 63 10000 3.6 190 17:31 04.08.2020
779 Clouds 19 1016 63 10000 3.1 230 16:25 04.08.2020
780 Clouds 19 1016 56 10000 3.1 200 15:36 04.08.2020
781 Clouds 18 1016 59 10000 1.5 240 14:40 04.08.2020
782 Clouds 18 1015 63 10000 3.1 330 13:37 04.08.2020
783 Clouds 18 1014 63 10000 3.1 320 11:34 04.08.2020
784 Clouds 18 1014 63 10000 3.1 340 10:57 04.08.2020
785 Clouds 17 1014 63 10000 3.1 340 10:35 04.08.2020
786 Clouds 16 1013 67 10000 2.6 350 09:35 04.08.2020
787 Rain 14 1012 77 10000 2.1 320 06:59 04.08.2020
788 Rain 16 1011 87 10000 2.1 350 00:53 04.08.2020
789 Rain 16 1011 82 10000 3.1 320 22:54 03.08.2020
790 Rain 16 1010 87 10000 2.6 290 21:55 03.08.2020
791 Clouds 17 1010 77 10000 2.1 320 21:27 03.08.2020
792 Clouds 17 1010 77 10000 3.6 340 20:52 03.08.2020
793 Clouds 17 1010 63 10000 3.6 20 19:47 03.08.2020
794 Clouds 18 1010 60 10000 3.6 20 19:23 03.08.2020
795 Clouds 20 1010 60 10000 3.6 30 18:32 03.08.2020
796 Clouds 21 1010 60 10000 3.6 20 17:46 03.08.2020
797 Clouds 22 1010 56 10000 3.6 40 16:39 03.08.2020
798 Clouds 22 1010 56 10000 3.6 40 15:34 03.08.2020
799 Clouds 22 1011 60 10000 3.6 60 14:28 03.08.2020
800 Rain 21 1011 64 10000 3.6 50 13:33 03.08.2020
801 Rain 21 1012 64 10000 2.1 20 12:32 03.08.2020
802 Clouds 19 1012 77 10000 3.1 30 11:31 03.08.2020
803 Clouds 18 1012 88 10000 3.1 360 09:38 03.08.2020
804 Clouds 17 1012 93 10000 3.1 360 09:19 03.08.2020
805 Clouds 18 1013 93 10000 1 200 02:26 03.08.2020
806 Clouds 18 1013 93 10000 1.5 200 01:54 03.08.2020
807 Rain 19 1013 93 10000 2.6 190 00:53 03.08.2020
808 Rain 19 1013 93 10000 1.5 190 23:30 02.08.2020
809 Clouds 20 1013 94 6000 1 0 21:44 02.08.2020
810 Clouds 20 1013 94 7000 2.1 210 21:19 02.08.2020
811 Clouds 20 1013 94 8000 2.6 200 20:36 02.08.2020
812 Clouds 20 1013 88 10000 1.5 230 19:53 02.08.2020
813 Thunderstorm 20 1013 88 10000 1.5 240 19:22 02.08.2020
814 Thunderstorm 20 1013 88 10000 1.5 240 19:22 02.08.2020
815 Clouds 21 1013 88 10000 2.1 280 18:43 02.08.2020
816 Rain 21 1013 94 10000 3.6 250 17:32 02.08.2020
817 Rain 22 1013 83 10000 2.6 240 15:50 02.08.2020
818 Rain 23 1013 83 10000 1.5 210 14:56 02.08.2020
819 Rain 23 1013 83 10000 1.5 210 14:33 02.08.2020
820 Rain 23 1014 69 10000 2.1 270 13:50 02.08.2020
821 Rain 24 1014 64 10000 2.6 300 12:54 02.08.2020
822 Rain 24 1014 69 10000 4.1 320 12:27 02.08.2020
823 Clouds 24 1014 64 10000 4.1 280 11:23 02.08.2020
824 Clouds 24 1013 61 10000 4.6 270 10:44 02.08.2020
825 Clouds 24 1013 64 10000 4.6 270 09:45 02.08.2020
826 Clouds 22 1013 73 10000 1 0 08:47 02.08.2020
827 Clouds 21 1013 73 10000 0.5 130 08:20 02.08.2020
828 Clouds 18 1013 93 10000 0.5 0 04:56 02.08.2020
829 Clouds 19 1013 88 10000 1 0 02:48 02.08.2020
830 Clouds 21 1013 78 10000 1.5 290 00:30 02.08.2020
831 Clouds 22 1014 83 10000 3.1 90 23:29 01.08.2020
832 Rain 28 1013 45 10000 3.1 280 21:43 01.08.2020
833 Clouds 30 1012 35 10000 4.6 310 20:25 01.08.2020
834 Clouds 31 1012 29 10000 1.5 340 19:34 01.08.2020
835 Clouds 33 1013 27 10000 2.1 340 18:41 01.08.2020
836 Clouds 33 1013 26 10000 2.6 340 17:59 01.08.2020
837 Clouds 34 1013 23 10000 2.1 0 16:49 01.08.2020
838 Clouds 35 1013 23 10000 1.5 0 15:58 01.08.2020
839 Clouds 34 1014 23 10000 2.6 310 15:23 01.08.2020
840 Clouds 34 1014 24 10000 4.6 300 14:54 01.08.2020
841 Clouds 33 1015 26 10000 1.5 0 13:22 01.08.2020
842 Clear 30 1015 35 10000 1.5 0 11:47 01.08.2020
843 Clear 28 1015 39 10000 2.1 140 10:56 01.08.2020
844 Clear 18 1016 68 10000 0.5 0 07:27 01.08.2020
845 Clear 18 1016 72 10000 1 0 03:20 01.08.2020
846 Clear 19 1017 63 10000 1 0 01:53 01.08.2020
847 Clear 19 1017 63 10000 1 0 01:32 01.08.2020
848 Clear 22 1016 49 10000 2.1 100 23:36 31.07.2020
849 Clear 26 1016 36 10000 2.1 50 21:59 31.07.2020
850 Clear 29 1016 30 10000 2.1 30 20:47 31.07.2020
851 Clear 30 1016 29 10000 2.6 10 20:28 31.07.2020
852 Clear 31 1016 29 10000 2.6 10 19:54 31.07.2020
853 Clear 32 1016 24 10000 2.1 250 17:57 31.07.2020
854 Clear 33 1016 26 10000 2.6 0 16:43 31.07.2020
855 Clear 32 1017 25 10000 2.6 0 16:24 31.07.2020
856 Clear 31 1017 27 10000 2.6 270 14:53 31.07.2020
857 Clear 30 1018 28 10000 2.1 0 13:41 31.07.2020
858 Clear 29 1019 28 10000 2.1 0 12:44 31.07.2020
859 Clear 28 1019 32 10000 2.1 270 11:59 31.07.2020
860 Clear 27 1019 32 10000 2.1 270 11:30 31.07.2020
861 Clear 25 1019 41 10000 1.5 240 10:41 31.07.2020
862 Clear 22 1019 49 10000 1 0 09:40 31.07.2020
863 Clear 19 1019 52 10000 0.5 0 08:55 31.07.2020
864 Clear 18 1019 55 10000 0.5 0 08:18 31.07.2020
865 Clear 14 1019 71 10000 0.5 0 05:36 31.07.2020
866 Clear 16 1019 59 10000 1.5 80 02:37 31.07.2020
867 Clear 16 1019 59 10000 0.5 0 01:33 31.07.2020
868 Clear 18 1019 59 10000 1 0 00:26 31.07.2020
869 Clear 20 1019 52 10000 2.1 30 22:56 30.07.2020
870 Clear 21 1019 52 10000 2.1 30 22:37 30.07.2020
871 Clear 25 1018 33 10000 1.5 30 21:20 30.07.2020
872 Clear 26 1018 28 10000 2.1 20 20:58 30.07.2020
873 Clear 27 1018 28 10000 2.1 20 20:20 30.07.2020
874 Clear 29 1018 25 10000 2.6 350 19:27 30.07.2020
875 Clear 29 1019 23 10000 2.1 0 18:19 30.07.2020
876 Clear 29 1019 23 10000 3.1 320 17:20 30.07.2020
877 Clear 28 1019 23 10000 2.6 10 16:42 30.07.2020
878 Clear 28 1019 23 10000 3.1 340 16:23 30.07.2020
879 Clear 28 1019 23 10000 2.6 0 15:39 30.07.2020
880 Clear 29 1020 24 10000 3.1 280 14:58 30.07.2020
881 Clear 29 1020 24 10000 3.1 280 14:39 30.07.2020
882 Clear 29 1020 24 10000 2.6 280 14:21 30.07.2020
883 Clear 29 1020 24 10000 2.6 280 14:21 30.07.2020
884 Clear 28 1020 23 10000 2.6 0 13:44 30.07.2020
885 Clear 27 1021 28 10000 2.6 0 13:19 30.07.2020
886 Clear 26 1021 30 10000 2.6 0 12:40 30.07.2020
887 Clear 25 1021 36 10000 2.1 320 11:37 30.07.2020
888 Clear 22 1021 49 10000 1 0 10:28 30.07.2020
889 Clear 20 1021 52 10000 1 0 09:44 30.07.2020
890 Clear 18 1021 59 10000 1 0 09:18 30.07.2020
891 Clear 17 1021 59 10000 1 0 08:44 30.07.2020
892 Clear 12 1021 87 10000 1 0 06:59 30.07.2020
893 Clear 14 1020 71 10000 0.5 0 02:30 30.07.2020
894 Clear 14 1020 67 10000 0.5 0 01:24 30.07.2020
895 Clear 17 1019 52 10000 1 0 23:21 29.07.2020
896 Clear 20 1019 52 10000 1 350 22:22 29.07.2020
897 Clear 21 1019 52 10000 1 350 21:47 29.07.2020
898 Clear 22 1019 35 10000 1 0 21:26 29.07.2020
899 Clouds 24 1018 31 10000 2.1 320 20:41 29.07.2020
900 Clouds 26 1018 24 10000 3.6 310 19:57 29.07.2020
901 Clouds 26 1018 24 10000 3.6 310 19:38 29.07.2020
902 Clouds 26 1018 24 10000 3.6 310 19:19 29.07.2020
903 Clouds 26 1018 24 10000 4.1 310 18:38 29.07.2020
904 Clouds 26 1018 24 10000 4.1 310 18:18 29.07.2020
905 Clouds 26 1018 24 10000 5.1 290 17:28 29.07.2020
906 Clouds 27 1019 26 10000 4.6 310 16:35 29.07.2020
907 Clouds 26 1019 27 10000 4.6 280 15:46 29.07.2020
908 Clouds 26 1019 27 10000 4.1 290 15:21 29.07.2020
909 Clear 25 1019 31 10000 2.6 240 14:22 29.07.2020
910 Clear 25 1020 33 10000 3.1 0 13:55 29.07.2020
911 Clear 24 1020 36 10000 3.6 0 13:20 29.07.2020
912 Clear 23 1020 40 10000 4.6 290 12:24 29.07.2020
913 Clear 22 1020 40 10000 3.6 290 11:59 29.07.2020
914 Clear 22 1020 40 10000 3.6 290 11:37 29.07.2020
915 Clouds 22 1020 43 10000 3.6 310 10:47 29.07.2020
916 Clear 21 1020 49 10000 2.6 310 09:48 29.07.2020
917 Clouds 18 1020 59 10000 1.5 320 08:44 29.07.2020
918 Clouds 17 1020 59 10000 1 0 08:19 29.07.2020
919 Clouds 16 1019 76 10000 1 350 07:23 29.07.2020
920 Clouds 18 1017 55 10000 3.6 280 02:47 29.07.2020
921 Clouds 20 1016 52 10000 3.6 270 00:38 29.07.2020
922 Clouds 21 1015 52 10000 2.1 260 23:20 28.07.2020
923 Clouds 22 1014 49 10000 4.6 310 22:24 28.07.2020
924 Clouds 23 1014 49 10000 4.6 310 21:53 28.07.2020
925 Clouds 24 1013 44 10000 4.1 290 21:24 28.07.2020
926 Clouds 24 1013 41 10000 5.7 290 20:49 28.07.2020
927 Clouds 26 1013 39 10000 6.7 280 20:21 28.07.2020
928 Clouds 26 1013 39 10000 5.7 280 19:50 28.07.2020
929 Clouds 27 1013 39 10000 4.6 260 19:22 28.07.2020
930 Clouds 27 1013 39 10000 7.2 270 18:51 28.07.2020
931 Clouds 27 1013 37 10000 7.2 270 18:21 28.07.2020
932 Clouds 27 1013 37 10000 8.7 250 17:22 28.07.2020
933 Clouds 27 1013 37 10000 8.7 250 17:22 28.07.2020
934 Clouds 27 1013 39 10000 7.7 270 16:45 28.07.2020
935 Clouds 28 1013 42 10000 7.7 270 15:43 28.07.2020
936 Clouds 28 1013 42 10000 8.2 280 14:57 28.07.2020
937 Clouds 27 1013 42 10000 8.2 280 14:36 28.07.2020
938 Clouds 27 1013 42 10000 9.8 270 13:43 28.07.2020
939 Clouds 28 1013 39 10000 8.7 260 12:51 28.07.2020
940 Clear 28 1013 39 10000 8.2 270 12:25 28.07.2020
941 Clear 28 1013 39 10000 8.2 250 11:57 28.07.2020
942 Clear 27 1013 39 10000 7.7 260 11:22 28.07.2020
943 Clear 27 1013 39 10000 6.2 260 10:44 28.07.2020
944 Clear 27 1013 39 10000 7.7 260 10:22 28.07.2020
945 Clear 27 1013 37 10000 6.7 250 09:39 28.07.2020
946 Clear 26 1012 44 10000 4.1 240 09:21 28.07.2020
947 Clear 24 1012 50 10000 2.6 200 08:43 28.07.2020
948 Clear 23 1012 57 10000 2.1 170 08:18 28.07.2020
949 Clear 21 1012 64 10000 1.5 130 07:46 28.07.2020
950 Clouds 21 1012 68 10000 3.6 140 02:21 28.07.2020
951 Clouds 21 1012 68 10000 3.6 140 01:58 28.07.2020
952 Clouds 22 1012 56 10000 5.1 130 00:59 28.07.2020
953 Clouds 22 1012 56 10000 5.1 130 00:20 28.07.2020
954 Clouds 23 1012 56 10000 5.1 130 23:26 27.07.2020
955 Clouds 23 1012 53 10000 5.1 130 22:53 27.07.2020
956 Clouds 24 1012 50 10000 4.6 120 22:21 27.07.2020
957 Clouds 24 1012 50 10000 4.6 120 21:48 27.07.2020
958 Clouds 26 1013 47 10000 4.1 130 21:20 27.07.2020
959 Clouds 26 1013 44 10000 4.1 140 20:42 27.07.2020
960 Clouds 27 1013 39 10000 3.6 150 20:20 27.07.2020
961 Clouds 28 1013 35 10000 4.6 180 19:35 27.07.2020
962 Clouds 28 1013 37 10000 5.1 160 18:57 27.07.2020
963 Clouds 28 1014 34 10000 2.6 190 17:52 27.07.2020
964 Clouds 28 1014 34 10000 2.6 190 17:33 27.07.2020
965 Clouds 29 1014 32 10000 4.1 190 17:00 27.07.2020
966 Clouds 29 1015 32 10000 4.6 180 16:23 27.07.2020
967 Clouds 28 1015 32 10000 5.1 160 15:50 27.07.2020
968 Clouds 28 1015 32 10000 5.1 160 15:31 27.07.2020
969 Clouds 28 1016 36 10000 3.6 160 14:54 27.07.2020
970 Clear 28 1016 36 10000 3.6 160 14:35 27.07.2020
971 Clouds 27 1017 34 10000 3.1 150 13:49 27.07.2020
972 Clouds 27 1017 36 10000 3.1 160 13:28 27.07.2020
973 Clouds 26 1018 38 10000 3.6 120 12:50 27.07.2020
974 Clouds 25 1018 38 10000 3.6 120 12:31 27.07.2020
975 Clouds 24 1018 50 10000 2.6 0 11:25 27.07.2020
976 Clouds 23 1018 50 10000 2.6 0 10:59 27.07.2020
977 Clouds 21 1019 60 10000 2.1 130 09:58 27.07.2020
978 Clouds 20 1019 68 10000 2.1 160 09:38 27.07.2020
979 Clouds 19 1019 77 10000 2.1 90 09:18 27.07.2020
980 Clouds 17 1019 82 10000 2.1 90 08:41 27.07.2020
981 Clouds 15 1019 87 10000 2.6 90 07:55 27.07.2020
982 Clouds 15 1019 93 10000 2.6 100 07:34 27.07.2020
983 Clouds 13 1019 100 10000 3.1 100 06:35 27.07.2020
984 Clouds 15 1019 87 10000 2.6 110 02:50 27.07.2020
985 Clouds 16 1019 87 10000 2.1 130 02:18 27.07.2020
986 Clouds 18 1018 82 10000 1 0 23:47 26.07.2020
987 Clouds 18 1018 82 10000 1 100 23:25 26.07.2020
988 Rain 19 1017 88 10000 1 0 22:42 26.07.2020
989 Rain 19 1017 77 10000 1.5 140 22:21 26.07.2020
990 Rain 20 1017 68 10000 1 0 21:50 26.07.2020
991 Clouds 20 1016 56 10000 3.6 310 21:22 26.07.2020
992 Clouds 21 1015 56 10000 3.1 290 20:51 26.07.2020
993 Clouds 22 1015 46 10000 3.6 280 20:27 26.07.2020
994 Clouds 22 1015 60 10000 2.6 280 19:45 26.07.2020
995 Clouds 22 1015 60 10000 4.1 310 19:24 26.07.2020
996 Clouds 23 1014 60 10000 3.1 310 18:52 26.07.2020
997 Clouds 22 1014 60 10000 4.1 280 18:31 26.07.2020
998 Clouds 22 1014 56 10000 4.6 300 17:50 26.07.2020
999 Clouds 22 1014 56 10000 4.6 300 17:31 26.07.2020
1000 Clouds 22 1014 64 10000 5.1 300 16:57 26.07.2020
1001 Clouds 21 1014 64 10000 5.1 300 16:38 26.07.2020
1002 Thunderstorm 20 1014 72 10000 5.7 320 16:18 26.07.2020
1003 Thunderstorm 21 1014 64 10000 9.8 300 15:42 26.07.2020
1004 Clouds 23 1013 60 10000 3.1 30 15:23 26.07.2020
1005 Thunderstorm 23 1013 64 10000 3.1 0 14:38 26.07.2020
1006 Rain 23 1013 68 10000 5.1 160 13:55 26.07.2020
1007 Clouds 23 1014 73 10000 4.1 210 13:21 26.07.2020
1008 Rain 23 1014 64 10000 3.6 190 12:45 26.07.2020
1009 Clouds 22 1014 64 10000 3.6 190 12:23 26.07.2020
1010 Clouds 21 1014 68 10000 3.1 190 11:51 26.07.2020
1011 Clouds 21 1014 68 10000 3.1 190 11:32 26.07.2020
1012 Clouds 19 1013 82 10000 2.1 140 10:50 26.07.2020
1013 Clouds 18 1013 82 10000 2.1 140 10:25 26.07.2020
1014 Rain 18 1013 88 10000 3.1 120 09:42 26.07.2020
1015 Rain 18 1014 82 10000 1.5 270 08:56 26.07.2020
1016 Rain 17 1013 93 10000 1 0 08:19 26.07.2020
1017 Rain 18 1011 77 10000 1 0 06:57 26.07.2020
1018 Clouds 17 1011 68 10000 3.1 100 03:53 26.07.2020
1019 Clouds 17 1012 63 10000 3.6 90 01:47 26.07.2020
1020 Clouds 18 1012 63 10000 2.6 90 00:31 26.07.2020
1021 Clouds 18 1012 59 10000 3.6 100 23:40 25.07.2020
1022 Clouds 19 1012 55 10000 0.5 0 22:57 25.07.2020
1023 Clouds 21 1012 46 10000 1.5 120 22:21 25.07.2020
1024 Clear 23 1012 44 10000 1 260 21:28 25.07.2020
1025 Clear 24 1012 38 10000 2.1 280 20:56 25.07.2020
1026 Clouds 25 1012 38 10000 2.1 280 20:34 25.07.2020
1027 Clouds 26 1012 32 10000 4.6 250 19:50 25.07.2020
1028 Clouds 27 1012 34 10000 4.6 250 19:23 25.07.2020
1029 Clouds 27 1013 32 10000 4.6 250 18:41 25.07.2020
1030 Clouds 27 1013 32 10000 4.6 240 18:21 25.07.2020
1031 Clouds 27 1013 32 10000 3.1 290 17:43 25.07.2020
1032 Clouds 27 1013 34 10000 4.6 270 17:24 25.07.2020
1033 Clouds 27 1013 34 10000 4.6 270 16:59 25.07.2020
1034 Clouds 27 1013 34 10000 4.1 280 16:38 25.07.2020
1035 Clouds 27 1013 36 10000 4.1 260 15:59 25.07.2020
1036 Clouds 27 1013 36 10000 4.1 260 15:41 25.07.2020
1037 Clouds 27 1014 34 10000 5.1 280 15:20 25.07.2020
1038 Clouds 27 1014 36 10000 4.1 250 14:35 25.07.2020
1039 Clear 26 1014 39 10000 3.1 280 13:58 25.07.2020
1040 Clear 26 1014 39 10000 3.1 280 13:37 25.07.2020
1041 Clear 25 1014 41 10000 4.6 270 13:18 25.07.2020
1042 Clear 25 1014 44 10000 3.1 250 12:46 25.07.2020
1043 Clear 25 1014 44 10000 3.1 0 12:18 25.07.2020
1044 Clear 25 1015 44 10000 3.1 260 11:41 25.07.2020
1045 Clouds 23 1015 49 10000 3.6 230 10:57 25.07.2020
1046 Clouds 23 1015 49 10000 4.1 260 10:37 25.07.2020
1047 Clear 23 1014 49 10000 2.1 260 10:19 25.07.2020
1048 Clear 22 1014 53 10000 2.1 260 09:38 25.07.2020
1049 Clear 21 1014 52 10000 2.1 240 09:19 25.07.2020
1050 Clear 20 1014 52 10000 3.1 260 08:49 25.07.2020
1051 Clear 20 1014 52 10000 1 0 08:22 25.07.2020
1052 Clear 18 1014 59 10000 1.5 110 07:43 25.07.2020
1053 Clear 17 1014 63 10000 1 120 06:56 25.07.2020
1054 Clear 17 1014 59 10000 1 0 04:55 25.07.2020
1055 Clear 19 1013 55 10000 0.5 0 02:44 25.07.2020
1056 Clear 19 1013 52 10000 2.1 260 01:47 25.07.2020
1057 Clouds 19 1013 52 10000 0.5 0 01:24 25.07.2020
1058 Clouds 20 1013 56 10000 1 0 00:47 25.07.2020
1059 Clouds 20 1013 49 10000 0.5 0 00:25 25.07.2020
1060 Clouds 20 1013 49 10000 2.1 280 23:57 24.07.2020
1061 Clouds 20 1013 49 10000 2.1 280 23:38 24.07.2020
1062 Clear 20 1013 49 10000 1 260 23:19 24.07.2020
1063 Clear 21 1013 49 10000 1 260 22:43 24.07.2020
1064 Clear 22 1013 46 10000 2.1 270 22:22 24.07.2020
1065 Clear 23 1012 40 10000 2.1 280 21:49 24.07.2020
1066 Clear 23 1012 38 10000 3.1 290 21:27 24.07.2020
1067 Clear 24 1012 36 10000 4.6 300 20:48 24.07.2020
1068 Clouds 24 1012 33 10000 6.7 290 20:30 24.07.2020
1069 Clouds 25 1011 33 10000 5.7 280 19:47 24.07.2020
1070 Clouds 25 1011 33 10000 5.7 280 19:27 24.07.2020
1071 Clouds 26 1011 29 10000 6.2 270 18:46 24.07.2020
1072 Clouds 27 1011 30 10000 4.6 270 18:25 24.07.2020
1073 Clouds 27 1011 30 10000 5.7 270 17:47 24.07.2020
1074 Clouds 26 1011 31 10000 5.1 270 17:18 24.07.2020
1075 Clouds 26 1012 32 10000 5.7 270 16:43 24.07.2020
1076 Clouds 26 1012 31 10000 6.2 260 16:24 24.07.2020
1077 Clouds 27 1012 30 10000 4.6 280 15:44 24.07.2020
1078 Clouds 28 1012 28 10000 5.1 260 15:23 24.07.2020
1079 Clouds 27 1012 31 10000 5.1 270 14:42 24.07.2020
1080 Clouds 27 1012 32 10000 5.7 280 14:23 24.07.2020
1081 Clouds 26 1012 34 10000 5.7 290 13:42 24.07.2020
1082 Clouds 26 1012 31 10000 5.1 310 13:20 24.07.2020
1083 Clouds 26 1012 31 10000 2.6 0 12:44 24.07.2020
1084 Clouds 25 1013 36 10000 1.5 0 12:19 24.07.2020
1085 Clouds 25 1013 41 10000 2.1 310 11:38 24.07.2020
1086 Clouds 24 1013 44 10000 2.1 0 11:18 24.07.2020
1087 Clouds 22 1013 49 10000 1.5 0 10:44 24.07.2020
1088 Clouds 22 1013 52 10000 1 0 10:19 24.07.2020
1089 Clouds 19 1013 56 10000 1 0 09:44 24.07.2020
1090 Clouds 19 1013 63 10000 0.5 0 09:24 24.07.2020
1091 Clouds 17 1013 63 10000 1 0 08:55 24.07.2020
1092 Clouds 17 1013 63 10000 1 0 08:36 24.07.2020
1093 Clouds 15 1012 72 10000 2.6 110 07:57 24.07.2020
1094 Clouds 15 1012 72 10000 2.6 110 07:37 24.07.2020
1095 Clouds 14 1012 76 10000 1.5 90 07:18 24.07.2020
1096 Clouds 14 1013 81 10000 2.6 100 05:56 24.07.2020
1097 Clouds 14 1013 81 10000 2.6 100 05:32 24.07.2020
1098 Clouds 13 1013 76 10000 2.1 100 04:40 24.07.2020
1099 Clouds 14 1013 76 10000 0.5 0 01:59 24.07.2020
1100 Clouds 16 1013 67 10000 0.5 350 00:49 24.07.2020
1101 Clouds 16 1014 67 10000 0.5 360 00:26 24.07.2020
1102 Clouds 17 1014 63 10000 1 340 23:43 23.07.2020
1103 Clouds 18 1014 63 10000 1 340 23:22 23.07.2020
1104 Clouds 19 1014 55 10000 1 30 22:43 23.07.2020
1105 Clouds 20 1014 49 10000 1.5 30 22:22 23.07.2020
1106 Clouds 21 1013 49 10000 1 360 21:56 23.07.2020
1107 Clouds 21 1013 49 10000 1 360 21:37 23.07.2020
1108 Clear 23 1013 43 10000 2.1 330 21:18 23.07.2020
1109 Clear 24 1013 36 10000 2.1 320 20:42 23.07.2020
1110 Clouds 24 1013 33 10000 3.1 330 20:20 23.07.2020
1111 Clouds 25 1013 33 10000 3.1 330 19:59 23.07.2020
1112 Clouds 26 1014 29 10000 3.6 320 19:38 23.07.2020
1113 Clouds 26 1014 29 10000 3.6 310 19:20 23.07.2020
1114 Clouds 26 1014 28 10000 4.1 300 18:42 23.07.2020
1115 Clouds 26 1014 28 10000 4.6 280 18:22 23.07.2020
1116 Clouds 27 1014 26 10000 4.6 280 17:56 23.07.2020
1117 Clouds 27 1014 26 10000 3.1 0 17:28 23.07.2020
1118 Clouds 27 1014 26 10000 3.1 0 17:28 23.07.2020
1119 Clouds 26 1014 26 10000 3.1 0 16:59 23.07.2020
1120 Clouds 27 1014 26 10000 3.6 320 16:40 23.07.2020
1121 Clouds 27 1015 26 10000 4.6 290 16:19 23.07.2020
1122 Clouds 27 1015 26 10000 4.1 280 15:38 23.07.2020
1123 Clear 27 1015 26 10000 4.1 280 15:19 23.07.2020
1124 Clear 27 1015 28 10000 3.6 340 14:40 23.07.2020
1125 Clear 27 1016 29 10000 2.6 320 14:19 23.07.2020
1126 Clear 26 1016 29 10000 2.1 0 13:58 23.07.2020
1127 Clear 26 1016 29 10000 2.1 0 13:40 23.07.2020
1128 Clear 26 1016 29 10000 2.1 0 13:40 23.07.2020
1129 Clear 25 1016 31 10000 2.6 320 13:21 23.07.2020
1130 Clear 24 1016 36 10000 2.6 10 12:42 23.07.2020
1131 Clear 24 1017 36 10000 2.1 0 12:22 23.07.2020
1132 Clear 24 1017 36 10000 2.1 0 12:22 23.07.2020
1133 Clear 23 1017 38 10000 2.1 0 11:42 23.07.2020
1134 Clear 22 1017 40 10000 1.5 0 11:24 23.07.2020
1135 Clear 22 1017 46 10000 1 0 10:57 23.07.2020
1136 Clear 21 1017 46 10000 1 0 10:38 23.07.2020
1137 Clear 21 1017 49 10000 1 0 10:19 23.07.2020
1138 Clear 20 1017 48 10000 1 0 09:44 23.07.2020
1139 Clouds 17 1017 59 10000 1.5 350 09:26 23.07.2020
1140 Clouds 17 1017 62 10000 2.6 350 08:51 23.07.2020
1141 Clouds 16 1017 62 10000 2.6 350 08:32 23.07.2020
1142 Clouds 14 1017 71 10000 1.5 330 07:52 23.07.2020
1143 Clouds 12 1017 81 10000 0.5 330 07:27 23.07.2020
1144 Clouds 12 1017 87 10000 0.5 10 06:36 23.07.2020
1145 Clouds 12 1017 81 10000 1 0 05:54 23.07.2020
1146 Clouds 12 1017 81 10000 1 0 05:34 23.07.2020
1147 Clouds 12 1017 81 10000 1 340 04:37 23.07.2020
1148 Clouds 13 1017 71 10000 0.5 80 03:30 23.07.2020
1149 Clouds 14 1018 71 10000 0.5 0 01:19 23.07.2020
1150 Clouds 15 1018 67 10000 1 330 00:26 23.07.2020
1151 Clouds 17 1018 51 10000 1.5 100 23:44 22.07.2020
1152 Clouds 17 1018 55 10000 0.5 0 23:24 22.07.2020
1153 Clouds 18 1018 42 10000 1 40 22:59 22.07.2020
1154 Clouds 18 1018 42 10000 1 40 22:39 22.07.2020
1155 Clouds 19 1018 42 10000 2.1 360 22:20 22.07.2020
1156 Clouds 21 1017 35 10000 1.5 10 21:43 22.07.2020
1157 Clouds 22 1017 35 10000 2.1 360 21:20 22.07.2020
1158 Clouds 23 1017 29 10000 4.1 360 20:59 22.07.2020
1159 Clouds 24 1017 29 10000 4.1 360 20:38 22.07.2020
1160 Clouds 24 1017 29 10000 4.1 360 20:20 22.07.2020
1161 Clouds 25 1017 26 10000 4.1 340 19:58 22.07.2020
1162 Clouds 25 1017 26 10000 4.1 340 19:40 22.07.2020
1163 Clouds 25 1017 26 10000 4.1 340 19:19 22.07.2020
1164 Clouds 25 1018 26 10000 2.6 320 18:45 22.07.2020
1165 Clear 26 1018 24 10000 4.1 310 18:24 22.07.2020
1166 Clear 26 1018 24 10000 3.6 320 17:43 22.07.2020
1167 Clear 26 1019 24 10000 1.5 0 17:24 22.07.2020
1168 Clear 25 1019 24 10000 4.1 320 16:56 22.07.2020
1169 Clear 26 1019 24 10000 4.1 320 16:38 22.07.2020
1170 Clear 25 1020 26 10000 2.6 0 16:19 22.07.2020
1171 Clear 27 1020 26 10000 2.6 0 15:56 22.07.2020
1172 Clear 27 1020 26 10000 2.6 0 15:56 22.07.2020
1173 Clear 26 1020 26 10000 2.6 0 15:37 22.07.2020
1174 Clear 26 1020 25 10000 2.1 0 15:18 22.07.2020
1175 Clear 26 1020 27 10000 2.6 0 14:40 22.07.2020
1176 Clear 25 1021 27 10000 1.5 0 14:19 22.07.2020
1177 Clear 25 1021 27 10000 1.5 0 13:43 22.07.2020
1178 Clear 24 1021 29 10000 3.6 310 13:24 22.07.2020
1179 Clear 24 1022 31 10000 2.6 320 12:56 22.07.2020
1180 Clear 23 1022 35 10000 2.6 330 12:38 22.07.2020
1181 Clear 23 1022 35 10000 2.6 330 12:19 22.07.2020
1182 Clear 23 1022 40 10000 1 0 11:54 22.07.2020
1183 Clear 22 1022 40 10000 1 0 11:36 22.07.2020
1184 Clear 22 1022 43 10000 1.5 210 11:18 22.07.2020
1185 Clear 21 1022 45 10000 1.5 0 10:39 22.07.2020
1186 Clear 20 1022 45 10000 1.5 0 10:21 22.07.2020
1187 Clear 19 1022 48 10000 1 0 09:43 22.07.2020
1188 Clear 17 1022 51 10000 1.5 340 09:21 22.07.2020
1189 Clear 16 1022 59 10000 1.5 340 08:44 22.07.2020
1190 Clear 15 1022 67 10000 1.5 340 08:24 22.07.2020
1191 Clear 13 1022 76 10000 0.5 100 07:38 22.07.2020
1192 Clear 13 1022 76 10000 0.5 100 07:18 22.07.2020
1193 Clear 11 1022 87 10000 1 360 06:21 22.07.2020
1194 Clear 11 1022 81 10000 1 350 05:54 22.07.2020
1195 Clear 12 1022 81 10000 1.5 350 05:26 22.07.2020
1196 Clear 12 1022 81 10000 1 330 04:25 22.07.2020
1197 Clear 14 1022 71 10000 1.5 330 02:53 22.07.2020
1198 Clear 15 1022 67 10000 0.5 320 01:45 22.07.2020
1199 Clear 16 1021 59 10000 2.1 340 00:35 22.07.2020
1200 Clear 17 1021 51 10000 2.1 360 23:56 21.07.2020
1201 Clear 17 1021 51 10000 2.1 360 23:38 21.07.2020
1202 Clear 18 1021 52 10000 2.1 350 23:18 21.07.2020
1203 Clear 18 1021 42 10000 2.6 350 22:56 21.07.2020
1204 Clear 19 1021 42 10000 2.6 350 22:37 21.07.2020
1205 Clear 20 1021 42 10000 2.6 350 22:19 21.07.2020
1206 Clear 20 1020 40 10000 2.1 350 21:55 21.07.2020
1207 Clear 21 1020 40 10000 2.1 350 21:37 21.07.2020
1208 Clear 22 1020 35 10000 3.6 320 21:18 21.07.2020
1209 Clear 23 1020 27 10000 4.6 320 20:43 21.07.2020
1210 Clouds 23 1020 29 10000 4.1 340 20:23 21.07.2020
1211 Clouds 24 1020 29 10000 5.1 320 19:46 21.07.2020
1212 Clouds 25 1020 29 10000 4.1 310 19:22 21.07.2020
1213 Clouds 25 1019 29 10000 3.6 300 18:45 21.07.2020
1214 Clouds 26 1020 31 10000 4.1 310 18:26 21.07.2020
1215 Clouds 26 1020 31 10000 4.1 310 17:59 21.07.2020
1216 Clouds 26 1020 31 10000 4.1 310 17:39 21.07.2020
1217 Clouds 25 1020 34 10000 5.7 310 17:20 21.07.2020
1218 Clouds 26 1020 36 10000 5.1 280 16:41 21.07.2020
1219 Clouds 26 1020 36 10000 5.1 310 16:21 21.07.2020
1220 Clouds 26 1020 39 10000 5.1 300 15:47 21.07.2020
1221 Clouds 25 1020 44 10000 4.1 330 15:28 21.07.2020
1222 Clouds 26 1020 47 10000 5.1 320 14:58 21.07.2020
1223 Clouds 26 1020 47 10000 5.1 320 14:39 21.07.2020
1224 Clouds 25 1020 47 10000 4.1 310 14:19 21.07.2020
1225 Clouds 25 1020 47 10000 3.6 290 13:43 21.07.2020
1226 Clouds 25 1021 50 10000 3.1 310 13:23 21.07.2020
1227 Clouds 24 1021 53 10000 4.6 300 12:56 21.07.2020
1228 Clouds 24 1021 53 10000 4.6 300 12:38 21.07.2020
1229 Clouds 24 1021 53 10000 3.1 310 12:20 21.07.2020
1230 Clouds 23 1021 56 10000 3.1 340 11:54 21.07.2020
1231 Clouds 23 1021 56 10000 3.1 340 11:36 21.07.2020
1232 Clouds 23 1020 56 10000 3.6 330 11:18 21.07.2020
1233 Clouds 22 1020 60 10000 2.1 0 10:41 21.07.2020
1234 Clouds 22 1020 64 10000 2.1 330 10:21 21.07.2020
1235 Clouds 22 1020 64 10000 2.1 330 10:21 21.07.2020
1236 Clouds 20 1020 68 10000 2.1 0 09:44 21.07.2020
1237 Clouds 18 1020 72 10000 1.5 320 09:25 21.07.2020
1238 Clear 18 1020 77 10000 2.6 340 08:47 21.07.2020
1239 Clouds 18 1020 82 10000 2.1 360 08:26 21.07.2020
1240 Clouds 17 1020 82 10000 2.6 340 07:53 21.07.2020
1241 Clouds 16 1020 82 10000 2.6 340 07:35 21.07.2020
1242 Clouds 15 1019 87 10000 2.1 350 06:59 21.07.2020
1243 Rain 15 1019 87 10000 2.6 340 06:30 21.07.2020
1244 Clouds 16 1019 93 10000 2.6 360 04:31 21.07.2020
1245 Clouds 17 1019 82 10000 2.6 10 03:31 21.07.2020
1246 Clouds 17 1019 77 10000 2.1 10 02:21 21.07.2020
1247 Clouds 19 1019 68 10000 1 0 00:56 21.07.2020
1248 Clouds 19 1019 72 10000 2.1 10 00:37 21.07.2020
1249 Clouds 19 1019 72 10000 2.1 10 00:19 21.07.2020
1250 Clouds 19 1019 72 10000 1.5 360 23:44 20.07.2020
1251 Clouds 20 1018 64 10000 1 360 23:25 20.07.2020
1252 Clouds 20 1018 68 10000 1.5 330 22:58 20.07.2020
1253 Clouds 21 1018 68 10000 1.5 330 22:39 20.07.2020
1254 Clouds 22 1018 56 10000 1.5 350 22:18 20.07.2020
1255 Rain 22 1017 53 10000 3.1 10 21:45 20.07.2020
1256 Rain 23 1018 50 10000 1.5 310 21:26 20.07.2020
1257 Clouds 23 1017 50 10000 1.5 10 20:57 20.07.2020
1258 Clouds 23 1017 50 10000 1.5 10 20:39 20.07.2020
1259 Rain 24 1017 44 10000 2.6 10 20:19 20.07.2020
1260 Rain 25 1017 44 10000 4.6 360 19:38 20.07.2020
1261 Clear 26 1017 44 10000 4.6 360 19:19 20.07.2020
1262 Clouds 26 1017 44 10000 5.1 360 18:57 20.07.2020
1263 Clouds 26 1017 44 10000 5.1 360 18:39 20.07.2020
1264 Rain 26 1017 44 10000 5.1 360 18:18 20.07.2020
1265 Clear 28 1016 42 10000 6.2 360 17:42 20.07.2020
1266 Clear 28 1016 30 10000 5.7 310 17:23 20.07.2020
1267 Clear 29 1016 30 10000 4.6 340 16:47 20.07.2020
1268 Clear 28 1016 30 10000 6.2 310 16:20 20.07.2020
1269 Clear 29 1016 28 10000 3.1 0 15:46 20.07.2020
1270 Clear 28 1016 32 10000 4.6 310 15:20 20.07.2020
1271 Clear 29 1016 23 10000 4.1 250 14:55 20.07.2020
1272 Clear 29 1016 23 10000 4.1 250 14:37 20.07.2020
1273 Clouds 29 1016 28 10000 3.1 230 14:18 20.07.2020
1274 Clouds 28 1016 28 10000 3.1 0 13:41 20.07.2020
1275 Rain 28 1017 34 10000 1.5 0 13:22 20.07.2020
1276 Rain 28 1017 34 10000 1.5 0 12:59 20.07.2020
1277 Rain 28 1017 34 10000 3.1 0 12:41 20.07.2020
1278 Rain 27 1017 34 10000 2.1 0 12:19 20.07.2020
1279 Rain 27 1016 39 10000 1.5 0 11:58 20.07.2020
1280 Rain 26 1016 39 10000 1.5 0 11:40 20.07.2020
1281 Clouds 26 1016 44 10000 2.1 270 11:21 20.07.2020
1282 Clouds 25 1016 44 10000 2.1 190 10:44 20.07.2020
1283 Clouds 24 1016 47 10000 2.1 200 10:26 20.07.2020
1284 Clouds 23 1016 60 10000 1.5 140 09:57 20.07.2020
1285 Clouds 22 1016 60 10000 1.5 140 09:38 20.07.2020
1286 Clouds 21 1016 64 10000 1.5 150 09:20 20.07.2020
1287 Clouds 19 1016 72 10000 1.5 110 08:45 20.07.2020
1288 Clouds 18 1016 77 10000 1.5 110 08:25 20.07.2020
1289 Clouds 16 1016 82 10000 1.5 100 07:43 20.07.2020
1290 Clouds 16 1016 87 10000 3.1 100 07:21 20.07.2020
1291 Clouds 15 1016 93 10000 3.1 100 06:43 20.07.2020
1292 Clouds 15 1016 100 10000 2.6 100 05:46 20.07.2020
1293 Clear 16 1016 87 10000 0.5 0 02:50 20.07.2020
1294 Clouds 19 1016 68 10000 0.97 193 00:57 20.07.2020
1295 Clouds 20 1016 72 10000 0.5 210 00:20 20.07.2020
1296 Clouds 20 1016 64 10000 0.5 0 23:46 19.07.2020
1297 Clouds 21 1016 60 10000 1 340 23:27 19.07.2020
1298 Clouds 22 1016 60 10000 1 290 22:58 19.07.2020
1299 Clouds 21 1016 60 10000 1 290 22:37 19.07.2020
1300 Clouds 23 1016 56 10000 1 300 22:18 19.07.2020
1301 Clouds 24 1015 50 10000 1.5 360 21:43 19.07.2020
1302 Clouds 24 1015 47 10000 2.1 360 21:23 19.07.2020
1303 Clouds 25 1015 47 10000 2.1 360 21:00 19.07.2020
1304 Clouds 25 1015 47 10000 2.1 340 20:41 19.07.2020
1305 Rain 26 1015 36 10000 2.6 330 20:20 19.07.2020
1306 Rain 26 1015 36 10000 3.1 310 19:57 19.07.2020
1307 Rain 27 1015 36 10000 3.1 310 19:37 19.07.2020
1308 Clouds 27 1015 39 10000 3.1 310 19:18 19.07.2020
1309 Rain 27 1015 39 10000 2.6 310 18:41 19.07.2020
1310 Rain 27 1015 39 10000 3.6 290 18:23 19.07.2020
1311 Rain 28 1015 37 10000 3.6 280 17:49 19.07.2020
1312 Clouds 28 1015 37 10000 2.6 60 17:29 19.07.2020
1313 Clouds 27 1015 36 10000 1 0 16:58 19.07.2020
1314 Clouds 28 1015 36 10000 1 0 16:39 19.07.2020
1315 Rain 29 1015 35 10000 3.6 310 16:20 19.07.2020
1316 Rain 28 1016 34 10000 1.5 0 15:49 19.07.2020
1317 Rain 28 1016 37 10000 2.6 0 15:30 19.07.2020
1318 Rain 28 1016 39 10000 2.6 200 14:48 19.07.2020
1319 Rain 27 1016 39 10000 2.1 230 14:27 19.07.2020
1320 Rain 27 1017 42 10000 1.5 0 13:59 19.07.2020
1321 Rain 26 1017 42 10000 1.5 0 13:40 19.07.2020
1322 Clouds 26 1017 44 10000 1.5 0 13:21 19.07.2020
1323 Clouds 26 1017 44 10000 2.1 0 12:47 19.07.2020
1324 Clouds 26 1017 41 10000 2.1 0 12:24 19.07.2020
1325 Clouds 25 1017 47 10000 1.5 0 11:46 19.07.2020
1326 Clouds 25 1017 50 10000 2.1 320 11:27 19.07.2020
1327 Clouds 24 1017 50 10000 2.1 320 10:58 19.07.2020
1328 Clouds 24 1018 50 10000 1.5 310 10:40 19.07.2020
1329 Clouds 23 1018 56 10000 1.5 0 10:21 19.07.2020
1330 Clouds 21 1018 60 10000 0.5 0 09:44 19.07.2020
1331 Clouds 20 1018 64 10000 1.5 110 09:22 19.07.2020
1332 Clouds 19 1018 72 10000 1.5 130 08:47 19.07.2020
1333 Clouds 17 1018 72 10000 1.5 110 08:26 19.07.2020
1334 Clouds 15 1018 82 10000 2.1 100 07:51 19.07.2020
1335 Clouds 15 1018 87 10000 0.5 0 07:27 19.07.2020
1336 Clouds 13 1018 87 10000 0.5 0 06:49 19.07.2020
1337 Clouds 13 1018 93 10000 1 0 06:21 19.07.2020
1338 Clouds 13 1018 87 10000 2.6 100 05:51 19.07.2020
1339 Clear 13 1018 93 10000 1.5 90 04:45 19.07.2020
1340 Clear 15 1019 82 10000 0.5 0 02:47 19.07.2020
1341 Clear 15 1019 77 10000 2.6 110 02:23 19.07.2020
1342 Clear 16 1019 77 10000 3.6 100 01:44 19.07.2020
1343 Clear 17 1019 68 10000 3.6 100 00:57 19.07.2020
1344 Clear 18 1019 63 10000 2.6 100 00:23 19.07.2020
1345 Clear 18 1019 63 10000 2.6 100 00:23 19.07.2020
1346 Clear 19 1019 64 10000 2.6 100 23:55 18.07.2020
1347 Clear 19 1019 64 10000 2.6 100 23:55 18.07.2020
1348 Clear 19 1019 64 10000 2.6 100 23:37 18.07.2020
1349 Clear 19 1019 64 10000 2.6 100 23:37 18.07.2020
1350 Clear 19 1019 60 10000 2.1 100 23:18 18.07.2020
1351 Clear 20 1018 64 10000 0.5 0 22:42 18.07.2020
1352 Clear 20 1018 60 10000 1 40 22:19 18.07.2020
1353 Clear 21 1018 56 10000 1 30 21:48 18.07.2020
1354 Clear 22 1018 56 10000 1 30 21:29 18.07.2020
1355 Clear 22 1018 56 10000 1 30 20:58 18.07.2020
1356 Clear 23 1018 53 10000 1 30 20:40 18.07.2020
1357 Clouds 23 1018 46 10000 1.5 40 20:20 18.07.2020
1358 Clouds 24 1018 44 10000 2.1 350 19:41 18.07.2020
1359 Clouds 23 1018 44 10000 1 0 19:21 18.07.2020
1360 Clouds 24 1018 44 10000 1.5 40 18:46 18.07.2020
1361 Clouds 24 1018 44 10000 1.5 300 18:21 18.07.2020
1362 Clouds 24 1018 47 10000 2.6 10 17:48 18.07.2020
1363 Clouds 25 1018 41 10000 3.1 0 17:24 18.07.2020
1364 Clouds 25 1018 41 10000 2.1 30 17:00 18.07.2020
1365 Clouds 25 1018 41 10000 2.1 30 16:40 18.07.2020
1366 Clouds 24 1018 44 10000 2.6 320 16:21 18.07.2020
1367 Clouds 24 1019 43 10000 4.1 360 15:47 18.07.2020
1368 Rain 24 1019 44 10000 3.1 0 15:28 18.07.2020
1369 Clouds 24 1019 43 10000 2.6 0 14:58 18.07.2020
1370 Clouds 24 1019 43 10000 2.6 0 14:39 18.07.2020
1371 Clouds 24 1019 46 10000 3.6 360 14:21 18.07.2020
1372 Clouds 24 1019 44 10000 2.1 20 13:44 18.07.2020
1373 Clouds 23 1020 49 10000 3.1 350 13:26 18.07.2020
1374 Clouds 23 1020 46 10000 3.1 340 12:57 18.07.2020
1375 Clouds 23 1020 46 10000 3.1 340 12:39 18.07.2020
1376 Clouds 22 1020 49 10000 2.6 10 12:19 18.07.2020
1377 Clouds 21 1020 56 10000 3.1 350 11:57 18.07.2020
1378 Clouds 21 1020 56 10000 3.1 350 11:39 18.07.2020
1379 Clouds 21 1020 56 10000 1.5 0 11:18 18.07.2020
1380 Clouds 20 1020 56 10000 2.1 0 10:44 18.07.2020
1381 Clouds 20 1020 63 10000 1.5 0 10:26 18.07.2020
1382 Clouds 18 1021 68 10000 1 0 09:49 18.07.2020
1383 Clouds 17 1021 67 10000 1.5 300 09:28 18.07.2020
1384 Clouds 16 1021 72 10000 1 0 08:56 18.07.2020
1385 Clouds 16 1021 72 10000 1 0 08:37 18.07.2020
1386 Clouds 14 1020 77 10000 0.5 0 08:19 18.07.2020
1387 Clouds 13 1020 87 10000 0.5 0 07:42 18.07.2020
1388 Clouds 12 1020 87 10000 0.5 0 07:23 18.07.2020
1389 Clouds 11 1020 100 10000 0.5 0 06:50 18.07.2020
1390 Clear 12 1020 93 10000 0.5 0 04:56 18.07.2020
1391 Clear 12 1021 93 10000 1 70 04:29 18.07.2020
1392 Clear 12 1021 93 10000 1 0 02:30 18.07.2020
1393 Clouds 13 1021 87 10000 0.5 0 01:24 18.07.2020
1394 Clouds 13 1021 82 10000 1.5 100 00:39 18.07.2020
1395 Clouds 13 1021 82 10000 2.1 110 23:58 17.07.2020
1396 Clouds 13 1021 82 10000 2.1 110 23:39 17.07.2020
1397 Clouds 14 1021 76 10000 0.5 0 23:19 17.07.2020
1398 Clouds 15 1021 77 10000 1 360 22:43 17.07.2020
1399 Clouds 16 1020 67 10000 1 350 22:22 17.07.2020
1400 Clouds 17 1020 55 10000 1 0 21:59 17.07.2020
1401 Clouds 18 1020 55 10000 1 0 21:41 17.07.2020
1402 Clouds 19 1020 52 10000 1 0 21:22 17.07.2020
1403 Clouds 19 1020 49 10000 1 30 20:56 17.07.2020
1404 Clouds 20 1020 45 10000 3.1 340 20:37 17.07.2020
1405 Clouds 20 1020 45 10000 3.1 340 20:18 17.07.2020
1406 Clouds 20 1020 42 10000 5.1 320 19:44 17.07.2020
1407 Clouds 21 1020 40 10000 4.6 320 19:21 17.07.2020
1408 Clouds 20 1020 43 10000 5.1 320 18:49 17.07.2020
1409 Clouds 20 1020 43 10000 5.1 320 18:49 17.07.2020
1410 Clouds 21 1019 40 10000 5.1 320 18:26 17.07.2020
1411 Clouds 21 1020 40 10000 4.6 330 17:46 17.07.2020
1412 Clouds 22 1020 43 10000 4.6 330 17:27 17.07.2020
1413 Clouds 21 1020 43 10000 5.7 340 16:58 17.07.2020
1414 Clouds 21 1020 43 10000 5.7 340 16:39 17.07.2020
1415 Clouds 22 1020 37 10000 5.7 350 16:19 17.07.2020
1416 Clouds 21 1020 43 10000 4.6 350 15:40 17.07.2020
1417 Clouds 21 1020 43 10000 5.1 350 15:19 17.07.2020
1418 Clouds 21 1020 40 10000 4.1 330 14:43 17.07.2020
1419 Clouds 21 1020 43 10000 4.1 320 14:22 17.07.2020
1420 Clouds 21 1020 46 10000 3.1 340 13:57 17.07.2020
1421 Clouds 21 1020 46 10000 3.1 340 13:39 17.07.2020
1422 Clouds 20 1020 52 10000 3.1 340 13:19 17.07.2020
1423 Clouds 18 1020 63 10000 4.1 10 12:42 17.07.2020
1424 Clouds 18 1020 63 10000 3.1 340 12:21 17.07.2020
1425 Clouds 18 1020 68 10000 2.6 0 11:56 17.07.2020
1426 Clouds 17 1020 68 10000 2.6 0 11:38 17.07.2020
1427 Clouds 17 1020 72 10000 1.5 0 11:20 17.07.2020
1428 Clouds 17 1020 77 10000 1.5 330 10:55 17.07.2020
1429 Clouds 16 1020 77 10000 1.5 330 10:36 17.07.2020
1430 Clouds 16 1020 77 10000 1 0 10:18 17.07.2020
1431 Clouds 15 1020 82 10000 1 0 09:55 17.07.2020
1432 Clouds 14 1020 82 10000 1 0 09:36 17.07.2020
1433 Clouds 14 1020 82 10000 1 0 09:18 17.07.2020
1434 Clouds 14 1020 87 10000 1.5 340 08:39 17.07.2020
1435 Clouds 13 1019 93 9000 1.5 310 08:18 17.07.2020
1436 Clouds 13 1019 87 7000 1.5 340 07:39 17.07.2020
1437 Clouds 13 1019 100 6000 2.1 10 07:18 17.07.2020
1438 Clouds 13 1019 100 6000 1 0 06:48 17.07.2020
1439 Clouds 13 1018 100 7000 1 0 05:49 17.07.2020
1440 Mist 13 1018 93 4300 1 0 04:47 17.07.2020
1441 Mist 13 1018 93 3500 1 240 02:24 17.07.2020
1442 Mist 14 1019 93 4700 1 0 01:26 17.07.2020
1443 Clouds 14 1019 93 6000 1 270 00:43 17.07.2020
1444 Clouds 14 1019 93 6000 2.1 270 00:21 17.07.2020
1445 Clouds 14 1019 93 8000 1.5 270 23:43 16.07.2020
1446 Clouds 14 1018 93 10000 2.6 260 23:20 16.07.2020
1447 Clouds 14 1018 93 10000 2.6 260 23:20 16.07.2020
1448 Clouds 14 1018 93 10000 2.1 250 22:46 16.07.2020
1449 Clouds 14 1018 93 10000 2.1 260 22:25 16.07.2020
1450 Rain 14 1018 100 8000 2.6 250 21:58 16.07.2020
1451 Rain 14 1018 87 10000 2.1 250 21:39 16.07.2020
1452 Rain 14 1018 87 10000 2.1 250 21:21 16.07.2020
1453 Rain 14 1018 87 10000 2.1 250 20:58 16.07.2020
1454 Clouds 15 1017 87 10000 1.5 250 20:40 16.07.2020
1455 Clouds 15 1017 87 10000 1.5 250 20:40 16.07.2020
1456 Clouds 15 1017 87 10000 1.5 260 20:21 16.07.2020
1457 Clouds 15 1017 87 10000 1.5 250 19:56 16.07.2020
1458 Clouds 15 1017 87 10000 1.5 230 19:38 16.07.2020
1459 Clouds 15 1017 87 10000 1.5 230 19:20 16.07.2020
1460 Clouds 15 1017 87 8000 2.1 210 18:41 16.07.2020
1461 Drizzle 14 1017 93 3000 1.5 230 18:23 16.07.2020
1462 Drizzle 14 1018 93 4000 1 0 17:41 16.07.2020
1463 Drizzle 15 1017 87 5000 1 0 17:20 16.07.2020
1464 Drizzle 14 1018 93 5000 1 0 16:59 16.07.2020
1465 Drizzle 14 1018 93 5000 1 0 16:40 16.07.2020
1466 Drizzle 14 1018 87 5000 1.5 290 16:22 16.07.2020
1467 Drizzle 15 1018 82 9000 1.5 260 15:57 16.07.2020
1468 Drizzle 15 1018 82 9000 1.5 260 15:39 16.07.2020
1469 Drizzle 14 1018 93 10000 1.5 20 15:21 16.07.2020
1470 Rain 15 1018 82 10000 1 0 14:41 16.07.2020
1471 Clouds 15 1018 82 10000 1.5 350 14:22 16.07.2020
1472 Rain 14 1018 87 10000 2.1 330 14:00 16.07.2020
1473 Rain 15 1018 87 10000 2.1 330 13:38 16.07.2020
1474 Rain 15 1018 87 10000 2.1 350 13:20 16.07.2020
1475 Rain 15 1018 87 10000 1.5 360 12:45 16.07.2020
1476 Rain 15 1018 77 10000 2.6 300 12:22 16.07.2020
1477 Rain 15 1018 82 10000 2.1 280 11:59 16.07.2020
1478 Rain 15 1018 82 10000 2.1 280 11:37 16.07.2020
1479 Rain 15 1018 82 10000 2.1 280 11:37 16.07.2020
1480 Clouds 15 1018 82 10000 2.1 230 11:18 16.07.2020
1481 Clouds 15 1017 82 10000 2.1 220 10:55 16.07.2020
1482 Clouds 15 1017 82 10000 2.1 220 10:37 16.07.2020
1483 Rain 15 1017 82 10000 2.1 240 10:18 16.07.2020
1484 Clouds 14 1017 82 10000 2.6 250 09:41 16.07.2020
1485 Rain 14 1017 87 10000 2.6 240 09:23 16.07.2020
1486 Rain 14 1017 87 10000 1.5 220 08:43 16.07.2020
1487 Rain 14 1017 87 10000 1 0 08:25 16.07.2020
1488 Clouds 14 1017 93 10000 1.5 190 07:48 16.07.2020
1489 Rain 14 1017 93 10000 1.5 190 07:27 16.07.2020
1490 Rain 14 1016 93 9000 1.5 210 06:58 16.07.2020
1491 Rain 14 1016 93 8000 1 0 06:38 16.07.2020
1492 Rain 14 1016 93 8000 1 0 06:19 16.07.2020
1493 Drizzle 13 1016 100 10000 1 0 05:34 16.07.2020
1494 Clouds 13 1016 93 10000 1.5 150 04:30 16.07.2020
1495 Clouds 13 1016 87 10000 1 0 03:40 16.07.2020
1496 Clouds 13 1016 100 10000 1 0 03:22 16.07.2020
1497 Clouds 13 1016 100 10000 0.5 0 02:30 16.07.2020
1498 Fog 13 1016 100 10000 1 0 01:52 16.07.2020
1499 Fog 13 1016 93 10000 0.5 0 01:21 16.07.2020
1500 Clouds 13 1016 93 10000 1 110 00:39 16.07.2020
1501 Clouds 14 1016 93 10000 1 170 23:58 15.07.2020
1502 Clouds 14 1016 93 10000 1 170 23:40 15.07.2020
1503 Clouds 15 1016 93 10000 1 0 23:22 15.07.2020
1504 Clouds 15 1016 93 10000 1 0 22:58 15.07.2020
1505 Clouds 15 1016 93 10000 1.5 160 22:38 15.07.2020
1506 Clouds 15 1015 93 10000 2.6 60 22:18 15.07.2020
1507 Clouds 16 1015 93 10000 1.5 70 21:55 15.07.2020
1508 Clouds 16 1015 87 10000 1 60 21:37 15.07.2020
1509 Clouds 16 1015 87 10000 1 60 21:19 15.07.2020
1510 Clouds 17 1015 82 10000 1 0 20:55 15.07.2020
1511 Clouds 17 1014 82 10000 1 0 20:36 15.07.2020
1512 Clouds 17 1014 82 10000 1 0 20:36 15.07.2020
1513 Clouds 17 1014 82 10000 1 0 20:18 15.07.2020
1514 Clouds 17 1014 77 10000 3.1 320 19:54 15.07.2020
1515 Clouds 17 1014 82 10000 4.6 240 19:36 15.07.2020
1516 Clouds 17 1014 82 10000 4.6 240 19:18 15.07.2020
1517 Clouds 17 1014 88 10000 3.6 250 18:41 15.07.2020
1518 Rain 17 1014 87 10000 5.1 250 18:22 15.07.2020
1519 Rain 19 1013 68 10000 4.6 240 17:57 15.07.2020
1520 Clouds 19 1013 60 10000 4.1 240 17:38 15.07.2020
1521 Clouds 19 1013 60 10000 4.1 240 17:20 15.07.2020
1522 Clouds 19 1013 68 10000 4.1 200 16:55 15.07.2020
1523 Clouds 18 1013 68 10000 4.1 200 16:37 15.07.2020
1524 Clouds 18 1013 68 10000 4.1 220 16:18 15.07.2020
1525 Clouds 19 1014 68 10000 3.1 230 15:41 15.07.2020
1526 Clouds 18 1014 77 10000 3.1 210 15:22 15.07.2020
1527 Rain 18 1014 77 10000 3.6 240 14:56 15.07.2020
1528 Rain 18 1014 77 10000 3.6 240 14:37 15.07.2020
1529 Rain 18 1014 72 10000 5.1 240 14:18 15.07.2020
1530 Rain 18 1014 77 10000 4.1 260 13:42 15.07.2020
1531 Rain 17 1014 82 10000 4.6 260 13:24 15.07.2020
1532 Rain 17 1014 88 10000 4.6 260 12:56 15.07.2020
1533 Rain 17 1014 88 10000 4.6 260 12:38 15.07.2020
1534 Rain 16 1014 87 10000 4.1 240 12:19 15.07.2020
1535 Rain 17 1014 87 10000 4.6 250 11:44 15.07.2020
1536 Rain 17 1014 77 10000 4.1 230 11:22 15.07.2020
1537 Rain 17 1014 77 10000 4.1 230 10:58 15.07.2020
1538 Rain 17 1014 82 10000 4.1 220 10:40 15.07.2020
1539 Drizzle 17 1013 77 10000 3.1 230 10:21 15.07.2020
1540 Drizzle 17 1013 72 10000 3.1 230 09:44 15.07.2020
1541 Drizzle 17 1013 77 10000 2.6 270 09:26 15.07.2020
1542 Drizzle 17 1013 82 10000 1.5 270 08:57 15.07.2020
1543 Drizzle 16 1013 82 10000 1.5 270 08:39 15.07.2020
1544 Rain 16 1013 82 10000 2.1 270 08:20 15.07.2020
1545 Rain 16 1013 82 10000 2.1 280 07:41 15.07.2020
1546 Rain 16 1013 82 10000 2.1 280 07:22 15.07.2020
1547 Clouds 16 1013 82 10000 2.1 300 06:39 15.07.2020
1548 Rain 16 1012 72 10000 1 200 05:52 15.07.2020
1549 Rain 17 1012 63 10000 0.5 250 04:55 15.07.2020
1550 Rain 17 1012 63 10000 0.5 250 04:29 15.07.2020
1551 Clouds 17 1012 67 10000 1.5 0 02:32 15.07.2020
1552 Clouds 17 1012 59 10000 3.1 100 01:52 15.07.2020
1553 Clouds 17 1012 59 10000 4.1 100 01:24 15.07.2020
1554 Clouds 18 1012 59 10000 3.1 100 00:43 15.07.2020
1555 Clouds 18 1013 59 10000 3.6 100 00:25 15.07.2020
1556 Clouds 18 1013 55 10000 3.1 100 23:43 14.07.2020
1557 Clouds 18 1013 55 10000 3.1 100 23:23 14.07.2020
1558 Clouds 19 1013 55 10000 3.6 100 22:40 14.07.2020
1559 Clouds 19 1012 49 10000 3.1 90 22:19 14.07.2020
1560 Clouds 20 1012 46 10000 2.1 90 21:56 14.07.2020
1561 Clouds 20 1012 46 10000 2.1 90 21:38 14.07.2020
1562 Clouds 21 1012 43 10000 1.5 90 21:19 14.07.2020
1563 Clouds 22 1013 40 10000 1.5 100 20:57 14.07.2020
1564 Clouds 22 1013 40 10000 1.5 100 20:38 14.07.2020
1565 Clouds 23 1013 43 10000 1 90 20:19 14.07.2020
1566 Clouds 24 1013 33 10000 1.5 0 19:40 14.07.2020
1567 Clouds 24 1013 33 10000 1.5 0 19:22 14.07.2020
1568 Clouds 24 1013 33 10000 2.1 80 18:55 14.07.2020
1569 Clouds 24 1013 36 10000 2.1 90 18:37 14.07.2020
1570 Clouds 24 1013 36 10000 2.1 90 18:18 14.07.2020
1571 Clouds 24 1013 38 10000 1.5 50 17:41 14.07.2020
1572 Clouds 24 1014 36 10000 2.6 10 17:23 14.07.2020
1573 Clouds 24 1014 36 10000 3.1 100 16:57 14.07.2020
1574 Clouds 24 1014 36 10000 3.1 100 16:38 14.07.2020
1575 Clouds 24 1014 36 10000 4.1 120 16:20 14.07.2020
1576 Clouds 26 1014 29 10000 2.6 250 15:55 14.07.2020
1577 Clouds 25 1014 29 10000 2.6 250 15:36 14.07.2020
1578 Clouds 25 1014 29 10000 2.6 250 15:36 14.07.2020
1579 Clouds 25 1014 33 10000 2.6 120 15:18 14.07.2020
1580 Clouds 24 1015 33 10000 2.1 80 14:42 14.07.2020
1581 Clouds 24 1015 33 10000 3.1 0 14:24 14.07.2020
1582 Clouds 24 1015 33 10000 3.1 0 14:24 14.07.2020
1583 Clouds 24 1015 33 10000 2.1 0 13:42 14.07.2020
1584 Clouds 24 1016 33 10000 3.1 200 13:24 14.07.2020
1585 Clouds 24 1016 33 10000 1.5 0 12:56 14.07.2020
1586 Clouds 24 1016 33 10000 1.5 0 12:37 14.07.2020
1587 Clouds 22 1016 38 10000 2.1 0 12:19 14.07.2020
1588 Clouds 22 1017 40 10000 1.5 230 11:44 14.07.2020
1589 Clouds 22 1017 46 10000 2.1 220 11:21 14.07.2020
1590 Clouds 22 1017 40 10000 1.5 0 10:56 14.07.2020
1591 Clouds 22 1017 40 10000 1.5 0 10:38 14.07.2020
1592 Clouds 21 1017 43 10000 2.6 150 10:18 14.07.2020
1593 Clouds 20 1017 49 10000 3.1 130 09:40 14.07.2020
1594 Clouds 19 1017 52 10000 3.1 130 09:21 14.07.2020
1595 Clouds 17 1017 55 10000 3.1 130 08:44 14.07.2020
1596 Clouds 16 1018 63 10000 2.1 120 08:25 14.07.2020
1597 Clouds 15 1018 67 10000 1.5 110 07:59 14.07.2020
1598 Clouds 15 1018 67 10000 1.5 110 07:38 14.07.2020
1599 Clouds 14 1018 71 10000 2.6 110 07:18 14.07.2020
1600 Clouds 12 1018 81 10000 2.1 110 06:47 14.07.2020
1601 Clouds 12 1018 76 10000 1.5 120 06:24 14.07.2020
1602 Clouds 12 1018 81 10000 1.5 120 05:36 14.07.2020
1603 Clouds 12 1018 76 10000 2.1 110 04:37 14.07.2020
1604 Clouds 13 1018 81 10000 2.1 100 03:47 14.07.2020
1605 Clouds 13 1019 76 10000 1.5 90 02:51 14.07.2020
1606 Clouds 14 1019 71 10000 1 0 02:25 14.07.2020
1607 Clouds 13 1019 67 10000 2.6 110 01:36 14.07.2020
1608 Clouds 14 1019 62 10000 3.1 100 00:55 14.07.2020
1609 Clouds 16 1019 59 10000 3.6 100 00:36 14.07.2020
1610 Clouds 16 1019 59 10000 3.6 100 00:18 14.07.2020
1611 Clouds 16 1019 59 10000 2.6 100 23:37 13.07.2020
1612 Clouds 16 1019 55 10000 1.5 80 23:19 13.07.2020
1613 Clouds 17 1019 52 10000 2.1 80 22:42 13.07.2020
1614 Clouds 18 1019 55 10000 1.5 60 22:22 13.07.2020
1615 Clouds 20 1019 55 10000 1.5 50 21:57 13.07.2020
1616 Clouds 21 1019 46 10000 2.1 30 21:39 13.07.2020
1617 Clouds 20 1019 55 10000 1.5 50 21:39 13.07.2020
1618 Clouds 21 1019 46 10000 2.1 30 21:20 13.07.2020
1619 Clouds 21 1019 46 10000 2.1 30 20:58 13.07.2020
1620 Clouds 22 1019 46 10000 2.1 30 20:39 13.07.2020
1621 Clouds 23 1019 35 10000 2.1 40 20:21 13.07.2020
1622 Clouds 23 1020 33 10000 1.5 60 19:45 13.07.2020
1623 Clouds 24 1020 33 10000 1.5 60 19:26 13.07.2020
1624 Clouds 23 1020 35 10000 2.6 100 18:59 13.07.2020
1625 Clouds 24 1020 35 10000 2.6 100 18:40 13.07.2020
1626 Clouds 24 1020 33 10000 2.6 10 18:21 13.07.2020
1627 Clouds 24 1020 33 10000 3.1 80 17:56 13.07.2020
1628 Clouds 24 1020 33 10000 3.1 80 17:38 13.07.2020
1629 Clouds 24 1021 31 10000 2.6 120 17:20 13.07.2020
1630 Clouds 24 1021 31 10000 2.1 70 16:55 13.07.2020
1631 Clouds 25 1021 31 10000 2.1 70 16:37 13.07.2020
1632 Clouds 25 1021 31 10000 3.6 80 16:18 13.07.2020
1633 Clouds 25 1021 29 10000 2.6 120 15:55 13.07.2020
1634 Clouds 24 1021 29 10000 2.6 120 15:37 13.07.2020
1635 Clouds 24 1021 31 10000 4.1 100 15:18 13.07.2020
1636 Clouds 25 1022 29 10000 3.6 0 14:55 13.07.2020
1637 Clouds 24 1022 29 10000 3.6 0 14:36 13.07.2020
1638 Clouds 23 1022 35 10000 2.6 50 14:18 13.07.2020
1639 Clouds 23 1022 35 10000 3.1 60 13:41 13.07.2020
1640 Clouds 23 1023 35 10000 3.1 60 13:21 13.07.2020
1641 Clouds 23 1023 35 10000 3.1 0 12:54 13.07.2020
1642 Clouds 23 1023 35 10000 2.6 0 12:36 13.07.2020
1643 Clouds 23 1023 35 10000 2.6 0 12:18 13.07.2020
1644 Clouds 22 1023 37 10000 1.5 0 11:40 13.07.2020
1645 Clouds 21 1024 45 10000 2.1 200 11:22 13.07.2020
1646 Clouds 21 1024 43 10000 1.5 0 10:42 13.07.2020
1647 Clouds 20 1024 45 10000 2.1 120 10:20 13.07.2020
1648 Clouds 19 1024 48 10000 2.1 100 09:47 13.07.2020
1649 Clouds 17 1024 52 10000 2.6 110 09:27 13.07.2020
1650 Clouds 17 1024 52 10000 2.6 110 09:00 13.07.2020
1651 Clouds 15 1024 59 10000 2.6 100 08:40 13.07.2020
1652 Clouds 15 1024 62 10000 1 0 08:20 13.07.2020
1653 Clouds 12 1024 76 10000 0.5 0 07:21 13.07.2020
1654 Clouds 10 1024 81 10000 0.5 10 06:46 13.07.2020
1655 Clouds 10 1024 87 10000 0.5 0 06:24 13.07.2020
1656 Clouds 10 1025 81 10000 1 0 04:57 13.07.2020
1657 Clouds 11 1025 76 10000 0.5 0 02:42 13.07.2020
1658 Clouds 12 1025 66 10000 1 0 01:40 13.07.2020
1659 Clouds 12 1025 66 10000 1.5 90 01:20 13.07.2020
1660 Clouds 13 1025 62 10000 2.1 70 00:38 13.07.2020
1661 Clouds 13 1025 62 10000 2.1 60 00:19 13.07.2020
1662 Clouds 14 1025 58 10000 2.1 70 23:41 12.07.2020
1663 Clear 15 1025 55 10000 2.1 60 23:22 12.07.2020
1664 Clear 16 1025 51 10000 2.1 40 22:56 12.07.2020
1665 Clear 17 1025 51 10000 2.1 40 22:37 12.07.2020
1666 Clear 17 1025 51 10000 2.1 40 22:18 12.07.2020
1667 Clear 18 1025 48 10000 1.5 40 21:55 12.07.2020
1668 Clear 18 1025 48 10000 1.5 40 21:55 12.07.2020
1669 Clear 19 1025 45 10000 2.6 30 21:37 12.07.2020
1670 Clear 19 1025 45 10000 2.6 30 21:19 12.07.2020
1671 Clear 20 1025 40 10000 1.5 30 20:41 12.07.2020
1672 Clouds 21 1025 37 10000 2.6 10 20:20 12.07.2020
1673 Clouds 21 1025 37 10000 2.6 10 19:59 12.07.2020
1674 Clouds 21 1025 37 10000 2.6 10 19:39 12.07.2020
1675 Clouds 21 1025 37 10000 3.1 10 19:20 12.07.2020
1676 Clouds 22 1025 33 10000 4.6 350 18:44 12.07.2020
1677 Clouds 22 1025 30 10000 2.1 30 18:21 12.07.2020
1678 Clouds 22 1025 33 10000 4.1 360 17:59 12.07.2020
1679 Clouds 22 1025 33 10000 4.1 360 17:38 12.07.2020
1680 Clouds 22 1025 31 10000 2.6 330 17:20 12.07.2020
1681 Clouds 22 1025 35 10000 2.6 20 16:47 12.07.2020
1682 Clouds 23 1026 31 10000 2.1 330 16:22 12.07.2020
1683 Clouds 22 1026 37 10000 3.1 40 15:50 12.07.2020
1684 Clouds 23 1026 31 10000 2.6 310 15:30 12.07.2020
1685 Clouds 22 1026 32 10000 1.5 290 14:58 12.07.2020
1686 Clear 22 1026 32 10000 1.5 290 14:39 12.07.2020
1687 Clouds 22 1026 32 10000 1.5 290 14:39 12.07.2020
1688 Clear 22 1026 37 10000 4.1 330 14:19 12.07.2020
1689 Clear 22 1026 37 10000 1.5 0 13:40 12.07.2020
1690 Clear 22 1026 37 10000 1.5 0 13:21 12.07.2020
1691 Clear 21 1026 42 10000 3.1 350 12:56 12.07.2020
1692 Clear 21 1026 42 10000 3.1 350 12:38 12.07.2020
1693 Clear 21 1026 40 10000 3.1 0 12:18 12.07.2020
1694 Clear 20 1026 40 10000 2.1 360 11:44 12.07.2020
1695 Clouds 20 1026 45 10000 1.5 0 11:20 12.07.2020
1696 Clouds 20 1026 49 10000 2.6 110 10:44 12.07.2020
1697 Clouds 19 1026 52 10000 3.1 90 10:23 12.07.2020
1698 Clouds 18 1026 55 10000 1.5 50 09:58 12.07.2020
1699 Clouds 18 1026 55 10000 1.5 50 09:40 12.07.2020
1700 Clouds 16 1026 59 10000 1 0 09:20 12.07.2020
1701 Clouds 15 1026 62 10000 1 0 08:55 12.07.2020
1702 Clouds 14 1026 62 10000 1 0 08:36 12.07.2020
1703 Clouds 14 1026 67 10000 1 0 08:18 12.07.2020
1704 Clouds 11 1026 81 10000 0.5 0 07:42 12.07.2020
1705 Clouds 12 1026 71 10000 1.5 340 07:42 12.07.2020
1706 Clouds 10 1026 81 10000 0.5 0 07:21 12.07.2020
1707 Clear 9 1026 87 10000 0.5 330 06:51 12.07.2020
1708 Clear 8 1025 93 10000 1 350 06:21 12.07.2020
1709 Clear 8 1025 93 10000 0.5 0 05:33 12.07.2020
1710 Clear 9 1025 87 10000 0.99 40 04:55 12.07.2020
1711 Clear 9 1025 87 10000 0.5 0 04:25 12.07.2020
1712 Clear 10 1025 87 10000 1.5 350 03:34 12.07.2020
1713 Clear 10 1025 87 10000 0.5 0 02:52 12.07.2020
1714 Clear 12 1025 81 10000 0.5 0 01:44 12.07.2020
1715 Clouds 12 1025 76 10000 2.1 100 00:52 12.07.2020
1716 Clouds 12 1025 81 10000 1 360 00:23 12.07.2020
1717 Clouds 13 1025 71 10000 1 330 23:57 11.07.2020
1718 Clouds 13 1025 71 10000 1 330 23:39 11.07.2020
1719 Clouds 14 1025 66 10000 1 0 23:20 11.07.2020
1720 Clouds 15 1024 58 10000 1.5 350 22:55 11.07.2020
1721 Clouds 15 1024 58 10000 1.5 350 22:37 11.07.2020
1722 Clouds 16 1024 59 10000 1.5 350 22:18 11.07.2020
1723 Clouds 17 1024 48 10000 2.1 10 21:41 11.07.2020
1724 Clouds 18 1024 45 10000 3.1 350 21:23 11.07.2020
1725 Clear 19 1023 37 10000 4.6 340 20:56 11.07.2020
1726 Clouds 20 1023 42 0 3.6 340 20:38 11.07.2020
1727 Clouds 19 1023 42 0 3.6 340 20:20 11.07.2020
1728 Clouds 20 1023 34 10000 4.6 340 19:57 11.07.2020
1729 Clouds 20 1023 34 10000 4.6 340 19:39 11.07.2020
1730 Clouds 20 1023 37 10000 4.6 350 19:20 11.07.2020
1731 Clouds 21 1023 35 10000 4.1 340 18:55 11.07.2020
1732 Clouds 21 1023 37 10000 5.1 330 18:36 11.07.2020
1733 Clouds 21 1023 37 10000 5.1 330 18:18 11.07.2020
1734 Clouds 21 1023 37 10000 4.1 360 17:42 11.07.2020
1735 Rain 22 1022 35 10000 6.2 320 17:21 11.07.2020
1736 Rain 22 1022 37 10000 5.1 330 16:59 11.07.2020
1737 Rain 22 1022 37 10000 5.1 330 16:38 11.07.2020
1738 Rain 21 1022 40 10000 3.1 360 16:19 11.07.2020
1739 Rain 21 1022 43 10000 3.1 10 15:57 11.07.2020
1740 Clouds 21 1022 43 10000 4.1 320 15:37 11.07.2020
1741 Clouds 20 1022 43 10000 4.1 320 15:18 11.07.2020
1742 Clouds 20 1022 45 10000 4.6 310 14:44 11.07.2020
1743 Clouds 20 1022 42 10000 5.1 290 14:23 11.07.2020
1744 Clouds 20 1022 52 10000 2.1 320 13:55 11.07.2020
1745 Clouds 19 1022 52 10000 2.1 320 13:37 11.07.2020
1746 Clouds 19 1022 59 10000 5.7 350 13:19 11.07.2020
1747 Clouds 18 1022 59 10000 2.6 310 12:42 11.07.2020
1748 Clouds 18 1022 63 10000 3.1 0 12:23 11.07.2020
1749 Clouds 18 1022 63 10000 3.1 360 11:58 11.07.2020
1750 Clouds 18 1022 63 10000 3.1 360 11:58 11.07.2020
1751 Clouds 18 1022 63 10000 3.1 360 11:40 11.07.2020
1752 Clouds 18 1022 63 10000 2.6 360 11:19 11.07.2020
1753 Clouds 17 1021 72 10000 3.1 330 10:46 11.07.2020
1754 Clouds 17 1021 77 10000 3.1 330 10:27 11.07.2020
1755 Clouds 15 1021 82 10000 2.6 360 09:56 11.07.2020
1756 Clouds 15 1021 82 10000 2.6 320 09:37 11.07.2020
1757 Clouds 15 1021 82 10000 2.6 320 09:18 11.07.2020
1758 Clouds 14 1020 82 10000 1 0 08:39 11.07.2020
1759 Rain 15 1020 82 10000 1 0 08:20 11.07.2020
1760 Clouds 14 1020 87 10000 1 0 07:50 11.07.2020
1761 Clouds 14 1020 87 10000 3.1 350 07:27 11.07.2020
1762 Clouds 14 1020 93 10000 2.6 340 06:59 11.07.2020
1763 Rain 14 1019 87 10000 2.6 360 06:23 11.07.2020
1764 Rain 14 1019 82 10000 2.6 340 05:46 11.07.2020
1765 Rain 14 1019 82 10000 2.6 340 05:46 11.07.2020
1766 Clouds 15 1018 82 10000 1.5 330 04:59 11.07.2020
1767 Clouds 15 1018 82 10000 1.5 330 04:37 11.07.2020
1768 Clouds 15 1018 87 10000 1 0 04:18 11.07.2020
1769 Rain 16 1018 72 10000 2.6 340 02:51 11.07.2020
1770 Rain 17 1018 67 10000 3.1 340 01:56 11.07.2020
1771 Clouds 17 1018 63 10000 3.1 340 01:21 11.07.2020
1772 Clouds 18 1018 68 10000 4.1 320 00:41 11.07.2020
1773 Clouds 18 1017 63 10000 2.6 320 00:22 11.07.2020
1774 Clouds 18 1017 63 10000 3.1 310 23:58 10.07.2020
1775 Clouds 18 1017 63 10000 3.1 310 23:40 10.07.2020
1776 Clouds 19 1017 63 10000 4.1 320 23:21 10.07.2020
1777 Clouds 19 1016 56 10000 3.6 320 22:49 10.07.2020
1778 Clouds 19 1016 56 10000 5.1 320 22:24 10.07.2020
1779 Clouds 20 1015 60 10000 6.2 320 21:59 10.07.2020
1780 Clouds 20 1015 60 10000 6.2 320 21:38 10.07.2020
1781 Clouds 21 1015 52 10000 5.7 310 21:19 10.07.2020
1782 Clouds 22 1015 49 10000 5.7 300 20:43 10.07.2020
1783 Clouds 22 1015 49 10000 5.7 300 20:43 10.07.2020
1784 Clouds 23 1015 46 10000 5.7 300 20:24 10.07.2020
1785 Clouds 23 1014 46 10000 5.1 280 19:59 10.07.2020
1786 Clouds 23 1014 46 10000 5.1 280 19:41 10.07.2020
1787 Clouds 23 1014 46 10000 7.2 280 19:21 10.07.2020
1788 Clouds 23 1014 43 10000 8.2 280 18:54 10.07.2020
1789 Clouds 23 1014 43 10000 8.2 280 18:36 10.07.2020
1790 Clouds 23 1014 44 10000 8.2 290 18:18 10.07.2020
1791 Clouds 24 1013 44 10000 9.3 300 17:41 10.07.2020
1792 Clouds 25 1013 44 10000 8.7 290 17:22 10.07.2020
1793 Clouds 25 1013 47 10000 9.8 300 16:57 10.07.2020
1794 Clouds 26 1013 47 10000 9.8 300 16:38 10.07.2020
1795 Clouds 26 1012 44 10000 9.8 290 16:18 10.07.2020
1796 Clear 27 1012 36 10000 10.8 280 15:43 10.07.2020
1797 Clear 28 1012 32 5000 7.77 274 15:20 10.07.2020
1798 Clear 29 1012 32 10000 9.3 280 14:43 10.07.2020
1799 Clouds 28 1011 37 10000 8.7 270 14:22 10.07.2020
1800 Clouds 29 1011 35 10000 8.7 250 13:58 10.07.2020
1801 Clouds 29 1011 35 10000 8.7 250 13:40 10.07.2020
1802 Clouds 28 1011 37 10000 9.3 260 13:22 10.07.2020
1803 Clouds 28 1011 39 10000 7.7 250 12:58 10.07.2020
1804 Clouds 28 1011 39 10000 7.7 250 12:40 10.07.2020
1805 Clouds 28 1011 37 10000 8.2 250 12:21 10.07.2020
1806 Clouds 29 1011 37 10000 8.2 240 11:42 10.07.2020
1807 Clouds 28 1011 42 10000 6.2 210 11:21 10.07.2020
1808 Clouds 28 1011 42 10000 5.7 230 10:58 10.07.2020
1809 Clouds 27 1011 42 10000 5.1 230 10:39 10.07.2020
1810 Clouds 26 1011 42 10000 5.1 230 10:20 10.07.2020
1811 Clouds 26 1011 44 10000 3.6 210 09:41 10.07.2020
1812 Clouds 24 1011 53 10000 3.1 180 09:23 10.07.2020
1813 Clouds 23 1011 56 10000 4.1 170 08:59 10.07.2020
1814 Clouds 22 1011 56 10000 4.1 170 08:41 10.07.2020
1815 Clear 21 1011 60 10000 3.1 160 08:23 10.07.2020
1816 Clear 20 1011 64 10000 3.1 130 07:48 10.07.2020
1817 Clear 18 1011 72 10000 2.6 120 07:24 10.07.2020
1818 Clear 16 1012 82 10000 3.6 110 06:58 10.07.2020
1819 Clear 16 1012 82 10000 3.6 110 06:40 10.07.2020
1820 Rain 16 1012 82 10000 4.1 100 05:40 10.07.2020
1821 Rain 17 1013 72 10000 3.1 110 03:55 10.07.2020
1822 Clear 17 1013 72 10000 3.1 110 02:55 10.07.2020
1823 Clear 17 1013 77 10000 2.1 110 02:21 10.07.2020
1824 Clear 19 1014 64 10000 2.6 130 00:55 10.07.2020
1825 Clear 20 1014 60 10000 2.1 160 00:24 10.07.2020
1826 Clear 21 1014 56 10000 1.5 150 23:56 09.07.2020
1827 Clear 21 1014 56 10000 1.5 150 23:37 09.07.2020
1828 Clear 21 1014 53 10000 1.5 160 23:19 09.07.2020
1829 Clear 22 1013 53 10000 1.5 150 22:56 09.07.2020
1830 Clear 22 1013 53 10000 1.5 150 22:38 09.07.2020
1831 Clear 24 1013 44 10000 1.5 230 22:19 09.07.2020
1832 Clear 24 1013 44 10000 1.5 230 21:54 09.07.2020
1833 Clear 25 1013 44 10000 1.5 230 21:36 09.07.2020
1834 Clear 25 1013 47 10000 2.6 280 21:18 09.07.2020
1835 Clear 26 1013 39 10000 3.1 270 20:41 09.07.2020
1836 Clouds 27 1013 39 10000 5.1 280 20:22 09.07.2020
1837 Clouds 28 1013 32 10000 5.7 260 19:43 09.07.2020
1838 Rain 28 1013 32 10000 6.7 270 19:22 09.07.2020
1839 Rain 28 1013 30 10000 6.2 250 18:58 09.07.2020
1840 Rain 28 1013 30 10000 6.2 250 18:40 09.07.2020
1841 Rain 28 1013 32 10000 5.7 250 18:19 09.07.2020
1842 Rain 28 1014 35 10000 5.1 230 17:43 09.07.2020
1843 Rain 28 1014 35 10000 6.2 230 17:23 09.07.2020
1844 Rain 27 1014 39 10000 4.6 250 16:58 09.07.2020
1845 Rain 27 1014 39 10000 4.6 250 16:38 09.07.2020
1846 Rain 28 1015 37 10000 6.2 260 16:19 09.07.2020
1847 Rain 27 1015 37 10000 6.2 260 15:58 09.07.2020
1848 Rain 27 1015 37 10000 8.7 220 15:38 09.07.2020
1849 Rain 27 1015 44 10000 4.6 240 15:19 09.07.2020
1850 Rain 26 1015 44 10000 4.6 240 14:58 09.07.2020
1851 Rain 26 1015 44 10000 4.6 240 14:39 09.07.2020
1852 Rain 26 1016 44 10000 5.7 230 14:20 09.07.2020
1853 Clouds 25 1016 50 10000 4.6 250 13:56 09.07.2020
1854 Clouds 26 1016 50 10000 4.6 250 13:38 09.07.2020
1855 Clouds 25 1016 50 10000 4.6 240 13:19 09.07.2020
1856 Clouds 24 1016 53 10000 4.6 260 12:42 09.07.2020
1857 Clouds 24 1016 57 10000 2.1 0 12:23 09.07.2020
1858 Clouds 23 1017 60 10000 2.6 270 11:57 09.07.2020
1859 Clouds 22 1017 60 10000 2.6 270 11:39 09.07.2020
1860 Clouds 22 1017 60 10000 2.1 220 11:19 09.07.2020
1861 Clouds 20 1017 68 10000 3.1 180 10:56 09.07.2020
1862 Clouds 20 1017 68 10000 3.1 180 10:56 09.07.2020
1863 Clouds 20 1017 68 10000 3.1 180 10:38 09.07.2020
1864 Clouds 19 1017 72 10000 2.1 170 10:19 09.07.2020
1865 Clouds 18 1018 77 10000 1.5 170 09:43 09.07.2020
1866 Clouds 17 1017 77 10000 2.1 170 09:23 09.07.2020
1867 Clouds 17 1017 82 10000 2.1 180 08:49 09.07.2020
1868 Clouds 16 1017 87 10000 2.6 170 08:26 09.07.2020
1869 Clouds 16 1017 87 10000 2.1 140 07:56 09.07.2020
1870 Clouds 16 1017 87 10000 2.1 140 07:37 09.07.2020
1871 Clouds 15 1017 93 10000 1.5 150 07:19 09.07.2020
1872 Clouds 15 1017 93 10000 2.1 120 06:20 09.07.2020
1873 Clouds 15 1017 93 10000 1 0 05:50 09.07.2020
1874 Drizzle 15 1018 93 10000 2.6 150 04:29 09.07.2020
1875 Clouds 15 1018 93 10000 1.5 170 02:47 09.07.2020
1876 Clouds 15 1018 93 10000 1.5 200 01:55 09.07.2020
1877 Clouds 15 1019 93 10000 2.1 220 00:59 09.07.2020
1878 Clouds 15 1019 93 10000 1 210 00:38 09.07.2020
1879 Rain 14 1019 100 8000 2.1 250 00:19 09.07.2020
1880 Rain 14 1019 100 8000 2.1 260 23:43 08.07.2020
1881 Drizzle 14 1019 93 9000 1.5 250 23:24 08.07.2020
1882 Drizzle 14 1019 93 9000 1.5 250 22:55 08.07.2020
1883 Drizzle 15 1019 93 9000 1.5 250 22:36 08.07.2020
1884 Drizzle 15 1019 93 7000 2.1 250 22:18 08.07.2020
1885 Drizzle 15 1018 93 9000 2.1 280 21:55 08.07.2020
1886 Drizzle 15 1018 93 9000 2.1 280 21:36 08.07.2020
1887 Drizzle 15 1018 93 9000 1.5 310 21:18 08.07.2020
1888 Drizzle 15 1018 93 10000 2.6 310 20:41 08.07.2020
1889 Drizzle 15 1018 93 10000 2.6 350 20:23 08.07.2020
1890 Rain 15 1018 87 10000 4.1 330 19:55 08.07.2020
1891 Rain 15 1018 87 10000 4.1 330 19:37 08.07.2020
1892 Rain 16 1018 87 10000 4.1 320 19:18 08.07.2020
1893 Clouds 16 1018 82 10000 2.6 360 18:41 08.07.2020
1894 Rain 16 1017 87 10000 1.5 20 18:21 08.07.2020
1895 Rain 16 1017 82 10000 1.5 30 17:57 08.07.2020
1896 Rain 16 1017 82 10000 1.5 30 17:38 08.07.2020
1897 Rain 16 1018 82 10000 2.6 330 17:20 08.07.2020
1898 Rain 16 1017 82 10000 3.1 320 16:57 08.07.2020
1899 Rain 17 1017 82 10000 3.1 320 16:38 08.07.2020
1900 Rain 17 1018 72 10000 5.1 290 16:18 08.07.2020
1901 Rain 18 1017 55 10000 7.2 270 15:57 08.07.2020
1902 Rain 18 1017 55 10000 7.2 270 15:38 08.07.2020
1903 Clouds 19 1017 49 10000 8.2 290 15:19 08.07.2020
1904 Clouds 19 1017 49 10000 8.2 290 15:19 08.07.2020
1905 Clouds 20 1017 49 10000 6.2 270 14:42 08.07.2020
1906 Clouds 20 1017 49 10000 6.2 270 14:42 08.07.2020
1907 Clouds 20 1017 49 10000 7.2 270 14:21 08.07.2020
1908 Clouds 20 1017 49 10000 6.7 270 13:56 08.07.2020
1909 Clouds 20 1017 49 10000 6.7 270 13:37 08.07.2020
1910 Clouds 20 1017 49 10000 6.7 280 13:18 08.07.2020
1911 Clouds 20 1016 45 10000 6.2 280 12:40 08.07.2020
1912 Clouds 20 1016 45 10000 6.2 280 12:20 08.07.2020
1913 Clouds 20 1016 45 10000 5.1 260 11:40 08.07.2020
1914 Clouds 20 1016 43 10000 6.7 260 11:21 08.07.2020
1915 Clouds 20 1016 43 10000 7.2 280 10:59 08.07.2020
1916 Clouds 20 1016 43 10000 7.2 280 10:41 08.07.2020
1917 Clouds 20 1016 49 10000 4.1 210 10:23 08.07.2020
1918 Clouds 18 1017 52 10000 4.1 220 09:45 08.07.2020
1919 Clouds 17 1017 55 10000 3.6 230 09:25 08.07.2020
1920 Clouds 16 1017 59 10000 3.1 220 08:44 08.07.2020
1921 Clouds 16 1017 59 10000 2.6 210 08:25 08.07.2020
1922 Clouds 15 1017 63 10000 2.6 200 07:51 08.07.2020
1923 Clouds 14 1016 71 10000 1.5 120 07:25 08.07.2020
1924 Clouds 13 1017 71 10000 1.5 120 06:59 08.07.2020
1925 Clouds 13 1017 71 10000 1.5 120 06:39 08.07.2020
1926 Clouds 13 1017 76 10000 2.6 100 06:20 08.07.2020
1927 Clouds 12 1017 76 10000 2.1 100 05:44 08.07.2020
1928 Clouds 12 1017 76 10000 2.6 100 04:43 08.07.2020
1929 Clouds 11 1018 76 10000 3.6 100 03:30 08.07.2020
1930 Clouds 11 1018 76 10000 3.6 100 01:59 08.07.2020
1931 Clouds 11 1018 76 10000 3.6 100 01:37 08.07.2020
1932 Clouds 12 1018 71 10000 2.6 100 00:46 08.07.2020
1933 Clouds 12 1018 66 10000 3.1 100 00:19 08.07.2020
1934 Clouds 13 1018 66 10000 2.1 100 23:43 07.07.2020
1935 Clouds 13 1018 66 10000 1.5 140 23:21 07.07.2020
1936 Clouds 14 1019 62 10000 0.5 0 22:54 07.07.2020
1937 Clouds 14 1019 62 10000 0.5 0 22:36 07.07.2020
1938 Clouds 15 1019 54 10000 1 30 22:18 07.07.2020
1939 Clouds 17 1018 45 10000 2.6 340 21:41 07.07.2020
1940 Clouds 17 1018 45 10000 2.6 340 21:22 07.07.2020
1941 Clear 18 1018 42 10000 3.6 320 20:59 07.07.2020
1942 Clear 19 1018 42 10000 3.6 320 20:41 07.07.2020
1943 Clear 19 1018 42 10000 4.1 300 20:23 07.07.2020
1944 Clear 20 1018 40 10000 3.1 300 19:55 07.07.2020
1945 Clear 20 1018 40 10000 4.1 300 19:36 07.07.2020
1946 Clear 20 1018 40 10000 4.1 300 19:18 07.07.2020
1947 Clear 20 1018 37 10000 4.1 300 18:55 07.07.2020
1948 Clear 20 1018 37 10000 4.1 300 18:36 07.07.2020
1949 Clear 21 1019 37 10000 4.6 300 18:18 07.07.2020
1950 Clear 21 1019 40 10000 5.7 280 17:43 07.07.2020
1951 Clear 21 1019 40 10000 4.1 310 17:23 07.07.2020
1952 Clear 21 1019 37 10000 4.1 270 16:58 07.07.2020
1953 Clear 21 1019 37 10000 4.1 270 16:40 07.07.2020
1954 Clear 21 1020 37 10000 4.6 270 16:21 07.07.2020
1955 Clear 21 1020 40 10000 4.6 280 15:54 07.07.2020
1956 Clear 21 1020 40 10000 4.6 280 15:36 07.07.2020
1957 Clouds 21 1020 37 10000 5.7 290 15:18 07.07.2020
1958 Clouds 20 1020 42 10000 4.1 260 14:42 07.07.2020
1959 Clear 20 1020 40 10000 3.1 280 14:22 07.07.2020
1960 Clear 19 1021 45 10000 3.1 290 13:40 07.07.2020
1961 Clear 19 1021 48 10000 4.6 280 13:19 07.07.2020
1962 Clouds 18 1021 45 10000 3.1 280 12:43 07.07.2020
1963 Clouds 18 1021 48 10000 4.6 260 12:25 07.07.2020
1964 Clouds 17 1021 55 10000 2.6 260 11:58 07.07.2020
1965 Clouds 17 1021 55 10000 2.6 260 11:40 07.07.2020
1966 Clouds 17 1021 51 10000 2.6 0 11:20 07.07.2020
1967 Clouds 16 1021 59 10000 2.1 240 10:57 07.07.2020
1968 Clouds 16 1021 59 10000 2.1 240 10:38 07.07.2020
1969 Clouds 16 1022 62 10000 2.1 230 10:19 07.07.2020
1970 Clouds 15 1022 62 10000 2.6 320 09:41 07.07.2020
1971 Clouds 15 1022 62 10000 1.5 290 09:21 07.07.2020
1972 Clear 14 1022 67 10000 1.5 270 08:42 07.07.2020
1973 Clear 13 1022 62 10000 1 0 08:24 07.07.2020
1974 Clear 13 1022 67 10000 0.5 0 07:49 07.07.2020
1975 Clear 11 1022 81 10000 1 0 07:27 07.07.2020
1976 Clear 11 1022 81 10000 1 0 07:27 07.07.2020
1977 Clear 8 1022 87 10000 1.5 110 06:50 07.07.2020
1978 Clear 8 1022 87 10000 0.5 0 06:32 07.07.2020
1979 Clear 8 1022 93 10000 0.5 0 05:58 07.07.2020
1980 Clear 8 1022 93 10000 1 0 05:23 07.07.2020
1981 Clear 8 1022 93 10000 0.5 0 04:42 07.07.2020
1982 Clear 9 1021 81 10000 0.5 0 03:41 07.07.2020
1983 Clouds 11 1021 76 10000 2.1 290 02:28 07.07.2020
1984 Clouds 12 1021 71 10000 2.6 300 01:25 07.07.2020
1985 Clouds 12 1021 71 10000 2.6 280 00:54 07.07.2020
1986 Clouds 13 1021 66 10000 3.1 300 00:36 07.07.2020
1987 Clouds 13 1021 66 10000 3.1 300 00:18 07.07.2020
1988 Clouds 14 1021 66 10000 3.6 280 23:41 06.07.2020
1989 Clouds 14 1020 62 10000 3.1 290 23:22 06.07.2020
1990 Clouds 15 1020 58 10000 4.1 300 22:55 06.07.2020
1991 Clouds 15 1020 55 10000 5.1 300 22:37 06.07.2020
1992 Clouds 16 1020 55 10000 5.1 300 22:18 06.07.2020
1993 Clouds 16 1019 55 10000 4.1 300 21:54 06.07.2020
1994 Clouds 16 1019 48 10000 5.7 300 21:36 06.07.2020
1995 Clouds 17 1019 48 10000 5.7 300 21:18 06.07.2020
1996 Clouds 17 1019 48 10000 7.2 320 20:39 06.07.2020
1997 Clouds 18 1018 39 10000 7.2 300 20:20 06.07.2020
1998 Clear 19 1018 39 10000 7.7 280 19:57 06.07.2020
1999 Clear 19 1017 37 10000 8.7 280 19:39 06.07.2020
2000 Clear 19 1017 37 10000 8.7 280 19:20 06.07.2020
2001 Clear 20 1017 39 10000 7.7 290 18:56 06.07.2020
2002 Clear 20 1017 39 10000 7.7 290 18:56 06.07.2020
2003 Clear 20 1017 39 10000 7.7 290 18:38 06.07.2020
2004 Clear 20 1017 34 10000 9.3 270 18:19 06.07.2020
2005 Clear 21 1016 34 10000 9.8 280 17:42 06.07.2020
2006 Clear 21 1016 37 10000 7.7 300 17:24 06.07.2020
2007 Clear 21 1017 35 0 9.3 280 16:58 06.07.2020
2008 Clear 21 1016 37 10000 8.7 290 16:40 06.07.2020
2009 Clear 21 1016 37 10000 8.7 290 16:21 06.07.2020
2010 Clear 21 1016 37 10000 8.7 300 15:42 06.07.2020
2011 Clear 21 1016 37 10000 8.7 300 15:42 06.07.2020
2012 Clear 21 1016 37 10000 9.3 280 15:24 06.07.2020
2013 Clear 21 1016 37 10000 9.3 280 15:24 06.07.2020
2014 Clear 21 1015 40 10000 8.2 290 14:57 06.07.2020
2015 Clouds 21 1015 40 10000 8.2 290 14:38 06.07.2020
2016 Clouds 21 1015 37 10000 8.7 270 14:19 06.07.2020
2017 Clouds 21 1015 40 10000 9.3 270 13:51 06.07.2020
2018 Clouds 21 1015 42 10000 7.7 290 13:28 06.07.2020
2019 Clouds 20 1015 40 10000 8.2 270 12:59 06.07.2020
2020 Clouds 20 1015 40 10000 8.2 270 12:41 06.07.2020
2021 Clouds 19 1015 42 10000 7.7 280 12:18 06.07.2020
2022 Clouds 19 1014 42 10000 8.7 270 11:57 06.07.2020
2023 Clouds 19 1014 42 10000 8.7 270 11:37 06.07.2020
2024 Clouds 19 1014 52 10000 7.7 290 11:19 06.07.2020
2025 Clouds 19 1014 59 10000 7.7 290 10:43 06.07.2020
2026 Clouds 18 1014 68 10000 6.7 310 10:22 06.07.2020
2027 Clouds 18 1014 82 10000 5.1 250 09:58 06.07.2020
2028 Clouds 18 1014 82 10000 5.1 250 09:39 06.07.2020
2029 Rain 18 1014 82 10000 3.6 250 09:21 06.07.2020
2030 Clouds 17 1013 88 10000 4.1 260 08:55 06.07.2020
2031 Clouds 18 1013 88 10000 4.1 260 08:36 06.07.2020
2032 Clouds 18 1013 88 10000 3.6 240 08:18 06.07.2020
2033 Clouds 18 1013 88 10000 3.6 240 08:18 06.07.2020
2034 Rain 17 1013 93 10000 4.1 220 07:40 06.07.2020
2035 Rain 17 1013 93 10000 3.1 220 07:22 06.07.2020
2036 Clouds 17 1013 93 10000 3.1 240 06:39 06.07.2020
2037 Rain 18 1013 82 10000 4.6 270 06:20 06.07.2020
2038 Rain 18 1013 82 10000 4.6 270 06:20 06.07.2020
2039 Rain 19 1013 77 10000 6.7 290 05:33 06.07.2020
2040 Clouds 20 1013 72 10000 2.6 240 04:52 06.07.2020
2041 Rain 20 1013 72 10000 2.6 200 03:25 06.07.2020
2042 Clear 20 1013 72 10000 2.1 210 02:21 06.07.2020
2043 Clear 20 1014 68 10000 2.6 190 01:22 06.07.2020
2044 Clear 20 1014 64 0 2.1 220 00:33 06.07.2020
2045 Clear 20 1014 68 10000 2.1 220 23:59 05.07.2020
2046 Clear 20 1014 68 10000 2.1 220 23:40 05.07.2020
2047 Clear 21 1014 68 10000 2.1 240 23:22 05.07.2020
2048 Clouds 22 1014 64 10000 2.1 250 22:58 05.07.2020
2049 Clouds 22 1014 64 10000 2.1 250 22:39 05.07.2020
2050 Clouds 22 1014 64 10000 2.1 270 22:19 05.07.2020
2051 Clouds 23 1014 53 10000 3.1 260 21:57 05.07.2020
2052 Clouds 23 1014 53 10000 3.1 260 21:37 05.07.2020
2053 Clouds 24 1014 50 10000 5.1 270 21:18 05.07.2020
2054 Clouds 25 1014 50 10000 4.6 260 20:56 05.07.2020
2055 Clouds 25 1014 50 10000 4.6 260 20:38 05.07.2020
2056 Clouds 25 1014 50 10000 6.2 250 20:19 05.07.2020
2057 Clouds 25 1014 54 10000 5.1 240 19:42 05.07.2020
2058 Clouds 26 1014 47 10000 5.7 250 19:21 05.07.2020
2059 Clouds 25 1015 54 10000 3.6 220 18:55 05.07.2020
2060 Clouds 25 1015 54 10000 3.6 220 18:37 05.07.2020
2061 Clouds 25 1015 53 10000 5.7 230 18:18 05.07.2020
2062 Clouds 25 1015 53 10000 5.1 260 17:42 05.07.2020
2063 Clouds 25 1015 53 10000 6.2 260 17:19 05.07.2020
2064 Clouds 25 1015 53 10000 6.2 260 16:58 05.07.2020
2065 Clouds 24 1016 53 10000 5.7 260 16:40 05.07.2020
2066 Clouds 24 1016 57 10000 6.7 260 16:20 05.07.2020
2067 Clouds 24 1016 57 10000 6.7 250 15:40 05.07.2020
2068 Clouds 24 1016 57 10000 6.7 250 15:40 05.07.2020
2069 Clouds 24 1016 57 10000 6.7 260 15:20 05.07.2020
2070 Clouds 25 1016 53 10000 7.7 260 14:43 05.07.2020
2071 Clouds 24 1017 53 10000 8.2 250 14:23 05.07.2020
2072 Clouds 24 1017 57 10000 8.7 250 13:59 05.07.2020
2073 Clouds 24 1017 57 10000 8.7 250 13:40 05.07.2020
2074 Clouds 23 1017 53 10000 8.2 260 13:20 05.07.2020
2075 Clouds 23 1017 53 10000 7.2 260 12:42 05.07.2020
2076 Clouds 23 1017 53 10000 6.7 260 12:20 05.07.2020
2077 Clouds 24 1017 53 10000 5.1 260 11:55 05.07.2020
2078 Clouds 24 1017 53 10000 5.1 260 11:37 05.07.2020
2079 Clouds 24 1017 53 10000 6.7 240 11:18 05.07.2020
2080 Clouds 23 1017 53 10000 5.7 240 10:42 05.07.2020
2081 Clouds 23 1017 56 10000 3.6 210 10:21 05.07.2020
2082 Clouds 22 1017 56 10000 3.6 210 09:59 05.07.2020
2083 Clouds 21 1017 60 10000 3.6 180 09:41 05.07.2020
2084 Clouds 20 1017 64 10000 3.6 180 09:20 05.07.2020
2085 Clouds 19 1017 64 10000 3.1 190 08:55 05.07.2020
2086 Clouds 19 1017 64 10000 3.1 190 08:36 05.07.2020
2087 Clouds 19 1017 68 10000 3.1 180 07:51 05.07.2020
2088 Clouds 18 1017 63 10000 3.1 180 07:30 05.07.2020
2089 Clouds 17 1017 68 10000 2.6 170 06:54 05.07.2020
2090 Clouds 17 1017 72 10000 2.1 160 06:20 05.07.2020
2091 Clouds 17 1017 67 10000 2.1 160 03:54 05.07.2020
2092 Clouds 17 1018 67 10000 3.1 170 02:47 05.07.2020
2093 Clouds 17 1018 63 10000 2.1 160 02:29 05.07.2020
2094 Clouds 18 1018 63 10000 2.1 180 01:42 05.07.2020
2095 Clouds 19 1018 56 10000 2.1 220 01:20 05.07.2020
2096 Clouds 19 1018 56 10000 2.1 230 00:42 05.07.2020
2097 Clouds 19 1018 56 10000 2.6 180 00:24 05.07.2020
2098 Clouds 20 1018 56 10000 2.1 180 23:53 04.07.2020
2099 Clouds 20 1018 56 10000 2.1 180 23:31 04.07.2020
2100 Clouds 21 1018 52 10000 2.1 220 22:58 04.07.2020
2101 Clouds 20 1018 52 10000 2.1 220 22:40 04.07.2020
2102 Clouds 20 1018 52 10000 2.1 220 22:40 04.07.2020
2103 Clouds 21 1017 49 10000 2.6 230 22:21 04.07.2020
2104 Clouds 22 1018 49 10000 2.6 240 21:55 04.07.2020
2105 Clouds 22 1018 49 10000 2.6 240 21:36 04.07.2020
2106 Clouds 22 1017 46 10000 3.1 260 21:18 04.07.2020
2107 Clouds 23 1017 46 10000 3.1 280 20:41 04.07.2020
2108 Clouds 24 1017 38 10000 4.6 260 20:20 04.07.2020
2109 Clouds 25 1017 38 10000 4.6 250 19:55 04.07.2020
2110 Clouds 25 1017 38 10000 4.6 250 19:36 04.07.2020
2111 Clouds 25 1017 38 10000 5.7 250 19:18 04.07.2020
2112 Clouds 25 1017 36 10000 5.7 250 18:42 04.07.2020
2113 Clouds 25 1018 41 10000 6.2 220 18:22 04.07.2020
2114 Clouds 24 1018 38 10000 4.6 240 17:44 04.07.2020
2115 Clouds 25 1018 39 10000 4.6 220 17:26 04.07.2020
2116 Clouds 24 1018 38 10000 6.2 220 16:58 04.07.2020
2117 Clouds 24 1018 38 10000 6.2 220 16:39 04.07.2020
2118 Clouds 25 1018 38 10000 5.1 220 16:20 04.07.2020
2119 Clouds 24 1018 38 10000 5.7 230 15:56 04.07.2020
2120 Clouds 25 1018 38 10000 5.7 230 15:37 04.07.2020
2121 Clouds 24 1019 41 10000 4.1 230 15:19 04.07.2020
2122 Clouds 25 1019 41 10000 5.1 230 14:38 04.07.2020
2123 Clouds 24 1019 41 10000 5.1 240 14:20 04.07.2020
2124 Clouds 24 1019 43 10000 4.6 230 13:59 04.07.2020
2125 Clouds 24 1019 43 10000 4.6 230 13:40 04.07.2020
2126 Clouds 24 1020 44 10000 6.2 220 13:18 04.07.2020
2127 Clouds 24 1020 44 10000 6.2 220 13:18 04.07.2020
2128 Clouds 23 1020 43 10000 5.7 240 12:43 04.07.2020
2129 Clouds 23 1020 40 10000 5.7 250 12:21 04.07.2020
2130 Clouds 23 1020 43 10000 5.1 240 11:56 04.07.2020
2131 Clouds 22 1020 43 10000 5.1 240 11:38 04.07.2020
2132 Clouds 22 1020 46 10000 4.6 270 11:19 04.07.2020
2133 Clouds 21 1020 46 10000 4.6 250 10:42 04.07.2020
2134 Clouds 20 1021 56 10000 1 0 10:22 04.07.2020
2135 Clouds 20 1021 56 10000 1 0 09:59 04.07.2020
2136 Clouds 20 1021 59 10000 1.5 170 09:37 04.07.2020
2137 Clouds 18 1020 59 10000 1.5 190 09:19 04.07.2020
2138 Clouds 16 1020 67 10000 1 0 08:47 04.07.2020
2139 Clouds 15 1020 77 10000 2.1 110 08:28 04.07.2020
2140 Clouds 15 1020 82 10000 2.1 100 07:49 04.07.2020
2141 Clouds 13 1020 87 10000 3.1 100 07:31 04.07.2020
2142 Clouds 13 1020 87 10000 3.1 100 06:55 04.07.2020
2143 Clouds 10 1020 93 10000 3.6 100 06:23 04.07.2020
2144 Clouds 12 1020 93 10000 3.6 100 05:36 04.07.2020
2145 Clouds 10 1020 93 10000 2.6 110 04:44 04.07.2020
2146 Clouds 12 1020 87 10000 3.6 100 03:18 04.07.2020
2147 Clear 13 1020 82 10000 3.1 100 02:23 04.07.2020
2148 Clear 13 1020 82 10000 3.6 100 01:31 04.07.2020
2149 Clear 14 1020 76 10000 3.6 100 00:44 04.07.2020
2150 Clear 15 1020 76 10000 3.1 100 00:24 04.07.2020
2151 Clear 14 1020 82 10000 1 100 23:40 03.07.2020
2152 Clear 15 1019 72 10000 1 0 23:19 03.07.2020
2153 Clear 16 1019 63 10000 1.5 110 22:58 03.07.2020
2154 Clear 16 1019 63 10000 1.5 110 22:39 03.07.2020
2155 Clear 17 1019 63 10000 0.5 0 22:20 03.07.2020
2156 Clear 19 1019 55 10000 1 0 21:41 03.07.2020
2157 Clear 20 1019 46 10000 2.6 320 21:20 03.07.2020
2158 Clear 20 1018 46 10000 2.6 320 20:55 03.07.2020
2159 Clear 20 1018 46 10000 2.6 320 20:55 03.07.2020
2160 Clear 21 1018 46 10000 2.6 320 20:37 03.07.2020
2161 Clear 21 1018 43 10000 4.1 290 20:19 03.07.2020
2162 Clear 22 1018 43 10000 3.1 320 19:41 03.07.2020
2163 Clear 22 1018 43 10000 3.1 320 19:19 03.07.2020
2164 Clear 22 1018 38 10000 5.7 290 18:56 03.07.2020
2165 Clear 23 1018 38 10000 5.7 290 18:38 03.07.2020
2166 Clear 23 1018 40 10000 3.6 300 18:19 03.07.2020
2167 Clear 23 1018 43 10000 4.1 290 17:42 03.07.2020
2168 Clear 23 1018 38 10000 5.7 270 17:22 03.07.2020
2169 Clear 23 1018 40 10000 3.6 290 16:46 03.07.2020
2170 Clear 23 1018 38 10000 5.7 270 16:27 03.07.2020
2171 Clear 22 1019 43 10000 4.6 270 15:48 03.07.2020
2172 Clear 22 1019 43 10000 4.6 290 15:25 03.07.2020
2173 Clear 22 1019 43 10000 4.6 290 14:59 03.07.2020
2174 Clear 22 1019 43 10000 5.1 260 14:41 03.07.2020
2175 Clear 22 1019 43 10000 5.1 300 14:22 03.07.2020
2176 Clouds 21 1019 43 10000 4.6 260 13:48 03.07.2020
2177 Clouds 21 1019 46 10000 4.6 270 13:29 03.07.2020
2178 Clouds 21 1019 46 10000 5.1 280 12:59 03.07.2020
2179 Clouds 21 1019 46 10000 5.1 280 12:40 03.07.2020
2180 Clouds 21 1019 49 10000 4.6 270 12:20 03.07.2020
2181 Clouds 20 1019 48 10000 4.6 270 11:44 03.07.2020
2182 Clouds 19 1019 55 10000 5.7 270 11:25 03.07.2020
2183 Clouds 19 1019 55 10000 3.6 270 10:59 03.07.2020
2184 Clouds 19 1019 55 10000 3.6 270 10:40 03.07.2020
2185 Clouds 19 1019 59 10000 4.1 270 10:21 03.07.2020
2186 Clouds 18 1019 63 10000 3.1 300 09:56 03.07.2020
2187 Clouds 18 1019 63 10000 3.1 300 09:37 03.07.2020
2188 Clouds 17 1018 68 10000 3.6 300 09:18 03.07.2020
2189 Clouds 17 1018 72 10000 3.6 290 08:40 03.07.2020
2190 Clouds 16 1018 77 10000 3.6 270 08:19 03.07.2020
2191 Clouds 15 1018 77 10000 3.6 270 07:49 03.07.2020
2192 Clouds 15 1018 77 10000 2.1 260 07:27 03.07.2020
2193 Clouds 15 1017 82 10000 0.5 0 06:54 03.07.2020
2194 Clouds 14 1017 87 10000 0.5 0 06:19 03.07.2020
2195 Clouds 15 1016 82 10000 1 0 04:55 03.07.2020
2196 Clouds 15 1016 82 10000 3.1 310 03:32 03.07.2020
2197 Clouds 16 1016 77 10000 2.6 300 02:47 03.07.2020
2198 Clouds 16 1016 77 10000 2.1 290 02:27 03.07.2020
2199 Clouds 17 1015 72 10000 2.6 290 01:28 03.07.2020
2200 Clouds 17 1015 72 10000 2.6 280 00:50 03.07.2020
2201 Clouds 17 1015 72 10000 2.6 280 00:32 03.07.2020
2202 Clouds 18 1014 59 10000 3.1 240 23:47 02.07.2020
2203 Clouds 19 1014 68 10000 2.6 230 23:20 02.07.2020
2204 Clouds 19 1014 68 10000 2.6 230 22:58 02.07.2020
2205 Clouds 19 1014 68 10000 2.6 220 22:40 02.07.2020
2206 Clouds 19 1013 64 10000 2.6 210 22:20 02.07.2020
2207 Clouds 19 1013 64 10000 2.6 210 21:55 02.07.2020
2208 Clouds 20 1013 64 10000 2.6 210 21:37 02.07.2020
2209 Clouds 20 1013 60 10000 3.6 230 21:18 02.07.2020
2210 Clouds 21 1013 56 10000 4.1 220 20:57 02.07.2020
2211 Clouds 21 1013 56 10000 4.1 220 20:39 02.07.2020
2212 Clouds 21 1012 56 10000 4.6 240 20:18 02.07.2020
2213 Clouds 22 1012 56 10000 4.6 250 19:41 02.07.2020
2214 Clouds 22 1012 49 10000 5.7 240 19:22 02.07.2020
2215 Clouds 23 1012 53 10000 5.7 250 18:57 02.07.2020
2216 Clouds 23 1012 56 10000 5.7 260 18:39 02.07.2020
2217 Clouds 23 1012 56 10000 5.7 260 18:20 02.07.2020
2218 Clouds 23 1012 60 10000 5.1 270 17:41 02.07.2020
2219 Clouds 23 1012 56 10000 4.1 250 17:20 02.07.2020
2220 Clouds 24 1012 56 10000 4.6 290 16:58 02.07.2020
2221 Clouds 24 1012 56 10000 4.6 290 16:40 02.07.2020
2222 Clouds 24 1013 56 10000 4.6 280 16:20 02.07.2020
2223 Clouds 24 1013 56 10000 3.6 260 15:55 02.07.2020
2224 Clouds 24 1013 56 10000 3.6 260 15:36 02.07.2020
2225 Clouds 24 1013 56 10000 3.6 260 15:36 02.07.2020
2226 Clouds 23 1013 60 10000 3.1 210 15:18 02.07.2020
2227 Clouds 23 1013 68 10000 2.6 180 14:43 02.07.2020
2228 Clouds 22 1013 64 10000 2.1 220 14:19 02.07.2020
2229 Clouds 21 1013 73 10000 2.1 240 13:56 02.07.2020
2230 Clouds 21 1013 73 10000 2.1 240 13:36 02.07.2020
2231 Clouds 21 1013 72 10000 2.6 260 13:18 02.07.2020
2232 Clouds 20 1013 77 10000 2.1 350 12:41 02.07.2020
2233 Rain 19 1014 82 10000 3.1 320 12:22 02.07.2020
2234 Rain 20 1013 77 10000 2.6 320 11:45 02.07.2020
2235 Clouds 20 1013 77 10000 3.1 300 11:27 02.07.2020
2236 Clouds 21 1013 72 10000 4.1 300 10:58 02.07.2020
2237 Clouds 20 1013 72 10000 4.1 300 10:39 02.07.2020
2238 Clouds 20 1013 68 10000 3.1 310 10:21 02.07.2020
2239 Rain 20 1013 77 10000 4.6 310 09:43 02.07.2020
2240 Clouds 20 1012 77 10000 5.1 310 09:22 02.07.2020
2241 Clouds 20 1012 77 10000 3.1 280 08:58 02.07.2020
2242 Clouds 19 1012 77 10000 3.1 280 08:39 02.07.2020
2243 Clouds 19 1012 82 10000 3.6 240 08:19 02.07.2020
2244 Clouds 19 1012 82 10000 2.1 200 07:41 02.07.2020
2245 Clouds 19 1012 88 10000 2.1 190 07:20 02.07.2020
2246 Clouds 18 1012 93 10000 2.1 140 06:41 02.07.2020
2247 Clouds 18 1012 93 10000 2.1 140 06:41 02.07.2020
2248 Clouds 17 1011 100 10000 2.1 130 06:20 02.07.2020
2249 Clear 17 1011 100 10000 3.1 130 05:47 02.07.2020
2250 Clouds 18 1011 93 10000 3.1 130 04:49 02.07.2020
2251 Clouds 18 1011 93 10000 2.6 120 03:33 02.07.2020
2252 Clouds 19 1011 82 10000 3.6 130 01:48 02.07.2020
2253 Thunderstorm 21 1010 83 10000 1.5 200 00:27 02.07.2020
2254 Thunderstorm 21 1009 77 10000 3.1 190 23:55 01.07.2020
2255 Thunderstorm 22 1009 77 10000 3.1 190 23:37 01.07.2020
2256 Thunderstorm 22 1009 73 10000 0.5 0 23:18 01.07.2020
2257 Clouds 23 1009 64 10000 1.5 320 22:54 01.07.2020
2258 Clouds 23 1009 64 10000 1.5 320 22:36 01.07.2020
2259 Rain 23 1009 69 10000 1.5 290 22:18 01.07.2020
2260 Rain 23 1009 69 10000 1.5 290 22:18 01.07.2020
2261 Rain 25 1009 53 10000 2.1 290 21:54 01.07.2020
2262 Rain 25 1009 53 10000 2.1 290 21:36 01.07.2020
2263 Rain 26 1009 50 10000 3.1 280 21:18 01.07.2020
2264 Rain 26 1008 47 10000 4.1 280 20:43 01.07.2020
2265 Rain 27 1008 45 10000 4.6 280 20:25 01.07.2020
2266 Rain 28 1008 42 10000 4.6 250 19:56 01.07.2020
2267 Rain 28 1008 39 10000 4.1 250 19:38 01.07.2020
2268 Rain 28 1008 39 10000 4.1 250 19:19 01.07.2020
2269 Rain 28 1008 39 10000 4.6 230 18:42 01.07.2020
2270 Clear 29 1008 39 10000 4.6 240 18:21 01.07.2020
2271 Clear 29 1009 39 10000 4.6 260 17:59 01.07.2020
2272 Clear 29 1009 39 10000 4.6 260 17:39 01.07.2020
2273 Clear 28 1009 42 10000 4.6 260 17:19 01.07.2020
2274 Clear 29 1009 40 10000 4.6 250 16:47 01.07.2020
2275 Clouds 29 1009 39 10000 4.6 250 16:28 01.07.2020
2276 Clouds 28 1009 42 10000 3.6 270 15:56 01.07.2020
2277 Clouds 28 1009 42 10000 3.6 270 15:38 01.07.2020
2278 Clouds 28 1009 42 10000 3.6 250 15:20 01.07.2020
2279 Clouds 29 1010 48 10000 4.1 220 14:44 01.07.2020
2280 Clouds 28 1010 45 10000 3.6 230 14:22 01.07.2020
2281 Clouds 28 1010 45 10000 3.6 0 13:58 01.07.2020
2282 Clouds 28 1010 45 10000 3.6 0 13:39 01.07.2020
2283 Clouds 27 1010 50 10000 4.6 210 13:20 01.07.2020
2284 Clouds 27 1011 50 10000 4.6 210 12:57 01.07.2020
2285 Clouds 26 1011 50 10000 4.6 210 12:38 01.07.2020
2286 Clouds 26 1011 50 10000 5.1 230 12:20 01.07.2020
2287 Clouds 25 1011 53 10000 4.6 220 11:42 01.07.2020
2288 Clouds 24 1011 57 10000 4.1 200 11:23 01.07.2020
2289 Clouds 24 1011 57 10000 4.1 200 10:58 01.07.2020
2290 Clouds 24 1012 56 10000 4.1 200 10:40 01.07.2020
2291 Clouds 23 1012 56 10000 4.6 200 10:21 01.07.2020
2292 Clear 22 1012 60 10000 3.6 180 09:40 01.07.2020
2293 Clear 20 1012 64 10000 3.1 180 09:21 01.07.2020
2294 Clouds 20 1012 64 10000 2.6 170 08:59 01.07.2020
2295 Clouds 19 1012 64 10000 2.6 170 08:40 01.07.2020
2296 Clear 18 1012 68 10000 2.1 120 08:21 01.07.2020
2297 Clear 15 1012 82 10000 2.1 110 07:44 01.07.2020
2298 Clear 15 1012 82 10000 2.6 100 07:25 01.07.2020
2299 Clear 13 1012 82 0 2.6 100 06:59 01.07.2020
2300 Clear 13 1012 82 0 2.6 100 06:59 01.07.2020
2301 Clear 13 1012 82 0 2.6 100 06:40 01.07.2020
2302 Clear 13 1012 87 10000 3.1 100 06:20 01.07.2020
2303 Clear 13 1012 87 10000 3.1 110 04:30 01.07.2020
2304 Clear 13 1012 82 10000 2.6 100 03:44 01.07.2020
2305 Clear 13 1012 82 10000 2.1 100 03:22 01.07.2020
2306 Clear 14 1012 77 10000 1.5 160 02:19 01.07.2020
2307 Clear 15 1013 77 10000 1 0 01:23 01.07.2020
2308 Clear 16 1013 72 10000 1 200 00:38 01.07.2020
2309 Clear 16 1013 72 10000 1.5 180 00:19 01.07.2020
2310 Clear 16 1013 72 10000 1.5 250 23:40 30.06.2020
2311 Clear 17 1013 68 10000 1.5 220 23:20 30.06.2020
2312 Clear 18 1013 68 10000 1.5 270 22:42 30.06.2020
2313 Clear 18 1012 68 10000 1.5 270 22:19 30.06.2020
2314 Clear 19 1012 63 10000 2.1 280 21:54 30.06.2020
2315 Clear 20 1012 63 10000 2.1 280 21:36 30.06.2020
2316 Clouds 20 1012 60 10000 2.6 280 21:18 30.06.2020
2317 Clouds 21 1012 52 10000 5.1 270 20:42 30.06.2020
2318 Clouds 21 1012 52 10000 4.1 270 20:21 30.06.2020
2319 Clouds 21 1012 52 10000 4.6 280 19:44 30.06.2020
2320 Clouds 21 1012 52 10000 4.6 280 19:21 30.06.2020
2321 Clouds 21 1012 49 10000 5.1 280 18:58 30.06.2020
2322 Clouds 21 1012 49 10000 5.1 280 18:40 30.06.2020
2323 Clouds 21 1012 52 10000 4.6 280 18:20 30.06.2020
2324 Clouds 22 1012 49 10000 5.1 280 17:39 30.06.2020
2325 Clouds 22 1012 49 10000 5.1 270 17:20 30.06.2020
2326 Clouds 22 1013 46 10000 6.2 270 16:57 30.06.2020
2327 Clouds 22 1013 46 10000 6.2 270 16:39 30.06.2020
2328 Clouds 22 1013 46 0 6.7 260 16:19 30.06.2020
2329 Clouds 22 1013 46 10000 5.7 230 15:56 30.06.2020
2330 Clouds 22 1013 46 10000 5.7 250 15:37 30.06.2020
2331 Clouds 22 1013 46 10000 5.7 250 15:19 30.06.2020
2332 Clouds 22 1013 43 10000 6.2 260 14:43 30.06.2020
2333 Clouds 22 1013 43 10000 5.1 270 14:21 30.06.2020
2334 Clouds 22 1013 46 10000 5.1 220 13:54 30.06.2020
2335 Clouds 22 1013 46 10000 5.1 220 13:36 30.06.2020
2336 Clouds 22 1013 46 10000 5.7 240 13:18 30.06.2020
2337 Clouds 21 1014 49 10000 4.6 250 12:54 30.06.2020
2338 Clouds 21 1014 49 10000 4.6 250 12:36 30.06.2020
2339 Clouds 21 1014 49 10000 6.2 270 12:18 30.06.2020
2340 Clouds 20 1014 45 10000 7.2 250 11:39 30.06.2020
2341 Clouds 20 1014 48 10000 6.7 260 11:20 30.06.2020
2342 Clouds 20 1014 48 10000 6.7 260 11:20 30.06.2020
2343 Clouds 20 1014 52 10000 5.1 240 11:00 30.06.2020
2344 Thunderstorm 22 1016 83 10000 1.5 0 16:46 28.06.2020
2345 Thunderstorm 23 1015 73 10000 4.6 300 16:27 28.06.2020
2346 Rain 22 1015 73 10000 4.6 300 15:59 28.06.2020
2347 Thunderstorm 23 1015 73 10000 5.1 300 15:39 28.06.2020
2348 Rain 23 1015 69 10000 3.6 150 15:20 28.06.2020
2349 Clouds 23 1016 73 10000 2.6 150 14:55 28.06.2020
2350 Clouds 23 1016 73 10000 2.6 150 14:37 28.06.2020
2351 Clouds 23 1016 69 10000 2.1 190 14:19 28.06.2020
2352 Clouds 22 1016 73 10000 2.1 250 13:38 28.06.2020
2353 Rain 22 1017 77 10000 2.6 240 13:20 28.06.2020
2354 Clouds 22 1017 73 10000 2.1 220 12:57 28.06.2020
2355 Clouds 21 1017 73 10000 2.1 220 12:38 28.06.2020
2356 Clouds 21 1017 77 10000 3.1 270 12:19 28.06.2020
2357 Clouds 22 1016 73 10000 1.5 260 11:57 28.06.2020
2358 Clouds 22 1016 73 10000 1.5 260 11:57 28.06.2020
2359 Clouds 21 1016 73 10000 1.5 260 11:39 28.06.2020
2360 Clouds 21 1016 77 10000 0.5 0 11:20 28.06.2020
2361 Clouds 20 1016 82 10000 1.5 170 10:55 28.06.2020
2362 Clouds 20 1016 82 10000 1.5 170 10:36 28.06.2020
2363 Clouds 20 1016 82 10000 1.5 170 10:36 28.06.2020
2364 Clouds 20 1016 82 10000 1.5 170 10:36 28.06.2020
2365 Rain 20 1016 82 10000 1.5 150 10:18 28.06.2020
2366 Rain 19 1016 82 10000 2.1 170 09:39 28.06.2020
2367 Rain 19 1016 82 10000 1.5 170 09:21 28.06.2020
2368 Rain 20 1015 82 10000 2.6 140 08:48 28.06.2020
2369 Rain 20 1015 77 10000 4.1 140 08:26 28.06.2020
2370 Rain 19 1015 82 10000 3.1 120 07:49 28.06.2020
2371 Rain 18 1015 82 10000 2.1 140 07:29 28.06.2020
2372 Rain 17 1015 88 10000 2.6 110 06:43 28.06.2020
2373 Clouds 16 1015 93 10000 3.6 100 06:24 28.06.2020
2374 Clouds 16 1015 93 10000 4.1 100 05:26 28.06.2020
2375 Clouds 17 1015 88 10000 3.1 120 03:32 28.06.2020
2376 Clouds 17 1015 93 10000 2.6 100 02:39 28.06.2020
2377 Clouds 18 1015 88 10000 2.6 110 01:53 28.06.2020
2378 Clouds 19 1015 88 10000 2.1 140 01:26 28.06.2020
2379 Clouds 19 1015 88 10000 2.1 150 00:46 28.06.2020
2380 Clouds 19 1015 88 10000 2.1 150 00:46 28.06.2020
2381 Clouds 19 1015 82 10000 2.6 160 00:24 28.06.2020
2382 Clouds 20 1015 82 10000 3.1 160 23:41 27.06.2020
2383 Clouds 21 1015 82 10000 3.1 160 23:23 27.06.2020
2384 Clouds 21 1014 73 10000 3.1 180 22:58 27.06.2020
2385 Clouds 21 1014 73 10000 3.1 180 22:40 27.06.2020
2386 Clouds 22 1014 68 10000 2.6 200 22:19 27.06.2020
2387 Clouds 23 1013 69 10000 2.6 200 21:43 27.06.2020
2388 Clouds 24 1013 69 10000 3.1 210 21:21 27.06.2020
2389 Clouds 24 1013 69 10000 4.1 210 20:57 27.06.2020
2390 Clouds 24 1013 69 10000 4.1 210 20:57 27.06.2020
2391 Clouds 25 1013 69 10000 4.1 210 20:37 27.06.2020
2392 Clouds 26 1013 54 10000 4.6 250 20:18 27.06.2020
2393 Clouds 26 1013 54 10000 4.6 250 19:54 27.06.2020
2394 Clouds 26 1013 54 10000 4.6 250 19:36 27.06.2020
2395 Clouds 26 1013 54 10000 4.6 270 19:18 27.06.2020
2396 Clouds 27 1013 54 10000 2.6 280 18:43 27.06.2020
2397 Rain 26 1013 54 10000 2.6 280 18:22 27.06.2020
2398 Clouds 26 1013 57 10000 3.1 260 17:55 27.06.2020
2399 Clouds 26 1013 57 10000 3.1 260 17:37 27.06.2020
2400 Thunderstorm 26 1013 61 10000 4.1 210 17:18 27.06.2020
2401 Thunderstorm 27 1012 47 10000 5.1 230 16:42 27.06.2020
2402 Clouds 28 1012 45 10000 6.2 240 16:24 27.06.2020
2403 Clouds 29 1013 45 10000 5.1 210 15:46 27.06.2020
2404 Clouds 29 1013 42 10000 4.6 220 15:26 27.06.2020
2405 Clouds 29 1013 42 10000 3.1 220 14:59 27.06.2020
2406 Clouds 29 1013 42 10000 3.1 220 14:41 27.06.2020
2407 Rain 28 1013 45 10000 4.1 200 14:22 27.06.2020
2408 Rain 28 1013 48 10000 3.6 190 13:57 27.06.2020
2409 Rain 28 1013 48 10000 3.6 190 13:37 27.06.2020
2410 Rain 27 1014 45 10000 3.6 220 13:19 27.06.2020
2411 Clouds 27 1014 45 10000 2.6 230 12:43 27.06.2020
2412 Clouds 26 1014 51 10000 1.5 0 12:22 27.06.2020
2413 Clouds 26 1014 57 10000 2.1 330 11:59 27.06.2020
2414 Clouds 26 1014 57 10000 2.1 330 11:40 27.06.2020
2415 Clouds 25 1014 61 10000 1.5 0 11:22 27.06.2020
2416 Clouds 25 1014 61 10000 2.1 230 10:42 27.06.2020
2417 Clouds 24 1014 64 10000 2.1 150 10:20 27.06.2020
2418 Clouds 24 1014 64 10000 2.1 150 09:59 27.06.2020
2419 Clear 23 1014 69 10000 1.5 180 09:39 27.06.2020
2420 Clear 22 1014 64 10000 1.5 180 09:21 27.06.2020
2421 Clear 21 1014 68 10000 1.5 170 08:44 27.06.2020
2422 Clouds 20 1014 77 10000 2.1 150 08:23 27.06.2020
2423 Clouds 18 1014 82 10000 2.6 110 07:48 27.06.2020
2424 Clouds 17 1013 88 10000 3.1 110 07:27 27.06.2020
2425 Clouds 17 1013 88 10000 3.1 110 06:53 27.06.2020
2426 Clouds 17 1013 93 10000 3.1 110 06:33 27.06.2020
2427 Clouds 17 1013 82 10000 1.5 130 04:55 27.06.2020
2428 Clouds 17 1013 82 10000 1.5 130 04:18 27.06.2020
2429 Clouds 17 1013 82 10000 1 0 03:51 27.06.2020
2430 Rain 18 1013 77 10000 2.1 190 02:45 27.06.2020
2431 Clouds 18 1013 82 10000 2.1 200 02:26 27.06.2020
2432 Rain 19 1013 77 10000 2.1 200 01:37 27.06.2020
2433 Clouds 19 1013 72 10000 2.6 110 00:49 27.06.2020
2434 Clouds 20 1013 72 10000 1 0 23:56 26.06.2020
2435 Clouds 20 1013 72 10000 1 0 23:37 26.06.2020
2436 Clouds 21 1013 64 10000 1.5 90 23:19 26.06.2020
2437 Clouds 21 1013 60 10000 0.5 0 22:42 26.06.2020
2438 Clouds 22 1013 60 10000 1 0 22:24 26.06.2020
2439 Clouds 22 1013 60 10000 1 0 21:58 26.06.2020
2440 Clouds 23 1012 53 10000 0.5 0 21:40 26.06.2020
2441 Clouds 23 1012 53 10000 2.1 40 21:21 26.06.2020
2442 Clouds 25 1012 41 10000 1.5 20 20:58 26.06.2020
2443 Clouds 25 1012 41 10000 1.5 20 20:38 26.06.2020
2444 Clouds 25 1012 41 10000 1.5 20 20:18 26.06.2020
2445 Clouds 26 1012 39 10000 1.5 0 19:40 26.06.2020
2446 Clear 26 1012 39 10000 1.5 330 19:20 26.06.2020
2447 Clear 27 1012 39 10000 1.5 0 18:43 26.06.2020
2448 Clear 27 1013 42 10000 1.5 0 18:25 26.06.2020
2449 Clear 28 1013 37 10000 1.5 0 17:54 26.06.2020
2450 Clear 28 1013 37 10000 1.5 0 17:36 26.06.2020
2451 Clear 28 1013 39 10000 1.5 0 17:18 26.06.2020
2452 Clear 28 1013 39 10000 2.1 0 16:42 26.06.2020
2453 Clear 27 1013 41 10000 2.1 0 16:23 26.06.2020
2454 Clear 27 1014 36 10000 2.6 0 15:41 26.06.2020
2455 Clear 27 1014 36 10000 2.6 0 15:41 26.06.2020
2456 Clear 26 1014 39 10000 2.6 0 15:22 26.06.2020
2457 Clear 26 1014 39 10000 2.6 0 14:58 26.06.2020
2458 Clear 26 1014 47 10000 2.1 60 14:40 26.06.2020
2459 Clear 26 1014 47 10000 2.1 60 14:21 26.06.2020
2460 Clouds 25 1015 44 10000 2.1 0 13:47 26.06.2020
2461 Clouds 25 1015 47 10000 2.1 0 13:25 26.06.2020
2462 Clouds 25 1015 47 10000 1.5 0 12:59 26.06.2020
2463 Clouds 24 1015 47 10000 1.5 0 12:40 26.06.2020
2464 Clouds 23 1015 53 10000 1 0 12:22 26.06.2020
2465 Clouds 23 1015 53 10000 1.5 0 11:57 26.06.2020
2466 Clouds 23 1015 53 10000 1.5 0 11:38 26.06.2020
2467 Clouds 22 1015 56 10000 2.6 140 11:20 26.06.2020
2468 Clouds 22 1016 60 10000 2.1 120 10:57 26.06.2020
2469 Clouds 21 1016 60 10000 2.1 120 10:37 26.06.2020
2470 Clear 21 1016 60 10000 1.5 0 10:18 26.06.2020
2471 Clear 20 1016 64 10000 2.1 110 09:42 26.06.2020
2472 Clear 19 1016 63 10000 1.5 0 09:22 26.06.2020
2473 Clear 18 1016 68 10000 1.5 120 08:49 26.06.2020
2474 Clear 17 1016 72 10000 3.1 90 08:28 26.06.2020
2475 Clear 15 1016 82 10000 2.6 90 07:49 26.06.2020
2476 Clear 14 1017 82 10000 2.1 80 07:24 26.06.2020
2477 Clear 12 1017 93 10000 2.6 110 06:57 26.06.2020
2478 Clear 12 1017 87 10000 2.1 90 06:35 26.06.2020
2479 Clear 12 1017 93 10000 1.5 100 05:57 26.06.2020
2480 Clear 12 1017 87 10000 0.5 0 05:30 26.06.2020
2481 Clear 13 1017 87 10000 1 0 02:41 26.06.2020
2482 Clear 14 1018 82 10000 1.5 120 02:21 26.06.2020
2483 Clear 16 1018 72 10000 4.1 100 00:55 26.06.2020
2484 Clear 16 1018 72 10000 4.1 100 00:32 26.06.2020
2485 Clear 17 1018 67 10000 3.6 90 23:48 25.06.2020
2486 Clear 17 1018 72 10000 2.1 90 23:23 25.06.2020
2487 Clear 17 1018 67 10000 1.5 70 22:59 25.06.2020
2488 Clear 18 1018 67 10000 1.5 70 22:39 25.06.2020
2489 Clear 19 1018 68 10000 1.5 80 22:20 25.06.2020
2490 Clear 19 1018 68 10000 1.5 80 21:58 25.06.2020
2491 Clear 20 1018 56 10000 2.1 90 21:40 25.06.2020
2492 Clear 21 1018 49 10000 2.6 80 21:21 25.06.2020
2493 Clear 21 1018 46 10000 3.6 80 20:57 25.06.2020
2494 Clear 22 1018 46 10000 3.6 80 20:39 25.06.2020
2495 Clear 23 1018 46 10000 4.1 90 20:21 25.06.2020
2496 Clear 23 1018 46 10000 4.6 100 19:41 25.06.2020
2497 Clear 24 1018 49 10000 5.7 90 19:21 25.06.2020
2498 Clear 24 1018 41 10000 4.1 100 19:21 25.06.2020
2499 Clear 24 1018 41 10000 4.1 100 19:00 25.06.2020
2500 Clear 24 1018 41 10000 4.1 100 18:59 25.06.2020
2501 Clear 24 1018 41 10000 4.1 100 18:39 25.06.2020
2502 Clear 25 1018 41 10000 4.6 100 18:20 25.06.2020
2503 Clouds 24 1018 44 10000 4.1 90 17:45 25.06.2020
2504 Clouds 25 1018 38 10000 3.1 110 17:20 25.06.2020
2505 Clouds 25 1018 44 10000 4.6 100 16:58 25.06.2020
2506 Clouds 24 1019 44 10000 3.6 90 16:38 25.06.2020
2507 Clouds 24 1019 44 10000 3.6 90 16:19 25.06.2020
2508 Clouds 23 1019 49 10000 3.6 90 15:43 25.06.2020
2509 Clouds 22 1019 49 10000 3.6 90 15:25 25.06.2020
2510 Clouds 23 1019 53 10000 2.6 90 14:55 25.06.2020
2511 Clouds 23 1019 53 10000 2.6 90 14:37 25.06.2020
2512 Clouds 23 1019 53 10000 2.1 0 14:18 25.06.2020
2513 Clouds 23 1019 60 10000 2.1 0 13:42 25.06.2020
2514 Clouds 23 1020 60 10000 2.1 0 13:20 25.06.2020
2515 Clouds 21 1020 68 10000 2.6 70 12:58 25.06.2020
2516 Clouds 21 1020 64 10000 1.5 0 12:40 25.06.2020
2517 Clouds 21 1020 64 10000 1.5 0 12:19 25.06.2020
2518 Clouds 20 1020 68 10000 1.5 20 11:42 25.06.2020
2519 Clouds 20 1020 68 10000 1 0 11:22 25.06.2020
2520 Clouds 19 1020 68 10000 1 0 10:44 25.06.2020
2521 Clouds 19 1020 68 10000 2.1 140 10:26 25.06.2020
2522 Clouds 19 1020 68 10000 2.1 140 09:58 25.06.2020
2523 Clouds 19 1020 68 10000 2.1 140 09:40 25.06.2020
2524 Clouds 18 1020 77 10000 1 0 09:19 25.06.2020
2525 Clouds 16 1020 77 10000 1.5 70 08:43 25.06.2020
2526 Clouds 16 1020 77 10000 1.5 30 08:19 25.06.2020
2527 Clouds 16 1020 77 10000 1.5 350 07:44 25.06.2020
2528 Clouds 15 1020 87 10000 1.5 360 07:26 25.06.2020
2529 Clouds 15 1020 87 10000 1.5 360 07:26 25.06.2020
2530 Clouds 14 1021 87 10000 0.5 0 06:46 25.06.2020
2531 Clouds 13 1021 87 10000 0.5 0 06:26 25.06.2020
2532 Clouds 13 1021 87 10000 1 360 05:40 25.06.2020
2533 Clear 14 1022 87 10000 1 30 03:55 25.06.2020
2534 Clear 14 1022 82 10000 1 40 03:25 25.06.2020
2535 Clear 15 1022 77 10000 2.6 60 02:41 25.06.2020
2536 Clouds 16 1022 67 10000 2.1 70 01:43 25.06.2020
2537 Clouds 17 1022 67 10000 1 40 00:59 25.06.2020
2538 Clouds 17 1022 67 10000 1 40 00:40 25.06.2020
2539 Clouds 18 1022 59 10000 1 0 00:18 25.06.2020
2540 Clouds 19 1022 55 10000 4.1 90 23:41 24.06.2020
2541 Clouds 19 1022 52 10000 2.6 70 23:23 24.06.2020
2542 Clouds 19 1022 49 10000 2.6 80 22:56 24.06.2020
2543 Clouds 20 1022 49 10000 2.6 80 22:37 24.06.2020
2544 Clouds 21 1022 46 10000 3.1 70 22:18 24.06.2020
2545 Clouds 21 1021 49 10000 3.1 60 21:55 24.06.2020
2546 Clouds 21 1021 49 10000 3.1 60 21:36 24.06.2020
2547 Clouds 22 1021 49 10000 3.1 40 21:18 24.06.2020
2548 Clouds 23 1021 43 10000 3.1 40 20:55 24.06.2020
2549 Clouds 23 1021 43 10000 3.1 40 20:37 24.06.2020
2550 Clouds 23 1021 43 10000 3.1 40 20:37 24.06.2020
2551 Clouds 24 1021 43 10000 3.1 40 20:18 24.06.2020
2552 Clear 24 1021 41 10000 2.6 40 19:39 24.06.2020
2553 Clear 24 1021 41 10000 2.6 40 19:21 24.06.2020
2554 Clear 25 1021 41 10000 3.6 30 18:59 24.06.2020
2555 Clear 25 1021 36 10000 4.1 10 18:41 24.06.2020
2556 Clear 25 1021 36 10000 4.1 10 18:23 24.06.2020
2557 Clear 25 1021 33 10000 4.6 40 17:58 24.06.2020
2558 Clear 25 1021 33 10000 4.6 40 17:40 24.06.2020
2559 Clear 26 1021 31 10000 3.6 30 17:19 24.06.2020
2560 Clear 25 1021 36 10000 4.1 50 16:56 24.06.2020
2561 Clear 26 1021 36 10000 4.1 50 16:38 24.06.2020
2562 Clear 26 1021 36 10000 4.1 50 16:38 24.06.2020
2563 Clear 25 1021 33 10000 3.1 20 16:20 24.06.2020
2564 Clear 25 1022 33 10000 3.6 360 15:56 24.06.2020
2565 Clear 25 1022 33 10000 3.6 360 15:37 24.06.2020
2566 Clouds 25 1022 33 10000 2.6 360 15:19 24.06.2020
2567 Clouds 25 1022 33 10000 3.1 0 14:42 24.06.2020
2568 Clear 25 1022 33 10000 4.1 10 14:24 24.06.2020
2569 Clear 25 1022 38 10000 2.6 40 13:43 24.06.2020
2570 Clear 24 1023 38 10000 4.6 40 13:22 24.06.2020
2571 Clear 24 1023 38 10000 2.6 100 12:56 24.06.2020
2572 Clear 23 1023 38 10000 4.6 40 12:37 24.06.2020
2573 Clear 23 1023 38 10000 4.6 40 12:18 24.06.2020
2574 Clear 23 1023 40 10000 3.1 50 11:54 24.06.2020
2575 Clear 23 1023 40 10000 3.1 50 11:36 24.06.2020
2576 Clear 23 1023 40 10000 3.1 50 11:36 24.06.2020
2577 Clear 22 1023 40 10000 3.1 0 11:18 24.06.2020
2578 Clear 21 1024 49 10000 3.1 40 10:41 24.06.2020
2579 Clear 21 1024 49 10000 3.1 40 10:18 24.06.2020
2580 Clear 19 1024 49 10000 3.1 70 09:42 24.06.2020
2581 Clear 18 1024 55 10000 2.1 0 09:21 24.06.2020
2582 Clear 17 1023 59 10000 1 0 08:43 24.06.2020
2583 Clear 16 1023 67 10000 1 0 08:21 24.06.2020
2584 Clear 15 1023 72 10000 1.5 310 07:51 24.06.2020
2585 Clear 14 1023 76 10000 1.5 10 07:31 24.06.2020
2586 Clear 12 1023 76 10000 0.5 140 06:51 24.06.2020
2587 Clear 11 1023 81 10000 0.5 0 06:25 24.06.2020
2588 Clear 11 1024 93 10000 1 0 05:56 24.06.2020
2589 Clear 11 1023 93 10000 1 0 04:46 24.06.2020
2590 Clear 12 1024 87 10000 0.5 0 04:27 24.06.2020
2591 Clear 13 1024 81 10000 0.5 0 03:34 24.06.2020
2592 Clear 13 1024 87 10000 1 340 02:45 24.06.2020
2593 Clear 15 1024 76 10000 0.5 0 01:35 24.06.2020
2594 Clear 16 1024 77 10000 1 350 00:47 24.06.2020
2595 Clear 17 1024 72 10000 1 0 00:27 24.06.2020
2596 Clear 17 1024 67 10000 0.5 0 23:44 23.06.2020
2597 Clear 18 1024 59 10000 1.5 50 23:19 23.06.2020
2598 Clear 19 1024 52 10000 2.1 30 22:42 23.06.2020
2599 Clear 20 1024 52 10000 2.1 30 22:19 23.06.2020
2600 Clear 21 1023 49 10000 3.6 40 21:59 23.06.2020
2601 Clear 21 1023 49 10000 3.6 40 21:40 23.06.2020
2602 Clear 22 1023 46 10000 1.5 350 21:19 23.06.2020
2603 Clear 23 1023 41 10000 3.1 350 20:55 23.06.2020
2604 Clear 24 1023 36 10000 2.6 350 20:37 23.06.2020
2605 Clear 24 1023 36 10000 2.6 350 20:18 23.06.2020
2606 Clear 24 1023 36 10000 2.6 350 20:18 23.06.2020
2607 Clear 25 1023 36 10000 3.1 340 19:44 23.06.2020
2608 Clear 25 1023 36 10000 3.6 340 19:25 23.06.2020
2609 Clear 25 1023 36 10000 4.1 40 18:42 23.06.2020
2610 Clear 25 1023 38 10000 3.1 350 18:42 23.06.2020
2611 Clear 25 1023 36 10000 4.1 40 18:19 23.06.2020
2612 Clear 25 1023 36 10000 4.6 330 17:56 23.06.2020
2613 Clear 25 1023 36 10000 4.6 330 17:38 23.06.2020
2614 Clear 25 1023 33 10000 3.6 340 17:19 23.06.2020
2615 Clear 26 1023 33 10000 1.5 0 16:55 23.06.2020
2616 Clear 26 1023 33 10000 1.5 0 16:36 23.06.2020
2617 Clear 26 1024 33 10000 2.1 360 16:18 23.06.2020
2618 Clear 25 1024 33 10000 3.6 360 15:43 23.06.2020
2619 Clear 25 1024 38 10000 2.6 80 15:24 23.06.2020
2620 Clear 25 1024 44 10000 2.6 0 14:56 23.06.2020
2621 Clear 25 1024 41 10000 3.1 0 14:37 23.06.2020
2622 Clear 24 1024 41 10000 3.1 0 14:18 23.06.2020
2623 Clear 24 1025 41 10000 4.1 320 13:45 23.06.2020
2624 Clear 25 1025 41 10000 1.5 0 13:25 23.06.2020
2625 Clear 24 1025 43 10000 1.5 0 12:55 23.06.2020
2626 Clear 23 1025 43 10000 1.5 0 12:37 23.06.2020
2627 Clear 23 1025 46 10000 2.6 20 12:18 23.06.2020
2628 Clear 22 1025 46 10000 3.6 350 11:42 23.06.2020
2629 Clear 22 1025 46 10000 2.6 0 11:22 23.06.2020
2630 Clouds 23 1025 53 10000 1.5 0 10:58 23.06.2020
2631 Clouds 22 1025 53 10000 1.5 0 10:40 23.06.2020
2632 Clear 22 1025 53 10000 1.5 0 10:22 23.06.2020
2633 Clear 21 1025 60 10000 2.6 50 09:56 23.06.2020
2634 Clear 20 1025 60 10000 2.6 50 09:38 23.06.2020
2635 Clear 18 1025 68 10000 2.1 300 09:18 23.06.2020
2636 Clear 18 1025 72 10000 2.1 320 08:42 23.06.2020
2637 Clouds 18 1025 77 10000 2.1 340 08:22 23.06.2020
2638 Clouds 16 1025 82 10000 1 0 07:45 23.06.2020
2639 Clouds 15 1025 87 10000 0.5 0 07:24 23.06.2020
2640 Clouds 14 1025 93 10000 1 0 06:52 23.06.2020
2641 Clouds 14 1025 93 10000 1.5 330 06:32 23.06.2020
2642 Clouds 14 1025 100 10000 1.5 350 05:48 23.06.2020
2643 Clouds 14 1024 93 10000 0.5 0 04:41 23.06.2020
2644 Clear 15 1025 93 10000 0.5 0 03:20 23.06.2020
2645 Clear 16 1024 93 10000 1.5 10 02:46 23.06.2020
2646 Clouds 16 1025 93 10000 1 340 02:27 23.06.2020
2647 Clouds 16 1025 93 10000 1 0 01:44 23.06.2020
2648 Clouds 16 1025 87 10000 1.5 350 01:21 23.06.2020
2649 Clouds 17 1024 82 10000 1 360 00:38 23.06.2020
2650 Clouds 18 1024 77 10000 1.5 360 00:18 23.06.2020
2651 Clouds 19 1024 72 10000 2.6 350 23:39 22.06.2020
2652 Clouds 19 1024 72 10000 2.1 350 23:19 22.06.2020
2653 Clouds 19 1024 68 10000 3.1 340 22:58 22.06.2020
2654 Clouds 20 1024 64 10000 3.6 340 22:40 22.06.2020
2655 Clouds 20 1024 64 10000 3.6 340 22:20 22.06.2020
2656 Clouds 21 1023 60 10000 2.6 360 21:58 22.06.2020
2657 Clouds 22 1023 60 10000 2.6 360 21:40 22.06.2020
2658 Clouds 22 1023 60 10000 2.6 360 21:21 22.06.2020
2659 Clouds 22 1023 56 10000 4.6 360 20:54 22.06.2020
2660 Clouds 23 1023 53 10000 4.1 340 20:36 22.06.2020
2661 Clouds 23 1023 53 10000 4.1 340 20:18 22.06.2020
2662 Clouds 23 1023 53 10000 5.1 320 19:42 22.06.2020
2663 Clouds 24 1023 53 10000 5.1 320 19:19 22.06.2020
2664 Clouds 24 1023 53 10000 5.1 320 18:56 22.06.2020
2665 Clouds 24 1023 50 10000 5.1 310 18:36 22.06.2020
2666 Clouds 24 1023 53 10000 4.1 310 18:18 22.06.2020
2667 Clouds 25 1023 50 10000 5.7 310 17:39 22.06.2020
2668 Clouds 25 1023 50 10000 5.7 310 17:21 22.06.2020
2669 Clouds 24 1023 56 10000 5.1 310 16:59 22.06.2020
2670 Rain 24 1023 50 10000 5.1 320 16:41 22.06.2020
2671 Rain 24 1023 50 10000 5.1 320 16:18 22.06.2020
2672 Rain 25 1023 47 10000 5.1 280 15:54 22.06.2020
2673 Clouds 25 1023 47 10000 5.7 300 15:36 22.06.2020
2674 Clouds 25 1023 53 10000 5.7 290 15:18 22.06.2020
2675 Clouds 25 1023 50 10000 3.6 320 14:39 22.06.2020
2676 Clouds 24 1023 50 10000 3.6 320 14:20 22.06.2020
2677 Clouds 23 1023 56 10000 5.7 300 13:54 22.06.2020
2678 Clouds 24 1023 53 10000 4.6 290 13:36 22.06.2020
2679 Clouds 24 1023 56 10000 5.1 290 13:18 22.06.2020
2680 Clouds 23 1023 56 10000 4.1 290 12:41 22.06.2020
2681 Clouds 22 1023 56 10000 5.1 280 12:22 22.06.2020
2682 Clouds 22 1023 56 10000 5.1 280 12:22 22.06.2020
2683 Clouds 22 1023 56 10000 4.6 300 11:38 22.06.2020
2684 Clouds 22 1023 56 10000 4.6 300 11:38 22.06.2020
2685 Clouds 23 1023 56 10000 4.6 300 11:20 22.06.2020
2686 Clouds 22 1023 56 10000 4.6 290 10:57 22.06.2020
2687 Clouds 22 1023 56 10000 4.6 290 10:57 22.06.2020
2688 Clouds 22 1023 60 10000 4.1 290 10:39 22.06.2020
2689 Clouds 22 1023 60 10000 4.1 290 10:19 22.06.2020
2690 Rain 21 1023 60 10000 4.1 270 09:58 22.06.2020
2691 Rain 21 1023 64 10000 3.6 290 09:40 22.06.2020
2692 Clouds 19 1023 64 10000 3.6 290 09:19 22.06.2020
2693 Clouds 18 1023 68 10000 1 0 08:57 22.06.2020
2694 Clouds 16 1022 82 10000 1.5 100 08:38 22.06.2020
2695 Clouds 16 1022 82 10000 1.5 100 08:19 22.06.2020
2696 Clouds 15 1022 87 10000 3.1 100 07:49 22.06.2020
2697 Clouds 15 1022 87 10000 3.1 100 07:30 22.06.2020
2698 Clouds 14 1022 87 10000 2.1 90 06:43 22.06.2020
2699 Clouds 14 1022 87 10000 2.1 90 06:24 22.06.2020
2700 Clouds 13 1021 93 10000 3.6 100 05:43 22.06.2020
2701 Clouds 14 1021 87 10000 3.1 100 03:48 22.06.2020
2702 Clear 14 1022 87 10000 2.1 90 02:23 22.06.2020
2703 Clear 14 1022 87 0 1 110 01:18 22.06.2020
2704 Clear 15 1021 82 10000 0.5 0 00:39 22.06.2020
2705 Clear 15 1021 82 10000 1.5 100 23:58 21.06.2020
2706 Clear 16 1021 72 10000 0.5 0 23:39 21.06.2020
2707 Clear 16 1021 72 10000 0.5 0 23:39 21.06.2020
2708 Clear 17 1021 72 10000 0.5 0 23:20 21.06.2020
2709 Clear 17 1021 63 10000 0.5 0 22:56 21.06.2020
2710 Clear 19 1021 68 10000 2.1 280 22:37 21.06.2020
2711 Clear 19 1021 68 10000 2.1 280 22:19 21.06.2020
2712 Clear 19 1020 64 10000 1.5 290 21:56 21.06.2020
2713 Clear 19 1020 64 10000 1.5 290 21:56 21.06.2020
2714 Clear 21 1020 56 10000 3.1 270 21:37 21.06.2020
2715 Clear 21 1020 56 10000 3.1 270 21:19 21.06.2020
2716 Clear 21 1020 53 10000 3.6 280 20:57 21.06.2020
2717 Clear 22 1020 46 10000 2.6 290 20:36 21.06.2020
2718 Clear 22 1020 46 10000 2.6 290 20:18 21.06.2020
2719 Clear 23 1020 49 10000 4.1 290 19:41 21.06.2020
2720 Clear 23 1020 44 10000 3.6 270 19:23 21.06.2020
2721 Clear 23 1020 44 10000 3.6 270 18:59 21.06.2020
2722 Clear 23 1020 46 10000 4.6 290 18:40 21.06.2020
2723 Clouds 23 1020 46 10000 3.1 320 18:21 21.06.2020
2724 Clouds 23 1020 46 10000 3.1 320 17:57 21.06.2020
2725 Clouds 23 1020 46 10000 3.1 320 17:38 21.06.2020
2726 Clouds 24 1020 46 10000 3.1 320 17:19 21.06.2020
2727 Clouds 24 1020 44 10000 3.1 290 17:19 21.06.2020
2728 Clouds 23 1020 46 10000 4.1 280 16:41 21.06.2020
2729 Clear 23 1020 46 10000 3.6 330 16:22 21.06.2020
2730 Clear 24 1020 46 10000 3.6 330 15:56 21.06.2020
2731 Clear 24 1020 46 10000 4.1 300 15:36 21.06.2020
2732 Clear 24 1020 46 10000 4.1 290 15:18 21.06.2020
2733 Clouds 23 1020 49 10000 4.6 330 14:39 21.06.2020
2734 Clouds 23 1020 49 10000 4.6 330 14:20 21.06.2020
2735 Clouds 23 1021 49 10000 4.6 320 13:56 21.06.2020
2736 Clouds 23 1021 49 10000 4.6 320 13:56 21.06.2020
2737 Clouds 23 1021 49 10000 3.6 340 13:38 21.06.2020
2738 Clouds 22 1021 49 10000 3.6 340 13:19 21.06.2020
2739 Clouds 22 1021 52 10000 4.1 320 12:44 21.06.2020
2740 Clouds 21 1021 52 10000 4.1 320 12:25 21.06.2020
2741 Clouds 21 1021 60 10000 4.6 310 11:58 21.06.2020
2742 Clouds 21 1021 64 10000 4.6 310 11:39 21.06.2020
2743 Clouds 21 1021 64 10000 4.6 310 11:21 21.06.2020
2744 Clouds 20 1021 72 10000 3.1 320 10:55 21.06.2020
2745 Clouds 19 1021 72 10000 2.6 310 10:36 21.06.2020
2746 Clouds 19 1021 72 10000 2.6 310 10:18 21.06.2020
2747 Clouds 17 1021 77 10000 2.6 330 09:41 21.06.2020
2748 Clouds 17 1021 82 10000 2.6 330 09:19 21.06.2020
2749 Clouds 16 1021 82 10000 2.6 330 08:56 21.06.2020
2750 Clouds 15 1021 87 10000 1.5 280 08:37 21.06.2020
2751 Fog 15 1020 93 10000 1 0 08:19 21.06.2020
2752 Fog 14 1020 93 8000 0.5 0 07:41 21.06.2020
2753 Fog 14 1020 93 8000 0.5 0 07:22 21.06.2020
2754 Fog 13 1020 100 2000 0.5 0 06:49 21.06.2020
2755 Fog 13 1020 100 8000 0.5 20 05:59 21.06.2020
2756 Fog 14 1020 93 8000 0.5 0 05:31 21.06.2020
2757 Clouds 14 1020 100 10000 0.5 20 03:40 21.06.2020
2758 Clouds 14 1020 100 10000 0.5 20 03:18 21.06.2020
2759 Clouds 14 1020 100 10000 1.5 50 02:19 21.06.2020
2760 Rain 15 1021 93 10000 1.5 100 01:24 21.06.2020
2761 Rain 15 1021 93 10000 2.1 320 00:56 21.06.2020
2762 Rain 15 1021 93 8000 2.1 10 00:38 21.06.2020
2763 Rain 15 1021 93 8000 2.1 10 00:19 21.06.2020
2764 Clouds 16 1020 93 10000 2.1 100 23:44 20.06.2020
2765 Clouds 16 1020 93 10000 2.1 100 23:22 20.06.2020
2766 Clouds 16 1020 87 10000 1.5 100 22:56 20.06.2020
2767 Clouds 16 1020 87 10000 1.5 100 22:37 20.06.2020
2768 Clouds 16 1020 87 10000 1.5 100 22:18 20.06.2020
2769 Clouds 17 1020 82 10000 1.5 220 21:56 20.06.2020
2770 Clouds 17 1020 82 10000 1 200 21:38 20.06.2020
2771 Clouds 18 1020 82 10000 1 200 21:19 20.06.2020
2772 Clouds 18 1019 72 10000 2.1 230 20:56 20.06.2020
2773 Clouds 19 1019 72 10000 2.6 240 20:38 20.06.2020
2774 Clouds 19 1019 72 10000 2.6 240 20:19 20.06.2020
2775 Clouds 19 1019 72 10000 2.6 240 20:19 20.06.2020
2776 Clouds 19 1019 77 10000 2.1 190 19:43 20.06.2020
2777 Clouds 19 1019 77 10000 2.1 190 19:23 20.06.2020
2778 Clouds 19 1020 88 10000 1.5 170 18:55 20.06.2020
2779 Thunderstorm 19 1020 87 10000 5.1 30 18:37 20.06.2020
2780 Thunderstorm 19 1020 87 10000 5.1 30 18:18 20.06.2020
2781 Thunderstorm 21 1019 64 10000 5.7 270 17:55 20.06.2020
2782 Clouds 20 1019 56 10000 2.6 240 17:37 20.06.2020
2783 Clouds 20 1019 56 10000 2.6 240 17:18 20.06.2020
2784 Clouds 20 1020 68 10000 1 0 16:39 20.06.2020
2785 Clouds 21 1020 68 10000 1 0 16:18 20.06.2020
2786 Rain 20 1020 72 10000 4.1 280 15:42 20.06.2020
2787 Clouds 21 1020 60 10000 3.6 300 15:19 20.06.2020
2788 Clouds 21 1020 60 10000 3.6 300 14:57 20.06.2020
2789 Clouds 20 1020 52 10000 4.6 340 14:39 20.06.2020
2790 Clouds 21 1020 52 10000 4.6 340 14:19 20.06.2020
2791 Clouds 20 1020 64 10000 3.6 310 13:41 20.06.2020
2792 Clouds 20 1020 64 10000 3.6 310 13:20 20.06.2020
2793 Clouds 20 1020 64 10000 3.6 300 12:55 20.06.2020
2794 Clouds 19 1021 72 10000 2.1 290 12:36 20.06.2020
2795 Clouds 19 1021 82 10000 2.6 310 12:18 20.06.2020
2796 Clouds 18 1021 82 10000 3.1 280 11:38 20.06.2020
2797 Clouds 16 1021 82 10000 3.1 280 11:20 20.06.2020
2798 Clouds 16 1020 82 10000 2.6 270 10:57 20.06.2020
2799 Clouds 16 1020 87 10000 1.5 280 10:38 20.06.2020
2800 Clouds 16 1020 87 10000 1.5 280 10:18 20.06.2020
2801 Clouds 15 1020 87 10000 1.5 300 09:40 20.06.2020
2802 Clouds 14 1020 87 10000 1.5 300 09:22 20.06.2020
2803 Clouds 14 1020 87 10000 2.1 270 08:56 20.06.2020
2804 Rain 14 1020 93 10000 2.6 290 08:38 20.06.2020
2805 Rain 14 1020 93 10000 2.6 290 08:20 20.06.2020
2806 Clouds 14 1020 82 10000 0.5 240 07:44 20.06.2020
2807 Clouds 14 1020 82 10000 0.5 240 07:25 20.06.2020
2808 Clouds 14 1019 87 10000 0.5 0 06:24 20.06.2020
2809 Clouds 14 1019 87 10000 1.5 270 05:59 20.06.2020
2810 Clouds 14 1019 87 10000 1 0 05:40 20.06.2020
2811 Clouds 14 1019 82 10000 1 0 03:21 20.06.2020
2812 Rain 15 1019 82 10000 0.5 0 01:52 20.06.2020
2813 Rain 15 1019 77 10000 2.6 260 01:33 20.06.2020
2814 Thunderstorm 15 1019 77 10000 1 0 00:22 20.06.2020
2815 Thunderstorm 16 1019 72 10000 1.5 50 23:58 19.06.2020
2816 Thunderstorm 16 1018 72 10000 2.6 240 23:39 19.06.2020
2817 Clouds 17 1018 68 10000 2.6 230 23:19 19.06.2020
2818 Clouds 17 1018 68 10000 2.6 230 22:54 19.06.2020
2819 Clouds 17 1018 68 10000 2.1 240 22:36 19.06.2020
2820 Clouds 17 1018 68 10000 2.1 240 22:18 19.06.2020
2821 Clouds 18 1017 63 10000 3.6 250 21:40 19.06.2020
2822 Rain 19 1017 60 10000 5.1 260 21:19 19.06.2020
2823 Rain 19 1017 60 10000 5.1 260 20:59 19.06.2020
2824 Rain 19 1017 56 10000 4.6 270 20:40 19.06.2020
2825 Clouds 19 1017 56 10000 4.6 270 20:21 19.06.2020
2826 Clouds 19 1017 56 10000 4.6 270 20:21 19.06.2020
2827 Clouds 19 1017 56 10000 4.6 270 20:21 19.06.2020
2828 Clouds 19 1017 56 10000 4.6 270 20:21 19.06.2020
2829 Clouds 19 1016 56 10000 4.6 270 19:59 19.06.2020
2830 Rain 19 1016 63 10000 4.1 280 19:41 19.06.2020
2831 Rain 19 1016 63 10000 4.1 280 19:23 19.06.2020
2832 Rain 19 1016 60 10000 5.7 260 18:57 19.06.2020
2833 Clouds 19 1016 60 10000 5.1 260 18:38 19.06.2020
2834 Clouds 20 1016 60 10000 5.1 260 18:20 19.06.2020
2835 Clouds 21 1016 60 10000 5.7 260 17:41 19.06.2020
2836 Clouds 21 1016 60 10000 5.7 260 17:23 19.06.2020
2837 Clouds 21 1016 56 10000 5.7 260 16:57 19.06.2020
2838 Clouds 21 1016 60 10000 5.7 270 16:38 19.06.2020
2839 Clouds 21 1016 60 10000 5.7 270 16:20 19.06.2020
2840 Clouds 21 1016 56 10000 8.7 280 15:44 19.06.2020
2841 Clouds 21 1016 56 10000 8.7 280 15:25 19.06.2020
2842 Clouds 21 1016 60 10000 6.2 270 14:57 19.06.2020
2843 Rain 21 1015 52 10000 6.2 300 14:38 19.06.2020
2844 Rain 22 1015 52 10000 6.2 300 14:20 19.06.2020
2845 Clouds 22 1015 49 10000 5.7 280 13:55 19.06.2020
2846 Clouds 22 1015 52 10000 5.1 300 13:37 19.06.2020
2847 Clouds 22 1015 53 10000 4.6 300 13:18 19.06.2020
2848 Clouds 21 1016 52 10000 5.7 290 12:40 19.06.2020
2849 Clouds 21 1016 56 10000 4.6 290 12:18 19.06.2020
2850 Clouds 21 1015 56 10000 4.1 280 11:40 19.06.2020
2851 Clouds 21 1015 56 10000 4.1 280 11:19 19.06.2020
2852 Clouds 21 1015 64 10000 2.1 240 10:59 19.06.2020
2853 Clouds 20 1015 68 10000 2.1 0 10:41 19.06.2020
2854 Clouds 20 1015 68 10000 2.1 0 10:41 19.06.2020
2855 Clouds 20 1015 68 10000 2.1 0 10:19 19.06.2020
2856 Rain 19 1015 77 10000 1.5 280 09:44 19.06.2020
2857 Clouds 17 1015 77 10000 1.5 280 09:25 19.06.2020
2858 Clouds 16 1015 72 10000 1 0 08:58 19.06.2020
2859 Clouds 16 1015 77 10000 1 0 08:38 19.06.2020
2860 Clouds 15 1015 77 10000 1 0 08:20 19.06.2020
2861 Clouds 13 1015 93 10000 2.1 100 07:40 19.06.2020
2862 Clouds 12 1015 93 10000 2.1 100 07:21 19.06.2020
2863 Clouds 11 1015 93 10000 2.6 90 06:44 19.06.2020
2864 Clouds 11 1015 93 10000 2.6 90 06:20 19.06.2020
2865 Clear 10 1014 93 10000 3.1 100 04:30 19.06.2020
2866 Clear 11 1015 93 10000 2.6 90 03:29 19.06.2020
2867 Clear 12 1015 93 10000 2.6 100 01:23 19.06.2020
2868 Clear 13 1014 87 10000 1 110 00:42 19.06.2020
2869 Clear 13 1014 87 10000 1 110 00:22 19.06.2020
2870 Clear 13 1014 93 10000 0.5 0 23:55 18.06.2020
2871 Clear 13 1014 87 10000 0.5 100 23:36 18.06.2020
2872 Clear 13 1014 87 10000 0.5 100 23:36 18.06.2020
2873 Clear 14 1014 77 10000 0.5 0 23:18 18.06.2020
2874 Clear 14 1014 77 10000 0.5 0 23:18 18.06.2020
2875 Clear 17 1014 67 10000 0.5 0 22:39 18.06.2020
2876 Clear 17 1014 67 10000 0.5 0 22:19 18.06.2020
2877 Clear 17 1013 68 10000 0.5 0 21:55 18.06.2020
2878 Clear 18 1013 63 10000 2.1 360 21:36 18.06.2020
2879 Clear 19 1013 63 10000 2.1 360 21:18 18.06.2020
2880 Clouds 19 1013 60 10000 3.1 340 20:40 18.06.2020
2881 Clouds 19 1013 60 10000 3.1 340 20:20 18.06.2020
2882 Clouds 20 1013 60 10000 3.6 350 19:56 18.06.2020
2883 Clouds 20 1013 64 10000 3.6 350 19:37 18.06.2020
2884 Clouds 20 1013 64 10000 3.6 350 19:18 18.06.2020
2885 Clouds 21 1013 64 10000 4.1 330 18:38 18.06.2020
2886 Clouds 20 1013 64 10000 4.1 330 18:19 18.06.2020
2887 Clouds 20 1013 60 10000 4.1 330 17:45 18.06.2020
2888 Clouds 20 1013 60 10000 3.6 330 17:26 18.06.2020
2889 Clouds 20 1013 60 10000 4.1 310 16:57 18.06.2020
2890 Clouds 20 1013 64 10000 4.1 290 16:39 18.06.2020
2891 Clouds 20 1013 64 10000 4.1 290 16:20 18.06.2020
2892 Clouds 19 1014 68 10000 4.1 270 15:57 18.06.2020
2893 Clouds 20 1014 68 10000 4.1 270 15:38 18.06.2020
2894 Clouds 19 1014 63 10000 4.6 280 15:19 18.06.2020
2895 Clouds 19 1014 63 10000 4.6 280 14:55 18.06.2020
2896 Clouds 19 1014 63 10000 5.1 260 14:37 18.06.2020
2897 Clouds 19 1014 63 10000 5.1 260 14:18 18.06.2020
2898 Clouds 18 1014 68 10000 4.1 270 13:41 18.06.2020
2899 Clouds 18 1014 68 10000 4.1 270 13:23 18.06.2020
2900 Clouds 18 1014 68 10000 4.6 280 12:56 18.06.2020
2901 Clouds 18 1014 68 10000 4.6 280 12:56 18.06.2020
2902 Clouds 17 1014 72 10000 3.1 260 12:37 18.06.2020
2903 Clouds 17 1014 72 10000 3.1 260 12:19 18.06.2020
2904 Clouds 17 1014 72 10000 3.6 290 11:47 18.06.2020
2905 Clouds 16 1014 77 10000 5.1 270 11:21 18.06.2020
2906 Clouds 16 1013 72 10000 4.6 270 10:56 18.06.2020
2907 Clouds 16 1013 77 10000 4.1 260 10:38 18.06.2020
2908 Clouds 15 1013 82 10000 4.1 250 10:18 18.06.2020
2909 Clouds 14 1013 82 10000 4.1 260 09:42 18.06.2020
2910 Clouds 14 1013 82 10000 4.1 260 09:23 18.06.2020
2911 Clouds 13 1013 87 10000 3.6 240 08:42 18.06.2020
2912 Clouds 13 1013 87 10000 3.6 240 08:24 18.06.2020
2913 Clouds 13 1013 93 10000 3.6 240 07:59 18.06.2020
2914 Clouds 13 1013 87 10000 2.6 230 07:40 18.06.2020
2915 Clouds 13 1013 87 10000 2.6 230 07:21 18.06.2020
2916 Clouds 13 1013 93 10000 2.1 240 06:29 18.06.2020
2917 Clouds 14 1012 93 10000 3.6 250 04:27 18.06.2020
2918 Rain 14 1012 87 10000 5.1 250 03:26 18.06.2020
2919 Rain 15 1012 93 7000 4.1 260 01:40 18.06.2020
2920 Rain 15 1012 93 7000 4.1 260 01:18 18.06.2020
2921 Rain 15 1012 93 7000 4.1 260 01:18 18.06.2020
2922 Rain 15 1012 100 7000 5.7 250 00:49 18.06.2020
2923 Rain 16 1012 87 8000 5.1 240 00:24 18.06.2020
2924 Clouds 17 1011 93 10000 4.1 250 23:47 17.06.2020
2925 Clouds 17 1011 93 10000 4.1 250 23:23 17.06.2020
2926 Clouds 17 1011 88 10000 1.5 280 22:59 17.06.2020
2927 Rain 18 1010 93 10000 1.5 250 22:40 17.06.2020
2928 Rain 18 1010 93 10000 1.5 250 22:21 17.06.2020
2929 Rain 18 1010 88 10000 2.6 220 21:58 17.06.2020
2930 Rain 18 1010 88 10000 2.1 210 21:39 17.06.2020
2931 Rain 19 1010 88 10000 2.1 210 21:20 17.06.2020
2932 Rain 20 1009 72 10000 2.6 270 20:39 17.06.2020
2933 Rain 20 1009 72 10000 2.6 270 20:20 17.06.2020
2934 Rain 20 1009 72 10000 3.1 250 19:59 17.06.2020
2935 Rain 20 1009 72 10000 3.1 250 19:59 17.06.2020
2936 Rain 20 1009 77 10000 2.6 270 19:39 17.06.2020
2937 Rain 21 1009 77 10000 2.6 270 19:19 17.06.2020
2938 Rain 22 1009 68 10000 3.1 240 18:45 17.06.2020
2939 Rain 23 1009 68 10000 3.1 240 18:27 17.06.2020
2940 Rain 23 1009 68 10000 3.1 240 18:27 17.06.2020
2941 Rain 22 1009 64 10000 2.1 260 17:47 17.06.2020
2942 Rain 22 1009 64 10000 2.1 260 17:23 17.06.2020
2943 Rain 22 1009 64 10000 1 0 16:58 17.06.2020
2944 Clouds 24 1010 68 10000 3.1 220 16:40 17.06.2020
2945 Clouds 23 1010 68 10000 3.1 220 16:21 17.06.2020
2946 Rain 23 1010 64 10000 4.6 200 15:58 17.06.2020
2947 Rain 23 1010 64 10000 5.7 140 15:39 17.06.2020
2948 Rain 23 1010 64 10000 5.7 140 15:20 17.06.2020
2949 Clouds 23 1009 49 10000 4.1 80 14:58 17.06.2020
2950 Clouds 23 1010 50 10000 3.1 50 14:39 17.06.2020
2951 Clouds 23 1010 50 10000 3.1 50 14:19 17.06.2020
2952 Clouds 23 1010 50 10000 4.6 100 13:56 17.06.2020
2953 Clouds 23 1010 53 10000 3.6 90 13:37 17.06.2020
2954 Clouds 23 1010 53 10000 3.6 90 13:19 17.06.2020
2955 Clouds 23 1011 57 10000 3.1 130 12:42 17.06.2020
2956 Clouds 23 1011 57 10000 3.1 130 12:23 17.06.2020
2957 Clouds 23 1011 60 10000 2.1 0 11:57 17.06.2020
2958 Clouds 22 1011 64 10000 1.5 0 11:37 17.06.2020
2959 Clouds 22 1011 64 10000 1.5 0 11:18 17.06.2020
2960 Clouds 21 1011 73 10000 2.6 350 10:38 17.06.2020
2961 Clouds 21 1011 73 10000 2.6 350 10:19 17.06.2020
2962 Clouds 21 1011 73 10000 2.6 350 10:19 17.06.2020
2963 Clouds 20 1012 82 10000 2.1 330 09:57 17.06.2020
2964 Clouds 19 1012 82 10000 2.1 360 09:39 17.06.2020
2965 Clouds 18 1012 93 10000 3.1 360 09:20 17.06.2020
2966 Clouds 17 1012 93 10000 3.1 360 08:45 17.06.2020
2967 Clouds 17 1012 93 8000 2.6 340 08:20 17.06.2020
2968 Clouds 16 1012 93 6000 1.5 290 07:55 17.06.2020
2969 Fog 16 1012 93 6000 1.5 320 07:37 17.06.2020
2970 Fog 16 1012 93 6000 1 310 07:19 17.06.2020
2971 Mist 15 1012 100 4200 1 310 06:41 17.06.2020
2972 Mist 15 1012 100 4200 1 310 06:23 17.06.2020
2973 Mist 15 1012 100 4200 1 300 05:59 17.06.2020
2974 Mist 15 1012 93 4500 1 290 04:39 17.06.2020
2975 Clouds 16 1013 93 10000 0.5 0 02:48 17.06.2020
2976 Clouds 16 1014 88 10000 1.5 290 01:28 17.06.2020
2977 Clouds 17 1014 88 10000 2.1 280 00:37 17.06.2020
2978 Clouds 17 1014 88 10000 2.1 280 00:19 17.06.2020
2979 Clouds 17 1014 82 10000 1.5 300 23:55 16.06.2020
2980 Clouds 17 1014 82 10000 1.5 300 23:37 16.06.2020
2981 Rain 17 1014 82 10000 1.5 300 23:18 16.06.2020
2982 Rain 18 1014 82 10000 1.5 300 22:39 16.06.2020
2983 Rain 18 1014 82 10000 1.5 300 22:19 16.06.2020
2984 Rain 18 1014 77 10000 1.5 280 21:58 16.06.2020
2985 Rain 18 1013 77 10000 2.1 290 21:40 16.06.2020
2986 Clouds 19 1014 72 10000 3.1 280 21:22 16.06.2020
2987 Clouds 20 1014 72 10000 3.1 280 20:55 16.06.2020
2988 Clouds 20 1014 72 10000 2.6 270 20:36 16.06.2020
2989 Clouds 20 1014 68 10000 3.1 270 20:18 16.06.2020
2990 Clouds 20 1014 68 10000 3.1 270 19:56 16.06.2020
2991 Clouds 21 1014 64 10000 3.1 290 19:37 16.06.2020
2992 Clouds 21 1014 64 10000 3.1 290 19:18 16.06.2020
2993 Clouds 21 1014 68 10000 3.6 260 18:41 16.06.2020
2994 Clouds 21 1014 68 10000 3.6 260 18:21 16.06.2020
2995 Clouds 21 1014 64 10000 3.1 250 17:57 16.06.2020
2996 Clouds 21 1015 68 10000 3.1 260 17:38 16.06.2020
2997 Clouds 21 1015 68 10000 3.1 260 17:19 16.06.2020
2998 Clouds 21 1015 72 10000 3.1 270 16:56 16.06.2020
2999 Clouds 21 1015 72 10000 4.1 260 16:38 16.06.2020
3000 Clouds 21 1015 72 10000 4.1 260 16:19 16.06.2020
3001 Clouds 20 1015 72 10000 3.1 270 15:56 16.06.2020
3002 Clouds 20 1015 77 10000 2.6 250 15:38 16.06.2020
3003 Clouds 20 1015 77 10000 2.6 250 15:20 16.06.2020
3004 Clouds 20 1016 77 10000 3.6 270 14:43 16.06.2020
3005 Clouds 19 1016 77 10000 3.6 270 14:25 16.06.2020
3006 Clouds 19 1016 82 9000 3.6 290 13:58 16.06.2020
3007 Clouds 18 1016 82 8000 3.6 270 13:40 16.06.2020
3008 Clouds 18 1016 82 8000 3.6 270 13:22 16.06.2020
3009 Clouds 17 1016 82 10000 2.1 340 12:42 16.06.2020
3010 Clouds 17 1016 82 10000 2.1 340 12:21 16.06.2020
3011 Clouds 17 1016 82 10000 3.1 360 11:56 16.06.2020
3012 Clouds 17 1016 88 10000 3.1 340 11:38 16.06.2020
3013 Clouds 17 1016 88 10000 3.1 340 11:19 16.06.2020
3014 Clouds 16 1016 93 9000 2.6 340 10:55 16.06.2020
3015 Clouds 16 1016 87 9000 2.6 320 10:37 16.06.2020
3016 Clouds 16 1016 87 8000 2.1 330 10:18 16.06.2020
3017 Clouds 16 1017 97 0 0.94 329 09:42 16.06.2020
3018 Clouds 15 1016 93 8000 2.1 330 09:22 16.06.2020
3019 Clouds 15 1016 93 6000 2.6 330 08:48 16.06.2020
3020 Clouds 15 1016 93 6000 2.6 330 08:30 16.06.2020
3021 Mist 15 1016 93 4200 3.1 340 07:51 16.06.2020
3022 Mist 15 1016 93 3500 2.6 320 07:28 16.06.2020
3023 Mist 15 1016 93 3700 3.1 320 06:55 16.06.2020
3024 Mist 14 1016 100 3000 2.1 310 06:29 16.06.2020
3025 Drizzle 14 1016 100 2700 3.1 320 05:46 16.06.2020
3026 Clouds 14 1017 100 7000 1.5 300 04:42 16.06.2020
3027 Clouds 14 1017 100 9000 1.5 290 03:31 16.06.2020
3028 Clouds 14 1017 100 10000 3.1 270 02:18 16.06.2020
3029 Clouds 14 1017 100 10000 3.1 270 01:31 16.06.2020
3030 Clouds 15 1017 93 10000 2.6 270 00:52 16.06.2020
3031 Clouds 15 1017 93 10000 2.6 270 00:22 16.06.2020
3032 Clouds 15 1017 93 10000 2.6 280 23:43 15.06.2020
3033 Clouds 15 1017 93 10000 2.6 280 23:23 15.06.2020
3034 Clouds 15 1017 93 10000 3.1 270 22:56 15.06.2020
3035 Drizzle 15 1017 93 10000 3.1 290 22:38 15.06.2020
3036 Drizzle 15 1017 93 10000 3.6 290 22:19 15.06.2020
3037 Drizzle 15 1017 93 10000 3.6 290 21:56 15.06.2020
3038 Drizzle 15 1017 93 10000 4.1 290 21:37 15.06.2020
3039 Drizzle 15 1017 93 10000 4.1 290 21:19 15.06.2020
3040 Drizzle 15 1017 93 10000 4.1 280 20:56 15.06.2020
3041 Drizzle 15 1016 93 9000 4.6 270 20:37 15.06.2020
3042 Drizzle 15 1016 93 9000 4.6 270 20:19 15.06.2020
3043 Drizzle 15 1016 100 8000 3.1 270 19:55 15.06.2020
3044 Drizzle 15 1016 100 6000 3.1 280 19:37 15.06.2020
3045 Drizzle 15 1016 100 6000 3.1 280 19:18 15.06.2020
3046 Drizzle 16 1016 93 6000 3.6 290 18:44 15.06.2020
3047 Drizzle 16 1016 93 6000 3.6 290 18:22 15.06.2020
3048 Drizzle 16 1016 93 8000 3.1 290 17:59 15.06.2020
3049 Drizzle 16 1016 93 8000 4.1 290 17:41 15.06.2020
3050 Drizzle 15 1016 93 8000 4.1 290 17:20 15.06.2020
3051 Drizzle 15 1016 93 7000 3.6 290 16:58 15.06.2020
3052 Drizzle 16 1016 93 8000 3.6 300 16:39 15.06.2020
3053 Drizzle 15 1016 93 8000 3.6 300 16:18 15.06.2020
3054 Drizzle 16 1016 93 7000 3.6 300 15:55 15.06.2020
3055 Drizzle 15 1016 100 6000 3.1 300 15:36 15.06.2020
3056 Drizzle 15 1016 93 6000 4.1 290 15:18 15.06.2020
3057 Drizzle 15 1016 93 8000 4.1 290 14:41 15.06.2020
3058 Drizzle 15 1016 93 8000 4.1 290 14:20 15.06.2020
3059 Drizzle 15 1016 93 8000 4.1 290 14:20 15.06.2020
3060 Rain 15 1016 93 8000 3.6 290 13:58 15.06.2020
3061 Rain 15 1016 93 8000 4.1 280 13:38 15.06.2020
3062 Rain 15 1016 93 8000 3.6 310 13:19 15.06.2020
3063 Rain 15 1016 93 8000 4.1 290 12:43 15.06.2020
3064 Rain 15 1016 93 8000 4.1 290 12:23 15.06.2020
3065 Rain 15 1016 93 8000 5.7 290 12:00 15.06.2020
3066 Rain 15 1016 93 8000 4.6 290 11:41 15.06.2020
3067 Rain 15 1016 93 8000 4.6 290 11:23 15.06.2020
3068 Rain 15 1015 93 8000 4.6 280 10:43 15.06.2020
3069 Rain 15 1015 93 8000 4.6 280 10:22 15.06.2020
3070 Rain 15 1015 93 8000 4.1 280 09:45 15.06.2020
3071 Rain 15 1015 93 8000 4.1 280 09:23 15.06.2020
3072 Rain 15 1015 93 4700 3.6 280 08:55 15.06.2020
3073 Rain 15 1015 93 4500 3.1 280 08:36 15.06.2020
3074 Rain 15 1015 93 4500 3.1 280 08:18 15.06.2020
3075 Rain 15 1014 93 10000 4.1 290 07:41 15.06.2020
3076 Rain 15 1014 93 10000 4.1 290 07:20 15.06.2020
3077 Rain 15 1014 93 10000 5.1 280 06:29 15.06.2020
3078 Rain 15 1014 93 10000 5.1 280 05:51 15.06.2020
3079 Rain 15 1014 93 10000 5.7 270 05:30 15.06.2020
3080 Rain 15 1014 87 10000 4.1 260 04:22 15.06.2020
3081 Rain 15 1014 87 10000 4.6 270 03:49 15.06.2020
3082 Clouds 16 1014 87 10000 5.1 270 02:58 15.06.2020
3083 Clouds 16 1014 87 10000 4.6 270 02:32 15.06.2020
3084 Clouds 16 1014 87 10000 3.6 270 01:47 15.06.2020
3085 Clouds 16 1014 87 10000 3.6 270 01:27 15.06.2020
3086 Rain 15 1014 93 10000 3.1 270 00:45 15.06.2020
3087 Rain 15 1014 93 10000 3.1 270 00:23 15.06.2020
3088 Rain 16 1014 82 10000 4.6 270 23:58 14.06.2020
3089 Clouds 16 1014 82 10000 4.1 270 23:40 14.06.2020
3090 Clouds 16 1014 82 10000 4.1 270 23:22 14.06.2020
3091 Clouds 16 1014 82 10000 4.1 260 22:57 14.06.2020
3092 Clouds 16 1014 82 10000 4.1 270 22:38 14.06.2020
3093 Clouds 16 1014 82 10000 4.1 270 22:18 14.06.2020
3094 Clouds 16 1014 77 10000 5.1 270 21:56 14.06.2020
3095 Clouds 16 1014 82 10000 5.1 270 21:38 14.06.2020
3096 Clouds 17 1014 82 10000 5.1 270 21:18 14.06.2020
3097 Clouds 17 1014 82 10000 5.7 270 20:57 14.06.2020
3098 Clouds 17 1013 77 10000 6.2 270 20:38 14.06.2020
3099 Clouds 17 1013 77 10000 6.2 270 20:18 14.06.2020
3100 Clouds 18 1013 77 10000 6.7 270 19:56 14.06.2020
3101 Clouds 18 1013 77 10000 6.7 270 19:37 14.06.2020
3102 Clouds 18 1013 77 10000 6.7 270 19:18 14.06.2020
3103 Clouds 18 1013 82 10000 7.2 270 18:55 14.06.2020
3104 Rain 18 1013 77 10000 6.7 280 18:37 14.06.2020
3105 Rain 18 1013 77 10000 6.7 280 18:18 14.06.2020
3106 Clouds 18 1013 77 10000 6.2 270 18:18 14.06.2020
3107 Clouds 19 1013 77 10000 6.2 270 17:55 14.06.2020
3108 Clouds 19 1012 82 10000 5.7 280 17:36 14.06.2020
3109 Clouds 19 1012 82 10000 6.7 260 17:18 14.06.2020
3110 Clouds 19 1013 82 10000 6.7 270 16:40 14.06.2020
3111 Clouds 19 1013 82 10000 6.7 270 16:20 14.06.2020
3112 Clouds 19 1013 82 10000 6.7 270 16:20 14.06.2020
3113 Clouds 19 1012 82 10000 7.7 260 15:57 14.06.2020
3114 Clouds 19 1012 82 10000 7.2 260 15:39 14.06.2020
3115 Clouds 20 1012 82 10000 6.2 270 15:18 14.06.2020
3116 Clouds 19 1012 82 10000 6.2 270 14:55 14.06.2020
3117 Clouds 19 1012 82 10000 5.7 250 14:36 14.06.2020
3118 Clouds 19 1012 82 10000 5.1 260 14:18 14.06.2020
3119 Clouds 19 1012 88 10000 5.1 270 13:41 14.06.2020
3120 Clouds 19 1012 88 10000 5.1 270 13:22 14.06.2020
3121 Clouds 19 1012 88 10000 5.1 260 12:59 14.06.2020
3122 Clouds 18 1012 93 10000 6.2 240 12:40 14.06.2020
3123 Clouds 18 1012 93 10000 6.2 240 12:21 14.06.2020
3124 Clouds 18 1012 93 10000 4.1 270 11:58 14.06.2020
3125 Clouds 18 1012 93 10000 3.1 290 11:39 14.06.2020
3126 Clouds 18 1012 93 10000 3.1 290 11:20 14.06.2020
3127 Rain 17 1011 93 10000 3.6 290 10:43 14.06.2020
3128 Rain 17 1011 93 10000 3.6 290 10:21 14.06.2020
3129 Rain 17 1011 93 10000 4.1 290 09:58 14.06.2020
3130 Rain 17 1011 93 10000 6.7 300 09:40 14.06.2020
3131 Rain 17 1011 93 10000 6.7 300 09:21 14.06.2020
3132 Thunderstorm 16 1011 100 10000 4.6 280 08:42 14.06.2020
3133 Thunderstorm 16 1011 100 6000 5.1 250 08:21 14.06.2020
3134 Thunderstorm 16 1011 100 5000 3.6 190 07:52 14.06.2020
3135 Thunderstorm 16 1011 100 5000 3.6 190 07:34 14.06.2020
3136 Rain 17 1009 93 8000 4.1 290 06:40 14.06.2020
3137 Clouds 17 1009 93 10000 5.7 280 05:49 14.06.2020
3138 Clouds 17 1009 93 10000 5.7 280 05:21 14.06.2020
3139 Clouds 17 1009 88 10000 4.1 270 04:36 14.06.2020
3140 Clouds 17 1009 88 10000 4.1 290 03:44 14.06.2020
3141 Rain 17 1009 88 10000 2.1 280 02:34 14.06.2020
3142 Clouds 18 1009 88 10000 3.6 290 01:49 14.06.2020
3143 Clouds 18 1008 82 10000 3.6 270 01:26 14.06.2020
3144 Thunderstorm 19 1008 77 10000 6.7 280 00:42 14.06.2020
3145 Thunderstorm 19 1008 77 10000 6.7 280 00:20 14.06.2020
3146 Thunderstorm 20 1009 77 7000 3.6 200 23:44 13.06.2020
3147 Thunderstorm 21 1009 77 7000 3.6 200 23:25 13.06.2020
3148 Thunderstorm 22 1008 69 10000 3.6 260 22:58 13.06.2020
3149 Thunderstorm 23 1008 69 10000 3.1 250 22:37 13.06.2020
3150 Clouds 23 1008 64 10000 3.1 270 22:18 13.06.2020
3151 Clouds 23 1008 64 10000 3.1 270 21:56 13.06.2020
3152 Clouds 23 1007 64 10000 3.1 270 21:37 13.06.2020
3153 Clouds 24 1007 64 10000 4.1 270 21:19 13.06.2020
3154 Clouds 25 1007 57 10000 3.1 280 20:42 13.06.2020
3155 Clouds 25 1007 57 10000 3.1 280 20:42 13.06.2020
3156 Clouds 25 1007 57 10000 3.1 280 20:19 13.06.2020
3157 Clouds 26 1006 47 10000 4.1 280 19:57 13.06.2020
3158 Clouds 27 1007 42 10000 2.6 280 19:36 13.06.2020
3159 Clouds 27 1007 42 10000 2.6 280 19:18 13.06.2020
3160 Clouds 28 1007 39 10000 1 0 18:55 13.06.2020
3161 Clouds 28 1007 39 10000 1 0 18:37 13.06.2020
3162 Rain 28 1007 42 10000 0.5 0 18:18 13.06.2020
3163 Rain 28 1008 42 10000 1.5 310 17:42 13.06.2020
3164 Rain 29 1008 42 10000 1.5 0 17:23 13.06.2020
3165 Rain 29 1008 42 10000 1.5 0 16:58 13.06.2020
3166 Rain 29 1008 42 10000 1.5 0 16:39 13.06.2020
3167 Rain 29 1008 42 10000 1.5 0 16:19 13.06.2020
3168 Rain 29 1009 39 10000 1.5 0 15:54 13.06.2020
3169 Rain 28 1009 48 10000 3.1 0 15:36 13.06.2020
3170 Rain 28 1009 48 10000 3.1 0 15:18 13.06.2020
3171 Rain 28 1009 47 10000 3.6 80 14:43 13.06.2020
3172 Rain 27 1009 47 10000 3.6 80 14:21 13.06.2020
3173 Clouds 27 1010 50 10000 3.1 0 13:45 13.06.2020
3174 Clouds 27 1010 50 10000 3.1 0 13:26 13.06.2020
3175 Clouds 26 1010 54 10000 3.6 290 12:57 13.06.2020
3176 Clouds 26 1010 53 10000 2.6 0 12:37 13.06.2020
3177 Clouds 26 1010 53 10000 2.6 0 12:19 13.06.2020
3178 Clouds 26 1010 53 10000 2.6 0 12:19 13.06.2020
3179 Clouds 25 1010 60 10000 2.1 0 11:40 13.06.2020
3180 Clouds 24 1010 64 10000 2.1 270 11:19 13.06.2020
3181 Clouds 24 1010 64 10000 2.1 270 10:58 13.06.2020
3182 Clear 24 1010 68 10000 1.5 330 10:40 13.06.2020
3183 -273 0 0 0 0 0 10:22 13.06.2020
3184 Clear 23 1010 68 10000 1.5 340 09:52 13.06.2020
3185 Clear 21 1010 68 10000 2.1 320 09:32 13.06.2020
3186 Clear 20 1010 72 10000 2.1 330 08:56 13.06.2020
3187 Clear 20 1010 77 10000 1.5 350 08:37 13.06.2020
3188 Clear 19 1010 77 10000 1.5 350 08:19 13.06.2020
3189 Clear 18 1010 87 10000 1 0 07:42 13.06.2020
3190 Clear 17 1010 87 10000 1 0 07:23 13.06.2020
3191 Clear 16 1009 93 10000 1.5 300 06:44 13.06.2020
3192 Clear 14 1009 93 10000 1.5 300 06:24 13.06.2020
3193 Clear 14 1009 93 10000 1 350 05:27 13.06.2020
3194 Clear 14 1008 87 10000 0.5 10 04:34 13.06.2020
3195 Clear 16 1008 82 10000 1 340 02:55 13.06.2020
3196 Clear 16 1008 82 10000 1 0 02:37 13.06.2020
3197 Clear 17 1008 77 10000 0.5 0 01:47 13.06.2020
3198 Clear 17 1008 72 10000 1 0 01:22 13.06.2020
3199 Clear 18 1007 60 10000 2.6 80 00:45 13.06.2020
3200 Clear 18 1007 60 10000 2.6 80 00:26 13.06.2020
3201 Clear 18 1007 63 10000 1.5 60 23:55 12.06.2020
3202 Clear 19 1007 56 10000 1.5 50 23:37 12.06.2020
3203 Clear 20 1007 52 10000 2.1 60 23:18 12.06.2020
3204 Clear 21 1007 46 10000 3.1 70 22:41 12.06.2020
3205 Clear 22 1007 41 10000 3.1 70 22:19 12.06.2020
3206 Clear 23 1007 41 10000 3.1 70 21:50 12.06.2020
3207 Clear 24 1007 38 10000 3.6 70 21:27 12.06.2020
3208 Clear 25 1006 39 10000 3.6 90 20:59 12.06.2020
3209 Clear 25 1006 41 10000 4.6 90 20:41 12.06.2020
3210 Clear 25 1006 41 10000 4.6 90 20:22 12.06.2020
3211 Clear 26 1006 36 10000 4.6 90 19:57 12.06.2020
3212 Clear 26 1006 36 10000 4.6 90 19:57 12.06.2020
3213 Clear 27 1006 36 10000 4.6 80 19:38 12.06.2020
3214 Clear 27 1006 39 10000 5.7 90 19:18 12.06.2020
3215 Clear 26 1006 42 10000 4.1 80 18:39 12.06.2020
3216 Clear 28 1006 39 10000 4.1 100 18:19 12.06.2020
3217 Clear 28 1006 39 10000 4.1 100 17:58 12.06.2020
3218 Clear 27 1006 42 10000 6.2 90 17:38 12.06.2020
3219 Clear 27 1006 42 10000 6.2 90 17:18 12.06.2020
3220 Clear 27 1007 39 10000 4.6 90 16:41 12.06.2020
3221 Clear 28 1007 39 10000 4.6 90 16:20 12.06.2020
3222 Clear 28 1007 39 10000 5.7 110 15:48 12.06.2020
3223 Clear 27 1007 39 10000 5.7 110 15:25 12.06.2020
3224 Clear 26 1007 39 10000 5.7 100 14:56 12.06.2020
3225 Clear 27 1007 41 10000 6.7 110 14:38 12.06.2020
3226 Clear 26 1007 41 10000 6.7 110 14:20 12.06.2020
3227 Clear 26 1008 47 10000 4.6 0 13:42 12.06.2020
3228 Clouds 25 1008 47 10000 5.1 80 13:21 12.06.2020
3229 Clouds 24 1008 50 10000 4.6 100 12:41 12.06.2020
3230 Clouds 24 1008 56 10000 4.6 90 12:20 12.06.2020
3231 Clouds 24 1008 56 10000 4.6 90 11:58 12.06.2020
3232 Clouds 23 1009 56 10000 4.6 100 11:38 12.06.2020
3233 Clouds 23 1009 56 10000 4.6 100 11:19 12.06.2020
3234 Clouds 22 1009 64 10000 3.1 70 10:45 12.06.2020
3235 Clouds 21 1009 64 10000 3.1 70 10:24 12.06.2020
3236 Clear 20 1010 68 10000 3.1 90 09:46 12.06.2020
3237 Clear 18 1010 68 10000 3.1 100 09:21 12.06.2020
3238 Clear 17 1009 82 10000 1 0 08:44 12.06.2020
3239 Clear 16 1009 82 10000 1 0 08:25 12.06.2020
3240 Fog 15 1009 93 10000 1 0 07:44 12.06.2020
3241 Fog 15 1009 93 10000 1 0 07:44 12.06.2020
3242 Fog 14 1009 93 10000 1 0 07:25 12.06.2020
3243 Fog 12 1009 93 10000 0.5 0 06:55 12.06.2020
3244 Fog 11 1009 100 10000 0.5 0 06:30 12.06.2020
3245 Fog 10 1009 100 10000 1.5 350 05:53 12.06.2020
3246 Fog 10 1009 100 9000 0.5 0 05:30 12.06.2020
3247 Fog 11 1009 100 10000 1.5 350 04:55 12.06.2020
3248 Fog 12 1010 100 10000 1 0 03:20 12.06.2020
3249 Fog 12 1010 100 10000 0.5 0 01:53 12.06.2020
3250 Fog 13 1010 93 10000 0.5 120 01:26 12.06.2020
3251 Clouds 13 1010 93 10000 1 0 00:42 12.06.2020
3252 Clouds 14 1010 93 10000 1 0 00:24 12.06.2020
3253 Clouds 14 1010 87 10000 1 0 23:59 11.06.2020
3254 Clouds 15 1010 82 10000 1.5 40 23:40 11.06.2020
3255 Clouds 15 1010 82 10000 2.1 70 23:21 11.06.2020
3256 Clouds 15 1010 82 10000 2.1 70 22:57 11.06.2020
3257 Clouds 16 1009 77 10000 2.1 20 22:38 11.06.2020
3258 Clouds 17 1009 77 10000 2.1 10 22:19 11.06.2020
3259 Clouds 18 1009 68 10000 1.5 360 21:55 11.06.2020
3260 Clouds 18 1009 68 10000 1.5 360 21:37 11.06.2020
3261 Clouds 19 1009 64 10000 1.5 360 21:19 11.06.2020
3262 Clouds 19 1009 64 10000 1.5 10 20:43 11.06.2020
3263 Clouds 19 1009 64 10000 1.5 10 20:21 11.06.2020
3264 Clouds 19 1009 60 10000 2.1 300 19:45 11.06.2020
3265 Clouds 19 1009 60 10000 2.1 300 19:23 11.06.2020
3266 Clouds 19 1009 63 10000 2.1 320 18:59 11.06.2020
3267 Clouds 19 1009 63 10000 2.1 320 18:41 11.06.2020
3268 Clouds 20 1009 60 10000 2.6 340 18:20 11.06.2020
3269 Clouds 20 1009 64 10000 3.6 20 17:56 11.06.2020
3270 Clouds 20 1009 64 10000 3.6 20 17:37 11.06.2020
3271 Clouds 21 1009 63 10000 1.5 350 17:19 11.06.2020
3272 Clouds 20 1009 63 10000 2.1 20 16:46 11.06.2020
3273 Clouds 20 1009 68 10000 1.5 60 16:28 11.06.2020
3274 Clouds 19 1010 68 10000 1 0 15:59 11.06.2020
3275 Clouds 19 1010 68 10000 1 0 15:41 11.06.2020
3276 Clouds 19 1009 68 10000 1.5 0 15:23 11.06.2020
3277 Clouds 19 1010 68 10000 1.5 110 14:55 11.06.2020
3278 Clouds 19 1010 68 10000 1.5 110 14:36 11.06.2020
3279 Clouds 18 1009 68 10000 1.5 70 14:18 11.06.2020
3280 Clouds 19 1010 68 10000 1 0 13:54 11.06.2020
3281 Clouds 19 1010 68 10000 1 0 13:36 11.06.2020
3282 Clouds 18 1010 77 10000 0.5 0 13:18 11.06.2020
3283 Clouds 17 1010 82 10000 1.5 70 12:39 11.06.2020
3284 Clouds 17 1010 82 10000 1.5 70 12:20 11.06.2020
3285 Clouds 17 1009 77 10000 1 0 11:59 11.06.2020
3286 Clouds 17 1009 77 10000 1 0 11:40 11.06.2020
3287 Clouds 16 1009 82 10000 1 0 11:22 11.06.2020
3288 Clouds 15 1009 87 10000 1.5 190 10:57 11.06.2020
3289 Clouds 15 1009 87 10000 1.5 190 10:38 11.06.2020
3290 Clouds 14 1009 93 10000 1.5 40 10:18 11.06.2020
3291 Clouds 14 1009 87 9000 1 0 09:42 11.06.2020
3292 Clouds 13 1009 93 8000 1 0 09:23 11.06.2020
3293 Clouds 13 1010 93 8000 1 0 08:44 11.06.2020
3294 Clouds 12 1009 100 6000 1.5 340 08:20 11.06.2020
3295 Mist 12 1009 100 5000 2.1 350 07:58 11.06.2020
3296 Mist 12 1009 100 5000 2.1 350 07:40 11.06.2020
3297 Mist 12 1009 100 4800 1.5 330 07:20 11.06.2020
3298 Drizzle 12 1009 100 3500 2.1 330 06:29 11.06.2020
3299 Drizzle 12 1009 100 2500 1.5 320 05:39 11.06.2020
3300 Mist 12 1010 93 4700 2.6 330 03:54 11.06.2020
3301 Mist 12 1010 93 5000 2.6 320 03:23 11.06.2020
3302 Drizzle 12 1010 93 4000 2.1 320 02:32 11.06.2020
3303 Mist 12 1011 93 4000 2.1 310 01:51 11.06.2020
3304 Drizzle 12 1011 93 4000 2.1 310 01:25 11.06.2020
3305 Drizzle 12 1011 93 4500 2.6 320 00:50 11.06.2020
3306 Mist 12 1011 100 4700 2.6 320 00:29 11.06.2020
3307 Drizzle 12 1011 100 5000 2.1 320 23:47 10.06.2020
3308 Drizzle 12 1011 100 6000 2.6 320 23:27 10.06.2020
3309 Drizzle 12 1012 93 8000 2.6 320 22:57 10.06.2020
3310 Drizzle 12 1012 93 8000 2.6 320 22:38 10.06.2020
3311 Rain 12 1011 93 10000 2.6 330 22:19 10.06.2020
3312 Rain 12 1011 93 10000 2.6 330 21:56 10.06.2020
3313 Rain 12 1011 93 10000 2.6 330 21:38 10.06.2020
3314 Rain 12 1011 93 10000 3.1 340 21:18 10.06.2020
3315 Rain 12 1011 93 10000 3.6 340 20:56 10.06.2020
3316 Drizzle 12 1012 87 10000 4.1 350 20:38 10.06.2020
3317 Drizzle 12 1012 87 10000 4.1 350 20:20 10.06.2020
3318 Drizzle 13 1012 87 10000 3.6 350 19:41 10.06.2020
3319 Drizzle 13 1012 82 10000 3.6 350 19:20 10.06.2020
3320 Rain 13 1012 82 10000 4.6 360 18:58 10.06.2020
3321 Rain 14 1012 82 10000 4.6 360 18:40 10.06.2020
3322 Rain 14 1012 77 10000 4.1 360 18:19 10.06.2020
3323 Clouds 14 1012 77 10000 4.1 360 17:56 10.06.2020
3324 Clouds 15 1012 77 10000 4.1 360 17:37 10.06.2020
3325 Clouds 15 1012 82 10000 4.1 360 17:19 10.06.2020
3326 Clouds 15 1012 77 10000 4.6 10 16:57 10.06.2020
3327 Clouds 15 1012 77 10000 4.6 10 16:39 10.06.2020
3328 Clouds 15 1012 77 10000 4.1 10 16:19 10.06.2020
3329 Rain 15 1012 82 10000 3.1 340 15:41 10.06.2020
3330 Rain 15 1012 82 10000 3.1 340 15:22 10.06.2020
3331 Clouds 15 1012 82 10000 2.1 330 14:56 10.06.2020
3332 Clouds 15 1012 82 10000 2.1 330 14:38 10.06.2020
3333 Clouds 15 1012 82 10000 4.1 350 14:20 10.06.2020
3334 Clouds 15 1012 82 10000 4.1 350 13:41 10.06.2020
3335 Clouds 15 1012 82 10000 4.6 350 13:21 10.06.2020
3336 Clouds 14 1012 87 10000 4.1 340 12:45 10.06.2020
3337 Clouds 14 1012 87 10000 4.1 340 12:23 10.06.2020
3338 Clouds 14 1013 87 10000 3.1 340 11:58 10.06.2020
3339 Rain 13 1013 93 10000 3.1 350 11:40 10.06.2020
3340 Rain 13 1013 93 10000 3.1 350 11:19 10.06.2020
3341 Rain 13 1013 87 10000 2.6 10 10:57 10.06.2020
3342 Rain 13 1013 93 10000 3.1 350 10:39 10.06.2020
3343 Rain 13 1013 93 10000 3.1 350 10:20 10.06.2020
3344 Clouds 13 1013 93 10000 3.6 360 09:42 10.06.2020
3345 Clouds 13 1013 93 10000 3.6 360 09:23 10.06.2020
3346 Clouds 13 1013 93 10000 3.6 340 08:57 10.06.2020
3347 Clouds 13 1013 93 10000 3.1 350 08:38 10.06.2020
3348 Clouds 13 1013 93 10000 3.1 350 08:20 10.06.2020
3349 Clouds 12 1013 100 8000 2.6 340 07:39 10.06.2020
3350 Clouds 12 1013 100 8000 2.6 340 07:20 10.06.2020
3351 Clouds 12 1013 93 8000 2.6 350 06:44 10.06.2020
3352 Rain 12 1013 93 8000 3.1 330 06:23 10.06.2020
3353 Clouds 12 1013 93 9000 3.6 330 05:56 10.06.2020
3354 Rain 12 1013 93 8000 3.1 350 05:26 10.06.2020
3355 Clouds 12 1013 93 10000 3.1 340 04:35 10.06.2020
3356 Rain 12 1014 93 10000 2.1 340 02:56 10.06.2020
3357 Clouds 12 1014 87 10000 2.6 340 02:20 10.06.2020
3358 Clouds 12 1014 87 10000 2.6 330 01:36 10.06.2020
3359 Clouds 13 1014 87 10000 3.1 340 00:39 10.06.2020
3360 Clouds 13 1014 93 10000 3.1 340 00:21 10.06.2020
3361 Clouds 13 1014 93 10000 3.1 340 23:56 09.06.2020
3362 Clouds 13 1014 93 10000 3.1 340 23:37 09.06.2020
3363 Clouds 13 1014 93 10000 2.6 340 23:19 09.06.2020
3364 Clouds 13 1014 93 10000 2.6 340 22:55 09.06.2020
3365 Clouds 13 1014 93 10000 2.6 340 22:37 09.06.2020
3366 Rain 13 1014 93 10000 2.1 340 22:18 09.06.2020
3367 Clouds 13 1014 93 10000 2.6 340 21:55 09.06.2020
3368 Clouds 13 1014 93 10000 2.6 340 21:37 09.06.2020
3369 Clouds 13 1014 87 10000 2.6 340 21:19 09.06.2020
3370 Clouds 13 1014 87 10000 2.1 10 20:56 09.06.2020
3371 Clouds 14 1014 87 10000 2.1 10 20:38 09.06.2020
3372 Rain 14 1014 93 10000 2.6 360 20:18 09.06.2020
3373 Rain 14 1014 87 10000 3.1 350 19:55 09.06.2020
3374 Rain 14 1014 87 10000 3.1 360 19:37 09.06.2020
3375 Rain 14 1014 87 10000 3.1 360 19:18 09.06.2020
3376 Rain 15 1014 93 10000 3.6 350 18:45 09.06.2020
3377 Rain 15 1014 87 10000 3.6 350 18:26 09.06.2020
3378 Rain 14 1014 87 10000 2.6 350 17:57 09.06.2020
3379 Drizzle 15 1014 87 10000 3.6 350 17:39 09.06.2020
3380 Drizzle 15 1014 87 10000 3.6 350 17:21 09.06.2020
3381 Rain 15 1014 87 10000 3.1 20 16:56 09.06.2020
3382 Rain 15 1014 87 10000 3.1 20 16:56 09.06.2020
3383 Rain 15 1014 87 10000 3.1 20 16:37 09.06.2020
3384 Rain 15 1014 93 10000 4.1 350 16:19 09.06.2020
3385 Rain 15 1014 87 10000 5.1 360 15:40 09.06.2020
3386 Rain 15 1014 87 10000 3.6 360 15:21 09.06.2020
3387 Rain 15 1015 87 10000 3.1 360 14:57 09.06.2020
3388 Rain 15 1015 87 10000 3.1 360 14:38 09.06.2020
3389 Rain 14 1015 87 10000 3.1 20 14:19 09.06.2020
3390 Rain 14 1015 87 10000 2.6 20 13:54 09.06.2020
3391 Rain 14 1015 87 10000 2.6 20 13:36 09.06.2020
3392 Rain 14 1015 87 10000 2.6 20 13:36 09.06.2020
3393 Rain 14 1015 93 10000 1.5 30 13:18 09.06.2020
3394 Rain 14 1015 93 10000 2.1 10 12:41 09.06.2020
3395 Rain 14 1015 87 10000 3.6 350 12:20 09.06.2020
3396 Rain 14 1015 87 10000 3.1 350 11:56 09.06.2020
3397 Rain 14 1015 87 10000 3.1 350 11:37 09.06.2020
3398 Rain 14 1015 93 10000 3.1 350 11:37 09.06.2020
3399 Rain 13 1015 93 10000 3.1 350 11:19 09.06.2020
3400 Rain 13 1015 93 10000 3.1 350 11:19 09.06.2020
3401 Rain 13 1014 93 10000 4.1 350 10:45 09.06.2020
3402 Rain 13 1014 87 10000 3.1 350 10:27 09.06.2020
3403 Rain 13 1014 87 10000 3.6 350 09:59 09.06.2020
3404 Rain 13 1014 87 10000 3.6 350 09:39 09.06.2020
3405 Clouds 12 1014 93 10000 3.1 350 09:19 09.06.2020
3406 Rain 12 1014 93 10000 2.6 340 08:39 09.06.2020
3407 Rain 12 1014 93 10000 2.6 340 08:39 09.06.2020
3408 Rain 12 1014 93 10000 2.6 350 08:21 09.06.2020
3409 Rain 11 1014 93 10000 2.6 350 08:21 09.06.2020
3410 Rain 11 1014 93 10000 1.5 320 07:42 09.06.2020
3411 Rain 11 1014 93 10000 1.5 320 07:22 09.06.2020
3412 Rain 11 1014 93 10000 1 290 06:55 09.06.2020
3413 Rain 11 1014 93 10000 1.5 260 06:36 09.06.2020
3414 Rain 12 1014 87 10000 1 220 05:37 09.06.2020
3415 Clouds 12 1013 81 10000 2.6 350 03:53 09.06.2020
3416 Clouds 12 1014 87 10000 0.5 280 02:20 09.06.2020
3417 Clouds 12 1014 81 10000 2.1 330 01:36 09.06.2020
3418 Clouds 12 1014 81 10000 2.1 330 01:18 09.06.2020
3419 Clouds 12 1014 93 10000 1.5 360 00:40 09.06.2020
3420 Clouds 12 1014 93 10000 1.5 360 00:19 09.06.2020
3421 Clouds 12 1014 93 10000 0.5 0 23:41 08.06.2020
3422 Clouds 12 1014 81 10000 0.5 20 23:21 08.06.2020
3423 Clouds 13 1014 71 10000 1.5 70 22:56 08.06.2020
3424 Clouds 13 1014 71 10000 1.5 70 22:56 08.06.2020
3425 Clouds 13 1014 71 10000 1.5 70 22:38 08.06.2020
3426 Clouds 13 1014 67 10000 2.1 70 22:19 08.06.2020
3427 Clouds 14 1014 62 10000 2.1 80 21:55 08.06.2020
3428 Clouds 14 1014 62 10000 2.1 80 21:55 08.06.2020
3429 Clouds 16 1014 59 10000 2.6 80 21:36 08.06.2020
3430 Clouds 15 1014 59 10000 2.6 80 21:18 08.06.2020
3431 Clouds 16 1014 55 10000 2.6 70 20:54 08.06.2020
3432 Clouds 16 1014 51 10000 1.5 60 20:36 08.06.2020
3433 Clouds 16 1014 51 10000 1.5 60 20:18 08.06.2020
3434 Clouds 17 1013 59 10000 2.1 60 19:43 08.06.2020
3435 Clouds 17 1013 63 10000 1.5 70 19:21 08.06.2020
3436 Clouds 17 1013 63 10000 1.5 60 18:43 08.06.2020
3437 Clouds 17 1013 59 10000 2.1 30 18:21 08.06.2020
3438 Clouds 17 1013 55 10000 2.1 360 17:57 08.06.2020
3439 Clouds 18 1013 55 10000 2.1 360 17:39 08.06.2020
3440 Clouds 18 1013 55 10000 2.1 360 17:39 08.06.2020
3441 Clouds 18 1013 51 10000 2.6 320 17:21 08.06.2020
3442 Clouds 17 1014 51 10000 2.1 280 16:58 08.06.2020
3443 Clouds 17 1014 51 10000 2.1 280 16:58 08.06.2020
3444 Clouds 18 1014 51 10000 2.1 280 16:39 08.06.2020
3445 Clouds 18 1014 55 10000 1.5 260 16:21 08.06.2020
3446 Clouds 18 1014 51 10000 1 0 15:42 08.06.2020
3447 Clouds 18 1014 55 10000 1 0 15:21 08.06.2020
3448 Clouds 18 1014 59 10000 1.5 170 14:58 08.06.2020
3449 Clouds 18 1014 59 10000 1.5 170 14:38 08.06.2020
3450 Clouds 18 1014 55 10000 2.1 120 14:18 08.06.2020
3451 Clouds 18 1014 55 10000 2.1 120 14:18 08.06.2020
3452 Clouds 18 1014 55 10000 2.6 110 13:42 08.06.2020
3453 Clouds 18 1014 55 10000 2.6 110 13:42 08.06.2020
3454 Clouds 18 1014 51 10000 3.6 110 13:23 08.06.2020
3455 Clouds 17 1014 59 10000 3.6 90 12:42 08.06.2020
3456 Clouds 17 1014 59 10000 2.6 100 12:20 08.06.2020
3457 Clouds 16 1014 63 10000 2.6 70 11:59 08.06.2020
3458 Clouds 17 1014 59 10000 1.5 0 11:40 08.06.2020
3459 Clouds 17 1014 59 10000 1.5 0 11:21 08.06.2020
3460 Clouds 16 1014 63 10000 1 0 10:57 08.06.2020
3461 Clouds 16 1014 63 10000 1 0 10:38 08.06.2020
3462 Clouds 15 1014 72 10000 1 0 10:20 08.06.2020
3463 Clouds 14 1014 76 10000 1 0 09:48 08.06.2020
3464 Clouds 13 1014 76 10000 1.5 100 09:23 08.06.2020
3465 Clouds 12 1014 81 10000 2.1 100 08:57 08.06.2020
3466 Clouds 12 1014 81 10000 2.1 100 08:39 08.06.2020
3467 Clouds 11 1014 81 10000 1.5 100 08:19 08.06.2020
3468 Clouds 9 1013 87 10000 2.1 130 07:40 08.06.2020
3469 Clouds 9 1013 87 10000 2.1 130 07:21 08.06.2020
3470 Clouds 7 1013 93 10000 2.1 110 06:41 08.06.2020
3471 Clouds 7 1013 100 10000 3.1 100 06:21 08.06.2020
3472 Fog 6 1013 100 10000 3.1 100 05:42 08.06.2020
3473 Clouds 7 1013 100 10000 3.1 100 03:29 08.06.2020
3474 Clouds 8 1013 100 10000 3.1 90 02:26 08.06.2020
3475 Clouds 8 1013 93 10000 3.6 100 01:44 08.06.2020
3476 Clouds 9 1013 100 10000 2.6 100 00:58 08.06.2020
3477 Clouds 10 1013 100 10000 2.6 120 00:25 08.06.2020
3478 Clouds 10 1013 93 10000 3.1 110 23:40 07.06.2020
3479 Clouds 11 1013 93 10000 2.6 120 23:19 07.06.2020
3480 Clouds 11 1012 93 10000 2.6 150 22:58 07.06.2020
3481 Clouds 11 1012 93 10000 2.6 150 22:38 07.06.2020
3482 Clouds 12 1012 87 10000 2.6 160 22:18 07.06.2020
3483 Clouds 12 1012 87 10000 2.1 140 21:58 07.06.2020
3484 Clouds 12 1012 87 10000 2.1 140 21:37 07.06.2020
3485 Clouds 13 1011 76 10000 2.6 180 21:19 07.06.2020
3486 Clouds 14 1011 82 10000 3.1 160 20:40 07.06.2020
3487 Clouds 14 1011 82 10000 3.1 160 20:21 07.06.2020
3488 Clouds 14 1011 82 10000 2.1 170 19:59 07.06.2020
3489 Clouds 14 1011 82 10000 2.1 170 19:41 07.06.2020
3490 Clouds 14 1011 82 10000 3.1 160 19:21 07.06.2020
3491 Clouds 14 1010 82 10000 3.6 130 19:00 07.06.2020
3492 Clouds 14 1010 82 10000 3.1 140 18:39 07.06.2020
3493 Clouds 14 1010 82 10000 3.1 140 18:21 07.06.2020
3494 Clouds 13 1010 87 10000 3.1 130 17:58 07.06.2020
3495 Clouds 13 1010 87 10000 3.1 130 17:38 07.06.2020
3496 Clouds 13 1010 87 10000 3.6 150 17:20 07.06.2020
3497 Clouds 13 1010 87 10000 3.1 150 16:43 07.06.2020
3498 Clouds 13 1010 87 10000 3.1 150 16:22 07.06.2020
3499 Clouds 14 1010 76 10000 2.6 150 15:44 07.06.2020
3500 Clouds 14 1010 76 10000 2.6 150 15:44 07.06.2020
3501 Clouds 13 1010 76 10000 2.6 150 15:44 07.06.2020
3502 Clouds 13 1010 82 10000 2.6 140 15:22 07.06.2020
3503 Clouds 13 1010 82 10000 3.1 180 14:41 07.06.2020
3504 Clouds 13 1010 76 10000 2.1 170 14:23 07.06.2020
3505 Clouds 13 1010 76 10000 2.1 170 14:23 07.06.2020
3506 Clouds 13 1010 76 10000 2.1 170 14:23 07.06.2020
3507 Clouds 13 1010 76 10000 2.1 170 14:23 07.06.2020
3508 Clouds 13 1009 82 10000 2.1 190 13:59 07.06.2020
3509 Clouds 13 1009 82 10000 2.1 190 13:41 07.06.2020
3510 Clouds 13 1009 82 10000 2.1 190 13:39 07.06.2020
3511 Clouds 13 1009 82 10000 2.1 190 13:39 07.06.2020
3512 Clouds 13 1009 82 10000 2.1 190 13:39 07.06.2020
3513 Clouds 13 1009 82 10000 2.1 190 13:37 07.06.2020
3514 Rain 12 1009 81 10000 2.1 180 13:19 07.06.2020
3515 Rain 12 1009 81 10000 1.5 140 12:43 07.06.2020
3516 Rain 12 1009 87 10000 2.1 140 12:24 07.06.2020
3517 Rain 11 1009 93 10000 1.5 180 11:55 07.06.2020
3518 Rain 11 1009 93 10000 1.5 180 11:55 07.06.2020
3519 Rain 11 1009 93 10000 1.5 180 11:37 07.06.2020
3520 Rain 12 1009 87 10000 0.5 0 11:19 07.06.2020
3521 Rain 12 1009 81 10000 1 0 10:54 07.06.2020
3522 Rain 12 1009 81 10000 1 0 10:36 07.06.2020
3523 Rain 12 1008 87 10000 1 0 10:18 07.06.2020
3524 Rain 12 1008 81 10000 1 0 09:41 07.06.2020
3525 Rain 12 1008 81 10000 0.5 0 09:21 07.06.2020
3526 Rain 12 1008 81 10000 0.5 0 08:59 07.06.2020
3527 Rain 11 1008 87 10000 2.6 330 08:40 07.06.2020
3528 Rain 11 1008 87 10000 3.6 310 08:22 07.06.2020
3529 Rain 12 1007 87 10000 3.1 300 07:41 07.06.2020
3530 Rain 12 1007 93 10000 1.5 310 06:56 07.06.2020
3531 Rain 12 1007 93 10000 1.5 200 06:21 07.06.2020
3532 Rain 11 1006 93 10000 3.6 100 04:25 07.06.2020
3533 Rain 11 1006 87 10000 2.6 100 03:50 07.06.2020
3534 Clouds 12 1006 87 10000 2.6 100 02:26 07.06.2020
3535 Clouds 11 1007 87 10000 2.1 140 01:39 07.06.2020
3536 Clouds 11 1007 87 10000 2.1 140 01:21 07.06.2020
3537 Clouds 12 1006 87 10000 1.5 160 00:39 07.06.2020
3538 Clouds 12 1006 81 10000 3.6 160 00:18 07.06.2020
3539 Clouds 13 1006 76 10000 3.1 160 23:38 06.06.2020
3540 Clouds 13 1006 76 10000 3.1 160 23:20 06.06.2020
3541 Rain 13 1006 76 10000 3.6 160 22:58 06.06.2020
3542 Rain 13 1006 76 10000 3.6 160 22:40 06.06.2020
3543 Clouds 13 1006 71 10000 3.6 180 22:20 06.06.2020
3544 Clouds 13 1006 71 10000 3.6 170 21:58 06.06.2020
3545 Clouds 13 1006 71 10000 3.6 170 21:39 06.06.2020
3546 Clear 14 1006 71 10000 3.1 180 21:20 06.06.2020
3547 Clouds 14 1006 67 10000 3.1 190 20:40 06.06.2020
3548 Clouds 14 1006 67 10000 3.6 180 20:21 06.06.2020
3549 Rain 15 1006 72 10000 2.6 220 19:58 06.06.2020
3550 Clouds 15 1006 67 10000 3.6 210 19:40 06.06.2020
3551 Clouds 15 1006 67 10000 3.6 210 19:22 06.06.2020
3552 Clouds 15 1005 63 10000 4.1 200 18:56 06.06.2020
3553 Clouds 15 1006 63 10000 4.6 190 18:38 06.06.2020
3554 Clouds 15 1006 63 10000 4.6 190 18:20 06.06.2020
3555 Clouds 15 1006 62 10000 5.1 190 17:43 06.06.2020
3556 Clouds 15 1006 62 10000 4.1 210 17:20 06.06.2020
3557 Clouds 15 1006 62 10000 4.6 220 16:57 06.06.2020
3558 Clouds 15 1006 62 10000 4.6 220 16:38 06.06.2020
3559 Clouds 15 1006 62 10000 4.1 210 16:20 06.06.2020
3560 Clouds 15 1006 62 10000 4.1 210 16:20 06.06.2020
3561 Clouds 14 1006 67 10000 4.1 210 15:44 06.06.2020
3562 Clouds 14 1006 67 10000 5.7 240 15:20 06.06.2020
3563 Clouds 13 1006 67 10000 5.7 240 14:58 06.06.2020
3564 Clouds 13 1006 71 10000 5.7 230 14:37 06.06.2020
3565 Rain 13 1006 71 10000 4.1 210 14:19 06.06.2020
3566 Rain 13 1006 71 10000 4.1 210 14:19 06.06.2020
3567 Rain 13 1006 76 10000 3.6 200 13:47 06.06.2020
3568 Rain 13 1006 76 10000 4.1 240 13:19 06.06.2020
3569 Clouds 13 1005 82 10000 3.6 240 12:57 06.06.2020
3570 Clouds 13 1005 82 10000 3.6 240 12:38 06.06.2020
3571 Rain 12 1005 87 10000 3.1 200 12:18 06.06.2020
3572 Rain 12 1005 87 10000 2.1 180 11:54 06.06.2020
3573 Rain 12 1005 87 10000 2.1 180 11:36 06.06.2020
3574 Rain 12 1005 87 10000 2.1 180 11:36 06.06.2020
3575 Rain 11 1004 87 10000 2.6 160 11:18 06.06.2020
3576 Rain 11 1004 87 10000 3.1 140 10:55 06.06.2020
3577 Rain 10 1004 93 10000 1 0 10:36 06.06.2020
3578 Rain 10 1004 93 10000 1 0 10:18 06.06.2020
3579 Drizzle 9 1004 93 4500 0.5 0 09:41 06.06.2020
3580 Drizzle 9 1004 93 4500 0.5 0 09:22 06.06.2020
3581 Rain 9 1004 93 9000 0.5 0 08:47 06.06.2020
3582 Drizzle 9 1004 87 6000 1 0 08:24 06.06.2020
3583 Drizzle 9 1003 93 4000 2.1 150 07:56 06.06.2020
3584 Drizzle 9 1003 93 4000 2.1 150 07:37 06.06.2020
3585 Rain 9 1003 93 7000 3.1 160 07:19 06.06.2020
3586 Rain 9 1003 93 7000 3.1 160 06:43 06.06.2020
3587 Rain 9 1003 87 8000 2.1 0 06:24 06.06.2020
3588 Rain 9 1003 87 10000 3.1 170 05:32 06.06.2020
3589 Rain 10 1003 87 10000 3.1 160 04:49 06.06.2020
3590 Rain 10 1003 81 10000 2.1 210 03:29 06.06.2020
3591 Rain 10 1003 87 10000 3.1 210 01:59 06.06.2020
3592 Clouds 10 1002 87 10000 3.1 210 01:21 06.06.2020
3593 Clouds 10 1003 87 10000 3.6 230 00:56 06.06.2020
3594 Rain 10 1002 81 10000 5.1 240 00:38 06.06.2020
3595 Rain 10 1002 81 10000 5.1 240 00:20 06.06.2020
3596 Rain 11 1002 81 10000 4.1 240 23:39 05.06.2020
3597 Rain 11 1002 87 10000 4.6 240 23:19 05.06.2020
3598 Rain 11 1001 76 8000 9.8 260 22:56 05.06.2020
3599 Rain 12 1001 76 8000 9.8 260 22:37 05.06.2020
3600 Rain 13 1000 67 10000 6.7 230 22:19 05.06.2020
3601 Rain 13 1000 67 10000 6.7 230 22:19 05.06.2020
3602 Clouds 13 999 67 10000 5.7 210 21:43 05.06.2020
3603 Clouds 14 999 67 10000 6.2 210 21:23 05.06.2020
3604 Clouds 14 999 67 10000 7.2 220 20:58 05.06.2020
3605 Clouds 14 999 67 10000 7.2 220 20:39 05.06.2020
3606 Clouds 14 999 62 10000 8.2 230 20:21 05.06.2020
3607 Clouds 14 999 62 10000 7.2 220 19:44 05.06.2020
3608 Clouds 14 999 62 10000 5.7 210 19:24 05.06.2020
3609 Rain 14 999 67 10000 5.7 210 18:58 05.06.2020
3610 Rain 14 999 67 10000 5.7 210 18:39 05.06.2020
3611 Clouds 14 999 71 10000 4.1 190 18:20 05.06.2020
3612 Rain 13 999 76 10000 5.1 200 17:58 05.06.2020
3613 Rain 13 999 76 10000 5.1 200 17:39 05.06.2020
3614 Clouds 13 999 76 10000 4.6 190 17:19 05.06.2020
3615 Clouds 13 1000 81 10000 4.6 170 16:39 05.06.2020
3616 Clouds 12 1000 81 10000 3.6 160 16:20 05.06.2020
3617 Rain 11 1000 81 10000 3.1 220 15:56 05.06.2020
3618 Rain 11 1000 81 10000 3.1 220 15:37 05.06.2020
3619 Rain 12 1000 76 10000 4.6 240 15:19 05.06.2020
3620 Rain 13 1000 66 10000 6.2 240 14:41 05.06.2020
3621 Clouds 13 999 58 10000 5.7 220 14:22 05.06.2020
3622 Clouds 14 999 67 10000 4.6 230 13:59 05.06.2020
3623 Clouds 14 999 67 10000 4.6 230 13:40 05.06.2020
3624 Clouds 14 999 62 10000 3.6 230 13:22 05.06.2020
3625 Clouds 14 1000 62 10000 4.6 250 12:42 05.06.2020
3626 Clouds 13 1000 66 10000 5.1 250 12:20 05.06.2020
3627 Clouds 13 1000 66 10000 4.1 240 11:56 05.06.2020
3628 Clouds 13 1000 66 10000 4.1 240 11:56 05.06.2020
3629 Clouds 13 1000 66 10000 4.1 240 11:38 05.06.2020
3630 Clouds 13 1000 76 10000 4.1 270 11:20 05.06.2020
3631 Rain 12 1000 71 10000 5.7 270 10:54 05.06.2020
3632 Rain 12 1000 71 10000 5.7 270 10:36 05.06.2020
3633 Clouds 12 1000 71 10000 5.1 270 10:18 05.06.2020
3634 Clouds 12 1000 76 10000 4.1 250 09:54 05.06.2020
3635 Clouds 12 1000 76 10000 4.1 250 09:36 05.06.2020
3636 Clouds 12 1000 76 0 3.6 260 09:18 05.06.2020
3637 Clouds 12 999 76 10000 3.6 260 08:41 05.06.2020
3638 Clouds 11 999 81 10000 4.1 260 08:19 05.06.2020
3639 Clouds 11 999 81 10000 3.6 260 07:53 05.06.2020
3640 Clouds 11 998 81 10000 4.1 270 07:35 05.06.2020
3641 Clouds 11 998 87 10000 4.6 270 06:51 05.06.2020
3642 Clouds 11 997 81 10000 4.1 280 05:24 05.06.2020
3643 Rain 12 997 87 10000 5.7 290 04:31 05.06.2020
3644 Rain 12 997 87 10000 4.1 270 03:49 05.06.2020
3645 Clouds 13 996 87 10000 2.6 240 02:37 05.06.2020
3646 Clouds 13 997 87 10000 2.6 240 02:18 05.06.2020
3647 Clouds 13 996 87 10000 2.6 220 01:34 05.06.2020
3648 Clouds 13 996 87 10000 3.6 230 00:55 05.06.2020
3649 Clouds 13 996 87 10000 3.6 230 00:36 05.06.2020
3650 Rain 13 996 87 10000 3.1 240 00:18 05.06.2020
3651 Rain 13 996 82 10000 3.1 230 23:42 04.06.2020
3652 Clouds 13 996 87 10000 2.1 220 23:24 04.06.2020
3653 Clouds 14 996 87 10000 2.6 190 22:42 04.06.2020
3654 Clouds 14 995 93 10000 2.1 150 22:22 04.06.2020
3655 Rain 14 995 93 10000 3.1 160 21:58 04.06.2020
3656 Rain 14 995 93 10000 3.1 160 21:39 04.06.2020
3657 Rain 14 995 93 10000 3.1 160 21:21 04.06.2020
3658 Rain 14 995 93 10000 2.6 170 20:57 04.06.2020
3659 Clouds 14 995 87 10000 2.6 170 20:39 04.06.2020
3660 Clouds 15 995 87 10000 2.6 170 20:20 04.06.2020
3661 Clouds 14 995 87 10000 3.1 170 19:55 04.06.2020
3662 Clouds 14 995 87 10000 3.1 160 19:37 04.06.2020
3663 Clouds 14 995 87 10000 3.1 160 19:19 04.06.2020
3664 Clouds 16 995 87 10000 3.6 180 18:39 04.06.2020
3665 Thunderstorm 15 995 87 8000 5.1 230 18:21 04.06.2020
3666 Thunderstorm 16 995 82 10000 2.6 200 17:58 04.06.2020
3667 Thunderstorm 17 995 82 10000 2.6 200 17:40 04.06.2020
3668 Rain 17 995 77 10000 2.1 230 17:19 04.06.2020
3669 Clouds 17 995 82 10000 3.1 280 16:41 04.06.2020
3670 Clouds 17 995 82 10000 4.6 270 16:20 04.06.2020
3671 Rain 17 995 87 10000 4.6 260 15:46 04.06.2020
3672 Rain 18 995 77 10000 5.7 170 15:27 04.06.2020
3673 Clouds 18 995 82 10000 4.1 180 14:56 04.06.2020
3674 Clouds 18 995 82 10000 4.1 180 14:37 04.06.2020
3675 Rain 18 996 82 10000 3.1 180 14:18 04.06.2020
3676 Rain 18 996 72 10000 3.1 160 13:41 04.06.2020
3677 Clouds 18 996 72 10000 4.6 150 13:21 04.06.2020
3678 Clouds 18 996 72 10000 3.1 160 12:59 04.06.2020
3679 Rain 18 997 77 10000 4.6 160 12:41 04.06.2020
3680 Rain 17 997 77 10000 4.6 160 12:22 04.06.2020
3681 Rain 17 997 77 10000 3.6 140 11:56 04.06.2020
3682 Rain 17 997 77 10000 3.6 140 11:38 04.06.2020
3683 Clouds 16 997 82 10000 4.1 170 11:19 04.06.2020
3684 Rain 16 997 82 10000 3.1 130 10:42 04.06.2020
3685 Rain 16 997 77 10000 1.5 140 10:23 04.06.2020
3686 Rain 16 997 77 10000 2.1 160 09:58 04.06.2020
3687 Rain 16 997 77 10000 2.1 160 09:40 04.06.2020
3688 Rain 16 998 77 10000 2.1 190 09:21 04.06.2020
3689 Rain 16 997 63 10000 2.1 160 08:44 04.06.2020
3690 Clouds 16 997 67 10000 2.1 140 08:25 04.06.2020
3691 Clouds 14 997 76 10000 3.6 100 07:47 04.06.2020
3692 Clouds 14 997 76 10000 3.6 100 07:23 04.06.2020
3693 Clouds 13 998 76 10000 2.6 100 06:42 04.06.2020
3694 Clouds 13 998 76 10000 2.6 100 06:24 04.06.2020
3695 Clouds 13 998 76 10000 1 120 05:34 04.06.2020
3696 Clouds 13 999 76 10000 3.1 110 03:55 04.06.2020
3697 Clouds 14 1000 72 10000 4.1 110 02:56 04.06.2020
3698 Rain 14 1000 76 10000 2.6 110 01:42 04.06.2020
3699 Rain 14 1001 71 10000 2.1 60 01:19 04.06.2020
3700 Rain 16 1001 67 10000 1 0 00:36 04.06.2020
3701 Rain 17 1002 63 10000 1 320 23:41 03.06.2020
3702 Rain 17 1002 59 10000 2.1 280 23:20 03.06.2020
3703 Clouds 18 1002 52 10000 1.5 240 22:57 03.06.2020
3704 Clouds 19 1002 52 10000 1.5 240 22:38 03.06.2020
3705 Clouds 20 1002 49 10000 2.1 290 22:18 03.06.2020
3706 Clouds 20 1002 49 10000 2.1 360 21:56 03.06.2020
3707 Clouds 20 1002 46 10000 2.6 60 21:37 03.06.2020
3708 Clouds 20 1002 46 10000 2.6 60 21:19 03.06.2020
3709 Clouds 21 1002 49 10000 1.5 0 20:43 03.06.2020
3710 Thunderstorm 22 1002 40 10000 5.1 270 20:22 03.06.2020
3711 Thunderstorm 22 1001 36 10000 3.6 30 19:58 03.06.2020
3712 Clouds 24 1001 36 10000 3.1 50 19:40 03.06.2020
3713 Clouds 24 1001 36 10000 3.1 50 19:21 03.06.2020
3714 Clouds 24 1002 33 10000 3.6 60 18:59 03.06.2020
3715 Clouds 24 1002 33 10000 3.6 60 18:41 03.06.2020
3716 Clouds 25 1002 29 10000 4.1 260 18:20 03.06.2020
3717 Thunderstorm 26 1002 29 10000 4.1 210 17:45 03.06.2020
3718 Rain 25 1002 31 10000 6.7 200 17:24 03.06.2020
3719 Rain 25 1002 31 10000 6.7 200 16:59 03.06.2020
3720 Clouds 26 1003 33 10000 6.7 220 16:41 03.06.2020
3721 Clouds 26 1003 26 10000 3.6 250 16:20 03.06.2020
3722 Clouds 27 1003 24 10000 2.6 0 15:55 03.06.2020
3723 Clouds 26 1003 24 10000 2.6 0 15:37 03.06.2020
3724 Clouds 27 1004 26 10000 2.6 300 15:18 03.06.2020
3725 Clouds 27 1004 26 10000 2.6 130 14:44 03.06.2020
3726 Clouds 27 1004 28 10000 2.6 290 14:24 03.06.2020
3727 Clouds 27 1005 27 10000 1.5 0 13:41 03.06.2020
3728 Rain 26 1005 27 10000 2.6 0 13:22 03.06.2020
3729 Rain 26 1006 31 10000 2.6 0 12:57 03.06.2020
3730 Rain 26 1006 31 10000 2.6 0 12:39 03.06.2020
3731 Rain 25 1006 29 10000 1.5 0 12:19 03.06.2020
3732 Rain 24 1006 37 0 0.45 267 11:44 03.06.2020
3733 Rain 24 1007 33 10000 1.5 0 11:25 03.06.2020
3734 Rain 23 1007 38 10000 1.5 0 10:44 03.06.2020
3735 Clouds 22 1008 43 10000 1.5 0 10:25 03.06.2020
3736 Clouds 21 1008 49 10000 2.1 120 09:58 03.06.2020
3737 Clouds 20 1008 49 10000 2.1 120 09:37 03.06.2020
3738 Clouds 19 1008 48 10000 2.6 130 09:18 03.06.2020
3739 Clouds 18 1008 52 10000 3.1 120 08:47 03.06.2020
3740 Clouds 16 1009 59 10000 2.6 100 08:22 03.06.2020
3741 Clouds 15 1009 62 10000 2.6 90 07:50 03.06.2020
3742 Rain 14 1009 67 10000 2.1 100 07:24 03.06.2020
3743 Rain 13 1009 71 10000 2.6 110 06:59 03.06.2020
3744 Rain 13 1009 71 10000 2.6 110 06:41 03.06.2020
3745 Rain 11 1009 71 10000 2.6 90 06:21 03.06.2020
3746 Rain 11 1009 66 10000 2.6 90 05:44 03.06.2020
3747 Clouds 12 1010 71 10000 1.5 110 04:19 03.06.2020
3748 Clouds 12 1010 71 10000 2.1 90 03:41 03.06.2020
3749 Clouds 13 1011 66 10000 1.5 110 02:33 03.06.2020
3750 Clouds 13 1011 66 10000 1 0 01:34 03.06.2020
3751 Clouds 15 1012 54 10000 1.5 100 00:38 03.06.2020
3752 Clouds 15 1012 54 10000 1.5 100 00:19 03.06.2020
3753 Clouds 16 1012 48 10000 1.5 80 23:43 02.06.2020
3754 Clouds 16 1012 48 10000 1.5 80 23:43 02.06.2020
3755 Clouds 16 1012 58 10000 1.5 50 23:24 02.06.2020
3756 Clouds 18 1013 51 10000 1 0 22:40 02.06.2020
3757 Clouds 19 1013 45 10000 2.1 360 22:19 02.06.2020
3758 Clouds 20 1012 42 10000 1.5 350 21:57 02.06.2020
3759 Clouds 20 1012 42 10000 1.5 350 21:39 02.06.2020
3760 Clouds 21 1012 35 10000 1.5 10 21:21 02.06.2020
3761 Clouds 21 1012 35 10000 1.5 10 21:21 02.06.2020
3762 Clouds 21 1012 35 10000 1.5 10 21:21 02.06.2020
3763 Clouds 23 1012 27 10000 2.1 20 20:59 02.06.2020
3764 Clouds 23 1012 27 10000 2.1 20 20:40 02.06.2020
3765 Clouds 24 1013 25 10000 3.1 350 20:22 02.06.2020
3766 Clouds 24 1013 25 10000 3.1 10 19:46 02.06.2020
3767 Clouds 25 1013 23 10000 3.1 350 19:26 02.06.2020
3768 Clouds 25 1013 23 10000 3.1 340 18:59 02.06.2020
3769 Clouds 25 1013 23 10000 3.1 340 18:40 02.06.2020
3770 Clouds 25 1013 23 10000 3.1 340 18:40 02.06.2020
3771 Clear 26 1014 26 10000 3.1 10 18:21 02.06.2020
3772 Clear 26 1014 24 10000 3.1 290 17:59 02.06.2020
3773 Clear 26 1014 24 10000 3.1 290 17:40 02.06.2020
3774 Clear 26 1014 24 10000 3.1 290 17:40 02.06.2020
3775 Clear 26 1014 26 10000 3.1 30 17:21 02.06.2020
3776 Clear 26 1015 27 10000 2.6 0 16:56 02.06.2020
3777 Clear 26 1015 27 10000 2.6 0 16:37 02.06.2020
3778 Clear 26 1015 27 10000 2.6 20 16:19 02.06.2020
3779 Clear 26 1015 27 10000 3.1 280 15:41 02.06.2020
3780 Clear 25 1016 29 10000 2.6 0 15:22 02.06.2020
3781 Clear 26 1016 27 10000 3.6 40 14:48 02.06.2020
3782 Clear 25 1017 27 10000 1.5 0 14:28 02.06.2020
3783 Clear 25 1017 27 10000 3.1 310 13:57 02.06.2020
3784 Clear 25 1017 27 10000 3.1 310 13:37 02.06.2020
3785 Clear 24 1017 28 10000 1.5 0 13:19 02.06.2020
3786 Clear 24 1018 29 10000 3.1 320 12:57 02.06.2020
3787 Clear 23 1018 31 10000 3.6 340 12:38 02.06.2020
3788 Clear 23 1018 31 10000 3.6 340 12:20 02.06.2020
3789 Clear 22 1018 33 10000 4.1 360 11:43 02.06.2020
3790 Clear 22 1019 33 10000 3.1 0 11:24 02.06.2020
3791 Clear 22 1019 33 10000 2.6 0 10:59 02.06.2020
3792 Clear 22 1019 33 10000 2.6 0 10:41 02.06.2020
3793 Clear 22 1019 33 10000 2.6 0 10:41 02.06.2020
3794 Clear 21 1019 35 10000 2.1 0 10:22 02.06.2020
3795 Clear 20 1019 42 10000 1 0 09:43 02.06.2020
3796 Clear 18 1019 52 10000 1.5 270 09:22 02.06.2020
3797 Clear 17 1019 55 10000 1 0 08:57 02.06.2020
3798 Clear 16 1019 59 10000 0.5 0 08:29 02.06.2020
3799 Clear 15 1019 67 10000 1 0 07:59 02.06.2020
3800 Clear 14 1019 71 10000 0.5 0 07:39 02.06.2020
3801 Clear 13 1019 71 10000 0.5 0 07:19 02.06.2020
3802 Clear 11 1019 76 10000 0.5 0 06:43 02.06.2020
3803 Clear 10 1019 81 10000 1 10 05:45 02.06.2020
3804 Clear 10 1019 81 10000 1.61 84 04:52 02.06.2020
3805 Clear 12 1019 76 10000 1 360 03:19 02.06.2020
3806 Clear 13 1020 71 10000 1 340 02:18 02.06.2020
3807 Clear 15 1020 59 10000 0.5 0 00:53 02.06.2020
3808 Clear 15 1020 55 10000 1.5 110 00:22 02.06.2020
3809 Clear 17 1020 52 10000 4.1 40 23:39 01.06.2020
3810 Clear 17 1020 52 10000 4.1 40 23:39 01.06.2020
3811 Clear 17 1020 52 10000 4.1 40 23:20 01.06.2020
3812 Clear 17 1019 52 10000 3.1 30 22:58 01.06.2020
3813 Clear 17 1019 52 10000 3.1 30 22:58 01.06.2020
3814 Clear 18 1019 52 10000 3.1 30 22:39 01.06.2020
3815 Clear 18 1019 52 10000 3.1 30 22:39 01.06.2020
3816 Clear 18 1019 48 10000 3.6 20 22:19 01.06.2020
3817 Clear 18 1019 48 10000 3.6 20 22:19 01.06.2020
3818 Clear 20 1019 45 10000 3.6 20 21:54 01.06.2020
3819 Clear 20 1019 45 10000 3.6 20 21:36 01.06.2020
3820 Clear 21 1019 40 10000 3.1 20 21:18 01.06.2020
3821 Clear 22 1019 37 10000 4.1 10 20:42 01.06.2020
3822 Clear 23 1019 33 10000 5.1 10 20:21 01.06.2020
3823 Clear 23 1019 33 10000 5.1 10 20:21 01.06.2020
3824 Clear 23 1019 33 10000 5.1 10 19:59 01.06.2020
3825 Clear 23 1018 31 10000 4.6 20 19:41 01.06.2020
3826 Clear 23 1018 31 10000 4.6 20 19:20 01.06.2020
3827 Clear 23 1018 31 10000 4.6 20 19:20 01.06.2020
3828 Clear 24 1018 29 10000 4.1 10 18:58 01.06.2020
3829 Clear 24 1019 29 10000 3.6 20 18:38 01.06.2020
3830 Clear 24 1019 29 10000 3.6 20 18:19 01.06.2020
3831 Clear 25 1019 31 10000 3.1 30 17:42 01.06.2020
3832 Clear 24 1019 29 10000 3.6 350 17:22 01.06.2020
3833 Clear 25 1019 29 10000 5.1 360 16:58 01.06.2020
3834 Clear 25 1019 29 10000 5.1 360 16:39 01.06.2020
3835 Clear 25 1019 29 10000 3.1 0 16:19 01.06.2020
3836 Clear 25 1020 29 10000 4.1 60 15:54 01.06.2020
3837 Clear 25 1020 31 10000 3.6 40 15:36 01.06.2020
3838 Clear 25 1020 31 10000 3.6 40 15:18 01.06.2020
3839 Clear 24 1020 33 10000 2.6 30 14:41 01.06.2020
3840 Clouds 24 1020 33 10000 3.1 0 14:23 01.06.2020
3841 Clouds 24 1021 35 10000 2.6 50 13:58 01.06.2020
3842 Clouds 23 1021 35 10000 2.6 50 13:39 01.06.2020
3843 Clouds 23 1021 35 10000 5.7 10 13:20 01.06.2020
3844 Clouds 23 1021 35 10000 5.7 10 12:57 01.06.2020
3845 Clouds 22 1021 37 10000 4.1 40 12:39 01.06.2020
3846 Clear 22 1021 37 10000 4.1 40 12:39 01.06.2020
3847 Clear 22 1021 37 10000 4.1 40 12:20 01.06.2020
3848 Clear 21 1022 43 10000 3.1 40 11:41 01.06.2020
3849 Clear 21 1022 43 10000 3.1 40 11:23 01.06.2020
3850 Clear 19 1022 45 10000 3.6 80 10:59 01.06.2020
3851 Clear 19 1022 48 10000 3.1 80 10:39 01.06.2020
3852 Clear 18 1022 48 10000 3.1 80 10:20 01.06.2020
3853 Clear 18 1022 52 10000 0.5 0 09:56 01.06.2020
3854 Clear 17 1022 59 10000 1 0 09:38 01.06.2020
3855 Clear 14 1022 67 10000 1.5 330 09:19 01.06.2020
3856 Clear 14 1022 66 10000 0.5 0 08:46 01.06.2020
3857 Clear 13 1022 66 10000 0.5 0 08:25 01.06.2020
3858 Clear 11 1022 71 10000 0.5 0 07:45 01.06.2020
3859 Clear 10 1022 76 10000 0.5 0 07:27 01.06.2020
3860 Clear 9 1022 81 10000 0.5 0 06:57 01.06.2020
3861 Clear 7 1022 87 10000 0.5 0 06:20 01.06.2020
3862 Clear 7 1021 87 10000 0.5 10 05:50 01.06.2020
3863 Clear 8 1021 87 10000 0.5 10 04:23 01.06.2020
3864 Clear 9 1021 81 10000 0.5 0 03:46 01.06.2020
3865 Clear 10 1022 76 10000 0.5 0 03:18 01.06.2020
3866 Clouds 13 1022 62 10000 0.5 110 01:47 01.06.2020
3867 Clouds 13 1022 62 10000 0.5 110 01:29 01.06.2020
3868 Clouds 14 1022 62 10000 1 80 00:57 01.06.2020
3869 Clouds 14 1022 58 10000 0.5 70 00:39 01.06.2020
3870 Clouds 14 1022 58 10000 0.5 70 00:21 01.06.2020
3871 Clouds 14 1022 58 10000 1 80 23:55 31.05.2020
3872 Clouds 14 1022 54 10000 1 0 23:37 31.05.2020
3873 Clouds 14 1022 54 10000 1 0 23:19 31.05.2020
3874 Clouds 15 1022 54 10000 1.5 50 22:43 31.05.2020
3875 Clouds 15 1022 54 10000 1.5 50 22:43 31.05.2020
3876 Clouds 15 1022 54 10000 1.5 50 22:25 31.05.2020
3877 Clouds 15 1022 54 10000 2.1 50 21:58 31.05.2020
3878 Clouds 16 1022 48 10000 3.1 40 21:39 31.05.2020
3879 Clouds 16 1022 48 10000 3.1 40 21:39 31.05.2020
3880 Clouds 15 1021 48 10000 4.1 30 21:21 31.05.2020
3881 Clouds 15 1022 48 10000 3.1 40 21:21 31.05.2020
3882 Clouds 15 1021 48 10000 4.1 30 21:21 31.05.2020
3883 Clouds 15 1022 48 10000 3.1 40 21:21 31.05.2020
3884 Clouds 15 1021 48 10000 4.1 30 20:48 31.05.2020
3885 Clouds 15 1021 48 10000 2.6 50 20:25 31.05.2020
3886 Clouds 16 1021 42 10000 3.6 30 19:58 31.05.2020
3887 Clouds 17 1021 45 10000 4.1 40 19:39 31.05.2020
3888 Clouds 17 1021 45 10000 4.1 40 19:21 31.05.2020
3889 Clouds 18 1020 42 10000 3.6 10 18:58 31.05.2020
3890 Clouds 18 1020 42 10000 4.6 20 18:40 31.05.2020
3891 Clouds 18 1020 42 10000 4.6 20 18:21 31.05.2020
3892 Clouds 18 1020 37 10000 3.1 0 17:43 31.05.2020
3893 Clouds 19 1020 37 10000 3.1 0 17:24 31.05.2020
3894 Clouds 19 1020 32 10000 4.1 50 16:42 31.05.2020
3895 Clouds 19 1020 32 10000 4.1 50 16:22 31.05.2020
3896 Clouds 19 1020 39 10000 4.6 10 15:57 31.05.2020
3897 Clouds 19 1020 39 10000 4.6 10 15:57 31.05.2020
3898 Clouds 19 1020 42 10000 4.6 20 15:37 31.05.2020
3899 Clouds 18 1020 42 10000 4.6 20 15:19 31.05.2020
3900 Clouds 18 1021 42 10000 4.6 10 14:44 31.05.2020
3901 Clouds 17 1020 45 10000 6.2 360 14:20 31.05.2020
3902 Clouds 17 1020 39 10000 4.1 360 13:56 31.05.2020
3903 Clouds 17 1020 39 10000 5.7 360 13:37 31.05.2020
3904 Clouds 17 1020 39 10000 5.7 360 13:19 31.05.2020
3905 Clouds 18 1020 36 10000 3.6 50 12:55 31.05.2020
3906 Clouds 18 1020 36 10000 3.6 0 12:36 31.05.2020
3907 Clouds 17 1020 39 10000 4.1 350 12:18 31.05.2020
3908 Clouds 17 1020 36 10000 3.6 0 12:18 31.05.2020
3909 Clouds 17 1021 41 10000 4.1 50 11:42 31.05.2020
3910 Clouds 16 1021 41 10000 4.1 50 11:21 31.05.2020
3911 Clouds 16 1021 54 10000 1.5 0 10:46 31.05.2020
3912 Clouds 16 1021 54 10000 1.5 0 10:28 31.05.2020
3913 Clouds 14 1021 58 10000 1.5 340 09:59 31.05.2020
3914 Clouds 14 1021 66 10000 1.5 330 09:41 31.05.2020
3915 Clouds 12 1021 66 10000 1.5 330 09:21 31.05.2020
3916 Clouds 10 1020 70 10000 1.5 350 08:43 31.05.2020
3917 Clouds 10 1020 70 10000 1.5 350 08:25 31.05.2020
3918 Clouds 9 1020 81 10000 1 0 07:52 31.05.2020
3919 Clouds 8 1020 81 10000 1 0 07:22 31.05.2020
3920 Clouds 8 1020 81 10000 1 0 07:22 31.05.2020
3921 Clouds 8 1020 86 10000 1.5 350 06:58 31.05.2020
3922 Clouds 6 1020 86 10000 1 340 06:36 31.05.2020
3923 Clouds 6 1020 86 10000 1.5 350 05:56 31.05.2020
3924 Clouds 6 1020 86 10000 1 340 05:37 31.05.2020
3925 Clouds 7 1020 81 10000 0.5 310 04:20 31.05.2020
3926 Clouds 7 1021 81 10000 1 10 03:45 31.05.2020
3927 Clouds 8 1021 75 10000 1 350 02:50 31.05.2020
3928 Clouds 9 1021 75 10000 1.5 330 01:46 31.05.2020
3929 Clouds 10 1021 70 10000 1.5 350 00:46 31.05.2020
3930 Clouds 10 1021 70 10000 1.5 350 00:28 31.05.2020
3931 Clouds 10 1021 66 10000 1.5 350 23:42 30.05.2020
3932 Clouds 11 1021 66 10000 1.5 350 23:24 30.05.2020
3933 Clouds 11 1021 54 10000 1.5 10 22:57 30.05.2020
3934 Clouds 12 1021 50 10000 2.1 10 22:39 30.05.2020
3935 Clouds 12 1021 50 10000 2.1 10 22:21 30.05.2020
3936 Clouds 14 1021 41 10000 5.1 30 21:43 30.05.2020
3937 Clouds 15 1021 41 10000 5.1 30 21:23 30.05.2020
3938 Clouds 15 1021 41 10000 4.6 20 20:58 30.05.2020
3939 Clouds 15 1021 38 10000 5.7 20 20:40 30.05.2020
3940 Clouds 16 1021 38 10000 5.7 20 20:21 30.05.2020
3941 Clouds 16 1020 38 10000 4.6 40 19:58 30.05.2020
3942 Clouds 17 1020 36 10000 3.6 10 19:40 30.05.2020
3943 Clouds 17 1020 36 10000 3.6 10 19:20 30.05.2020
3944 Clouds 18 1020 34 10000 5.7 360 18:43 30.05.2020
3945 Clouds 18 1020 34 10000 5.7 360 18:20 30.05.2020
3946 Clouds 17 1020 36 10000 4.6 40 17:43 30.05.2020
3947 Clouds 17 1020 36 10000 4.6 40 17:25 30.05.2020
3948 Clouds 18 1020 34 10000 4.1 20 16:59 30.05.2020
3949 Clouds 17 1021 36 10000 5.1 30 16:40 30.05.2020
3950 Clouds 18 1021 36 10000 5.1 30 16:21 30.05.2020
3951 Clouds 18 1021 36 10000 4.1 40 15:44 30.05.2020
3952 Clouds 17 1021 36 10000 4.1 40 15:26 30.05.2020
3953 Clouds 17 1021 39 10000 5.7 350 14:45 30.05.2020
3954 Clouds 17 1021 39 10000 5.7 350 14:26 30.05.2020
3955 Clouds 17 1021 44 10000 4.6 30 13:44 30.05.2020
3956 Clouds 17 1021 39 10000 5.1 20 13:25 30.05.2020
3957 Clouds 17 1021 36 10000 5.1 30 12:42 30.05.2020
3958 Clouds 17 1021 36 10000 5.1 30 12:22 30.05.2020
3959 Clouds 17 1021 36 10000 5.7 350 11:58 30.05.2020
3960 Clouds 16 1022 44 10000 5.7 360 11:40 30.05.2020
3961 Clouds 16 1022 44 10000 5.7 360 11:22 30.05.2020
3962 Clouds 16 1022 47 10000 5.1 360 10:54 30.05.2020
3963 Clouds 15 1022 51 10000 5.7 350 10:36 30.05.2020
3964 Clouds 15 1022 51 10000 5.7 350 10:18 30.05.2020
3965 Clouds 15 1022 51 10000 4.6 10 09:41 30.05.2020
3966 Clouds 15 1022 51 10000 4.6 10 09:23 30.05.2020
3967 Clouds 13 1022 58 10000 2.1 340 08:40 30.05.2020
3968 Clouds 13 1022 58 10000 2.1 340 08:21 30.05.2020
3969 Clouds 11 1023 71 10000 1 0 07:38 30.05.2020
3970 Clouds 11 1022 71 10000 0.5 0 07:18 30.05.2020
3971 Clouds 9 1022 76 10000 0.5 0 06:25 30.05.2020
3972 Clouds 9 1023 70 10000 0.5 10 05:49 30.05.2020
3973 Clouds 9 1023 66 10000 0.5 0 04:33 30.05.2020
3974 Clouds 10 1024 57 10000 2.1 60 02:34 30.05.2020
3975 Clouds 10 1024 57 10000 2.6 40 01:56 30.05.2020
3976 Clouds 12 1024 50 10000 2.6 50 00:44 30.05.2020
3977 Clear 12 1024 50 10000 2.6 50 00:23 30.05.2020
3978 Clear 12 1024 50 10000 2.1 50 23:59 29.05.2020
3979 Clear 13 1023 47 10000 2.1 50 23:38 29.05.2020
3980 Clear 13 1023 47 10000 2.1 50 23:19 29.05.2020
3981 Clear 14 1023 44 10000 2.6 40 22:42 29.05.2020
3982 Clouds 14 1023 44 10000 2.6 40 22:21 29.05.2020
3983 Clouds 15 1023 38 10000 1.5 40 21:59 29.05.2020
3984 Clouds 16 1023 36 10000 2.1 50 21:39 29.05.2020
3985 Clear 17 1023 36 10000 1.5 70 21:20 29.05.2020
3986 Clear 17 1023 36 10000 1.5 70 20:55 29.05.2020
3987 Clear 17 1023 36 10000 2.6 70 20:37 29.05.2020
3988 Clouds 18 1023 36 10000 2.6 70 20:18 29.05.2020
3989 Clouds 18 1023 34 10000 3.1 40 19:42 29.05.2020
3990 Clouds 18 1023 34 10000 3.1 40 19:23 29.05.2020
3991 Clouds 19 1024 34 10000 2.6 0 18:47 29.05.2020
3992 Clouds 19 1024 34 10000 2.6 0 18:22 29.05.2020
3993 Clouds 19 1024 34 10000 3.1 80 17:57 29.05.2020
3994 Clouds 19 1024 37 10000 3.6 0 17:38 29.05.2020
3995 Clouds 19 1024 37 10000 3.6 0 17:20 29.05.2020
3996 Clouds 18 1025 39 10000 4.1 30 16:46 29.05.2020
3997 Clouds 19 1025 39 10000 4.1 30 16:28 29.05.2020
3998 Clouds 19 1025 42 10000 5.7 80 15:58 29.05.2020
3999 Clouds 19 1025 45 10000 5.1 40 15:40 29.05.2020
4000 Clouds 19 1025 45 10000 5.1 40 15:20 29.05.2020
4001 Clouds 18 1025 39 10000 4.1 60 14:52 29.05.2020
4002 Clouds 19 1025 36 10000 3.6 60 14:25 29.05.2020
4003 Clouds 19 1026 36 10000 4.1 30 13:59 29.05.2020
4004 Clouds 19 1026 36 10000 5.1 30 13:41 29.05.2020
4005 Clear 19 1026 34 10000 3.1 0 13:21 29.05.2020
4006 Clear 19 1026 34 10000 3.1 0 12:45 29.05.2020
4007 Clear 18 1027 36 10000 3.6 10 12:26 29.05.2020
4008 Clear 18 1027 39 10000 4.1 50 11:58 29.05.2020
4009 Clouds 17 1027 45 10000 4.1 360 11:40 29.05.2020
4010 Clouds 17 1027 45 10000 4.1 360 11:22 29.05.2020
4011 Clouds 17 1027 51 10000 3.1 0 10:42 29.05.2020
4012 Clouds 16 1027 51 10000 3.1 0 10:21 29.05.2020
4013 Clouds 15 1027 51 10000 3.1 80 09:55 29.05.2020
4014 Clouds 15 1027 51 10000 3.1 80 09:55 29.05.2020
4015 Clouds 14 1027 58 10000 1 0 09:37 29.05.2020
4016 Clouds 14 1027 58 10000 1 0 09:18 29.05.2020
4017 Clear 12 1027 66 10000 0.5 0 08:44 29.05.2020
4018 Clouds 11 1027 66 10000 0.5 0 08:21 29.05.2020
4019 Clouds 10 1027 71 10000 1 0 07:46 29.05.2020
4020 Clouds 9 1027 75 10000 0.5 0 07:27 29.05.2020
4021 Clouds 7 1027 87 10000 1 0 06:49 29.05.2020
4022 Clouds 6 1027 86 10000 1 0 06:29 29.05.2020
4023 Clouds 5 1027 86 10000 1 100 05:56 29.05.2020
4024 Clouds 7 1027 81 10000 1.5 340 03:55 29.05.2020
4025 Clouds 8 1028 81 10000 0.5 0 01:47 29.05.2020
4026 Clouds 8 1028 75 10000 1 0 01:25 29.05.2020
4027 Clouds 8 1028 75 10000 1 0 01:25 29.05.2020
4028 Clouds 9 1028 70 10000 1 0 00:47 29.05.2020
4029 Clouds 9 1028 70 10000 1 0 00:22 29.05.2020
4030 Clouds 10 1028 57 10000 1.5 70 23:41 28.05.2020
4031 Clouds 11 1028 57 10000 1.5 70 23:19 28.05.2020
4032 Clouds 12 1028 50 10000 2.1 80 22:45 28.05.2020
4033 Clouds 13 1028 44 10000 2.1 70 22:27 28.05.2020
4034 Clouds 14 1028 41 10000 3.6 40 21:59 28.05.2020
4035 Clouds 14 1028 41 10000 3.1 30 21:40 28.05.2020
4036 Clouds 15 1028 41 10000 3.1 30 21:21 28.05.2020
4037 Clouds 16 1027 38 10000 4.1 30 20:58 28.05.2020
4038 Clouds 16 1027 33 10000 4.6 20 20:40 28.05.2020
4039 Clouds 16 1027 33 10000 4.6 20 20:19 28.05.2020
4040 Clouds 17 1027 31 10000 4.6 20 19:57 28.05.2020
4041 Clouds 17 1027 31 10000 4.6 20 19:57 28.05.2020
4042 Clouds 17 1027 31 10000 4.1 20 19:39 28.05.2020
4043 Clouds 17 1027 31 10000 4.1 20 19:39 28.05.2020
4044 Clouds 17 1027 31 10000 4.1 20 19:20 28.05.2020
4045 Clouds 18 1027 29 10000 5.1 20 18:43 28.05.2020
4046 Clouds 19 1027 29 10000 5.1 20 18:25 28.05.2020
4047 Clouds 19 1027 42 10000 5.1 20 17:57 28.05.2020
4048 Clouds 19 1027 31 10000 4.6 20 17:39 28.05.2020
4049 Clear 19 1027 31 10000 4.6 20 17:19 28.05.2020
4050 Clear 19 1027 32 10000 5.7 360 16:45 28.05.2020
4051 Clear 19 1028 32 10000 5.7 330 16:21 28.05.2020
4052 Clear 19 1028 37 10000 5.1 350 15:47 28.05.2020
4053 Clear 19 1028 37 10000 5.1 350 15:25 28.05.2020
4054 Clear 19 1028 34 10000 6.2 350 14:59 28.05.2020
4055 Clear 18 1028 39 10000 5.1 30 14:40 28.05.2020
4056 Clouds 19 1028 39 10000 5.1 30 14:22 28.05.2020
4057 Clouds 19 1028 39 10000 5.1 30 14:22 28.05.2020
4058 Clouds 18 1029 39 10000 5.1 340 13:45 28.05.2020
4059 Clouds 18 1029 39 10000 5.1 340 13:27 28.05.2020
4060 Clouds 17 1029 45 10000 5.1 10 12:43 28.05.2020
4061 Clouds 18 1029 45 10000 5.1 10 12:20 28.05.2020
4062 Clouds 17 1029 59 10000 3.6 10 11:54 28.05.2020
4063 Clouds 16 1029 59 10000 3.6 360 11:36 28.05.2020
4064 Clouds 16 1029 59 10000 3.6 360 11:36 28.05.2020
4065 Clouds 16 1029 59 10000 3.6 360 11:36 28.05.2020
4066 Clouds 16 1029 59 10000 3.6 360 11:18 28.05.2020
4067 Clouds 15 1029 67 10000 5.7 30 10:42 28.05.2020
4068 Clouds 15 1029 67 10000 5.7 30 10:42 28.05.2020
4069 Clouds 15 1029 67 10000 5.7 30 10:24 28.05.2020
4070 Clouds 14 1029 67 10000 4.1 30 09:41 28.05.2020
4071 Clouds 14 1029 67 10000 4.1 30 09:22 28.05.2020
4072 Rain 14 1029 67 10000 3.1 10 08:57 28.05.2020
4073 Rain 13 1029 76 10000 3.1 360 08:39 28.05.2020
4074 Rain 13 1029 76 10000 3.1 360 08:20 28.05.2020
4075 Rain 12 1029 76 10000 2.1 330 07:41 28.05.2020
4076 Rain 12 1029 76 10000 2.1 330 07:23 28.05.2020
4077 Clouds 11 1028 81 10000 0.5 0 06:44 28.05.2020
4078 Clouds 11 1028 81 10000 0.5 0 06:26 28.05.2020
4079 Clouds 11 1028 81 10000 1 140 05:38 28.05.2020
4080 Clouds 11 1028 81 10000 0.5 0 04:36 28.05.2020
4081 Clouds 11 1028 76 10000 1 100 04:18 28.05.2020
4082 Clouds 12 1029 76 10000 0.5 0 02:56 28.05.2020
4083 Clouds 12 1029 71 10000 1 110 02:28 28.05.2020
4084 Clouds 11 1029 76 10000 1 110 01:45 28.05.2020
4085 Clouds 12 1029 76 10000 0.5 360 00:47 28.05.2020
4086 Clouds 12 1030 76 10000 0.5 0 00:19 28.05.2020
4087 Clouds 12 1030 76 10000 0.5 0 23:56 27.05.2020
4088 Clouds 13 1030 71 10000 0.5 0 23:37 27.05.2020
4089 Clouds 14 1030 62 10000 1 0 23:19 27.05.2020
4090 Clouds 15 1030 54 10000 0.5 0 22:41 27.05.2020
4091 Clouds 15 1030 54 10000 0.5 0 22:23 27.05.2020
4092 Clouds 16 1030 59 10000 0.5 0 21:56 27.05.2020
4093 Clouds 18 1029 52 10000 1 0 21:37 27.05.2020
4094 Clouds 18 1029 52 10000 1 0 21:19 27.05.2020
4095 Clouds 19 1029 42 10000 1.5 20 20:57 27.05.2020
4096 Clouds 19 1030 40 10000 2.6 10 20:38 27.05.2020
4097 Clouds 20 1030 40 10000 2.6 10 20:18 27.05.2020
4098 Clouds 20 1030 37 10000 2.1 50 19:43 27.05.2020
4099 Clouds 20 1030 40 10000 2.1 10 19:20 27.05.2020
4100 Clouds 20 1030 40 10000 2.1 10 18:45 27.05.2020
4101 Clouds 21 1030 32 10000 2.1 350 18:20 27.05.2020
4102 Clouds 21 1030 32 10000 2.1 350 17:59 27.05.2020
4103 Clouds 21 1031 37 10000 2.1 0 17:40 27.05.2020
4104 Clouds 21 1031 37 10000 2.1 0 17:21 27.05.2020
4105 Clouds 21 1031 37 10000 1.5 320 16:56 27.05.2020
4106 Clouds 20 1031 34 10000 2.6 190 16:38 27.05.2020
4107 Clouds 20 1031 34 10000 2.6 190 16:19 27.05.2020
4108 Clouds 21 1031 32 10000 2.6 90 15:47 27.05.2020
4109 Clouds 21 1032 37 10000 2.6 0 15:22 27.05.2020
4110 Clouds 20 1032 35 10000 1.5 0 14:46 27.05.2020
4111 Clouds 20 1032 35 10000 1.5 0 14:46 27.05.2020
4112 Clouds 20 1032 35 10000 1.5 0 14:46 27.05.2020
4113 Clouds 20 1032 42 10000 2.1 20 14:22 27.05.2020
4114 Clouds 20 1033 39 10000 2.1 0 13:58 27.05.2020
4115 Clouds 20 1033 40 10000 1.5 0 13:39 27.05.2020
4116 Clouds 20 1033 40 10000 1.5 0 13:39 27.05.2020
4117 Clear 20 1033 40 10000 1.5 0 13:21 27.05.2020
4118 Clear 19 1033 45 10000 1.5 0 12:42 27.05.2020
4119 Clear 18 1033 45 10000 1.5 0 12:23 27.05.2020
4120 Clear 18 1033 48 10000 2.1 340 11:56 27.05.2020
4121 Clear 18 1034 42 10000 1.5 0 11:36 27.05.2020
4122 Clear 18 1034 42 10000 1.5 0 11:18 27.05.2020
4123 Clear 17 1034 55 10000 1 0 10:43 27.05.2020
4124 Clear 17 1034 55 10000 1 0 10:24 27.05.2020
4125 Clear 14 1034 66 10000 1 0 09:56 27.05.2020
4126 Clear 14 1034 66 10000 1 0 09:38 27.05.2020
4127 Clear 13 1034 66 10000 1 0 09:20 27.05.2020
4128 Clear 12 1034 71 10000 1 0 08:42 27.05.2020
4129 Clouds 11 1034 71 10000 1 0 08:24 27.05.2020
4130 Clouds 10 1034 81 10000 0.5 0 07:53 27.05.2020
4131 Clouds 9 1034 81 10000 0.5 0 07:34 27.05.2020
4132 Clouds 6 1034 86 10000 1 0 06:55 27.05.2020
4133 Clouds 6 1034 86 10000 2.1 100 06:30 27.05.2020
4134 Clouds 6 1034 93 10000 1 110 05:50 27.05.2020
4135 Clouds 5 1034 93 10000 0.5 0 05:25 27.05.2020
4136 Clear 7 1034 87 10000 1 80 03:21 27.05.2020
4137 Clear 7 1034 81 10000 0.5 0 02:27 27.05.2020
4138 Clear 8 1034 87 10000 1 360 01:32 27.05.2020
4139 Clear 9 1034 87 10000 1 330 00:50 27.05.2020
4140 Clear 9 1034 81 10000 0.5 0 00:24 27.05.2020
4141 Clear 10 1034 66 10000 2.1 50 23:59 26.05.2020
4142 Clear 11 1034 62 10000 2.1 50 23:40 26.05.2020
4143 Clear 11 1034 62 10000 2.1 50 23:22 26.05.2020
4144 Clear 12 1034 62 10000 1.5 30 22:58 26.05.2020
4145 Clear 13 1034 62 10000 1.5 20 22:37 26.05.2020
4146 Clear 13 1034 62 10000 1.5 20 22:19 26.05.2020
4147 Clear 13 1034 54 10000 2.1 10 21:55 26.05.2020
4148 Clear 13 1034 54 10000 2.1 10 21:55 26.05.2020
4149 Clear 14 1033 48 10000 2.1 10 21:36 26.05.2020
4150 Clear 15 1033 48 10000 2.1 10 21:18 26.05.2020
4151 Clear 16 1033 45 10000 3.6 360 20:42 26.05.2020
4152 Clear 16 1033 45 10000 3.6 360 20:42 26.05.2020
4153 Clouds 16 1033 45 10000 3.6 360 20:20 26.05.2020
4154 Clouds 17 1033 39 10000 2.6 20 19:55 26.05.2020
4155 Clouds 18 1033 39 10000 3.6 40 19:36 26.05.2020
4156 Clouds 18 1033 39 10000 3.6 10 19:18 26.05.2020
4157 Clouds 18 1033 39 10000 2.1 30 18:40 26.05.2020
4158 Clouds 18 1033 39 10000 4.1 20 18:21 26.05.2020
4159 Clouds 18 1033 42 10000 2.6 20 17:42 26.05.2020
4160 Clouds 18 1033 42 10000 2.6 20 17:24 26.05.2020
4161 Clouds 18 1033 45 10000 3.1 60 16:57 26.05.2020
4162 Clouds 18 1033 39 10000 2.1 50 16:39 26.05.2020
4163 Clouds 18 1033 39 10000 2.1 50 16:18 26.05.2020
4164 Clouds 18 1034 45 10000 3.1 360 15:42 26.05.2020
4165 Clouds 17 1034 45 10000 3.1 360 15:20 26.05.2020
4166 Clouds 17 1034 42 10000 2.6 330 14:56 26.05.2020
4167 Clouds 16 1034 44 10000 3.1 330 14:37 26.05.2020
4168 Clouds 16 1034 44 10000 3.1 330 14:19 26.05.2020
4169 Clouds 16 1034 47 10000 2.6 360 13:41 26.05.2020
4170 Clouds 16 1034 47 10000 2.6 360 13:23 26.05.2020
4171 Clouds 16 1034 44 10000 2.6 330 12:56 26.05.2020
4172 Clouds 15 1034 51 10000 2.1 0 12:37 26.05.2020
4173 Clouds 15 1034 51 10000 2.1 0 12:19 26.05.2020
4174 Clouds 15 1034 54 10000 1.5 0 11:41 26.05.2020
4175 Clouds 15 1034 54 10000 1.5 0 11:20 26.05.2020
4176 Clouds 14 1034 62 10000 1.5 0 10:47 26.05.2020
4177 Clouds 14 1034 62 10000 1.5 0 10:20 26.05.2020
4178 Clouds 13 1034 66 10000 2.1 330 09:59 26.05.2020
4179 Clear 12 1034 71 10000 1.5 350 09:37 26.05.2020
4180 Clear 12 1034 71 10000 1.5 350 09:18 26.05.2020
4181 Clear 11 1034 76 10000 1.5 350 08:41 26.05.2020
4182 Clear 11 1034 76 10000 1.5 350 08:22 26.05.2020
4183 Clear 8 1033 87 10000 0.5 0 07:43 26.05.2020
4184 Clear 8 1033 87 10000 0.5 0 07:23 26.05.2020
4185 Clear 6 1033 93 10000 0.5 100 06:53 26.05.2020
4186 Clouds 5 1033 93 10000 1 330 06:28 26.05.2020
4187 Clouds 5 1033 93 10000 0.5 0 05:43 26.05.2020
4188 Clouds 6 1033 93 10000 0.5 0 05:20 26.05.2020
4189 Clear 6 1033 93 10000 0.5 0 04:48 26.05.2020
4190 Clear 6 1032 93 10000 0.5 0 04:29 26.05.2020
4191 Clear 7 1033 93 10000 0.5 0 03:46 26.05.2020
4192 Clouds 8 1033 81 10000 0.5 0 02:35 26.05.2020
4193 Clouds 9 1033 81 10000 1 0 01:47 26.05.2020
4194 Clouds 10 1032 76 10000 0.5 340 00:43 26.05.2020
4195 Clouds 10 1032 76 10000 0.5 340 00:23 26.05.2020
4196 Clouds 11 1032 62 10000 1.5 50 23:59 25.05.2020
4197 Clouds 11 1032 62 10000 1 0 23:39 25.05.2020
4198 Clouds 12 1032 62 10000 1 0 23:20 25.05.2020
4199 Clouds 13 1032 58 10000 2.6 30 22:56 25.05.2020
4200 Clouds 13 1032 58 10000 2.6 30 22:56 25.05.2020
4201 Clouds 13 1031 54 10000 2.1 350 22:37 25.05.2020
4202 Clouds 13 1031 54 10000 2.1 350 22:19 25.05.2020
4203 Clouds 15 1031 44 10000 4.6 330 21:58 25.05.2020
4204 Clouds 15 1030 44 10000 4.6 330 21:38 25.05.2020
4205 Clouds 16 1030 42 10000 5.1 320 21:19 25.05.2020
4206 Clouds 16 1030 42 10000 5.1 320 21:19 25.05.2020
4207 Clouds 16 1030 42 10000 5.1 320 20:58 25.05.2020
4208 Clouds 16 1030 42 10000 7.7 340 20:40 25.05.2020
4209 Clouds 16 1030 42 10000 7.7 340 20:20 25.05.2020
4210 Clouds 17 1030 45 10000 7.2 340 19:55 25.05.2020
4211 Clouds 17 1029 45 10000 6.2 340 19:37 25.05.2020
4212 Clear 18 1029 45 10000 7.7 320 19:18 25.05.2020
4213 Clouds 18 1029 39 10000 7.2 340 18:42 25.05.2020
4214 Clouds 19 1029 39 10000 7.2 340 18:21 25.05.2020
4215 Clouds 19 1029 45 10000 8.2 310 17:54 25.05.2020
4216 Clouds 19 1029 48 10000 6.2 330 17:36 25.05.2020
4217 Clouds 18 1029 48 10000 7.2 320 17:18 25.05.2020
4218 Clouds 18 1029 48 10000 8.7 300 16:40 25.05.2020
4219 Clouds 19 1029 48 10000 8.7 300 16:22 25.05.2020
4220 Clouds 18 1029 48 10000 9.3 300 15:58 25.05.2020
4221 Clouds 18 1029 48 10000 9.3 300 15:58 25.05.2020
4222 Clouds 18 1029 48 10000 6.7 320 15:40 25.05.2020
4223 Clouds 18 1029 48 10000 6.7 320 15:18 25.05.2020
4224 Clouds 17 1029 59 10000 6.2 320 14:43 25.05.2020
4225 Clouds 17 1029 59 10000 6.2 320 14:24 25.05.2020
4226 Clouds 16 1029 59 10000 8.2 290 13:57 25.05.2020
4227 Clouds 16 1029 63 10000 6.7 300 13:37 25.05.2020
4228 Clouds 16 1029 63 10000 6.7 300 13:19 25.05.2020
4229 Clouds 15 1030 76 10000 6.2 290 12:40 25.05.2020
4230 Clouds 14 1030 76 10000 6.2 290 12:21 25.05.2020
4231 Rain 14 1030 76 10000 6.2 310 11:58 25.05.2020
4232 Clouds 14 1030 62 10000 6.2 280 11:38 25.05.2020
4233 Clouds 14 1030 62 10000 6.2 280 11:18 25.05.2020
4234 Clouds 15 1030 67 10000 5.7 280 10:43 25.05.2020
4235 Clouds 15 1030 67 10000 5.7 280 10:21 25.05.2020
4236 Clouds 14 1030 71 10000 5.7 290 09:57 25.05.2020
4237 Clouds 13 1030 76 10000 5.1 290 09:38 25.05.2020
4238 Clouds 13 1030 76 10000 5.1 290 09:19 25.05.2020
4239 Clouds 13 1030 76 10000 5.1 290 08:57 25.05.2020
4240 Clouds 12 1030 81 10000 4.6 290 08:36 25.05.2020
4241 Clouds 13 1030 81 10000 4.6 290 08:36 25.05.2020
4242 Clouds 12 1030 81 10000 4.6 290 08:36 25.05.2020
4243 Clouds 12 1030 81 10000 4.6 290 08:18 25.05.2020
4244 Clouds 12 1030 81 10000 3.6 280 07:43 25.05.2020
4245 Clouds 12 1030 81 10000 3.6 280 07:20 25.05.2020
4246 Clouds 12 1030 81 10000 3.6 280 06:49 25.05.2020
4247 Clouds 11 1030 81 10000 4.6 290 06:31 25.05.2020
4248 Clouds 12 1029 76 10000 4.6 280 03:48 25.05.2020
4249 Clouds 12 1030 71 10000 4.1 280 03:22 25.05.2020
4250 Clouds 12 1030 71 10000 5.1 280 02:45 25.05.2020
4251 Clouds 13 1030 71 10000 5.1 280 01:46 25.05.2020
4252 Clouds 13 1030 71 10000 5.1 280 01:28 25.05.2020
4253 Rain 13 1030 66 10000 6.7 290 00:36 25.05.2020
4254 Clouds 13 1030 66 10000 5.1 280 00:18 25.05.2020
4255 Clouds 13 1030 62 10000 4.1 280 23:43 24.05.2020
4256 Clouds 13 1030 62 10000 4.1 280 23:23 24.05.2020
4257 Rain 13 1030 62 10000 3.6 280 22:58 24.05.2020
4258 Rain 13 1030 62 10000 3.1 280 22:40 24.05.2020
4259 Rain 13 1030 62 10000 3.1 280 22:19 24.05.2020
4260 Rain 14 1029 58 10000 3.6 280 21:55 24.05.2020
4261 Rain 14 1029 58 10000 4.1 280 21:37 24.05.2020
4262 Rain 14 1029 58 10000 4.1 280 21:19 24.05.2020
4263 Clouds 15 1029 51 10000 5.1 290 20:43 24.05.2020
4264 Clouds 15 1029 51 10000 5.1 290 20:43 24.05.2020
4265 Clouds 15 1029 51 10000 5.1 290 20:22 24.05.2020
4266 Clouds 15 1029 44 10000 6.2 290 19:59 24.05.2020
4267 Clouds 15 1029 44 10000 6.2 290 19:59 24.05.2020
4268 Clouds 16 1029 44 10000 6.2 290 19:40 24.05.2020
4269 Clouds 16 1029 44 10000 6.2 290 19:19 24.05.2020
4270 Clouds 16 1028 44 10000 7.7 280 18:54 24.05.2020
4271 Clouds 17 1028 42 10000 7.7 270 18:36 24.05.2020
4272 Clouds 17 1028 42 10000 7.7 270 18:18 24.05.2020
4273 Clouds 17 1028 39 10000 8.2 270 17:40 24.05.2020
4274 Clouds 17 1028 39 10000 8.2 270 17:21 24.05.2020
4275 Clouds 17 1028 39 10000 8.2 280 16:57 24.05.2020
4276 Clouds 17 1029 39 10000 7.7 270 16:38 24.05.2020
4277 Rain 17 1029 39 10000 7.7 270 16:20 24.05.2020
4278 Rain 16 1029 44 10000 8.2 270 15:56 24.05.2020
4279 Rain 16 1028 44 10000 7.2 280 15:38 24.05.2020
4280 Clouds 17 1028 44 10000 7.2 280 15:18 24.05.2020
4281 Clouds 16 1028 47 10000 7.2 260 14:45 24.05.2020
4282 Clouds 16 1028 47 10000 7.2 260 14:24 24.05.2020
4283 Clear 15 1028 44 10000 8.7 250 13:58 24.05.2020
4284 Clouds 16 1028 42 10000 8.2 260 13:39 24.05.2020
4285 Clouds 16 1028 42 10000 8.2 260 13:21 24.05.2020
4286 Clouds 16 1028 48 10000 7.2 250 12:59 24.05.2020
4287 Clouds 16 1028 48 10000 8.2 250 12:40 24.05.2020
4288 Clouds 16 1028 48 10000 8.2 250 12:22 24.05.2020
4289 -273 0 0 0 0 0 11:59 24.05.2020
4290 Clouds 15 1029 58 10000 6.7 250 11:40 24.05.2020
4291 Clouds 15 1029 58 10000 6.7 250 11:22 24.05.2020
4292 Clouds 14 1029 62 10000 6.7 270 10:55 24.05.2020
4293 Clouds 14 1029 66 10000 5.7 260 10:37 24.05.2020
4294 Clouds 13 1029 66 10000 5.7 260 10:18 24.05.2020
4295 Clouds 13 1029 71 10000 4.6 260 09:41 24.05.2020
4296 Clouds 12 1029 71 10000 4.6 260 09:18 24.05.2020
4297 Clouds 12 1029 71 10000 4.1 250 08:56 24.05.2020
4298 Clouds 11 1029 81 10000 3.6 240 08:37 24.05.2020
4299 Clouds 10 1029 81 10000 2.6 230 08:19 24.05.2020
4300 Clouds 9 1029 87 10000 1 0 07:42 24.05.2020
4301 Clouds 9 1029 87 10000 1 0 07:24 24.05.2020
4302 Clouds 7 1029 93 10000 1.5 110 06:48 24.05.2020
4303 Clouds 7 1029 93 10000 1.5 110 06:25 24.05.2020
4304 Clouds 7 1029 93 10000 2.1 120 04:52 24.05.2020
4305 Clouds 7 1029 93 10000 2.6 130 03:41 24.05.2020
4306 Clouds 7 1029 93 10000 2.6 100 02:31 24.05.2020
4307 Clouds 8 1028 93 10000 1.5 80 01:46 24.05.2020
4308 Clouds 8 1028 87 10000 2.6 250 00:39 24.05.2020
4309 Clouds 8 1028 87 10000 2.6 250 00:21 24.05.2020
4310 Clouds 9 1028 87 10000 2.1 240 23:43 23.05.2020
4311 Clouds 9 1028 87 10000 2.1 240 23:23 23.05.2020
4312 Clouds 9 1028 81 10000 1.5 260 22:57 23.05.2020
4313 Clouds 9 1028 81 10000 2.6 270 22:38 23.05.2020
4314 Clouds 10 1028 81 10000 2.6 270 22:20 23.05.2020
4315 Clouds 10 1028 81 10000 4.6 270 21:57 23.05.2020
4316 Clouds 10 1027 76 10000 5.1 270 21:37 23.05.2020
4317 Clouds 10 1027 76 10000 5.1 270 21:19 23.05.2020
4318 Clouds 10 1027 76 10000 5.1 270 21:19 23.05.2020
4319 Clouds 11 1027 76 10000 6.2 270 20:57 23.05.2020
4320 Clouds 11 1027 81 10000 5.1 270 20:38 23.05.2020
4321 Clouds 11 1027 81 10000 5.1 270 20:18 23.05.2020
4322 Clouds 11 1026 81 10000 4.6 260 19:41 23.05.2020
4323 Clouds 11 1026 87 10000 5.1 270 19:20 23.05.2020
4324 Clouds 11 1026 87 10000 5.1 270 18:57 23.05.2020
4325 Clouds 11 1026 81 10000 5.7 260 18:39 23.05.2020
4326 Clouds 11 1026 81 10000 5.7 260 18:21 23.05.2020
4327 Rain 11 1025 87 10000 5.1 270 17:55 23.05.2020
4328 Rain 11 1024 87 10000 5.7 300 17:37 23.05.2020
4329 Rain 11 1024 87 10000 5.7 300 17:18 23.05.2020
4330 Rain 12 1024 87 10000 3.1 270 16:55 23.05.2020
4331 Rain 11 1024 81 10000 2.1 290 16:37 23.05.2020
4332 Rain 11 1024 81 10000 2.1 290 16:18 23.05.2020
4333 Rain 11 1024 62 10000 5.1 320 15:42 23.05.2020
4334 Rain 11 1024 62 10000 5.1 320 15:23 23.05.2020
4335 Clouds 12 1023 62 10000 7.7 320 14:55 23.05.2020
4336 Rain 13 1022 71 10000 8.7 300 14:36 23.05.2020
4337 Rain 13 1022 71 10000 8.7 300 14:18 23.05.2020
4338 Drizzle 14 1022 72 10000 4.6 300 13:39 23.05.2020
4339 Drizzle 15 1022 72 10000 4.6 300 13:19 23.05.2020
4340 Drizzle 15 1022 67 10000 3.6 320 12:43 23.05.2020
4341 Drizzle 16 1022 67 10000 3.6 320 12:20 23.05.2020
4342 Drizzle 16 1022 67 10000 3.6 330 11:59 23.05.2020
4343 Drizzle 16 1022 67 10000 2.6 300 11:41 23.05.2020
4344 Drizzle 16 1022 67 10000 2.6 300 11:19 23.05.2020
4345 Clouds 16 1022 67 10000 3.1 270 10:56 23.05.2020
4346 Clouds 16 1022 72 10000 4.1 290 10:38 23.05.2020
4347 Clouds 16 1022 72 10000 4.1 290 10:19 23.05.2020
4348 Clouds 16 1022 77 10000 3.1 300 09:55 23.05.2020
4349 Clouds 16 1022 82 10000 2.1 330 09:37 23.05.2020
4350 Clouds 16 1022 82 10000 2.1 330 09:18 23.05.2020
4351 Clouds 15 1022 87 10000 2.6 350 08:41 23.05.2020
4352 Clouds 15 1022 87 10000 2.6 350 08:19 23.05.2020
4353 Clouds 16 1021 82 10000 5.7 320 07:45 23.05.2020
4354 Clouds 16 1021 82 10000 5.7 320 07:27 23.05.2020
4355 Clouds 16 1021 93 10000 0.5 0 06:43 23.05.2020
4356 Clouds 16 1021 93 10000 1 0 05:59 23.05.2020
4357 Clouds 15 1020 87 10000 2.1 90 04:25 23.05.2020
4358 Clouds 16 1020 87 10000 1 0 03:26 23.05.2020
4359 Clouds 16 1020 87 10000 1 0 03:26 23.05.2020
4360 Rain 16 1020 82 10000 2.1 110 02:40 23.05.2020
4361 Rain 17 1020 72 10000 1.5 90 01:50 23.05.2020
4362 Rain 17 1020 82 10000 1.5 130 01:18 23.05.2020
4363 Clouds 19 1021 52 10000 1.5 190 00:42 23.05.2020
4364 Clouds 19 1021 52 10000 1.5 190 00:19 23.05.2020
4365 Rain 19 1020 49 10000 0.5 0 23:44 22.05.2020
4366 Rain 19 1020 49 10000 0.5 0 23:22 22.05.2020
4367 Rain 20 1020 43 10000 1 100 22:58 22.05.2020
4368 Rain 20 1020 43 10000 1 100 22:58 22.05.2020
4369 Rain 20 1020 43 10000 2.1 130 22:40 22.05.2020
4370 Clouds 20 1020 40 10000 1.5 210 22:20 22.05.2020
4371 Clouds 22 1020 40 10000 1 0 21:47 22.05.2020
4372 Clouds 21 1020 40 10000 1 0 21:23 22.05.2020
4373 Clouds 21 1020 40 10000 1 0 21:23 22.05.2020
4374 Clouds 22 1020 35 10000 1 0 20:59 22.05.2020
4375 Clouds 22 1020 35 10000 1 0 20:59 22.05.2020
4376 Clouds 22 1019 35 10000 3.1 90 20:40 22.05.2020
4377 Rain 22 1019 35 10000 3.1 90 20:20 22.05.2020
4378 Rain 23 1020 31 10000 0.5 0 19:44 22.05.2020
4379 Rain 24 1020 27 10000 3.6 300 19:25 22.05.2020
4380 Clouds 24 1020 33 0 3.6 250 18:54 22.05.2020
4381 Clouds 25 1021 36 10000 5.1 270 18:36 22.05.2020
4382 Clouds 25 1021 36 10000 5.1 270 18:18 22.05.2020
4383 Clouds 25 1021 38 10000 4.1 270 17:40 22.05.2020
4384 Clouds 25 1021 38 10000 4.1 270 17:20 22.05.2020
4385 Clouds 26 1021 36 10000 4.1 250 16:56 22.05.2020
4386 Clouds 26 1021 36 10000 5.1 240 16:37 22.05.2020
4387 Clouds 26 1021 36 10000 5.1 240 16:19 22.05.2020
4388 Clouds 26 1021 41 10000 3.6 260 15:42 22.05.2020
4389 Clouds 26 1021 41 10000 3.6 260 15:22 22.05.2020
4390 Clouds 25 1021 41 10000 3.6 250 14:46 22.05.2020
4391 Clouds 25 1021 41 10000 3.6 250 14:26 22.05.2020
4392 Clouds 25 1021 38 10000 2.1 220 13:56 22.05.2020
4393 Clouds 25 1021 44 10000 2.6 210 13:37 22.05.2020
4394 Clouds 24 1022 44 10000 2.6 140 13:19 22.05.2020
4395 Clouds 24 1022 41 10000 2.1 230 12:40 22.05.2020
4396 Clouds 23 1022 43 10000 2.1 170 12:21 22.05.2020
4397 Clouds 23 1022 43 10000 1.5 200 11:45 22.05.2020
4398 Clouds 23 1022 43 10000 1.5 200 11:22 22.05.2020
4399 Clouds 21 1022 43 10000 2.1 170 10:58 22.05.2020
4400 Clouds 21 1022 49 10000 2.1 140 10:38 22.05.2020
4401 Clouds 20 1022 49 10000 2.1 140 10:20 22.05.2020
4402 Clouds 19 1022 55 10000 2.6 130 09:48 22.05.2020
4403 Clouds 17 1022 55 10000 2.6 130 09:21 22.05.2020
4404 Clouds 16 1022 62 10000 3.1 120 08:58 22.05.2020
4405 Clouds 15 1022 67 10000 2.1 110 08:39 22.05.2020
4406 Clouds 14 1022 67 10000 2.1 110 08:19 22.05.2020
4407 Clouds 13 1022 71 10000 1.5 110 07:52 22.05.2020
4408 Clouds 10 1022 81 10000 2.6 120 07:23 22.05.2020
4409 Clouds 11 1022 81 10000 2.6 120 06:52 22.05.2020
4410 Clouds 9 1022 81 10000 2.6 100 06:29 22.05.2020
4411 Clouds 10 1022 76 10000 1.5 110 05:37 22.05.2020
4412 Clouds 10 1022 81 10000 1.5 120 04:49 22.05.2020
4413 Clouds 10 1022 81 10000 2.1 110 03:52 22.05.2020
4414 Clear 11 1022 81 10000 2.1 100 03:33 22.05.2020
4415 Clear 11 1022 76 10000 1 0 02:35 22.05.2020
4416 Clouds 12 1022 76 10000 0.5 0 01:43 22.05.2020
4417 Clouds 12 1022 76 10000 0.5 0 01:21 22.05.2020
4418 Clouds 13 1022 71 10000 1 0 00:34 22.05.2020
4419 Clouds 14 1022 71 10000 1.5 110 23:57 21.05.2020
4420 Clouds 14 1022 71 10000 1 320 23:39 21.05.2020
4421 Clear 15 1022 71 10000 1 320 23:21 21.05.2020
4422 Clear 16 1022 59 10000 0.5 0 22:57 21.05.2020
4423 Clear 16 1022 55 10000 0.5 0 22:37 21.05.2020
4424 Clear 17 1022 55 10000 0.5 0 22:19 21.05.2020
4425 Clear 18 1021 48 10000 1 20 21:47 21.05.2020
4426 Clouds 19 1021 45 10000 1 0 21:27 21.05.2020
4427 Clouds 21 1021 37 10000 2.6 290 20:57 21.05.2020
4428 Clouds 21 1021 37 10000 3.1 290 20:39 21.05.2020
4429 Clouds 22 1021 37 10000 3.1 290 20:20 21.05.2020
4430 Clouds 23 1021 33 10000 3.6 290 19:40 21.05.2020
4431 Clouds 23 1021 33 10000 3.6 290 19:19 21.05.2020
4432 Clouds 23 1021 33 10000 3.1 310 18:56 21.05.2020
4433 Clouds 24 1021 31 10000 2.1 0 18:36 21.05.2020
4434 Clouds 24 1021 31 10000 2.1 0 18:18 21.05.2020
4435 Clouds 23 1021 35 10000 4.1 300 17:43 21.05.2020
4436 Clear 23 1021 35 10000 4.1 300 17:25 21.05.2020
4437 Clear 23 1021 35 10000 3.1 0 16:47 21.05.2020
4438 Clear 24 1021 35 10000 1 0 16:27 21.05.2020
4439 Clear 23 1021 33 10000 2.6 0 15:57 21.05.2020
4440 Clear 23 1021 35 10000 2.6 0 15:38 21.05.2020
4441 Clear 23 1021 35 10000 2.6 0 15:38 21.05.2020
4442 Clear 23 1021 35 10000 2.6 0 15:20 21.05.2020
4443 Clear 23 1022 37 10000 2.6 350 14:41 21.05.2020
4444 Clear 23 1022 37 10000 2.6 350 14:19 21.05.2020
4445 Clear 22 1022 43 10000 2.1 0 13:42 21.05.2020
4446 Clouds 22 1022 43 10000 2.1 0 13:23 21.05.2020
4447 Clouds 21 1023 42 0 2.6 0 12:59 21.05.2020
4448 Clouds 21 1023 45 10000 2.1 0 12:38 21.05.2020
4449 Clear 21 1023 45 10000 2.1 0 12:19 21.05.2020
4450 Clouds 19 1023 48 10000 2.1 0 11:42 21.05.2020
4451 Clouds 19 1023 48 10000 2.1 0 11:24 21.05.2020
4452 Clouds 18 1023 52 10000 2.1 140 10:59 21.05.2020
4453 Clouds 18 1023 52 10000 2.1 120 10:39 21.05.2020
4454 Clouds 18 1023 52 10000 2.1 120 10:20 21.05.2020
4455 Clear 17 1023 55 10000 2.1 120 09:55 21.05.2020
4456 Clear 16 1023 59 10000 2.6 100 09:37 21.05.2020
4457 Clear 16 1023 59 10000 2.6 100 09:19 21.05.2020
4458 Clear 15 1023 67 0 0.5 0 08:45 21.05.2020
4459 Clouds 14 1023 67 0 0.5 0 08:26 21.05.2020
4460 Clouds 14 1023 67 0 0.5 0 08:26 21.05.2020
4461 Clouds 11 1022 87 10000 1 350 07:48 21.05.2020
4462 Clouds 11 1022 87 10000 1 350 07:27 21.05.2020
4463 Clouds 10 1022 87 0 1 350 06:52 21.05.2020
4464 Clouds 9 1022 93 10000 0.5 360 06:22 21.05.2020
4465 Clouds 10 1022 93 10000 0.5 0 05:34 21.05.2020
4466 Clouds 12 1022 87 10000 0.5 0 03:22 21.05.2020
4467 Clouds 12 1022 81 10000 1 360 03:22 21.05.2020
4468 Clouds 12 1022 87 10000 0.5 0 02:45 21.05.2020
4469 Clouds 13 1022 82 10000 1 0 02:26 21.05.2020
4470 Clouds 13 1022 76 10000 1.5 30 01:45 21.05.2020
4471 Clouds 14 1022 76 10000 1.5 30 01:21 21.05.2020
4472 Clouds 14 1022 72 10000 1.5 60 00:51 21.05.2020
4473 Clouds 15 1022 72 10000 1.5 60 00:23 21.05.2020
4474 Clouds 15 1022 67 10000 2.6 30 23:43 20.05.2020
4475 Clouds 15 1022 67 10000 2.6 30 23:20 20.05.2020
4476 Clouds 16 1021 67 10000 2.1 20 22:58 20.05.2020
4477 Clouds 17 1021 63 10000 2.6 20 22:39 20.05.2020
4478 Clouds 17 1021 63 10000 2.6 20 22:21 20.05.2020
4479 Clouds 18 1021 63 10000 2.1 20 21:40 20.05.2020
4480 Clouds 18 1021 63 10000 2.1 20 21:22 20.05.2020
4481 Clouds 19 1020 55 10000 2.1 20 20:45 20.05.2020
4482 Clouds 19 1020 55 10000 2.1 20 20:26 20.05.2020
4483 Clouds 19 1020 52 10000 3.1 30 19:58 20.05.2020
4484 Clouds 19 1020 52 10000 3.6 50 19:38 20.05.2020
4485 Clouds 20 1020 52 10000 3.6 50 19:20 20.05.2020
4486 Clouds 20 1020 46 10000 3.6 360 18:47 20.05.2020
4487 Clouds 21 1020 46 10000 3.6 360 18:28 20.05.2020
4488 Clouds 21 1020 49 10000 3.6 330 17:46 20.05.2020
4489 Clouds 21 1020 46 10000 4.6 330 17:24 20.05.2020
4490 Clouds 22 1020 46 10000 3.1 330 16:59 20.05.2020
4491 Clouds 20 1021 52 10000 2.1 0 16:41 20.05.2020
4492 Clouds 20 1021 49 10000 2.1 360 16:22 20.05.2020
4493 Clouds 20 1021 49 10000 2.1 360 15:56 20.05.2020
4494 Clouds 20 1021 52 10000 2.6 20 15:36 20.05.2020
4495 Clouds 21 1021 49 10000 2.1 310 15:18 20.05.2020
4496 Clouds 20 1021 52 10000 2.1 340 14:41 20.05.2020
4497 Clouds 20 1021 52 10000 2.1 340 14:20 20.05.2020
4498 Clouds 20 1021 55 10000 2.1 0 13:40 20.05.2020
4499 Clouds 20 1021 55 10000 2.1 0 13:19 20.05.2020
4500 Clouds 20 1021 55 10000 2.1 0 13:19 20.05.2020
4501 Clouds 18 1021 55 10000 1.5 50 12:43 20.05.2020
4502 Clouds 18 1021 55 10000 1.5 50 12:21 20.05.2020
4503 Clouds 18 1021 55 10000 1.5 50 12:21 20.05.2020
4504 Clouds 18 1021 52 10000 2.6 30 11:58 20.05.2020
4505 Clouds 18 1021 55 10000 2.1 0 11:36 20.05.2020
4506 Clouds 18 1021 55 10000 2.1 0 11:18 20.05.2020
4507 Clouds 17 1021 59 10000 1 0 10:42 20.05.2020
4508 Clouds 17 1021 59 10000 1 0 10:20 20.05.2020
4509 Clouds 16 1021 67 10000 0.5 0 09:44 20.05.2020
4510 Clouds 15 1021 67 10000 0.5 0 09:21 20.05.2020
4511 Clouds 15 1021 67 10000 0.5 0 09:21 20.05.2020
4512 Clouds 15 1021 76 10000 2.1 350 08:54 20.05.2020
4513 Clouds 14 1021 76 10000 0.5 0 08:36 20.05.2020
4514 Clouds 14 1021 76 10000 0.5 0 08:18 20.05.2020
4515 Clouds 13 1021 82 10000 1.09 25 07:41 20.05.2020
4516 Clear 13 1021 82 10000 1.06 21 07:19 20.05.2020
4517 Clear 12 1020 81 10000 0.5 0 06:34 20.05.2020
4518 Clear 12 1020 81 10000 1 350 05:22 20.05.2020
4519 Clear 12 1020 81 10000 2.1 10 04:26 20.05.2020
4520 Clear 12 1020 76 10000 0.5 0 03:38 20.05.2020
4521 Clear 14 1020 67 10000 0.5 0 01:58 20.05.2020
4522 Clear 15 1020 59 10000 1 0 01:26 20.05.2020
4523 Clear 16 1020 59 10000 2.1 20 00:42 20.05.2020
4524 Clear 16 1020 59 10000 2.1 20 00:23 20.05.2020
4525 Clear 17 1020 59 10000 2.1 20 23:40 19.05.2020
4526 Clear 17 1020 59 10000 2.1 20 23:19 19.05.2020
4527 Clear 18 1020 59 10000 2.1 10 22:56 19.05.2020
4528 Clear 19 1019 55 10000 2.1 10 22:38 19.05.2020
4529 Clouds 19 1019 55 10000 2.1 10 22:18 19.05.2020
4530 Clouds 20 1019 49 10000 3.6 350 21:55 19.05.2020
4531 Clouds 20 1019 46 10000 3.6 350 21:37 19.05.2020
4532 Clouds 20 1019 46 10000 3.6 350 21:37 19.05.2020
4533 Clouds 20 1019 46 10000 3.6 350 21:37 19.05.2020
4534 Clear 20 1019 46 10000 4.6 350 21:18 19.05.2020
4535 Clear 21 1019 46 10000 4.6 350 20:56 19.05.2020
4536 Clear 21 1019 43 10000 4.6 360 20:38 19.05.2020
4537 Clear 21 1019 43 10000 4.6 360 20:38 19.05.2020
4538 Clear 22 1019 43 10000 4.6 360 20:19 19.05.2020
4539 Clear 22 1019 43 10000 4.6 360 20:19 19.05.2020
4540 Clear 23 1018 38 10000 5.7 360 19:39 19.05.2020
4541 Clear 23 1018 38 10000 5.7 360 19:21 19.05.2020
4542 Clear 24 1018 31 10000 4.1 350 18:55 19.05.2020
4543 Clear 24 1018 29 10000 4.1 320 18:36 19.05.2020
4544 Clear 24 1018 29 10000 4.1 320 18:18 19.05.2020
4545 Clear 25 1018 27 10000 5.7 310 17:40 19.05.2020
4546 Clear 25 1018 27 10000 5.7 310 17:20 19.05.2020
4547 Clear 24 1018 29 10000 4.6 300 16:56 19.05.2020
4548 Clear 24 1019 27 10000 6.2 290 16:37 19.05.2020
4549 Clear 24 1019 27 10000 6.2 290 16:19 19.05.2020
4550 Clear 24 1019 31 10000 4.1 320 15:44 19.05.2020
4551 Clear 24 1019 31 10000 4.1 320 15:21 19.05.2020
4552 Clear 24 1019 35 10000 4.6 340 14:55 19.05.2020
4553 Clear 24 1020 33 10000 3.6 330 14:37 19.05.2020
4554 Clear 23 1020 35 10000 4.6 300 14:19 19.05.2020
4555 Clear 23 1020 35 10000 4.6 300 13:56 19.05.2020
4556 Clear 23 1020 35 10000 4.6 300 13:37 19.05.2020
4557 Clear 23 1020 35 10000 4.6 300 13:37 19.05.2020
4558 Clear 23 1020 35 10000 4.6 300 13:18 19.05.2020
4559 Clear 22 1021 40 10000 3.6 280 12:55 19.05.2020
4560 Clear 22 1021 43 10000 3.6 290 12:36 19.05.2020
4561 Clear 22 1021 43 10000 3.6 290 12:18 19.05.2020
4562 Clouds 21 1021 49 10000 3.6 0 11:41 19.05.2020
4563 Clouds 21 1021 49 10000 3.6 0 11:22 19.05.2020
4564 Clear 20 1021 52 10000 2.1 280 10:56 19.05.2020
4565 Clear 19 1021 55 10000 2.1 290 10:38 19.05.2020
4566 Clear 19 1021 55 10000 2.1 290 10:18 19.05.2020
4567 Clear 17 1021 59 10000 1.5 310 09:43 19.05.2020
4568 Clear 16 1021 59 10000 1.5 310 09:24 19.05.2020
4569 Clear 15 1021 62 10000 1 0 08:47 19.05.2020
4570 Clear 14 1021 67 10000 0.5 0 08:25 19.05.2020
4571 Clear 13 1021 76 10000 1 120 07:48 19.05.2020
4572 Clear 12 1021 81 10000 0.5 350 07:28 19.05.2020
4573 Clear 10 1021 87 10000 1.5 110 06:55 19.05.2020
4574 Clear 8 1021 87 10000 2.6 100 06:31 19.05.2020
4575 Clear 10 1021 81 10000 3.1 100 05:43 19.05.2020
4576 Clear 10 1021 81 10000 3.1 100 05:19 19.05.2020
4577 Clear 10 1021 87 10000 3.6 100 04:36 19.05.2020
4578 Clear 10 1022 81 10000 1 0 02:24 19.05.2020
4579 Clear 12 1022 76 10000 2.1 120 00:48 19.05.2020
4580 Clear 12 1022 76 10000 0.5 0 00:29 19.05.2020
4581 Clear 13 1022 71 10000 1 120 23:59 18.05.2020
4582 Clear 13 1022 67 10000 1 350 23:40 18.05.2020
4583 Clear 14 1022 67 10000 1 350 23:20 18.05.2020
4584 Clear 15 1022 62 10000 0.5 30 22:54 18.05.2020
4585 Clear 15 1022 62 10000 0.5 30 22:36 18.05.2020
4586 Clear 16 1022 62 10000 0.5 30 22:18 18.05.2020
4587 Clear 18 1021 48 10000 1 320 21:41 18.05.2020
4588 Clear 18 1021 48 10000 1 320 21:20 18.05.2020
4589 Clouds 20 1021 40 10000 2.6 320 20:57 18.05.2020
4590 Clouds 20 1021 40 10000 2.6 320 20:37 18.05.2020
4591 Clouds 21 1022 37 10000 3.6 300 20:18 18.05.2020
4592 Clouds 21 1021 37 10000 3.6 300 19:41 18.05.2020
4593 Clouds 21 1021 37 10000 4.1 330 19:19 18.05.2020
4594 Clouds 22 1021 37 10000 4.1 330 18:55 18.05.2020
4595 Clouds 21 1022 37 10000 2.6 320 18:37 18.05.2020
4596 Clouds 22 1022 37 10000 2.6 320 18:19 18.05.2020
4597 Clear 22 1022 33 10000 4.1 280 17:38 18.05.2020
4598 Clouds 22 1022 33 10000 4.1 280 17:18 18.05.2020
4599 Clear 22 1022 33 10000 4.1 280 17:18 18.05.2020
4600 Clear 22 1022 33 10000 4.1 280 17:18 18.05.2020
4601 Clear 22 1022 33 10000 4.1 310 16:55 18.05.2020
4602 Clear 22 1022 33 10000 3.6 290 16:36 18.05.2020
4603 Clear 22 1022 33 10000 3.6 290 16:18 18.05.2020
4604 Clear 22 1023 33 10000 3.6 250 15:42 18.05.2020
4605 Clear 22 1023 33 10000 3.6 250 15:24 18.05.2020
4606 Clear 22 1023 32 10000 3.6 280 14:59 18.05.2020
4607 Clear 22 1023 35 10000 4.1 320 14:39 18.05.2020
4608 Clear 22 1023 35 10000 4.1 320 14:21 18.05.2020
4609 Clear 21 1024 37 10000 3.1 0 13:42 18.05.2020
4610 Clear 21 1024 37 10000 3.1 0 13:22 18.05.2020
4611 Clear 20 1024 34 10000 1.5 0 12:58 18.05.2020
4612 Clear 20 1024 39 10000 2.1 240 12:40 18.05.2020
4613 Clear 19 1024 39 10000 1 0 12:20 18.05.2020
4614 Clear 19 1024 39 10000 1 0 11:59 18.05.2020
4615 Clear 19 1024 39 10000 1.5 0 11:41 18.05.2020
4616 Clear 18 1024 39 10000 1.5 0 11:22 18.05.2020
4617 Clear 17 1024 48 10000 0.5 0 10:46 18.05.2020
4618 Clear 16 1024 48 10000 0.5 0 10:24 18.05.2020
4619 Clear 14 1024 62 10000 1.5 140 09:46 18.05.2020
4620 Clear 13 1024 62 10000 1.5 140 09:27 18.05.2020
4621 Clear 11 1024 71 10000 1 0 08:59 18.05.2020
4622 Clear 10 1024 71 10000 0.5 0 08:39 18.05.2020
4623 Clear 10 1024 71 10000 0.5 0 08:21 18.05.2020
4624 Clear 7 1024 87 10000 0.5 0 07:43 18.05.2020
4625 Clear 7 1024 87 10000 0.5 0 07:23 18.05.2020
4626 Clear 6 1023 86 10000 1.5 70 06:47 18.05.2020
4627 Clear 5 1023 93 10000 1.5 90 06:23 18.05.2020
4628 Clear 6 1023 86 10000 2.1 100 05:43 18.05.2020
4629 Clear 6 1023 86 10000 0.5 0 03:39 18.05.2020
4630 Clear 7 1023 87 10000 0.5 10 02:56 18.05.2020
4631 Clear 8 1023 81 10000 1.5 80 01:45 18.05.2020
4632 Clear 9 1023 81 10000 0.5 0 00:41 18.05.2020
4633 Clear 9 1023 76 10000 0.5 10 00:18 18.05.2020
4634 Clear 9 1023 81 10000 0.5 0 00:18 18.05.2020
4635 Clear 10 1023 66 10000 0.5 0 23:42 17.05.2020
4636 Clear 10 1023 66 10000 0.5 0 23:42 17.05.2020
4637 Clear 10 1023 66 10000 0.5 0 23:21 17.05.2020
4638 Clear 11 1023 66 10000 0.5 0 22:59 17.05.2020
4639 Clear 12 1023 58 10000 0.5 0 22:39 17.05.2020
4640 Clear 13 1023 58 10000 0.5 0 22:21 17.05.2020
4641 Clear 14 1022 54 10000 1.5 30 21:59 17.05.2020
4642 Clear 15 1022 48 10000 1.5 20 21:41 17.05.2020
4643 Clear 15 1022 48 10000 1.5 20 21:19 17.05.2020
4644 Clear 17 1022 39 10000 2.6 340 20:55 17.05.2020
4645 Clear 17 1022 39 10000 2.6 340 20:55 17.05.2020
4646 Clear 17 1022 39 10000 3.6 320 20:36 17.05.2020
4647 Clouds 17 1022 39 10000 3.6 320 20:18 17.05.2020
4648 Clouds 18 1022 37 10000 3.1 300 19:42 17.05.2020
4649 Clouds 19 1022 37 10000 3.1 300 19:23 17.05.2020
4650 Clouds 19 1022 37 10000 2.1 300 18:55 17.05.2020
4651 Clouds 19 1022 37 10000 4.1 320 18:37 17.05.2020
4652 Clouds 19 1022 37 10000 4.1 320 18:19 17.05.2020
4653 Clouds 19 1022 39 10000 4.6 320 17:40 17.05.2020
4654 Clouds 19 1022 37 10000 4.6 340 17:21 17.05.2020
4655 Clouds 19 1022 37 10000 4.6 340 17:21 17.05.2020
4656 Clouds 19 1022 37 10000 4.6 340 17:21 17.05.2020
4657 Clouds 19 1022 37 10000 4.6 340 16:56 17.05.2020
4658 Clouds 19 1022 37 10000 4.1 290 16:37 17.05.2020
4659 Clouds 19 1022 37 10000 4.1 290 16:19 17.05.2020
4660 Clouds 20 1022 37 10000 4.6 310 15:45 17.05.2020
4661 Clouds 20 1022 37 10000 4.6 310 15:24 17.05.2020
4662 Clouds 20 1022 37 10000 3.1 310 14:57 17.05.2020
4663 Clouds 19 1022 39 10000 4.6 310 14:38 17.05.2020
4664 Clear 19 1022 39 10000 4.6 310 14:19 17.05.2020
4665 Clear 19 1022 39 10000 4.6 310 14:19 17.05.2020
4666 Clear 18 1022 42 10000 3.1 320 13:41 17.05.2020
4667 Clear 18 1022 42 10000 3.1 320 13:20 17.05.2020
4668 Clear 6 1020 86 10000 2.1 100 05:22 17.05.2020
4669 Clear 6 1019 86 10000 0.5 0 03:31 17.05.2020
4670 Clouds 7 1019 81 10000 0.5 0 02:26 17.05.2020
4671 Clouds 8 1019 75 10000 2.1 90 01:53 17.05.2020
4672 Clouds 9 1019 66 10000 1 0 00:46 17.05.2020
4673 Clouds 9 1019 66 10000 1 0 00:26 17.05.2020
4674 Clouds 10 1019 66 10000 0.5 10 23:42 16.05.2020
4675 Clear 10 1019 66 10000 0.5 10 23:23 16.05.2020
4676 Clear 11 1019 66 10000 1.5 360 22:59 16.05.2020
4677 Clear 12 1019 58 10000 2.1 360 22:41 16.05.2020
4678 Clear 12 1019 58 10000 2.1 360 22:22 16.05.2020
4679 Clear 13 1019 58 10000 1.5 340 21:56 16.05.2020
4680 Clear 15 1019 58 10000 1.5 350 21:37 16.05.2020
4681 Clear 15 1019 58 10000 1.5 350 21:19 16.05.2020
4682 Clear 16 1019 39 10000 1.5 340 20:55 16.05.2020
4683 Clear 17 1019 36 10000 2.1 340 20:36 16.05.2020
4684 Clear 18 1019 36 10000 2.1 340 20:18 16.05.2020
4685 Clear 18 1019 34 10000 2.1 0 19:42 16.05.2020
4686 Clear 18 1019 34 10000 2.1 0 19:23 16.05.2020
4687 Clear 18 1019 34 10000 2.1 0 19:23 16.05.2020
4688 Clear 18 1019 32 10000 2.1 270 18:57 16.05.2020
4689 Clear 19 1019 34 10000 1.5 0 18:38 16.05.2020
4690 Clear 19 1019 34 10000 1.5 0 18:20 16.05.2020
4691 Clear 19 1020 32 10000 2.1 0 17:41 16.05.2020
4692 Clear 19 1020 32 10000 2.1 0 17:21 16.05.2020
4693 Clear 19 1020 36 10000 2.1 0 16:44 16.05.2020
4694 Clear 20 1020 36 10000 2.1 0 16:25 16.05.2020
4695 Clear 19 1020 34 10000 2.1 0 15:59 16.05.2020
4696 Clear 19 1021 36 10000 3.1 290 15:41 16.05.2020
4697 Clear 19 1021 36 10000 2.1 0 15:21 16.05.2020
4698 Clear 19 1021 36 10000 2.1 0 14:56 16.05.2020
4699 Clear 19 1021 34 10000 2.1 0 14:38 16.05.2020
4700 Clear 18 1021 34 10000 2.1 0 14:19 16.05.2020
4701 Clear 18 1022 39 10000 3.1 300 13:42 16.05.2020
4702 Clear 18 1022 39 10000 3.1 300 13:23 16.05.2020
4703 Clear 17 1022 41 10000 2.6 0 12:58 16.05.2020
4704 Clouds 16 1022 48 10000 2.6 0 12:39 16.05.2020
4705 Clouds 16 1022 48 10000 2.6 0 12:18 16.05.2020
4706 Clouds 14 1022 58 10000 1.5 260 11:41 16.05.2020
4707 Clouds 14 1022 58 10000 1.5 260 11:23 16.05.2020
4708 Clear 14 1023 62 10000 2.1 200 10:58 16.05.2020
4709 Clear 13 1023 66 10000 1 0 10:39 16.05.2020
4710 Clear 13 1023 66 10000 1 0 10:20 16.05.2020
4711 Clear 12 1023 66 10000 2.1 130 09:46 16.05.2020
4712 Clear 10 1023 66 10000 1 0 09:28 16.05.2020
4713 Clear 9 1022 66 10000 0.5 0 08:46 16.05.2020
4714 Clear 8 1022 75 10000 0.5 0 08:24 16.05.2020
4715 Clear 7 1022 75 10000 0.5 0 07:59 16.05.2020
4716 Clouds 6 1022 86 10000 0.5 0 07:40 16.05.2020
4717 Clouds 4 1022 93 10000 0.5 0 07:21 16.05.2020
4718 Fog 4 1022 78 10000 0.5 0 06:47 16.05.2020
4719 Fog 3 1022 85 10000 0.5 0 06:19 16.05.2020
4720 Fog 3 1021 93 10000 1 330 05:42 16.05.2020
4721 Fog 4 1021 93 10000 1 330 05:20 16.05.2020
4722 Clear 5 1021 86 10000 1.5 40 03:27 16.05.2020
4723 Clear 5 1021 93 10000 0.5 0 02:42 16.05.2020
4724 Clear 5 1021 93 10000 0.5 0 02:18 16.05.2020
4725 Clear 5 1021 86 10000 2.1 340 01:40 16.05.2020
4726 Clear 6 1021 75 10000 2.1 120 00:57 16.05.2020
4727 Clear 7 1021 81 10000 3.6 100 00:39 16.05.2020
4728 Clear 7 1021 81 10000 3.6 100 00:19 16.05.2020
4729 Clear 7 1021 81 10000 0.5 0 23:39 15.05.2020
4730 Clear 8 1021 81 10000 0.5 0 23:19 15.05.2020
4731 Clear 9 1020 61 10000 0.5 0 22:42 15.05.2020
4732 Clear 10 1020 61 10000 0.5 0 22:20 15.05.2020
4733 Clear 10 1020 62 10000 0.5 0 21:57 15.05.2020
4734 Clear 12 1019 54 10000 2.1 300 21:39 15.05.2020
4735 Clouds 13 1019 44 10000 3.1 300 21:20 15.05.2020
4736 Clouds 14 1019 44 10000 3.1 300 20:55 15.05.2020
4737 Clouds 14 1019 41 10000 2.1 300 20:37 15.05.2020
4738 Clouds 15 1019 44 10000 1.5 310 20:18 15.05.2020
4739 Clouds 15 1019 41 10000 2.6 300 19:43 15.05.2020
4740 Clouds 15 1019 41 10000 2.6 300 19:23 15.05.2020
4741 Clouds 16 1019 38 10000 2.6 300 18:54 15.05.2020
4742 Clouds 16 1019 38 10000 2.6 300 18:54 15.05.2020
4743 Clouds 15 1018 41 10000 3.1 310 18:36 15.05.2020
4744 Clouds 15 1018 41 10000 4.6 310 18:18 15.05.2020
4745 Clouds 15 1018 41 10000 3.1 290 17:37 15.05.2020
4746 Clouds 15 1018 41 10000 3.1 290 17:19 15.05.2020
4747 Clouds 16 1018 38 10000 3.1 320 16:56 15.05.2020
4748 Clouds 16 1018 41 10000 2.6 310 16:37 15.05.2020
4749 Clouds 16 1018 41 10000 2.6 310 16:18 15.05.2020
4750 Clouds 16 1017 38 10000 3.6 0 15:41 15.05.2020
4751 Clouds 16 1017 38 10000 3.6 0 15:41 15.05.2020
4752 Clouds 15 1017 38 10000 3.6 0 15:21 15.05.2020
4753 Clouds 16 1017 38 10000 1.5 0 14:58 15.05.2020
4754 Clouds 15 1017 41 10000 3.1 320 14:40 15.05.2020
4755 Clouds 15 1017 41 10000 3.1 320 14:22 15.05.2020
4756 Clouds 14 1016 41 10000 3.1 0 13:42 15.05.2020
4757 Clouds 14 1016 41 10000 3.1 0 13:22 15.05.2020
4758 Clouds 15 1016 41 10000 5.1 360 12:56 15.05.2020
4759 Clouds 14 1016 41 10000 3.1 30 12:37 15.05.2020
4760 Clouds 14 1016 44 10000 4.6 70 12:18 15.05.2020
4761 Clouds 14 1016 44 10000 4.6 70 11:56 15.05.2020
4762 Clouds 14 1015 44 10000 4.1 50 11:37 15.05.2020
4763 Clouds 14 1015 47 10000 4.1 60 11:19 15.05.2020
4764 Clouds 13 1015 47 10000 4.1 60 10:56 15.05.2020
4765 Clouds 13 1015 54 10000 4.1 40 10:37 15.05.2020
4766 Clouds 12 1015 54 10000 4.1 40 10:19 15.05.2020
4767 Clouds 11 1015 57 10000 4.6 40 09:40 15.05.2020
4768 Clouds 10 1015 57 10000 4.6 40 09:20 15.05.2020
4769 Clouds 10 1014 61 10000 4.6 40 08:58 15.05.2020
4770 Clouds 10 1014 61 10000 4.6 40 08:58 15.05.2020
4771 Clouds 9 1014 66 10000 3.6 40 08:38 15.05.2020
4772 Clouds 9 1014 66 10000 3.6 40 08:19 15.05.2020
4773 Clouds 9 1014 66 10000 1.5 20 07:44 15.05.2020
4774 Clouds 8 1014 66 10000 1.5 20 07:25 15.05.2020
4775 Clouds 8 1014 65 10000 3.1 20 06:56 15.05.2020
4776 Clouds 8 1014 66 10000 2.1 20 05:53 15.05.2020
4777 Clouds 9 1014 66 10000 2.6 30 04:29 15.05.2020
4778 Clouds 9 1014 66 10000 3.1 30 03:48 15.05.2020
4779 Clouds 10 1014 66 10000 3.1 40 02:40 15.05.2020
4780 Clouds 10 1014 66 10000 3.6 30 01:31 15.05.2020
4781 Clouds 10 1015 66 10000 3.6 30 00:56 15.05.2020
4782 Clouds 10 1015 62 10000 3.6 30 00:37 15.05.2020
4783 Clouds 11 1015 62 10000 3.6 30 00:19 15.05.2020
4784 Clouds 11 1015 62 10000 4.1 30 23:40 14.05.2020
4785 Clouds 11 1015 62 10000 3.6 20 23:18 14.05.2020
4786 Clouds 11 1015 58 10000 3.6 30 22:41 14.05.2020
4787 Clouds 12 1015 58 10000 3.6 30 22:20 14.05.2020
4788 Clouds 12 1015 58 10000 3.1 30 21:58 14.05.2020
4789 Clouds 12 1015 62 10000 1.5 30 21:39 14.05.2020
4790 Clouds 12 1015 62 10000 1.5 30 21:19 14.05.2020
4791 Clouds 13 1014 58 10000 2.6 10 20:55 14.05.2020
4792 Clouds 13 1014 54 10000 2.6 10 20:37 14.05.2020
4793 Clouds 13 1014 54 10000 2.6 10 20:37 14.05.2020
4794 Clouds 13 1014 54 10000 2.6 10 20:18 14.05.2020
4795 Clouds 13 1014 58 10000 2.1 30 19:41 14.05.2020
4796 Clouds 13 1014 58 10000 2.1 30 19:21 14.05.2020
4797 Clouds 14 1014 54 10000 3.6 60 18:59 14.05.2020
4798 Clouds 14 1014 50 10000 4.1 60 18:38 14.05.2020
4799 Clouds 14 1014 50 10000 4.1 60 18:20 14.05.2020
4800 Clouds 14 1014 50 10000 3.1 30 17:59 14.05.2020
4801 Clouds 14 1014 50 10000 3.6 30 17:38 14.05.2020
4802 Clouds 14 1014 50 10000 3.6 30 17:19 14.05.2020
4803 Clouds 14 1014 50 10000 3.1 0 16:59 14.05.2020
4804 Clouds 15 1014 47 10000 3.6 20 16:39 14.05.2020
4805 Clouds 15 1014 47 10000 3.6 20 16:20 14.05.2020
4806 Clouds 14 1015 54 10000 3.6 350 15:56 14.05.2020
4807 Clouds 14 1015 54 10000 3.6 350 15:38 14.05.2020
4808 Clouds 14 1015 54 10000 3.6 350 15:19 14.05.2020
4809 Clouds 14 1015 54 10000 3.6 350 15:19 14.05.2020
4810 Clouds 13 1015 54 10000 1.5 30 14:55 14.05.2020
4811 Clouds 13 1015 54 10000 2.1 40 14:36 14.05.2020
4812 Clouds 13 1015 54 10000 2.1 40 14:18 14.05.2020
4813 Clouds 13 1015 50 10000 3.1 60 13:44 14.05.2020
4814 Clouds 13 1015 50 10000 3.1 60 13:20 14.05.2020
4815 Clouds 13 1015 58 10000 2.1 40 12:59 14.05.2020
4816 Clouds 13 1015 58 10000 3.1 20 12:40 14.05.2020
4817 Clouds 13 1015 62 10000 3.1 80 12:20 14.05.2020
4818 Clouds 13 1015 62 10000 3.1 80 11:59 14.05.2020
4819 Clouds 13 1015 62 10000 3.1 80 11:59 14.05.2020
4820 Clouds 12 1015 66 10000 2.6 0 11:39 14.05.2020
4821 Clouds 12 1015 66 10000 2.6 0 11:21 14.05.2020
4822 Clouds 11 1015 71 10000 2.6 0 10:56 14.05.2020
4823 Clouds 11 1015 71 10000 2.1 90 10:38 14.05.2020
4824 Clouds 10 1015 71 10000 2.1 90 10:20 14.05.2020
4825 Clouds 9 1014 81 10000 2.6 360 09:42 14.05.2020
4826 Clouds 9 1014 81 10000 2.6 360 09:23 14.05.2020
4827 Clouds 8 1014 87 10000 2.6 350 08:42 14.05.2020
4828 Clouds 8 1014 87 10000 2.6 350 08:21 14.05.2020
4829 Clouds 8 1014 87 9000 2.1 330 07:46 14.05.2020
4830 Clouds 7 1013 100 9000 0.5 0 07:25 14.05.2020
4831 Clouds 7 1013 93 9000 0.5 0 06:55 14.05.2020
4832 Clouds 7 1013 93 9000 1 10 06:31 14.05.2020
4833 Clouds 7 1012 93 10000 1 0 05:56 14.05.2020
4834 Clouds 7 1012 93 10000 0.5 0 05:35 14.05.2020
4835 Drizzle 7 1012 93 10000 0.5 0 04:32 14.05.2020
4836 Clouds 7 1011 93 10000 1 0 03:28 14.05.2020
4837 Clouds 7 1011 93 10000 1 0 02:42 14.05.2020
4838 Rain 7 1011 93 10000 1.5 350 01:56 14.05.2020
4839 Rain 7 1010 93 10000 1.5 330 01:24 14.05.2020
4840 Rain 7 1010 93 10000 1.5 310 00:48 14.05.2020
4841 Rain 7 1010 93 10000 1 40 00:24 14.05.2020
4842 Clouds 7 1010 93 10000 0.5 0 23:44 13.05.2020
4843 Clouds 7 1010 93 10000 0.5 0 23:21 13.05.2020
4844 Clouds 7 1009 93 10000 1 70 22:54 13.05.2020
4845 Clouds 7 1009 93 10000 1 70 22:54 13.05.2020
4846 Clouds 8 1009 93 10000 1 70 22:54 13.05.2020
4847 Clouds 8 1009 93 10000 1 70 22:54 13.05.2020
4848 Clouds 8 1010 93 10000 1 80 22:36 13.05.2020
4849 Clouds 8 1010 93 10000 1 80 22:18 13.05.2020
4850 Rain 8 1009 87 10000 0.5 0 21:55 13.05.2020
4851 Rain 8 1009 87 10000 2.1 140 21:37 13.05.2020
4852 Rain 8 1009 87 10000 2.1 130 21:18 13.05.2020
4853 Rain 8 1009 81 10000 3.1 140 20:41 13.05.2020
4854 Rain 9 1009 81 10000 3.1 140 20:22 13.05.2020
4855 Rain 9 1009 76 10000 3.6 170 19:43 13.05.2020
4856 Rain 9 1009 76 10000 3.6 170 19:24 13.05.2020
4857 Rain 10 1009 71 10000 4.6 150 18:56 13.05.2020
4858 Rain 13 1009 71 10000 4.6 160 18:37 13.05.2020
4859 Rain 13 1009 71 10000 4.6 160 18:18 13.05.2020
4860 Clouds 14 1009 62 10000 4.6 160 17:39 13.05.2020
4861 Clouds 12 1009 62 10000 4.6 160 17:19 13.05.2020
4862 Clouds 13 1009 58 10000 6.7 180 16:55 13.05.2020
4863 Clouds 13 1009 58 10000 6.7 180 16:55 13.05.2020
4864 Clouds 13 1009 47 10000 2.6 170 16:37 13.05.2020
4865 Clouds 14 1009 47 10000 2.6 170 16:18 13.05.2020
4866 Clouds 14 1009 41 10000 1.5 0 15:42 13.05.2020
4867 Clouds 15 1009 41 10000 1.5 0 15:19 13.05.2020
4868 Clouds 14 1010 41 10000 2.1 90 14:57 13.05.2020
4869 Clouds 15 1010 35 10000 1.5 0 14:39 13.05.2020
4870 Clouds 14 1010 33 10000 1.5 0 14:21 13.05.2020
4871 Clouds 14 1010 41 10000 1.5 0 13:56 13.05.2020
4872 Clouds 14 1010 41 10000 2.1 0 13:38 13.05.2020
4873 Clouds 14 1010 41 10000 2.1 0 13:19 13.05.2020
4874 Clouds 13 1011 47 10000 1.5 0 12:43 13.05.2020
4875 Clouds 13 1011 47 10000 1.5 0 12:22 13.05.2020
4876 Clouds 13 1012 43 10000 2.1 0 11:57 13.05.2020
4877 Clouds 13 1012 47 10000 2.1 0 11:38 13.05.2020
4878 Clouds 12 1012 47 10000 2.1 0 11:20 13.05.2020
4879 Clouds 12 1012 50 10000 2.1 310 10:59 13.05.2020
4880 Clouds 11 1013 50 10000 1.5 0 10:39 13.05.2020
4881 Clouds 12 1013 50 10000 1.5 0 10:20 13.05.2020
4882 Clouds 10 1013 61 10000 0.5 0 09:57 13.05.2020
4883 Clouds 9 1013 61 10000 1 0 09:38 13.05.2020
4884 Clouds 8 1013 61 10000 1 0 09:20 13.05.2020
4885 Clouds 6 1013 70 10000 0.5 0 08:40 13.05.2020
4886 Clouds 6 1013 70 10000 0.5 0 08:21 13.05.2020
4887 Clouds 5 1013 75 10000 0.5 0 07:58 13.05.2020
4888 Clouds 4 1013 86 10000 2.1 350 07:36 13.05.2020
4889 Clouds 2 1013 66 10000 1 40 06:55 13.05.2020
4890 Clouds 2 1013 66 10000 1 350 06:36 13.05.2020
4891 Clouds 2 1012 73 10000 1 0 05:48 13.05.2020
4892 Clouds 2 1013 73 10000 1.5 100 04:21 13.05.2020
4893 Clouds 3 1013 86 10000 0.5 0 02:58 13.05.2020
4894 Clouds 3 1014 69 10000 0.5 0 01:47 13.05.2020
4895 Clouds 3 1014 86 10000 1 0 01:20 13.05.2020
4896 Clouds 4 1014 80 10000 0.5 0 00:39 13.05.2020
4897 Clouds 4 1014 80 10000 0.5 0 00:18 13.05.2020
4898 Clouds 5 1014 70 10000 1.5 40 23:39 12.05.2020
4899 Clouds 6 1014 70 10000 1.5 40 23:20 12.05.2020
4900 Clouds 6 1015 75 10000 1.5 30 22:55 12.05.2020
4901 Clouds 6 1015 75 10000 2.1 10 22:36 12.05.2020
4902 Clouds 8 1015 70 10000 2.1 360 22:18 12.05.2020
4903 Clouds 8 1015 70 10000 2.1 360 21:54 12.05.2020
4904 Clouds 8 1014 61 10000 1.5 350 21:36 12.05.2020
4905 Clouds 9 1014 61 10000 1.5 350 21:18 12.05.2020
4906 Clouds 10 1015 40 10000 2.6 350 20:41 12.05.2020
4907 Clouds 11 1015 40 10000 2.6 350 20:23 12.05.2020
4908 Clouds 12 1015 43 10000 3.6 350 19:59 12.05.2020
4909 Clouds 12 1015 40 10000 3.1 320 19:41 12.05.2020
4910 Clouds 12 1015 40 10000 3.1 320 19:22 12.05.2020
4911 Clouds 12 1015 40 10000 3.1 330 18:58 12.05.2020
4912 Clouds 12 1015 35 10000 1.5 0 18:40 12.05.2020
4913 Clouds 12 1015 35 10000 1.5 0 18:21 12.05.2020
4914 Clouds 13 1016 37 10000 3.1 320 17:44 12.05.2020
4915 Clear 13 1016 37 10000 3.1 320 17:25 12.05.2020
4916 Clear 12 1016 40 10000 3.1 0 16:58 12.05.2020
4917 Clear 13 1017 38 10000 2.6 260 16:40 12.05.2020
4918 Clear 12 1017 40 10000 2.6 0 16:19 12.05.2020
4919 Clear 12 1017 40 10000 2.6 0 15:54 12.05.2020
4920 Clear 12 1017 40 10000 2.6 0 15:36 12.05.2020
4921 Clear 12 1017 37 10000 2.1 0 15:18 12.05.2020
4922 Clear 12 1017 37 10000 2.1 0 14:54 12.05.2020
4923 Clear 12 1017 40 10000 2.1 240 14:36 12.05.2020
4924 Clear 12 1017 40 10000 2.1 240 14:18 12.05.2020
4925 Clear 11 1018 43 10000 2.6 0 13:54 12.05.2020
4926 Clear 11 1018 47 0 0.49 325 13:36 12.05.2020
4927 Clear 11 1018 47 0 0.45 119 13:36 12.05.2020
4928 Clear 11 1018 47 0 0.45 119 13:18 12.05.2020
4929 Clear 11 1018 54 0 0.45 78 12:54 12.05.2020
4930 Clear 10 1019 51 0 0.22 47 12:36 12.05.2020
4931 Clear 9 1021 60 0 0.89 321 12:18 12.05.2020
4932 Clouds 8 1019 41 10000 1.5 0 11:55 12.05.2020
4933 Clouds 7 1019 41 10000 1.5 0 11:36 12.05.2020
4934 Clouds 7 1019 47 10000 1.5 0 11:18 12.05.2020
4935 Clouds 6 1019 75 10000 1 0 10:42 12.05.2020
4936 Clouds 5 1019 75 10000 1 0 10:22 12.05.2020
4937 Clouds 4 1019 80 10000 1 0 09:59 12.05.2020
4938 Clouds 3 1019 56 6000 1 0 09:40 12.05.2020
4939 Clouds 3 1019 63 6000 1 0 09:21 12.05.2020
4940 Fog 2 1019 64 800 1.5 330 08:57 12.05.2020
4941 Fog 1 1019 64 800 2.1 330 08:38 12.05.2020
4942 Fog 1 1018 74 3000 2.6 340 08:19 12.05.2020
4943 Fog 1 1018 86 6000 0.5 50 07:42 12.05.2020
4944 Fog 0 1018 86 6000 0.5 50 07:22 12.05.2020
4945 Fog 0 1018 86 6000 0.5 0 06:49 12.05.2020
4946 Fog -1 1017 100 10000 1 120 06:27 12.05.2020
4947 Clear 0 1017 100 10000 0.5 0 05:50 12.05.2020
4948 Fog 0 1017 96 10000 0.5 0 05:30 12.05.2020
4949 Clear 1 1016 93 10000 1.5 340 03:27 12.05.2020
4950 Clear 1 1015 93 10000 1.5 320 02:44 12.05.2020
4951 Clouds 1 1015 93 10000 1.5 320 02:24 12.05.2020
4952 Clouds 2 1014 86 10000 3.6 320 01:27 12.05.2020
4953 Clouds 3 1013 93 10000 4.1 320 00:27 12.05.2020
4954 Clouds 3 1013 86 10000 4.1 320 23:58 11.05.2020
4955 Clouds 4 1012 93 10000 4.6 320 23:40 11.05.2020
4956 Clouds 4 1012 93 10000 4.6 320 23:20 11.05.2020
4957 Clouds 4 1011 93 10000 3.6 330 22:59 11.05.2020
4958 Drizzle 4 1011 93 10000 4.1 320 22:40 11.05.2020
4959 Drizzle 4 1011 93 10000 4.1 320 22:20 11.05.2020
4960 Rain 4 1010 93 10000 4.1 330 21:58 11.05.2020
4961 Rain 4 1009 93 10000 4.6 330 21:40 11.05.2020
4962 Rain 4 1009 93 10000 4.6 330 21:19 11.05.2020
4963 Rain 4 1009 93 10000 5.1 340 20:58 11.05.2020
4964 Rain 4 1008 93 10000 6.2 340 20:40 11.05.2020
4965 Rain 4 1008 93 10000 6.2 340 20:20 11.05.2020
4966 Rain 4 1007 93 10000 7.2 350 19:55 11.05.2020
4967 Rain 4 1006 86 10000 7.2 340 19:36 11.05.2020
4968 Rain 5 1006 93 10000 5.7 350 19:18 11.05.2020
4969 Rain 5 1006 93 10000 5.7 350 18:55 11.05.2020
4970 Rain 5 1005 93 10000 6.2 340 18:36 11.05.2020
4971 Rain 5 1004 87 10000 6.2 340 18:18 11.05.2020
4972 Rain 6 1003 93 10000 6.2 350 17:41 11.05.2020
4973 Rain 6 1003 93 10000 6.2 350 17:22 11.05.2020
4974 Rain 6 1002 93 10000 5.7 340 16:59 11.05.2020
4975 Rain 6 1002 93 10000 6.2 350 16:40 11.05.2020
4976 Rain 6 1002 93 10000 6.2 350 16:21 11.05.2020
4977 Rain 6 1002 93 9000 7.7 360 15:57 11.05.2020
4978 Rain 6 1001 93 6000 6.7 340 15:39 11.05.2020
4979 Rain 6 1001 93 6000 6.7 340 15:18 11.05.2020
4980 Rain 7 1001 93 7000 5.7 340 14:42 11.05.2020
4981 Rain 7 1001 93 7000 5.7 340 14:42 11.05.2020
4982 Rain 7 1001 93 7000 5.7 340 14:23 11.05.2020
4983 Rain 7 1000 93 10000 5.7 350 13:59 11.05.2020
4984 Rain 8 1000 93 10000 6.7 350 13:41 11.05.2020
4985 Rain 9 1000 93 10000 6.7 350 13:19 11.05.2020
4986 Drizzle 9 1000 87 10000 8.2 360 12:58 11.05.2020
4987 Rain 9 999 87 10000 7.2 360 12:39 11.05.2020
4988 Drizzle 11 999 87 10000 7.2 360 12:21 11.05.2020
4989 Rain 13 999 93 10000 7.2 360 11:56 11.05.2020
4990 Drizzle 14 999 87 10000 6.7 360 11:37 11.05.2020
4991 Drizzle 14 999 87 10000 6.7 360 11:19 11.05.2020
4992 Clouds 14 999 82 10000 5.7 10 10:54 11.05.2020
4993 Clouds 15 999 77 10000 4.1 20 10:36 11.05.2020
4994 Clouds 15 999 77 10000 4.1 20 10:36 11.05.2020
4995 Clouds 16 999 77 10000 4.1 20 10:18 11.05.2020
4996 Clouds 17 999 82 10000 4.1 40 09:42 11.05.2020
4997 Clouds 16 999 82 10000 4.1 40 09:22 11.05.2020
4998 Clouds 16 999 82 10000 3.1 40 08:59 11.05.2020
4999 Clouds 15 1000 87 10000 1.5 10 08:39 11.05.2020
5000 Clouds 15 1000 87 10000 1.5 10 08:19 11.05.2020
5001 Clouds 14 1000 93 10000 1.5 320 07:50 11.05.2020
5002 Clouds 14 1000 87 10000 1 0 07:32 11.05.2020
5003 Clouds 13 1000 93 10000 2.1 50 06:53 11.05.2020
5004 Clouds 12 1000 93 10000 2.6 60 06:19 11.05.2020
5005 Clouds 12 1001 100 10000 1 50 05:30 11.05.2020
5006 Clouds 12 1001 100 10000 1.5 50 04:43 11.05.2020
5007 Clouds 13 1002 93 10000 1.5 110 03:35 11.05.2020
5008 Clouds 13 1003 93 10000 2.6 100 02:34 11.05.2020
5009 Clouds 14 1003 87 10000 0.5 0 01:46 11.05.2020
5010 Clouds 15 1004 82 10000 0.5 0 00:53 11.05.2020
5011 Clouds 16 1004 77 10000 1.5 360 00:22 11.05.2020
5012 Clouds 17 1003 72 10000 3.6 130 23:45 10.05.2020
5013 Clouds 17 1003 72 10000 3.6 130 23:26 10.05.2020
5014 Clouds 17 1004 77 10000 3.6 110 22:57 10.05.2020
5015 Clouds 17 1004 82 10000 2.6 100 22:39 10.05.2020
5016 Rain 17 1004 82 10000 2.6 100 22:20 10.05.2020
5017 Clouds 19 1004 64 10000 2.1 70 21:44 10.05.2020
5018 Clouds 19 1004 60 10000 2.1 80 21:20 10.05.2020
5019 Clouds 20 1004 60 10000 2.1 80 20:56 10.05.2020
5020 Rain 20 1004 60 10000 2.1 70 20:38 10.05.2020
5021 Rain 20 1004 60 10000 2.1 70 20:19 10.05.2020
5022 Rain 21 1004 56 10000 1.5 70 19:41 10.05.2020
5023 Rain 21 1004 56 10000 1.5 70 19:23 10.05.2020
5024 Clouds 21 1004 56 10000 2.6 70 18:57 10.05.2020
5025 Clouds 21 1004 53 10000 2.6 50 18:37 10.05.2020
5026 Clouds 22 1004 53 10000 2.6 50 18:19 10.05.2020
5027 Clouds 21 1005 56 10000 2.6 20 17:59 10.05.2020
5028 Rain 21 1005 56 10000 4.6 340 17:40 10.05.2020
5029 Rain 21 1005 56 10000 4.6 340 17:22 10.05.2020
5030 Rain 23 1005 47 10000 3.1 140 16:58 10.05.2020
5031 Rain 23 1006 47 10000 5.1 150 16:40 10.05.2020
5032 Rain 23 1006 47 10000 5.1 150 16:19 10.05.2020
5033 Clouds 23 1006 49 10000 2.6 0 15:44 10.05.2020
5034 Clouds 23 1006 49 10000 2.6 0 15:25 10.05.2020
5035 Clouds 22 1007 53 10000 3.6 160 14:59 10.05.2020
5036 Clouds 21 1007 60 10000 2.6 0 14:38 10.05.2020
5037 Clouds 21 1007 60 10000 2.6 0 14:20 10.05.2020
5038 Clouds 21 1007 60 10000 2.6 0 14:20 10.05.2020
5039 Clouds 21 1007 64 10000 2.1 170 13:59 10.05.2020
5040 Rain 20 1007 72 10000 2.1 140 13:38 10.05.2020
5041 Rain 19 1007 72 10000 2.1 140 13:20 10.05.2020
5042 Rain 19 1008 72 10000 1 0 12:57 10.05.2020
5043 Rain 18 1008 77 10000 2.1 190 12:39 10.05.2020
5044 Rain 17 1008 77 10000 2.1 190 12:21 10.05.2020
5045 Rain 17 1008 77 10000 2.6 190 11:57 10.05.2020
5046 Rain 17 1008 77 10000 2.1 200 11:39 10.05.2020
5047 Rain 17 1008 77 10000 2.1 200 11:19 10.05.2020
5048 Rain 16 1008 82 10000 1.5 150 10:46 10.05.2020
5049 Rain 15 1008 82 10000 1.5 150 10:28 10.05.2020
5050 Rain 15 1008 82 10000 1.5 180 09:58 10.05.2020
5051 Clouds 15 1008 77 10000 1.5 190 09:39 10.05.2020
5052 Rain 14 1007 82 10000 1.5 200 09:20 10.05.2020
5053 Clouds 14 1007 82 10000 1.5 130 08:48 10.05.2020
5054 Clouds 14 1007 82 10000 1.5 130 08:24 10.05.2020
5055 Clouds 12 1007 87 10000 0.5 0 07:45 10.05.2020
5056 Clouds 12 1007 87 10000 0.5 0 07:21 10.05.2020
5057 Clouds 11 1007 93 10000 0.5 0 06:57 10.05.2020
5058 Clouds 11 1007 81 10000 1.5 120 06:30 10.05.2020
5059 Clouds 12 1007 87 10000 1 60 05:51 10.05.2020
5060 Clouds 13 1008 81 10000 1.5 140 04:54 10.05.2020
5061 Clouds 13 1008 87 10000 0.5 0 04:34 10.05.2020
5062 Clouds 12 1008 87 10000 0.5 280 03:54 10.05.2020
5063 Clouds 12 1008 81 10000 1 40 03:36 10.05.2020
5064 Clouds 13 1008 76 10000 1 60 02:48 10.05.2020
5065 Clouds 13 1009 76 10000 1 150 02:19 10.05.2020
5066 Clouds 13 1009 76 10000 0.5 0 01:42 10.05.2020
5067 Clouds 13 1009 76 10000 1.5 10 01:19 10.05.2020
5068 Clouds 13 1009 76 10000 1.5 10 00:54 10.05.2020
5069 Clouds 14 1010 71 10000 1.5 360 00:24 10.05.2020
5070 Clouds 14 1010 71 10000 1 340 23:59 09.05.2020
5071 Clouds 14 1010 62 10000 1 0 23:39 09.05.2020
5072 Clouds 14 1010 62 10000 1 0 23:20 09.05.2020
5073 Clouds 16 1010 55 10000 1.5 70 22:42 09.05.2020
5074 Clouds 16 1010 55 10000 1.5 70 22:24 09.05.2020
5075 Clouds 17 1010 52 10000 1.5 70 21:58 09.05.2020
5076 Clouds 18 1010 52 10000 2.1 80 21:40 09.05.2020
5077 Clouds 18 1010 52 10000 2.1 80 21:21 09.05.2020
5078 Clouds 18 1010 52 10000 1.5 50 20:58 09.05.2020
5079 Clouds 18 1010 52 10000 2.6 30 20:38 09.05.2020
5080 Clouds 18 1010 52 10000 2.6 30 20:20 09.05.2020
5081 Rain 18 1011 52 10000 3.6 20 19:56 09.05.2020
5082 Clouds 19 1011 52 10000 3.6 40 19:37 09.05.2020
5083 Clouds 19 1011 52 10000 3.6 40 19:18 09.05.2020
5084 Clouds 19 1011 52 10000 3.6 40 19:18 09.05.2020
5085 Clouds 19 1011 52 10000 5.1 360 18:43 09.05.2020
5086 Clouds 21 1011 52 10000 5.1 360 18:24 09.05.2020
5087 Clouds 21 1011 56 10000 6.7 340 17:46 09.05.2020
5088 Clouds 20 1011 56 10000 6.7 340 17:23 09.05.2020
5089 Rain 22 1011 49 10000 5.1 340 16:57 09.05.2020
5090 Clouds 21 1011 35 10000 1 0 16:38 09.05.2020
5091 Clouds 21 1011 35 10000 1 0 16:38 09.05.2020
5092 Clouds 22 1011 33 10000 2.1 50 16:19 09.05.2020
5093 Clouds 22 1011 31 10000 2.1 0 15:43 09.05.2020
5094 Clouds 23 1012 31 10000 2.6 10 15:22 09.05.2020
5095 Clouds 23 1012 31 10000 2.6 10 14:56 09.05.2020
5096 Clouds 23 1012 29 10000 1 0 14:37 09.05.2020
5097 Clouds 24 1012 29 10000 1 0 14:18 09.05.2020
5098 Clouds 23 1012 33 10000 1.5 0 13:55 09.05.2020
5099 Clouds 23 1012 38 10000 2.1 0 13:37 09.05.2020
5100 Clouds 22 1013 38 10000 1.5 0 13:18 09.05.2020
5101 Clouds 21 1013 35 10000 1.5 0 12:39 09.05.2020
5102 Clouds 21 1013 35 10000 1.5 0 12:21 09.05.2020
5103 Clouds 20 1014 45 10000 1.5 110 11:45 09.05.2020
5104 Clouds 19 1014 45 10000 1.5 110 11:20 09.05.2020
5105 Clouds 18 1014 48 10000 1.5 140 10:55 09.05.2020
5106 Clouds 17 1014 48 10000 2.1 130 10:37 09.05.2020
5107 Clouds 17 1014 48 10000 2.1 130 10:19 09.05.2020
5108 Clouds 15 1014 67 10000 1 0 09:44 09.05.2020
5109 Clouds 14 1014 67 10000 1 0 09:20 09.05.2020
5110 Clouds 13 1014 66 10000 0.5 0 08:57 09.05.2020
5111 Clouds 12 1014 76 10000 0.5 0 08:38 09.05.2020
5112 Clouds 12 1014 76 10000 0.5 0 08:20 09.05.2020
5113 Clouds 11 1014 81 10000 1 0 07:44 09.05.2020
5114 Clouds 10 1014 81 10000 1 0 07:25 09.05.2020
5115 Clouds 9 1014 81 10000 0.5 0 06:40 09.05.2020
5116 Clouds 9 1014 81 10000 0.5 0 06:18 09.05.2020
5117 Clouds 10 1014 87 10000 0.5 0 05:39 09.05.2020
5118 Clouds 10 1014 81 10000 1 0 03:40 09.05.2020
5119 Clouds 11 1014 76 10000 0.5 0 02:54 09.05.2020
5120 Clouds 11 1015 76 10000 0.5 0 02:30 09.05.2020
5121 Clouds 11 1015 71 10000 0.5 110 01:50 09.05.2020
5122 Clouds 11 1015 66 10000 1 0 01:22 09.05.2020
5123 Clouds 12 1015 62 10000 0.5 0 00:43 09.05.2020
5124 Clouds 12 1015 62 10000 0.5 0 00:19 09.05.2020
5125 Clouds 13 1015 54 10000 0.5 0 23:44 08.05.2020
5126 Clouds 14 1015 54 10000 0.5 0 23:25 08.05.2020
5127 Clouds 14 1015 54 10000 0.5 170 22:56 08.05.2020
5128 Clouds 15 1015 48 10000 0.5 0 22:38 08.05.2020
5129 Clouds 16 1015 48 10000 0.5 0 22:19 08.05.2020
5130 Clouds 17 1015 39 10000 0.5 360 21:55 08.05.2020
5131 Clouds 18 1015 39 10000 1.5 340 21:36 08.05.2020
5132 Clouds 18 1015 39 10000 1.5 340 21:18 08.05.2020
5133 Clouds 20 1015 32 10000 3.1 330 20:55 08.05.2020
5134 Clouds 20 1015 30 10000 3.1 300 20:37 08.05.2020
5135 Clouds 22 1015 27 10000 3.6 300 20:19 08.05.2020
5136 Clouds 23 1015 23 10000 4.1 290 19:42 08.05.2020
5137 Clouds 23 1015 23 10000 4.1 290 19:21 08.05.2020
5138 Clouds 23 1015 27 10000 3.6 310 18:46 08.05.2020
5139 Clouds 23 1015 27 10000 3.6 310 18:46 08.05.2020
5140 Clouds 24 1015 27 10000 3.1 280 18:28 08.05.2020
5141 Clouds 24 1015 23 10000 3.6 290 17:43 08.05.2020
5142 Clouds 25 1015 23 10000 3.6 290 17:20 08.05.2020
5143 Clouds 24 1015 27 10000 3.6 330 16:56 08.05.2020
5144 Clouds 25 1016 25 10000 4.1 300 16:38 08.05.2020
5145 Clouds 25 1016 25 10000 4.1 300 16:19 08.05.2020
5146 Clouds 25 1016 25 10000 4.1 300 15:43 08.05.2020
5147 Clouds 25 1016 25 10000 4.1 300 15:22 08.05.2020
5148 Clouds 24 1016 27 10000 2.1 0 14:57 08.05.2020
5149 Clear 24 1017 31 10000 3.1 280 14:39 08.05.2020
5150 Clouds 24 1017 31 10000 3.1 280 14:19 08.05.2020
5151 Clouds 24 1017 31 10000 1.5 0 13:56 08.05.2020
5152 Clouds 24 1017 31 10000 2.1 10 13:37 08.05.2020
5153 Clouds 23 1017 31 10000 2.1 10 13:18 08.05.2020
5154 Clouds 22 1018 30 10000 1.5 0 12:42 08.05.2020
5155 Clouds 22 1018 30 10000 1.5 0 12:23 08.05.2020
5156 Clouds 21 1018 32 10000 2.1 210 11:54 08.05.2020
5157 Clouds 20 1018 32 0 2.1 210 11:36 08.05.2020
5158 Clouds 20 1018 37 10000 2.1 0 11:18 08.05.2020
5159 Clouds 18 1018 45 10000 2.1 140 10:42 08.05.2020
5160 Clouds 17 1018 45 10000 2.1 140 10:20 08.05.2020
5161 Clouds 17 1019 42 10000 2.6 130 09:58 08.05.2020
5162 Clouds 15 1019 47 10000 1.5 140 09:39 08.05.2020
5163 Clouds 14 1019 54 10000 2.1 130 09:18 08.05.2020
5164 Clouds 12 1019 58 10000 2.1 110 08:45 08.05.2020
5165 Clouds 11 1019 58 10000 2.1 110 08:23 08.05.2020
5166 Clouds 8 1019 75 10000 3.6 100 07:44 08.05.2020
5167 Clouds 7 1019 75 10000 3.6 100 07:25 08.05.2020
5168 Clouds 6 1019 81 10000 3.1 100 06:51 08.05.2020
5169 Clouds 6 1019 75 10000 3.1 100 06:24 08.05.2020
5170 Clouds 7 1019 81 10000 2.1 100 05:58 08.05.2020
5171 Clouds 7 1019 75 10000 2.6 110 04:44 08.05.2020
5172 Clouds 8 1020 70 10000 2.6 100 02:38 08.05.2020
5173 Clouds 8 1020 70 10000 3.6 100 01:56 08.05.2020
5174 Clouds 9 1020 66 10000 4.1 100 01:29 08.05.2020
5175 Clouds 9 1021 66 10000 2.6 130 00:58 08.05.2020
5176 Clouds 9 1021 66 10000 2.1 120 00:39 08.05.2020
5177 Clouds 9 1021 66 10000 2.1 120 00:21 08.05.2020
5178 Clouds 10 1021 66 10000 0.5 0 23:42 07.05.2020
5179 Clouds 10 1021 66 10000 0.5 0 23:23 07.05.2020
5180 Clouds 11 1021 62 10000 0.5 0 22:57 07.05.2020
5181 Clouds 12 1021 54 10000 0.5 0 22:39 07.05.2020
5182 Clouds 12 1021 54 10000 0.5 0 22:19 07.05.2020
5183 Clouds 14 1021 50 10000 1.5 70 21:55 07.05.2020
5184 Clouds 15 1021 44 10000 1.5 60 21:37 07.05.2020
5185 Clear 15 1021 44 10000 1.5 60 21:19 07.05.2020
5186 Clear 18 1021 30 10000 1.5 350 20:42 07.05.2020
5187 Clear 19 1021 30 10000 1.5 350 20:23 07.05.2020
5188 Clear 20 1021 26 10000 2.1 360 19:58 07.05.2020
5189 Clear 20 1021 28 10000 2.6 320 19:38 07.05.2020
5190 Clear 20 1021 28 10000 2.6 320 19:20 07.05.2020
5191 Clear 21 1021 28 10000 2.6 310 18:45 07.05.2020
5192 Clear 21 1021 28 10000 2.6 310 18:26 07.05.2020
5193 Clear 21 1022 26 10000 2.1 0 17:57 07.05.2020
5194 Clear 21 1022 26 10000 2.1 0 17:36 07.05.2020
5195 Clear 21 1022 26 10000 2.1 0 17:18 07.05.2020
5196 Clear 21 1022 26 10000 1.5 0 16:40 07.05.2020
5197 Clear 21 1023 28 10000 3.6 310 16:18 07.05.2020
5198 Clear 21 1023 28 10000 3.6 310 15:56 07.05.2020
5199 Clear 20 1023 29 10000 2.6 320 15:37 07.05.2020
5200 Clear 20 1023 29 10000 2.6 320 15:37 07.05.2020
5201 Clear 20 1023 29 10000 2.6 320 15:18 07.05.2020
5202 Clear 19 1023 35 10000 2.6 290 14:44 07.05.2020
5203 Clear 19 1023 35 10000 2.6 290 14:21 07.05.2020
5204 Clear 18 1024 36 10000 2.1 320 13:45 07.05.2020
5205 Clear 18 1024 36 10000 2.1 320 13:26 07.05.2020
5206 Clear 18 1024 33 10000 1.5 340 12:55 07.05.2020
5207 Clear 17 1024 36 10000 2.6 0 12:37 07.05.2020
5208 Clear 17 1024 36 10000 2.6 0 12:18 07.05.2020
5209 Clear 15 1024 41 10000 1.5 0 11:39 07.05.2020
5210 Clear 15 1024 44 10000 1.5 0 11:21 07.05.2020
5211 Clear 13 1025 50 10000 0.5 0 10:44 07.05.2020
5212 Clear 13 1025 50 10000 0.5 0 10:25 07.05.2020
5213 Clear 11 1025 53 10000 1 0 09:57 07.05.2020
5214 Clear 10 1025 61 10000 0.5 0 09:38 07.05.2020
5215 Clear 8 1025 70 10000 1 0 09:18 07.05.2020
5216 Clear 7 1025 70 10000 1.5 100 08:43 07.05.2020
5217 Clear 6 1025 70 10000 1.5 100 08:22 07.05.2020
5218 Clear 4 1025 75 10000 1.5 100 07:58 07.05.2020
5219 Clear 3 1025 86 10000 2.6 90 07:39 07.05.2020
5220 Clear 5 1025 86 10000 2.6 90 07:19 07.05.2020
5221 Clear 2 1024 76 10000 3.1 100 06:37 07.05.2020
5222 Clear 1 1024 82 10000 2.6 100 05:56 07.05.2020
5223 Clear 3 1024 86 10000 2.6 100 04:27 07.05.2020
5224 Clear 3 1024 86 10000 3.1 100 03:29 07.05.2020
5225 Clear 3 1024 86 10000 1.5 90 02:59 07.05.2020
5226 Clear 4 1024 80 10000 2.1 100 02:26 07.05.2020
5227 Clear 4 1024 80 10000 2.1 90 01:25 07.05.2020
5228 Clear 5 1024 80 10000 1.5 90 00:51 07.05.2020
5229 Clear 5 1024 80 10000 1 0 00:31 07.05.2020
5230 Clear 6 1024 75 10000 1 0 23:58 06.05.2020
5231 Clear 6 1024 75 10000 0.5 100 23:38 06.05.2020
5232 Clear 6 1024 75 10000 0.5 100 23:19 06.05.2020
5233 Clear 7 1024 70 10000 0.5 80 22:55 06.05.2020
5234 Clear 8 1023 61 10000 1.5 100 22:37 06.05.2020
5235 Clear 9 1023 61 10000 1.5 100 22:37 06.05.2020
5236 Clear 8 1023 61 10000 1.5 100 22:18 06.05.2020
5237 Clear 8 1023 61 10000 1.5 100 22:18 06.05.2020
5238 Clear 10 1023 50 10000 0.5 40 21:42 06.05.2020
5239 Clear 12 1023 43 10000 1 0 21:23 06.05.2020
5240 Clear 12 1023 43 10000 1 0 20:57 06.05.2020
5241 Clear 13 1023 41 10000 2.6 340 20:38 06.05.2020
5242 Clouds 13 1023 41 10000 2.6 340 20:20 06.05.2020
5243 Clouds 13 1023 61 10000 3.6 350 19:56 06.05.2020
5244 Clouds 13 1023 61 10000 4.1 340 19:37 06.05.2020
5245 Clouds 13 1023 61 10000 4.1 340 19:37 06.05.2020
5246 Clouds 14 1023 50 10000 4.1 340 19:18 06.05.2020
5247 Clouds 14 1023 38 10000 3.1 340 18:55 06.05.2020
5248 Clouds 15 1023 38 10000 1.5 0 18:37 06.05.2020
5249 Clouds 15 1023 38 10000 1.5 0 18:18 06.05.2020
5250 Clouds 15 1023 38 10000 3.6 320 17:54 06.05.2020
5251 Clouds 15 1023 38 10000 3.6 320 17:36 06.05.2020
5252 Clear 15 1023 38 10000 3.6 320 17:18 06.05.2020
5253 Clear 15 1023 38 10000 3.6 320 17:18 06.05.2020
5254 Clear 15 1023 38 10000 4.1 30 16:57 06.05.2020
5255 Clear 15 1023 37 10000 3.6 350 16:39 06.05.2020
5256 Clear 14 1023 34 10000 3.6 350 16:19 06.05.2020
5257 Clear 15 1023 34 10000 2.6 350 15:45 06.05.2020
5258 Clear 15 1023 36 10000 3.1 330 15:22 06.05.2020
5259 Clear 14 1023 33 10000 3.1 290 14:56 06.05.2020
5260 Clear 14 1023 37 10000 3.1 330 14:38 06.05.2020
5261 Clear 14 1023 37 10000 3.1 330 14:19 06.05.2020
5262 Clear 14 1023 35 10000 2.6 0 13:57 06.05.2020
5263 Clear 14 1023 37 10000 3.1 0 13:37 06.05.2020
5264 Clear 14 1023 37 10000 3.1 0 13:19 06.05.2020
5265 Clear 13 1023 37 10000 2.1 0 12:42 06.05.2020
5266 Clear 13 1023 37 10000 2.1 0 12:24 06.05.2020
5267 Clouds 11 1024 40 10000 3.1 10 11:42 06.05.2020
5268 Clouds 11 1024 40 10000 3.1 10 11:42 06.05.2020
5269 Clouds 11 1024 40 10000 3.1 10 11:22 06.05.2020
5270 Clouds 10 1024 46 10000 4.1 30 10:58 06.05.2020
5271 Clouds 10 1024 43 10000 3.1 20 10:39 06.05.2020
5272 Clouds 10 1024 49 10000 3.1 20 10:19 06.05.2020
5273 Clouds 9 1024 57 10000 2.1 290 09:56 06.05.2020
5274 Clouds 8 1024 61 10000 1.5 310 09:36 06.05.2020
5275 Clouds 8 1024 61 10000 1.5 310 09:18 06.05.2020
5276 Clear 6 1024 57 10000 1 0 08:41 06.05.2020
5277 Clouds 5 1024 65 10000 1 0 08:20 06.05.2020
5278 Clouds 3 1023 65 10000 0.5 0 07:55 06.05.2020
5279 Clouds 2 1023 80 10000 1.5 100 07:36 06.05.2020
5280 Clouds 1 1023 77 10000 1 0 07:18 06.05.2020
5281 Clouds 1 1023 77 10000 1 0 07:18 06.05.2020
5282 Clouds 1 1023 77 10000 1.5 110 06:43 06.05.2020
5283 Clouds 0 1023 85 10000 1.5 110 06:19 06.05.2020
5284 Clouds 1 1022 85 10000 0.5 0 05:37 06.05.2020
5285 Clouds 1 1022 80 10000 1 0 04:49 06.05.2020
5286 Clouds 2 1022 79 10000 1 0 03:49 06.05.2020
5287 Clouds 2 1022 78 10000 1 0 03:24 06.05.2020
5288 Clouds 3 1022 80 10000 1 10 02:38 06.05.2020
5289 Clear 3 1022 80 10000 1 10 02:20 06.05.2020
5290 Clear 3 1022 74 10000 0.5 10 01:41 06.05.2020
5291 Clear 4 1021 73 10000 1 0 00:56 06.05.2020
5292 Clear 5 1021 70 10000 1.5 30 00:31 06.05.2020
5293 Clear 6 1021 56 10000 1.5 80 23:58 05.05.2020
5294 Clear 7 1020 52 10000 1 0 23:39 05.05.2020
5295 Clear 8 1020 49 10000 2.6 40 23:19 05.05.2020
5296 Clear 8 1020 49 10000 2.6 40 23:19 05.05.2020
5297 Clear 8 1019 49 10000 3.6 30 22:42 05.05.2020
5298 Clear 9 1019 43 10000 3.6 30 22:20 05.05.2020
5299 Clear 9 1019 43 10000 3.6 30 21:59 05.05.2020
5300 Clear 10 1018 40 10000 3.1 10 21:40 05.05.2020
5301 Clear 11 1018 40 10000 3.1 10 21:21 05.05.2020
5302 Clouds 12 1018 37 10000 3.6 340 20:59 05.05.2020
5303 Clouds 12 1018 35 10000 4.6 330 20:39 05.05.2020
5304 Clouds 13 1018 35 10000 4.6 330 20:19 05.05.2020
5305 Clouds 13 1017 30 10000 5.7 310 19:57 05.05.2020
5306 Clouds 14 1017 30 10000 5.1 310 19:37 05.05.2020
5307 Clouds 14 1017 30 10000 5.1 310 19:18 05.05.2020
5308 Clouds 14 1017 30 10000 5.1 310 19:18 05.05.2020
5309 Clouds 14 1017 28 10000 5.7 320 18:54 05.05.2020
5310 Clouds 15 1017 28 10000 4.1 310 18:36 05.05.2020
5311 Clouds 15 1017 28 10000 4.1 310 18:18 05.05.2020
5312 Clouds 15 1017 38 10000 3.1 350 17:41 05.05.2020
5313 Clouds 15 1017 38 10000 3.1 350 17:23 05.05.2020
5314 Clouds 15 1017 41 10000 4.6 330 16:57 05.05.2020
5315 Clouds 15 1017 38 10000 5.7 330 16:36 05.05.2020
5316 Clouds 15 1017 38 10000 5.7 330 16:18 05.05.2020
5317 Clouds 15 1017 44 10000 5.7 330 15:54 05.05.2020
5318 Clouds 15 1017 41 10000 5.1 330 15:36 05.05.2020
5319 Clouds 15 1017 41 10000 5.1 330 15:36 05.05.2020
5320 Clouds 15 1017 41 10000 5.1 330 15:18 05.05.2020
5321 Clouds 14 1017 44 10000 3.6 310 14:42 05.05.2020
5322 Clouds 14 1017 44 10000 3.6 310 14:24 05.05.2020
5323 Clouds 13 1018 54 10000 4.1 360 13:58 05.05.2020
5324 Clouds 14 1018 50 10000 2.6 320 13:40 05.05.2020
5325 Clouds 13 1018 50 10000 2.6 320 13:21 05.05.2020
5326 Clouds 13 1018 50 10000 2.6 320 13:21 05.05.2020
5327 Clouds 12 1018 54 10000 4.6 340 12:59 05.05.2020
5328 Clouds 12 1018 54 10000 4.1 330 12:39 05.05.2020
5329 Clouds 12 1018 54 10000 4.1 330 12:20 05.05.2020
5330 Clouds 12 1018 54 10000 4.1 330 12:20 05.05.2020
5331 Clouds 12 1018 58 10000 3.6 350 11:55 05.05.2020
5332 Clouds 12 1018 58 10000 3.6 350 11:36 05.05.2020
5333 Clouds 11 1017 62 10000 2.6 30 11:18 05.05.2020
5334 Clouds 11 1018 62 10000 2.6 30 10:39 05.05.2020
5335 Clouds 10 1018 62 10000 2.6 30 10:19 05.05.2020
5336 Clouds 10 1018 66 10000 3.1 30 09:59 05.05.2020
5337 Clouds 10 1018 66 10000 3.1 30 09:59 05.05.2020
5338 Clouds 9 1018 76 10000 2.6 350 09:40 05.05.2020
5339 Clouds 8 1018 87 10000 2.6 360 09:22 05.05.2020
5340 Clouds 7 1018 93 10000 3.6 350 08:41 05.05.2020
5341 Clouds 7 1018 93 10000 3.6 350 08:20 05.05.2020
5342 Clouds 6 1018 87 10000 3.1 350 07:58 05.05.2020
5343 Clouds 4 1018 93 10000 2.6 360 07:38 05.05.2020
5344 Clouds 4 1018 100 10000 1.5 20 07:19 05.05.2020
5345 Clouds 4 1018 100 10000 1.5 20 06:49 05.05.2020
5346 Clouds 3 1018 93 9000 1.5 350 06:22 05.05.2020
5347 Clouds 3 1018 100 9000 0.5 30 05:37 05.05.2020
5348 Clouds 6 1017 87 10000 1.5 360 03:35 05.05.2020
5349 Clouds 8 1018 87 10000 2.1 360 01:42 05.05.2020
5350 Clouds 8 1018 87 10000 2.1 320 00:52 05.05.2020
5351 Clouds 9 1017 87 10000 2.1 330 00:21 05.05.2020
5352 Clouds 9 1017 93 10000 4.1 360 23:45 04.05.2020
5353 Clouds 10 1017 87 10000 4.1 350 23:21 04.05.2020
5354 Clouds 10 1017 87 10000 3.1 360 22:56 04.05.2020
5355 Clouds 10 1017 87 10000 3.1 360 22:56 04.05.2020
5356 Clouds 10 1016 93 10000 3.1 360 22:38 04.05.2020
5357 Clouds 10 1016 93 10000 3.1 360 22:19 04.05.2020
5358 Rain 11 1016 87 10000 5.7 350 21:53 04.05.2020
5359 Clouds 11 1016 93 10000 3.6 350 21:33 04.05.2020
5360 Clouds 11 1016 93 10000 3.6 350 21:33 04.05.2020
5361 Clouds 12 1015 93 10000 3.1 330 20:56 04.05.2020
5362 Clouds 12 1015 87 10000 3.6 330 20:38 04.05.2020
5363 Clouds 12 1015 87 10000 3.6 330 20:38 04.05.2020
5364 Clouds 12 1015 87 10000 3.6 330 20:38 04.05.2020
5365 Clouds 12 1015 87 10000 3.6 330 20:38 04.05.2020
5366 Clouds 12 1015 87 10000 3.6 330 20:38 04.05.2020
5367 Rain 12 1015 87 10000 3.6 330 20:18 04.05.2020
5368 Rain 12 1015 87 8000 5.1 300 19:41 04.05.2020
5369 Rain 12 1015 87 8000 5.1 300 19:21 04.05.2020
5370 Rain 12 1015 87 8000 5.1 300 19:21 04.05.2020
5371 Rain 13 1015 93 10000 2.6 250 18:56 04.05.2020
5372 Rain 13 1015 82 10000 2.6 260 18:38 04.05.2020
5373 Clouds 14 1014 82 10000 2.1 220 18:18 04.05.2020
5374 Clouds 14 1014 82 10000 2.1 220 17:55 04.05.2020
5375 Clouds 14 1015 76 10000 1.5 250 17:37 04.05.2020
5376 Rain 13 1015 87 10000 1.5 320 17:18 04.05.2020
5377 Clouds 13 1015 93 10000 2.6 320 16:42 04.05.2020
5378 Clouds 13 1015 93 10000 2.6 320 16:42 04.05.2020
5379 Clouds 13 1015 93 10000 2.6 320 16:21 04.05.2020
5380 Thunderstorm 13 1016 93 4500 5.7 320 15:46 04.05.2020
5381 Thunderstorm 13 1016 93 4500 5.7 320 15:46 04.05.2020
5382 Rain 17 1014 55 10000 4.6 220 15:25 04.05.2020
5383 Rain 17 1014 55 10000 4.6 220 15:25 04.05.2020
5384 Clouds 18 1014 45 10000 5.1 220 14:57 04.05.2020
5385 Clouds 18 1014 45 10000 5.1 220 14:57 04.05.2020
5386 Rain 19 1015 42 10000 5.1 220 14:38 04.05.2020
5387 Rain 19 1015 42 10000 5.1 220 14:38 04.05.2020
5388 Rain 19 1015 42 10000 5.1 220 14:38 04.05.2020
5389 Rain 19 1015 42 10000 5.1 220 14:38 04.05.2020
5390 Rain 19 1015 42 10000 5.1 220 14:38 04.05.2020
5391 Rain 19 1015 42 10000 5.7 220 13:59 04.05.2020
5392 Rain 19 1015 42 10000 5.7 220 13:59 04.05.2020
5393 Rain 19 1015 42 10000 5.7 220 13:59 04.05.2020
5394 Rain 19 1015 42 10000 5.7 220 13:59 04.05.2020
5395 Rain 19 1015 42 10000 5.7 220 13:59 04.05.2020
5396 Clouds 18 1016 39 10000 3.6 200 12:48 04.05.2020
5397 Clouds 18 1016 39 10000 3.6 200 12:48 04.05.2020
5398 Clouds 18 1016 39 10000 3.6 200 12:48 04.05.2020
5399 Clouds 18 1016 39 10000 3.6 200 12:48 04.05.2020
5400 Clouds 18 1016 39 10000 3.6 200 12:48 04.05.2020
5401 Clouds 17 1016 39 10000 4.1 210 12:23 04.05.2020
5402 Clouds 17 1016 39 10000 4.1 240 12:22 04.05.2020
5403 Clouds 17 1016 39 10000 4.1 210 12:22 04.05.2020
5404 Clouds 17 1016 39 10000 4.1 210 12:22 04.05.2020
5405 Clouds 17 1016 39 10000 4.1 210 12:22 04.05.2020
5406 Clouds 13 1017 54 10000 2.1 170 09:33 04.05.2020
5407 Clouds 12 1017 62 10000 1.5 130 08:57 04.05.2020
5408 Clouds 12 1017 62 10000 1.5 130 08:57 04.05.2020
5409 Clouds 12 1017 62 10000 1.5 130 08:57 04.05.2020
5410 Clouds 12 1017 62 10000 1.5 130 08:57 04.05.2020
5411 Clouds 12 1017 62 10000 1.5 130 08:57 04.05.2020
5412 Clouds 9 1017 76 10000 2.1 110 07:50 04.05.2020
5413 Clouds 9 1017 76 10000 2.1 110 07:50 04.05.2020
5414 Clouds 9 1017 76 10000 2.1 110 07:49 04.05.2020
5415 Clouds 9 1017 76 10000 2.1 110 07:48 04.05.2020
5416 Clouds 8 1017 75 10000 2.6 100 07:24 04.05.2020
5417 Clouds 7 1017 81 10000 2.1 100 04:55 04.05.2020
5418 Clouds 8 1017 75 10000 3.1 100 03:20 04.05.2020
5419 Clouds 8 1017 75 10000 3.1 100 03:20 04.05.2020
5420 Clouds 8 1018 75 10000 3.6 110 02:31 04.05.2020
5421 Clouds 8 1018 75 10000 2.6 100 00:38 04.05.2020
5422 Clouds 8 1018 66 10000 2.6 100 23:46 03.05.2020
5423 Clouds 9 1018 66 10000 2.6 100 23:25 03.05.2020
5424 Clouds 9 1018 61 10000 3.1 100 22:57 03.05.2020
5425 Clouds 9 1018 66 10000 2.1 120 22:38 03.05.2020
5426 Clouds 9 1018 66 10000 2.1 120 22:38 03.05.2020
5427 Clouds 9 1018 66 10000 2.1 120 22:38 03.05.2020
5428 Clouds 10 1018 66 10000 2.1 120 22:20 03.05.2020
5429 Clouds 11 1018 54 10000 1.5 60 21:41 03.05.2020
5430 Clouds 12 1018 54 10000 1.5 60 21:20 03.05.2020
5431 Clouds 13 1018 54 10000 1.5 40 20:47 03.05.2020
5432 Clouds 14 1018 41 10000 1.5 360 20:23 03.05.2020
5433 Clouds 15 1018 41 10000 2.6 340 19:55 03.05.2020
5434 Clouds 15 1018 41 10000 2.6 310 19:37 03.05.2020
5435 Clouds 15 1018 38 10000 2.1 320 19:18 03.05.2020
5436 Clouds 16 1018 38 10000 1 0 18:39 03.05.2020
5437 Clouds 16 1018 38 10000 1 0 18:39 03.05.2020
5438 Clouds 16 1018 38 10000 1 0 18:20 03.05.2020
5439 Clouds 16 1018 38 10000 2.6 300 17:42 03.05.2020
5440 Clouds 16 1018 38 10000 2.6 300 17:22 03.05.2020
5441 Clouds 16 1018 41 10000 3.6 300 16:58 03.05.2020
5442 Clouds 16 1018 36 10000 3.6 310 16:39 03.05.2020
5443 Clouds 16 1019 38 10000 1.5 0 16:18 03.05.2020
5444 Clouds 16 1019 38 10000 1.5 0 15:56 03.05.2020
5445 Clouds 16 1019 44 10000 1.5 0 15:37 03.05.2020
5446 Clouds 16 1019 44 10000 1.5 0 15:37 03.05.2020
5447 Clouds 16 1019 44 10000 1.5 0 15:37 03.05.2020
5448 Clouds 16 1019 44 10000 1.5 0 15:37 03.05.2020
5449 Clouds 15 1019 44 10000 1.5 0 15:19 03.05.2020
5450 Clouds 15 1019 44 10000 1.5 0 14:43 03.05.2020
5451 Clouds 15 1019 44 10000 1.5 0 14:23 03.05.2020
5452 Clouds 14 1019 54 10000 3.1 270 14:23 03.05.2020
5453 Clouds 15 1019 44 10000 1.5 0 14:23 03.05.2020
5454 Clouds 14 1019 54 10000 3.1 270 14:02 03.05.2020
5455 Rain 14 1019 50 10000 3.1 300 13:36 03.05.2020
5456 Rain 14 1019 50 10000 3.1 300 13:36 03.05.2020
5457 Rain 14 1019 50 10000 3.1 300 13:36 03.05.2020
5458 Clouds 14 1019 44 10000 3.1 290 12:48 03.05.2020
5459 Clouds 13 1019 50 10000 3.1 0 12:26 03.05.2020
5460 Clouds 13 1019 50 10000 3.1 0 12:26 03.05.2020
5461 Clouds 13 1019 58 10000 2.6 0 11:57 03.05.2020
5462 Clouds 12 1019 62 10000 2.6 250 11:39 03.05.2020
5463 Clouds 12 1019 62 10000 2.6 250 11:20 03.05.2020
5464 Clouds 12 1019 66 10000 2.6 280 10:54 03.05.2020
5465 Clouds 11 1019 66 10000 2.6 280 10:24 03.05.2020
5466 Clouds 10 1018 76 10000 2.6 260 09:39 03.05.2020
5467 Clouds 9 1018 70 10000 2.6 270 08:57 03.05.2020
5468 Clouds 8 1018 76 10000 1.5 270 08:33 03.05.2020
5469 Clouds 7 1017 81 10000 1 0 07:41 03.05.2020
5470 Clouds 7 1017 81 10000 1 0 07:41 03.05.2020
5471 Clouds 7 1017 81 10000 1 0 07:41 03.05.2020
5472 Clouds 7 1017 81 10000 1 0 07:41 03.05.2020
5473 Clouds 7 1017 81 10000 1 0 07:41 03.05.2020
5474 Clouds 6 1017 81 10000 1.5 260 06:36 03.05.2020
5475 Clouds 6 1016 81 10000 2.1 250 05:49 03.05.2020
5476 Clouds 6 1016 81 10000 1.5 270 05:31 03.05.2020
5477 Clouds 6 1016 81 10000 1 0 04:27 03.05.2020
5478 Clouds 6 1015 87 10000 1 0 03:31 03.05.2020
5479 Clear 6 1015 81 10000 2.1 240 02:31 03.05.2020
5480 Clouds 7 1015 81 10000 1 0 01:49 03.05.2020
5481 Clouds 7 1015 81 10000 2.1 250 01:27 03.05.2020
5482 Clouds 6 1015 87 10000 1.5 200 01:01 03.05.2020
5483 Clouds 6 1015 87 10000 1.5 200 01:01 03.05.2020
5484 Clouds 6 1015 87 10000 1.5 200 01:01 03.05.2020
5485 Clouds 6 1015 81 10000 1 0 00:38 03.05.2020
5486 Clouds 7 1014 75 10000 1.5 240 00:20 03.05.2020
5487 Clouds 7 1014 75 10000 1.5 240 23:44 02.05.2020
5488 Clear 7 1014 75 10000 1.5 270 23:26 02.05.2020
5489 Clear 7 1014 75 10000 3.1 270 22:56 02.05.2020
5490 Clouds 8 1013 70 10000 3.1 260 22:37 02.05.2020
5491 Clouds 8 1013 70 10000 3.1 260 22:18 02.05.2020
5492 Clouds 9 1012 66 10000 5.1 280 21:40 02.05.2020
5493 Clouds 9 1012 66 10000 5.1 280 21:19 02.05.2020
5494 Clouds 10 1012 61 10000 6.2 300 20:57 02.05.2020
5495 Clouds 10 1011 61 10000 6.2 300 20:38 02.05.2020
5496 Clouds 10 1011 61 10000 6.2 300 20:19 02.05.2020
5497 Clouds 11 1011 57 10000 5.7 300 19:57 02.05.2020
5498 Clouds 11 1010 57 10000 5.7 320 19:39 02.05.2020
5499 Clouds 11 1010 57 10000 5.7 320 19:19 02.05.2020
5500 Clouds 11 1010 57 10000 9.3 320 18:56 02.05.2020
5501 Clouds 12 1009 47 10000 8.7 290 18:37 02.05.2020
5502 Clouds 13 1009 47 10000 8.7 290 18:19 02.05.2020
5503 Clouds 12 1010 50 10000 8.7 310 17:54 02.05.2020
5504 Rain 12 1009 54 10000 9.8 310 17:36 02.05.2020
5505 Clouds 12 1009 47 10000 7.7 300 17:18 02.05.2020
5506 Rain 13 1009 43 10000 12.9 280 16:41 02.05.2020
5507 Rain 13 1009 43 10000 12.9 280 16:23 02.05.2020
5508 Rain 15 1009 47 10000 8.2 260 15:44 02.05.2020
5509 Rain 14 1009 39 10000 8.2 260 15:21 02.05.2020
5510 Rain 14 1009 47 10000 8.7 250 14:59 02.05.2020
5511 Rain 14 1009 41 10000 9.3 260 14:40 02.05.2020
5512 Clear 14 1009 37 10000 9.3 260 14:22 02.05.2020
5513 Rain 14 1009 37 10000 8.2 250 13:40 02.05.2020
5514 Clear 14 1009 39 10000 8.2 250 13:22 02.05.2020
5515 Clear 13 1009 39 10000 8.2 240 12:56 02.05.2020
5516 Clouds 13 1009 43 10000 8.2 260 12:38 02.05.2020
5517 Clouds 13 1009 43 10000 8.2 260 12:19 02.05.2020
5518 Clouds 12 1009 53 10000 9.3 260 11:42 02.05.2020
5519 Clouds 12 1009 53 10000 9.3 260 11:23 02.05.2020
5520 Clouds 12 1009 57 10000 8.2 260 10:59 02.05.2020
5521 Clouds 11 1009 62 10000 7.2 260 10:39 02.05.2020
5522 Clouds 11 1009 62 10000 7.2 260 10:21 02.05.2020
5523 Clouds 10 1009 66 10000 8.7 260 09:57 02.05.2020
5524 Clouds 9 1009 66 10000 8.7 260 09:38 02.05.2020
5525 Clouds 9 1009 66 10000 8.7 260 09:20 02.05.2020
5526 Clouds 9 1009 71 10000 7.7 250 08:50 02.05.2020
5527 Clouds 9 1009 76 10000 7.2 250 08:30 02.05.2020
5528 Clouds 8 1008 81 10000 3.6 250 07:49 02.05.2020
5529 Clouds 8 1008 81 10000 4.1 240 07:29 02.05.2020
5530 Clouds 8 1008 87 10000 4.1 230 06:52 02.05.2020
5531 Clouds 7 1007 93 10000 3.1 230 05:30 02.05.2020
5532 Clouds 7 1006 93 10000 2.1 190 04:59 02.05.2020
5533 Rain 7 1006 93 10000 2.1 170 04:25 02.05.2020
5534 Clouds 7 1006 87 10000 2.6 200 03:18 02.05.2020
5535 Clouds 8 1006 81 10000 4.1 240 02:37 02.05.2020
5536 Clouds 8 1006 87 10000 2.6 200 01:50 02.05.2020
5537 Clouds 8 1006 81 10000 2.6 170 00:58 02.05.2020
5538 Clouds 8 1005 81 10000 2.6 170 00:36 02.05.2020
5539 Clouds 8 1006 81 10000 2.6 190 00:18 02.05.2020
5540 Clouds 8 1006 81 10000 2.6 190 23:39 01.05.2020
5541 Clouds 8 1006 81 10000 2.6 190 23:20 01.05.2020
5542 Clouds 8 1005 87 10000 2.6 190 22:56 01.05.2020
5543 Clouds 8 1005 81 10000 3.1 180 22:37 01.05.2020
5544 Clouds 8 1005 81 10000 3.1 180 22:18 01.05.2020
5545 Clouds 8 1005 81 10000 3.1 180 22:18 01.05.2020
5546 Clouds 9 1005 87 10000 2.6 180 21:55 01.05.2020
5547 Clouds 9 1005 81 10000 3.1 180 21:37 01.05.2020
5548 Rain 9 1005 81 10000 3.1 180 21:18 01.05.2020
5549 Clouds 9 1005 81 10000 2.6 180 20:55 01.05.2020
5550 Clouds 10 1005 81 10000 3.6 190 20:37 01.05.2020
5551 Clouds 10 1005 81 10000 3.6 190 20:37 01.05.2020
5552 Clouds 10 1005 81 10000 3.1 200 20:18 01.05.2020
5553 Clouds 10 1004 76 10000 2.1 230 19:41 01.05.2020
5554 Clouds 10 1004 76 10000 2.1 230 19:22 01.05.2020
5555 Rain 10 1004 76 10000 3.1 260 18:57 01.05.2020
5556 Rain 10 1004 87 10000 6.2 290 18:38 01.05.2020
5557 Rain 9 1004 87 10000 6.2 290 18:19 01.05.2020
5558 Rain 11 1004 76 10000 10.3 280 17:56 01.05.2020
5559 Clouds 12 1003 51 10000 7.2 270 17:37 01.05.2020
5560 Clouds 12 1003 51 10000 7.2 270 17:37 01.05.2020
5561 Clouds 12 1003 51 10000 7.2 270 17:19 01.05.2020
5562 Clouds 13 1003 54 10000 5.1 280 16:55 01.05.2020
5563 Clouds 14 1004 62 10000 6.2 280 16:37 01.05.2020
5564 Clouds 14 1004 62 10000 6.2 280 16:18 01.05.2020
5565 Clouds 14 1004 51 10000 5.7 220 15:42 01.05.2020
5566 Clouds 14 1004 51 10000 5.7 220 15:24 01.05.2020
5567 Clouds 15 1004 44 10000 5.7 230 14:58 01.05.2020
5568 Clouds 16 1004 44 10000 4.6 230 14:39 01.05.2020
5569 Clouds 15 1004 44 10000 4.6 230 14:20 01.05.2020
5570 Rain 15 1004 48 10000 5.1 220 13:40 01.05.2020
5571 Rain 14 1005 54 10000 6.2 240 13:22 01.05.2020
5572 Rain 14 1005 54 10000 6.2 240 12:57 01.05.2020
5573 Clouds 14 1005 47 10000 5.7 220 12:39 01.05.2020
5574 Clouds 13 1005 47 10000 5.7 220 12:19 01.05.2020
5575 Clouds 14 1005 54 10000 6.7 230 11:47 01.05.2020
5576 Clouds 14 1005 54 10000 6.7 230 11:26 01.05.2020
5577 Clouds 13 1005 54 10000 5.7 220 10:59 01.05.2020
5578 Clouds 13 1005 54 10000 6.2 210 10:40 01.05.2020
5579 Clouds 13 1005 54 10000 6.2 210 10:20 01.05.2020
5580 Clouds 13 1006 62 10000 5.1 200 09:44 01.05.2020
5581 Clouds 12 1006 62 10000 5.1 200 09:20 01.05.2020
5582 Clouds 11 1006 71 10000 3.6 190 08:59 01.05.2020
5583 Clouds 10 1006 76 10000 4.6 190 08:41 01.05.2020
5584 Clouds 9 1006 81 10000 3.1 180 08:22 01.05.2020
5585 Clouds 8 1006 81 10000 3.1 180 07:46 01.05.2020
5586 Clouds 8 1006 81 10000 3.6 170 07:23 01.05.2020
5587 Clouds 7 1006 87 10000 3.1 180 06:50 01.05.2020
5588 Clouds 8 1006 81 10000 3.1 190 05:36 01.05.2020
5589 Clouds 8 1006 87 10000 2.6 180 04:47 01.05.2020
5590 Clouds 9 1006 81 10000 3.6 180 03:24 01.05.2020
5591 Clouds 9 1006 87 10000 3.6 170 02:45 01.05.2020
5592 Clouds 9 1007 81 10000 3.1 170 02:19 01.05.2020
5593 Clouds 10 1006 81 10000 3.1 180 01:28 01.05.2020
5594 Clouds 10 1006 76 10000 3.6 190 00:59 01.05.2020
5595 Clouds 11 1006 76 10000 4.1 170 00:37 01.05.2020
5596 Clouds 11 1006 76 10000 4.1 170 00:37 01.05.2020
5597 Clouds 11 1006 76 10000 4.1 170 00:18 01.05.2020
5598 Clouds 11 1006 76 10000 4.1 180 23:54 30.04.2020
5599 Clouds 11 1006 81 10000 4.6 190 23:36 30.04.2020
5600 Clouds 11 1006 81 10000 4.6 190 23:18 30.04.2020
5601 Clouds 11 1006 76 10000 4.6 170 22:41 30.04.2020
5602 Clouds 12 1006 76 10000 4.6 170 22:20 30.04.2020
5603 Clouds 12 1005 76 10000 5.1 170 21:55 30.04.2020
5604 Clouds 12 1005 76 10000 4.6 170 21:37 30.04.2020
5605 Clouds 12 1005 76 10000 4.6 170 21:18 30.04.2020
5606 Clouds 12 1005 71 10000 5.1 180 20:42 30.04.2020
5607 Clouds 13 1005 71 10000 5.1 180 20:19 30.04.2020
5608 Clouds 13 1005 71 10000 6.2 180 19:58 30.04.2020
5609 Clouds 13 1005 67 10000 4.6 190 19:39 30.04.2020
5610 Clouds 13 1005 67 10000 4.6 190 19:20 30.04.2020
5611 Clouds 14 1005 67 10000 6.2 180 18:55 30.04.2020
5612 Clouds 14 1005 62 10000 6.2 180 18:36 30.04.2020
5613 Clouds 15 1005 59 10000 5.1 180 18:18 30.04.2020
5614 Clouds 15 1005 63 10000 4.6 180 17:41 30.04.2020
5615 Clouds 15 1005 63 10000 4.6 180 17:22 30.04.2020
5616 Clouds 15 1005 72 10000 2.1 200 16:59 30.04.2020
5617 Clouds 15 1006 72 10000 2.1 140 16:40 30.04.2020
5618 Rain 15 1006 72 10000 2.1 140 16:20 30.04.2020
5619 Rain 14 1006 76 10000 3.6 170 15:54 30.04.2020
5620 Rain 14 1006 67 10000 4.6 200 15:36 30.04.2020
5621 Clouds 14 1006 62 10000 5.1 200 15:18 30.04.2020
5622 Clouds 15 1007 62 10000 4.1 210 14:40 30.04.2020
5623 Clouds 15 1007 62 10000 4.1 210 14:19 30.04.2020
5624 Clouds 15 1007 62 10000 3.6 200 13:56 30.04.2020
5625 Clouds 14 1007 67 10000 4.1 210 13:38 30.04.2020
5626 Clouds 14 1007 67 10000 4.1 210 13:20 30.04.2020
5627 Clouds 14 1007 62 10000 7.2 210 12:42 30.04.2020
5628 Clouds 14 1007 62 10000 7.2 210 12:21 30.04.2020
5629 Clouds 14 1007 71 10000 5.1 180 11:59 30.04.2020
5630 Clouds 13 1007 76 10000 4.6 160 11:37 30.04.2020
5631 Rain 12 1007 81 10000 4.1 170 11:18 30.04.2020
5632 Rain 12 1007 81 10000 4.1 170 10:54 30.04.2020
5633 Clouds 12 1007 76 10000 4.1 160 10:36 30.04.2020
5634 Rain 12 1007 81 10000 4.6 170 10:18 30.04.2020
5635 Clouds 11 1007 81 10000 3.6 160 09:41 30.04.2020
5636 Clouds 11 1007 81 10000 3.6 160 09:22 30.04.2020
5637 Rain 11 1007 81 10000 3.1 130 08:49 30.04.2020
5638 Rain 10 1007 87 10000 3.6 120 08:27 30.04.2020
5639 Rain 9 1007 93 10000 3.1 120 07:58 30.04.2020
5640 Rain 9 1007 93 10000 3.1 120 07:58 30.04.2020
5641 Rain 9 1007 93 10000 3.6 110 07:40 30.04.2020
5642 Rain 9 1007 93 10000 3.6 110 07:21 30.04.2020
5643 Clouds 8 1007 93 10000 3.6 100 06:38 30.04.2020
5644 Clouds 8 1008 87 10000 2.6 110 05:49 30.04.2020
5645 Clouds 7 1008 93 10000 3.1 110 05:27 30.04.2020
5646 Clouds 8 1008 87 10000 3.6 110 04:29 30.04.2020
5647 Clouds 8 1009 93 10000 2.6 110 02:57 30.04.2020
5648 Clouds 8 1009 93 10000 2.6 110 02:57 30.04.2020
5649 Clouds 9 1009 87 10000 3.6 110 02:29 30.04.2020
5650 Clouds 9 1009 87 10000 2.1 120 01:48 30.04.2020
5651 Clouds 10 1009 87 10000 2.6 160 00:58 30.04.2020
5652 Clouds 10 1009 87 10000 2.6 180 00:36 30.04.2020
5653 Clouds 11 1009 87 10000 2.6 180 00:18 30.04.2020
5654 Clouds 11 1009 81 10000 2.6 170 23:42 29.04.2020
5655 Clouds 11 1009 81 10000 2.6 170 23:23 29.04.2020
5656 Clouds 11 1009 81 10000 3.6 180 22:58 29.04.2020
5657 Clouds 12 1009 76 10000 3.1 180 22:39 29.04.2020
5658 Clouds 12 1009 76 10000 3.1 180 22:20 29.04.2020
5659 Clouds 12 1009 71 10000 3.6 190 21:39 29.04.2020
5660 Clouds 13 1009 71 10000 3.6 190 21:21 29.04.2020
5661 Clouds 14 1008 67 10000 3.6 200 20:59 29.04.2020
5662 Clouds 15 1008 62 10000 4.6 200 20:40 29.04.2020
5663 Clouds 15 1008 62 10000 4.6 200 20:19 29.04.2020
5664 Clouds 16 1008 51 10000 5.1 230 19:57 29.04.2020
5665 Clouds 16 1008 45 10000 6.2 260 19:39 29.04.2020
5666 Clouds 16 1008 45 10000 6.2 260 19:18 29.04.2020
5667 Clouds 17 1008 51 10000 3.6 280 18:42 29.04.2020
5668 Clouds 17 1008 42 10000 7.2 260 18:20 29.04.2020
5669 Clouds 17 1008 42 10000 7.2 260 17:56 29.04.2020
5670 Clouds 17 1008 51 10000 5.1 240 17:37 29.04.2020
5671 Clouds 17 1008 48 10000 5.7 240 17:19 29.04.2020
5672 Clouds 16 1008 55 10000 7.7 230 16:37 29.04.2020
5673 Clouds 16 1008 55 10000 7.7 230 16:19 29.04.2020
5674 Rain 16 1008 59 10000 2.6 300 15:57 29.04.2020
5675 Clouds 16 1008 54 10000 5.7 320 15:38 29.04.2020
5676 Clouds 16 1008 54 10000 5.7 320 15:20 29.04.2020
5677 Rain 16 1008 63 10000 1 0 14:45 29.04.2020
5678 Rain 16 1008 63 10000 1 0 14:26 29.04.2020
5679 Rain 15 1008 76 10000 4.1 320 13:58 29.04.2020
5680 Clouds 15 1008 55 10000 5.1 270 13:40 29.04.2020
5681 Clouds 15 1008 55 10000 5.1 270 13:20 29.04.2020
5682 Clouds 15 1008 59 10000 4.6 260 12:56 29.04.2020
5683 Clouds 15 1008 59 10000 4.1 260 12:37 29.04.2020
5684 Clouds 15 1008 62 10000 4.1 280 12:18 29.04.2020
5685 Clouds 15 1008 71 10000 4.6 280 11:39 29.04.2020
5686 Clouds 14 1008 71 10000 4.6 280 11:39 29.04.2020
5687 Clouds 14 1008 71 10000 4.6 280 11:20 29.04.2020
5688 Clouds 14 1008 71 10000 5.7 270 10:55 29.04.2020
5689 Clouds 13 1008 76 10000 4.6 270 10:37 29.04.2020
5690 Clouds 13 1008 76 10000 4.6 270 10:18 29.04.2020
5691 Clouds 13 1007 82 10000 2.6 240 09:41 29.04.2020
5692 Clouds 12 1007 82 10000 2.6 240 09:21 29.04.2020
5693 Rain 12 1007 87 10000 2.1 230 08:44 29.04.2020
5694 Rain 11 1007 87 10000 2.1 230 08:26 29.04.2020
5695 Rain 11 1007 87 10000 2.1 230 08:26 29.04.2020
5696 Rain 11 1007 87 10000 2.6 220 07:56 29.04.2020
5697 Rain 11 1007 87 10000 2.6 220 07:37 29.04.2020
5698 Rain 11 1006 87 10000 2.6 220 07:18 29.04.2020
5699 Rain 11 1006 87 10000 2.6 220 06:45 29.04.2020
5700 Rain 11 1006 87 10000 3.6 230 06:26 29.04.2020
5701 Clouds 11 1006 76 10000 2.1 250 05:20 29.04.2020
5702 Clouds 10 1006 87 10000 0.5 0 04:20 29.04.2020
5703 Clouds 10 1006 87 10000 0.5 0 03:55 29.04.2020
5704 Clouds 10 1006 87 10000 0.5 0 02:32 29.04.2020
5705 Clouds 11 1006 87 10000 1 0 01:44 29.04.2020
5706 Clouds 11 1006 87 10000 1 0 01:20 29.04.2020
5707 Clouds 11 1006 93 10000 0.5 0 00:39 29.04.2020
5708 Clouds 12 1006 93 10000 0.5 0 00:18 29.04.2020
5709 Clouds 12 1006 87 10000 2.1 260 23:47 28.04.2020
5710 Clouds 13 1006 87 10000 1.5 270 23:22 28.04.2020
5711 Clouds 14 1006 82 10000 2.6 230 22:40 28.04.2020
5712 Clouds 13 1006 82 10000 2.6 230 22:22 28.04.2020
5713 Clouds 13 1006 82 10000 2.6 230 22:22 28.04.2020
5714 Clouds 14 1006 82 10000 2.6 220 21:59 28.04.2020
5715 Clouds 14 1006 82 10000 2.6 220 21:59 28.04.2020
5716 Clouds 14 1006 82 10000 2.1 220 21:41 28.04.2020
5717 Clouds 14 1006 82 10000 2.1 220 21:41 28.04.2020
5718 Clouds 14 1006 77 10000 2.6 210 21:23 28.04.2020
5719 Clouds 14 1006 77 10000 2.6 210 20:59 28.04.2020
5720 Clouds 15 1005 77 10000 2.6 220 20:40 28.04.2020
5721 Clouds 15 1005 77 10000 2.6 220 20:20 28.04.2020
5722 Clouds 15 1005 82 10000 2.1 220 19:57 28.04.2020
5723 Rain 15 1005 72 10000 4.1 250 19:39 28.04.2020
5724 Rain 15 1005 72 10000 5.1 250 19:20 28.04.2020
5725 Rain 15 1005 72 10000 5.1 250 18:57 28.04.2020
5726 Clouds 16 1005 63 10000 5.7 270 18:38 28.04.2020
5727 Clouds 16 1005 63 10000 5.7 270 18:18 28.04.2020
5728 Clouds 18 1005 49 10000 4.6 220 17:37 28.04.2020
5729 Clouds 17 1005 49 10000 4.6 220 17:19 28.04.2020
5730 Clouds 17 1005 49 10000 4.6 220 17:19 28.04.2020
5731 Rain 18 1005 59 10000 4.1 190 16:58 28.04.2020
5732 Rain 18 1005 59 10000 4.1 200 16:39 28.04.2020
5733 Rain 19 1005 59 10000 4.1 200 16:21 28.04.2020
5734 Rain 18 1006 63 0 3.1 200 15:56 28.04.2020
5735 Rain 18 1006 63 10000 5.1 250 15:38 28.04.2020
5736 Rain 17 1006 63 10000 5.1 250 15:20 28.04.2020
5737 Rain 18 1006 59 10000 5.1 230 14:54 28.04.2020
5738 Rain 19 1006 55 10000 3.1 250 14:36 28.04.2020
5739 Rain 19 1006 59 10000 3.1 270 14:18 28.04.2020
5740 Rain 18 1006 59 10000 3.1 270 13:55 28.04.2020
5741 Clouds 19 1006 48 10000 4.6 250 13:36 28.04.2020
5742 Clouds 19 1006 48 10000 4.1 230 13:18 28.04.2020
5743 Clouds 18 1006 55 10000 2.6 190 12:41 28.04.2020
5744 Clouds 17 1006 55 10000 2.6 190 12:22 28.04.2020
5745 Clouds 16 1006 55 10000 2.6 130 11:42 28.04.2020
5746 Clouds 16 1006 55 10000 2.6 130 11:22 28.04.2020
5747 Clouds 16 1006 55 10000 3.1 120 10:57 28.04.2020
5748 Clouds 16 1006 58 10000 2.6 130 10:38 28.04.2020
5749 Clouds 15 1006 62 10000 2.6 170 10:18 28.04.2020
5750 Clouds 15 1006 58 10000 3.1 160 09:43 28.04.2020
5751 Clouds 15 1006 58 10000 3.1 160 09:25 28.04.2020
5752 Clouds 13 1006 66 10000 2.6 150 08:55 28.04.2020
5753 Clouds 13 1006 66 10000 3.1 130 08:36 28.04.2020
5754 Clouds 12 1006 66 10000 3.1 130 08:18 28.04.2020
5755 Clouds 9 1006 87 10000 2.6 100 07:41 28.04.2020
5756 Clear 8 1006 87 10000 2.6 100 07:18 28.04.2020
5757 Clear 8 1006 93 10000 0.5 0 06:40 28.04.2020
5758 Clear 8 1006 87 10000 1.5 110 05:51 28.04.2020
5759 Clear 8 1006 81 10000 2.1 110 05:33 28.04.2020
5760 Clouds 9 1007 76 10000 1.5 100 04:33 28.04.2020
5761 Clouds 9 1007 76 10000 1.5 100 04:33 28.04.2020
5762 Clouds 11 1007 66 10000 3.1 110 02:38 28.04.2020
5763 Clouds 11 1007 66 10000 3.1 100 01:37 28.04.2020
5764 Clouds 11 1007 66 10000 3.1 100 01:18 28.04.2020
5765 Clouds 12 1007 62 10000 2.6 100 00:31 28.04.2020
5766 Clouds 12 1007 58 10000 2.1 100 23:56 27.04.2020
5767 Clouds 12 1007 58 10000 2.6 110 23:38 27.04.2020
5768 Clouds 12 1007 58 10000 2.6 110 23:19 27.04.2020
5769 Clouds 13 1007 50 10000 2.1 90 22:42 27.04.2020
5770 Clear 13 1007 50 10000 2.1 90 22:23 27.04.2020
5771 Clear 14 1007 47 10000 1.5 90 21:57 27.04.2020
5772 Clear 15 1007 44 10000 1 0 21:38 27.04.2020
5773 Clouds 16 1007 37 10000 0.5 30 21:19 27.04.2020
5774 Clouds 17 1007 37 10000 0.5 30 20:56 27.04.2020
5775 Clouds 18 1007 32 10000 2.1 300 20:38 27.04.2020
5776 Clouds 20 1007 30 10000 3.1 250 20:19 27.04.2020
5777 Clouds 20 1007 28 10000 2.1 270 19:40 27.04.2020
5778 Clouds 21 1007 32 10000 1 0 19:22 27.04.2020
5779 Clouds 21 1007 32 10000 1 0 18:59 27.04.2020
5780 Clouds 21 1007 32 10000 2.6 280 18:40 27.04.2020
5781 Rain 21 1008 30 10000 4.6 250 18:19 27.04.2020
5782 Rain 21 1008 30 10000 4.6 250 18:19 27.04.2020
5783 Rain 22 1008 30 10000 4.6 250 17:58 27.04.2020
5784 Rain 22 1008 32 10000 2.6 220 17:39 27.04.2020
5785 Clouds 21 1008 32 10000 3.6 200 17:19 27.04.2020
5786 Clouds 21 1008 30 10000 3.6 170 16:40 27.04.2020
5787 Clouds 21 1008 30 10000 3.6 170 16:22 27.04.2020
5788 Clouds 21 1008 32 10000 6.7 270 15:57 27.04.2020
5789 Rain 21 1009 32 10000 3.6 0 15:38 27.04.2020
5790 Rain 21 1009 32 10000 3.6 0 15:19 27.04.2020
5791 Rain 21 1009 32 10000 2.6 210 14:58 27.04.2020
5792 Rain 21 1009 40 10000 2.6 260 14:39 27.04.2020
5793 Clouds 20 1009 40 10000 2.6 260 14:18 27.04.2020
5794 Clouds 19 1010 39 10000 2.6 0 13:42 27.04.2020
5795 Clouds 19 1010 39 10000 2.6 0 13:22 27.04.2020
5796 Clouds 18 1010 42 10000 2.1 0 12:58 27.04.2020
5797 Clouds 18 1010 42 10000 1 0 12:40 27.04.2020
5798 Clouds 15 1011 51 10000 1.5 80 12:20 27.04.2020
5799 Clouds 15 1011 58 10000 2.1 90 11:41 27.04.2020
5800 Clouds 13 1011 58 10000 2.1 90 11:21 27.04.2020
5801 Clouds 15 1011 58 10000 2.6 110 10:58 27.04.2020
5802 Clouds 15 1011 58 10000 1.5 120 10:39 27.04.2020
5803 Clouds 14 1011 58 10000 1.5 120 10:20 27.04.2020
5804 Clouds 10 1011 70 10000 2.6 140 09:44 27.04.2020
5805 Clouds 9 1011 70 10000 2.6 140 09:21 27.04.2020
5806 Clouds 8 1011 65 10000 1 0 08:59 27.04.2020
5807 Rain 6 1010 70 10000 1.5 0 08:41 27.04.2020
5808 Rain 6 1010 70 10000 1.5 0 08:23 27.04.2020
5809 Clouds 6 1010 52 10000 2.6 100 07:44 27.04.2020
5810 Clouds 5 1010 52 10000 2.1 130 07:21 27.04.2020
5811 Clouds 4 1010 52 10000 2.1 130 06:56 27.04.2020
5812 Clouds 4 1010 52 10000 2.1 130 06:56 27.04.2020
5813 Clouds 5 1010 69 10000 2.1 110 06:27 27.04.2020
5814 Clouds 5 1010 69 10000 2.1 110 06:27 27.04.2020
5815 Clouds 4 1010 69 10000 2.1 100 05:50 27.04.2020
5816 Clouds 4 1010 69 10000 2.1 90 04:49 27.04.2020
5817 Clouds 5 1010 69 10000 2.1 100 03:59 27.04.2020
5818 Clouds 5 1010 69 10000 2.1 100 03:59 27.04.2020
5819 Clouds 5 1010 69 10000 2.1 100 03:35 27.04.2020
5820 Clouds 6 1010 60 10000 1 0 01:41 27.04.2020
5821 Clouds 7 1010 54 10000 0.5 0 00:59 27.04.2020
5822 Clear 7 1010 56 10000 1 50 00:20 27.04.2020
5823 Clear 8 1010 61 10000 0.5 0 23:56 26.04.2020
5824 Clear 8 1010 56 10000 1 0 23:38 26.04.2020
5825 Clear 8 1010 56 10000 1 0 23:19 26.04.2020
5826 Clear 9 1009 53 10000 0.5 0 22:58 26.04.2020
5827 Clear 10 1009 53 10000 1.5 50 22:39 26.04.2020
5828 Clear 10 1009 53 10000 1.5 50 22:39 26.04.2020
5829 Clear 10 1009 53 10000 1.5 50 22:20 26.04.2020
5830 Clear 11 1009 43 10000 2.1 40 21:57 26.04.2020
5831 Clear 12 1009 37 10000 1.5 10 21:38 26.04.2020
5832 Clear 13 1009 37 10000 1.5 10 21:18 26.04.2020
5833 Clear 17 1009 23 10000 2.1 330 20:42 26.04.2020
5834 Clear 17 1009 23 10000 2.1 330 20:23 26.04.2020
5835 Clear 17 1009 23 10000 2.6 310 19:59 26.04.2020
5836 Clear 17 1009 24 10000 2.1 320 19:38 26.04.2020
5837 Clear 18 1009 24 10000 2.1 320 19:20 26.04.2020
5838 Clear 19 1009 22 10000 2.6 320 18:55 26.04.2020
5839 Clear 18 1009 24 10000 2.6 320 18:36 26.04.2020
5840 Clear 19 1009 22 10000 2.6 0 18:18 26.04.2020
5841 Clear 19 1009 24 10000 1 0 17:41 26.04.2020
5842 Clear 19 1009 24 10000 1 0 17:22 26.04.2020
5843 Clear 19 1009 22 10000 3.6 240 16:55 26.04.2020
5844 Clear 19 1009 22 10000 3.6 240 16:55 26.04.2020
5845 Clear 20 1010 20 10000 2.1 0 16:36 26.04.2020
5846 Clear 20 1010 20 10000 2.1 0 16:18 26.04.2020
5847 Clear 20 1010 24 10000 3.1 0 15:54 26.04.2020
5848 Clear 20 1010 24 10000 1.5 0 15:36 26.04.2020
5849 Clear 19 1010 27 10000 2.6 270 15:18 26.04.2020
5850 Clear 18 1010 31 10000 1.5 0 14:40 26.04.2020
5851 Clear 18 1010 31 10000 1.5 0 14:19 26.04.2020
5852 Clear 17 1011 33 10000 3.1 320 13:58 26.04.2020
5853 Clear 17 1011 36 10000 3.1 300 13:38 26.04.2020
5854 Clear 17 1011 36 10000 3.1 300 13:19 26.04.2020
5855 Clear 17 1011 36 10000 3.1 300 13:19 26.04.2020
5856 Clear 16 1011 36 10000 2.6 280 12:54 26.04.2020
5857 Clear 16 1011 38 10000 2.1 280 12:36 26.04.2020
5858 Clear 16 1011 38 10000 2.1 280 12:36 26.04.2020
5859 Clear 15 1011 38 10000 2.1 280 12:18 26.04.2020
5860 Clear 14 1011 38 10000 1.5 0 11:41 26.04.2020
5861 Clear 14 1011 38 10000 1.5 0 11:23 26.04.2020
5862 Clear 13 1012 47 10000 1.5 0 11:23 26.04.2020
5863 Clear 13 1012 47 10000 1.5 0 10:58 26.04.2020
5864 Clear 12 1011 47 10000 1.5 150 10:40 26.04.2020
5865 Clear 12 1011 47 10000 1.5 150 10:40 26.04.2020
5866 Clear 12 1011 47 10000 1.5 150 10:22 26.04.2020
5867 Clear 11 1011 50 10000 1 0 09:57 26.04.2020
5868 Clear 10 1011 57 10000 1 0 09:37 26.04.2020
5869 Clouds 9 1011 57 10000 1 0 09:18 26.04.2020
5870 Clouds 7 1011 65 10000 0.5 0 08:41 26.04.2020
5871 Clouds 6 1011 65 10000 0.5 0 08:20 26.04.2020
5872 Clouds 3 1011 80 10000 0.5 340 07:48 26.04.2020
5873 Clouds 3 1011 80 10000 0.5 340 07:22 26.04.2020
5874 Clouds 2 1011 86 10000 1 0 06:45 26.04.2020
5875 Clouds 2 1011 86 10000 0.5 0 06:18 26.04.2020
5876 Clouds 2 1011 86 10000 1 70 05:45 26.04.2020
5877 Clouds 2 1011 86 10000 1 70 05:25 26.04.2020
5878 Clouds 3 1011 80 10000 1 60 04:24 26.04.2020
5879 Clouds 4 1011 86 10000 0.5 0 03:32 26.04.2020
5880 Clear 5 1011 64 10000 1 40 02:32 26.04.2020
5881 Clear 6 1011 70 10000 0.5 0 01:52 26.04.2020
5882 Clear 6 1011 65 10000 1.98 72 01:27 26.04.2020
5883 Clear 7 1011 65 10000 0.5 0 00:40 26.04.2020
5884 Clear 8 1011 65 10000 0.5 0 00:19 26.04.2020
5885 Clear 9 1011 57 10000 3.1 80 23:39 25.04.2020
5886 Clear 9 1011 57 10000 3.1 80 23:21 25.04.2020
5887 Clear 10 1010 53 10000 3.6 70 22:58 25.04.2020
5888 Clear 10 1010 53 10000 3.1 70 22:40 25.04.2020
5889 Clear 10 1010 50 10000 1.5 20 22:19 25.04.2020
5890 Clear 11 1010 50 10000 1.5 20 21:56 25.04.2020
5891 Clouds 12 1010 43 10000 2.1 10 21:36 25.04.2020
5892 Clouds 13 1009 38 10000 2.6 360 21:18 25.04.2020
5893 Clouds 14 1009 31 10000 2.6 320 20:42 25.04.2020
5894 Clouds 15 1009 31 10000 2.6 320 20:22 25.04.2020
5895 Clouds 15 1009 52 10000 4.6 300 19:56 25.04.2020
5896 Clouds 16 1009 52 10000 3.1 280 19:38 25.04.2020
5897 Clouds 17 1009 29 10000 4.6 330 19:19 25.04.2020
5898 Clouds 17 1010 29 10000 3.1 360 18:42 25.04.2020
5899 Clear 16 1010 29 10000 3.1 360 18:21 25.04.2020
5900 Clear 17 1010 29 10000 3.1 0 17:58 25.04.2020
5901 Clear 17 1010 31 10000 3.1 300 17:39 25.04.2020
5902 Clear 17 1010 33 10000 2.6 350 17:20 25.04.2020
5903 Clear 17 1010 33 10000 2.6 350 16:57 25.04.2020
5904 Clear 17 1010 33 10000 3.6 0 16:38 25.04.2020
5905 Clear 17 1011 28 10000 3.6 0 16:19 25.04.2020
5906 Clear 16 1011 28 10000 2.6 340 15:42 25.04.2020
5907 Clear 16 1011 31 10000 2.6 340 15:21 25.04.2020
5908 Clear 16 1011 31 10000 4.1 270 14:58 25.04.2020
5909 Clear 16 1011 31 10000 4.1 270 14:58 25.04.2020
5910 Clear 16 1011 33 10000 2.6 0 14:39 25.04.2020
5911 Clear 16 1011 33 10000 2.6 0 14:20 25.04.2020
5912 Clear 16 1011 33 10000 2.6 0 14:20 25.04.2020
5913 Clear 15 1012 31 10000 3.6 310 13:54 25.04.2020
5914 Clear 15 1012 41 10000 3.6 300 13:36 25.04.2020
5915 Clear 15 1012 41 10000 4.6 290 13:18 25.04.2020
5916 Clouds 14 1012 43 10000 4.6 300 12:42 25.04.2020
5917 Clouds 13 1012 43 10000 4.6 300 12:21 25.04.2020
5918 Clouds 13 1012 43 10000 3.6 290 11:59 25.04.2020
5919 Clear 12 1012 46 10000 4.6 290 11:41 25.04.2020
5920 Clear 12 1012 46 10000 4.6 290 11:22 25.04.2020
5921 Clear 12 1012 50 10000 4.6 340 10:45 25.04.2020
5922 Clear 12 1012 50 10000 4.6 340 10:26 25.04.2020
5923 Clear 11 1011 50 10000 5.1 350 09:57 25.04.2020
5924 Clear 11 1011 50 10000 5.1 340 09:39 25.04.2020
5925 Clear 11 1011 50 10000 5.1 340 09:21 25.04.2020
5926 Clear 9 1010 70 10000 1.5 290 08:41 25.04.2020
5927 Clear 9 1010 70 10000 1.5 290 08:41 25.04.2020
5928 Clear 9 1010 70 10000 1.5 290 08:22 25.04.2020
5929 Clear 8 1010 70 10000 1 300 07:59 25.04.2020
5930 Clear 6 1010 80 10000 1 350 07:41 25.04.2020
5931 Clear 5 1010 86 10000 1 0 06:57 25.04.2020
5932 Clear 5 1009 86 10000 1 0 06:36 25.04.2020
5933 Clear 6 1009 86 10000 1 360 05:42 25.04.2020
5934 Clear 6 1009 86 10000 1 360 05:24 25.04.2020
5935 Clouds 8 1009 75 10000 1 350 03:29 25.04.2020
5936 Clouds 9 1009 66 10000 1 350 02:36 25.04.2020
5937 Clouds 9 1009 70 10000 2.1 310 01:56 25.04.2020
5938 Clouds 9 1009 66 10000 1.5 320 01:37 25.04.2020
5939 Clouds 10 1008 61 10000 0.5 0 01:18 25.04.2020
5940 Clouds 11 1008 54 10000 1 0 00:38 25.04.2020
5941 Clouds 11 1009 58 10000 1.5 250 23:59 24.04.2020
5942 Clouds 12 1009 50 10000 1.5 240 23:40 24.04.2020
5943 Clouds 12 1009 50 10000 1.5 240 23:20 24.04.2020
5944 Clouds 13 1009 44 10000 1.5 250 22:41 24.04.2020
5945 Clouds 14 1009 44 10000 1.5 250 22:20 24.04.2020
5946 Clouds 15 1009 41 10000 1.5 260 21:58 24.04.2020
5947 Clouds 16 1009 39 10000 2.6 270 21:39 24.04.2020
5948 Clouds 16 1009 39 10000 2.6 270 21:21 24.04.2020
5949 Clouds 17 1008 36 10000 3.6 270 20:56 24.04.2020
5950 Clouds 18 1008 34 10000 4.1 290 20:38 24.04.2020
5951 Clouds 19 1008 34 10000 4.1 290 20:18 24.04.2020
5952 Clouds 19 1009 32 10000 5.1 310 19:43 24.04.2020
5953 Clouds 20 1009 32 10000 5.1 310 19:25 24.04.2020
5954 Clouds 20 1009 30 10000 7.2 290 18:46 24.04.2020
5955 Clouds 20 1009 30 10000 7.2 290 18:28 24.04.2020
5956 Clouds 21 1010 28 10000 8.2 270 17:59 24.04.2020
5957 Clouds 22 1010 30 10000 6.2 290 17:41 24.04.2020
5958 Clouds 22 1010 30 10000 6.2 290 17:22 24.04.2020
5959 Clouds 21 1010 32 10000 6.7 270 16:58 24.04.2020
5960 Clouds 21 1010 32 10000 6.7 270 16:58 24.04.2020
5961 Clouds 22 1010 30 10000 6.2 270 16:40 24.04.2020
5962 Clouds 22 1010 30 10000 6.2 270 16:40 24.04.2020
5963 Clouds 21 1010 26 10000 6.7 260 16:21 24.04.2020
5964 Clouds 21 1010 26 10000 6.7 260 15:55 24.04.2020
5965 Clouds 21 1011 28 10000 7.2 260 15:37 24.04.2020
5966 Clouds 21 1011 28 10000 7.2 260 15:18 24.04.2020
5967 Clouds 21 1011 30 10000 5.1 270 14:40 24.04.2020
5968 Clouds 21 1011 30 10000 5.1 270 14:20 24.04.2020
5969 Clouds 20 1012 32 10000 4.6 300 13:45 24.04.2020
5970 Clouds 20 1012 32 10000 4.6 300 13:27 24.04.2020
5971 Clouds 19 1012 37 10000 2.6 290 12:59 24.04.2020
5972 Clouds 19 1013 39 10000 2.6 290 12:41 24.04.2020
5973 Clouds 19 1013 39 10000 2.6 290 12:21 24.04.2020
5974 Clouds 18 1013 39 10000 2.6 300 11:57 24.04.2020
5975 Clouds 18 1013 39 10000 2.1 290 11:37 24.04.2020
5976 Clouds 17 1013 39 10000 2.1 290 11:18 24.04.2020
5977 Clouds 15 1013 41 10000 1.5 200 10:38 24.04.2020
5978 Clouds 15 1013 41 10000 1.5 200 10:20 24.04.2020
5979 Clouds 13 1013 50 10000 1.5 0 09:58 24.04.2020
5980 Clouds 11 1013 53 10000 2.1 120 09:39 24.04.2020
5981 Clouds 11 1013 53 10000 2.1 120 09:20 24.04.2020
5982 Clouds 8 1014 70 10000 2.1 120 08:43 24.04.2020
5983 Clouds 8 1014 70 10000 2.1 120 08:24 24.04.2020
5984 Clouds 6 1014 70 10000 3.6 100 07:59 24.04.2020
5985 Clouds 5 1014 80 10000 2.6 110 07:41 24.04.2020
5986 Clouds 4 1014 80 10000 2.6 110 07:23 24.04.2020
5987 Clouds 4 1014 57 10000 2.6 110 06:48 24.04.2020
5988 Clouds 4 1014 61 10000 3.6 110 06:30 24.04.2020
5989 Clouds 4 1014 80 10000 3.1 110 05:39 24.04.2020
5990 Clouds 6 1015 70 10000 3.6 100 03:41 24.04.2020
5991 Clear 6 1015 65 10000 2.6 110 02:55 24.04.2020
5992 Clear 6 1016 65 10000 1.5 110 02:37 24.04.2020
5993 Clear 8 1016 61 10000 1.5 130 01:47 24.04.2020
5994 Clear 9 1016 57 10000 2.1 110 00:55 24.04.2020
5995 Clear 9 1016 57 10000 1 0 00:20 24.04.2020
5996 Clear 10 1016 53 10000 0.5 0 23:48 23.04.2020
5997 Clear 10 1017 53 10000 1 0 23:28 23.04.2020
5998 Clear 11 1017 53 10000 1 60 22:58 23.04.2020
5999 Clear 12 1017 53 10000 1.5 100 22:39 23.04.2020
6000 Clear 13 1017 41 10000 1.5 50 22:20 23.04.2020
6001 Clear 13 1017 41 10000 1.5 50 21:57 23.04.2020
6002 Clear 15 1016 36 10000 2.1 50 21:39 23.04.2020
6003 Clear 16 1016 48 10000 2.1 50 21:20 23.04.2020
6004 Clear 16 1016 48 10000 2.1 50 20:57 23.04.2020
6005 Clear 18 1016 48 10000 2.1 40 20:39 23.04.2020
6006 Clear 18 1016 48 10000 2.1 40 20:19 23.04.2020
6007 Clear 19 1016 48 10000 3.1 60 19:56 23.04.2020
6008 Clear 20 1017 22 10000 2.6 50 19:38 23.04.2020
6009 Clear 20 1017 21 10000 2.1 100 19:19 23.04.2020
6010 Clear 20 1017 21 10000 2.1 100 19:19 23.04.2020
6011 Clear 21 1017 21 10000 2.6 130 18:41 23.04.2020
6012 Clear 21 1017 21 10000 2.6 130 18:22 23.04.2020
6013 Clear 21 1017 30 10000 3.1 0 17:58 23.04.2020
6014 Clear 21 1018 21 10000 3.1 90 17:39 23.04.2020
6015 Clear 21 1018 30 10000 3.1 110 17:21 23.04.2020
6016 Clear 21 1018 30 10000 3.1 110 16:55 23.04.2020
6017 Clear 21 1018 24 10000 3.1 0 16:37 23.04.2020
6018 Clear 21 1019 26 10000 4.6 120 16:18 23.04.2020
6019 Clear 21 1019 30 10000 2.6 0 15:41 23.04.2020
6020 Clear 21 1019 30 10000 2.6 0 15:41 23.04.2020
6021 Clear 20 1019 30 10000 2.6 0 15:22 23.04.2020
6022 Clear 20 1019 30 10000 2.1 0 14:56 23.04.2020
6023 Clear 20 1020 24 10000 3.6 60 14:37 23.04.2020
6024 Clear 20 1020 24 10000 3.6 60 14:18 23.04.2020
6025 Clear 19 1020 31 10000 1.5 0 13:40 23.04.2020
6026 Clear 19 1020 31 10000 1.5 0 13:22 23.04.2020
6027 Clear 18 1020 31 10000 3.6 110 12:58 23.04.2020
6028 Clear 18 1020 31 10000 3.1 0 12:40 23.04.2020
6029 Clear 17 1020 31 10000 3.1 0 12:21 23.04.2020
6030 Clear 16 1020 36 10000 4.6 100 11:47 23.04.2020
6031 Clear 16 1020 36 10000 4.6 100 11:28 23.04.2020
6032 Clear 15 1021 38 10000 5.7 110 10:59 23.04.2020
6033 Clear 15 1020 38 10000 3.6 110 10:40 23.04.2020
6034 Clear 14 1020 38 10000 3.6 110 10:20 23.04.2020
6035 Clear 12 1020 39 10000 3.1 60 09:40 23.04.2020
6036 Clear 12 1020 59 10000 3.1 60 09:19 23.04.2020
6037 Clear 10 1020 53 10000 2.1 70 08:51 23.04.2020
6038 Clear 9 1020 53 10000 2.1 70 08:32 23.04.2020
6039 Clear 8 1021 59 10000 1.5 70 07:58 23.04.2020
6040 Clear 7 1021 65 10000 1 0 07:39 23.04.2020
6041 Clear 7 1021 65 10000 1 0 07:21 23.04.2020
6042 Clear 6 1020 59 10000 1.5 330 06:45 23.04.2020
6043 Clear 6 1020 66 10000 1 0 05:54 23.04.2020
6044 Clear 7 1020 66 10000 1.5 330 05:21 23.04.2020
6045 Clear 7 1020 52 10000 2.1 30 03:48 23.04.2020
6046 Clear 9 1019 46 10000 2.1 60 02:23 23.04.2020
6047 Clear 10 1019 40 10000 2.6 80 01:38 23.04.2020
6048 Clear 11 1019 37 10000 3.6 70 00:56 23.04.2020
6049 Clear 12 1019 37 10000 3.6 70 00:28 23.04.2020
6050 Clear 12 1019 37 10000 3.6 70 00:28 23.04.2020
6051 Clear 12 1019 37 10000 3.6 80 23:58 22.04.2020
6052 Clear 13 1019 59 10000 3.1 70 23:40 22.04.2020
6053 Clear 13 1019 59 10000 3.1 70 23:19 22.04.2020
6054 Clear 14 1019 59 10000 3.1 60 22:40 22.04.2020
6055 Clear 14 1019 59 10000 3.1 60 22:20 22.04.2020
6056 Clear 14 1019 38 10000 2.1 40 21:59 22.04.2020
6057 Clear 16 1018 36 10000 3.1 60 21:40 22.04.2020
6058 Clear 15 1018 36 10000 3.1 60 21:21 22.04.2020
6059 Clear 16 1018 33 10000 3.6 60 20:57 22.04.2020
6060 Clear 17 1018 31 10000 5.1 70 20:39 22.04.2020
6061 Clear 17 1017 48 10000 5.1 70 20:18 22.04.2020
6062 Clear 18 1017 48 10000 5.1 70 19:56 22.04.2020
6063 Clear 19 1017 24 10000 5.1 80 19:37 22.04.2020
6064 Clear 19 1017 24 10000 5.7 80 19:18 22.04.2020
6065 Clear 19 1017 24 10000 5.7 80 18:56 22.04.2020
6066 Clear 20 1017 48 10000 6.2 70 18:37 22.04.2020
6067 Clear 20 1017 22 10000 7.2 90 18:19 22.04.2020
6068 Clear 20 1017 34 10000 6.2 70 17:42 22.04.2020
6069 Clear 21 1017 34 10000 6.2 70 17:24 22.04.2020
6070 Clear 21 1017 22 10000 5.7 70 16:56 22.04.2020
6071 Clear 20 1017 21 10000 7.2 80 16:36 22.04.2020
6072 Clear 21 1017 21 10000 7.2 80 16:18 22.04.2020
6073 Clear 20 1018 22 0 5.1 70 15:38 22.04.2020
6074 Clear 20 1018 22 0 5.1 70 15:20 22.04.2020
6075 Clear 19 1018 22 10000 6.7 80 14:56 22.04.2020
6076 Clear 19 1018 22 10000 7.7 80 14:37 22.04.2020
6077 Clear 19 1018 22 10000 7.7 80 14:37 22.04.2020
6078 Clear 19 1018 24 10000 7.7 90 14:19 22.04.2020
6079 Clear 19 1018 22 10000 7.7 80 14:19 22.04.2020
6080 Clear 19 1018 24 10000 7.2 70 13:44 22.04.2020
6081 Clear 19 1018 24 10000 7.2 70 13:20 22.04.2020
6082 Clear 18 1018 27 10000 10.8 90 12:44 22.04.2020
6083 Clear 16 1018 27 10000 10.8 90 12:26 22.04.2020
6084 Clear 16 1018 27 10000 9.8 90 11:59 22.04.2020
6085 Clear 16 1019 30 10000 8.2 80 11:39 22.04.2020
6086 Clear 16 1019 30 10000 8.2 80 11:20 22.04.2020
6087 Clear 16 1019 30 10000 8.2 80 11:20 22.04.2020
6088 Clear 14 1019 33 10000 8.7 90 10:45 22.04.2020
6089 Clear 13 1019 35 10000 6.2 90 10:25 22.04.2020
6090 Clear 13 1019 35 10000 6.2 90 09:56 22.04.2020
6091 Clear 12 1019 37 10000 6.2 90 09:37 22.04.2020
6092 Clear 11 1019 40 10000 5.7 80 09:19 22.04.2020
6093 Clear 10 1018 43 10000 5.7 90 08:42 22.04.2020
6094 Clear 10 1018 43 10000 3.1 80 08:23 22.04.2020
6095 Clear 10 1018 43 10000 3.1 80 08:23 22.04.2020
6096 Clear 9 1018 43 10000 3.1 80 07:58 22.04.2020
6097 Clear 9 1018 45 10000 3.6 80 07:39 22.04.2020
6098 Clear 8 1018 45 10000 3.6 80 07:19 22.04.2020
6099 Clear 8 1018 45 10000 4.1 80 06:42 22.04.2020
6100 Clear 8 1018 45 10000 4.1 90 05:45 22.04.2020
6101 Clear 9 1018 43 10000 6.2 80 04:46 22.04.2020
6102 Clear 10 1018 43 10000 7.2 90 03:40 22.04.2020
6103 Clear 11 1018 40 10000 6.7 80 02:28 22.04.2020
6104 Clear 11 1018 40 10000 6.7 80 02:28 22.04.2020
6105 Clear 11 1018 40 10000 5.1 80 01:41 22.04.2020
6106 Clear 12 1018 40 10000 5.1 80 01:21 22.04.2020
6107 Clear 12 1018 37 10000 6.2 90 00:41 22.04.2020
6108 Clear 12 1018 37 10000 6.2 90 00:20 22.04.2020
6109 Clear 13 1017 35 10000 6.7 80 23:44 21.04.2020
6110 Clear 13 1017 35 10000 6.7 80 23:22 21.04.2020
6111 Clear 13 1017 35 10000 6.2 80 22:58 21.04.2020
6112 Clear 13 1017 35 10000 6.2 70 22:39 21.04.2020
6113 Clear 14 1017 35 10000 6.2 70 22:19 21.04.2020
6114 Clear 14 1017 33 10000 5.1 70 21:43 21.04.2020
6115 Clear 14 1017 33 10000 5.1 70 21:24 21.04.2020
6116 Clear 15 1016 29 10000 6.7 70 20:59 21.04.2020
6117 Clear 15 1016 29 10000 6.7 70 20:59 21.04.2020
6118 Clear 15 1016 27 10000 8.2 80 20:40 21.04.2020
6119 Clear 16 1016 27 10000 8.2 80 20:22 21.04.2020
6120 Clear 16 1016 29 10000 7.2 80 19:56 21.04.2020
6121 Clear 17 1016 27 10000 7.7 80 19:36 21.04.2020
6122 Clear 17 1016 27 10000 7.7 80 19:18 21.04.2020
6123 Clear 18 1016 27 10000 7.7 80 18:54 21.04.2020
6124 Clear 18 1015 25 10000 9.8 90 18:36 21.04.2020
6125 Clear 18 1015 25 10000 9.8 90 18:18 21.04.2020
6126 Clear 18 1015 25 10000 6.7 70 17:39 21.04.2020
6127 Clear 18 1015 25 10000 6.7 70 17:19 21.04.2020
6128 Clear 19 1015 22 10000 7.2 80 16:54 21.04.2020
6129 Clear 19 1015 22 10000 7.2 80 16:36 21.04.2020
6130 Clear 19 1015 22 10000 7.2 80 16:18 21.04.2020
6131 Clear 19 1015 24 10000 8.2 80 15:54 21.04.2020
6132 Clear 19 1015 24 10000 8.2 70 15:36 21.04.2020
6133 Clear 19 1015 24 10000 8.2 70 15:18 21.04.2020
6134 Clear 18 1015 27 10000 7.7 70 14:43 21.04.2020
6135 Clear 18 1015 27 10000 7.7 70 14:23 21.04.2020
6136 Clear 18 1016 25 10000 7.2 70 13:55 21.04.2020
6137 Clear 17 1016 25 10000 9.3 80 13:37 21.04.2020
6138 Clear 17 1015 23 10000 11.3 80 13:18 21.04.2020
6139 Clear 16 1016 26 10000 10.3 80 12:38 21.04.2020
6140 Clear 16 1016 26 10000 10.3 80 12:19 21.04.2020
6141 Clear 16 1016 29 10000 7.7 80 11:57 21.04.2020
6142 Clear 15 1016 30 10000 7.7 80 11:38 21.04.2020
6143 Clear 14 1016 35 10000 8.2 80 11:19 21.04.2020
6144 Clear 13 1016 35 10000 8.2 80 10:58 21.04.2020
6145 Clear 13 1016 35 10000 8.2 80 10:39 21.04.2020
6146 Clear 13 1016 35 10000 8.2 80 10:20 21.04.2020
6147 Clear 12 1016 40 10000 8.2 90 09:55 21.04.2020
6148 Clear 11 1016 40 10000 6.2 90 09:36 21.04.2020
6149 Clear 11 1016 40 10000 6.2 90 09:36 21.04.2020
6150 Clear 10 1016 40 10000 6.2 90 09:18 21.04.2020
6151 Clear 9 1016 42 10000 4.6 70 08:42 21.04.2020
6152 Clear 8 1016 42 10000 4.6 70 08:23 21.04.2020
6153 Clear 8 1016 42 10000 3.6 70 07:49 21.04.2020
6154 Clear 8 1016 42 10000 3.6 70 07:49 21.04.2020
6155 Clear 7 1015 48 10000 4.6 80 07:24 21.04.2020
6156 Clear 7 1015 48 10000 4.6 80 06:50 21.04.2020
6157 Clear 7 1015 48 10000 4.1 80 06:24 21.04.2020
6158 Clear 7 1015 45 10000 3.6 80 05:49 21.04.2020
6159 Clear 8 1016 45 10000 4.6 70 04:54 21.04.2020
6160 Clear 9 1016 45 10000 6.2 80 03:45 21.04.2020
6161 Clear 10 1017 43 10000 5.7 80 01:53 21.04.2020
6162 Clear 10 1017 43 10000 6.2 70 01:29 21.04.2020
6163 Clear 10 1017 40 10000 5.1 60 00:38 21.04.2020
6164 Clear 10 1017 40 10000 5.1 70 23:48 20.04.2020
6165 Clear 11 1017 40 10000 5.1 70 23:26 20.04.2020
6166 Clear 11 1017 34 10000 5.1 70 22:59 20.04.2020
6167 Clear 11 1017 34 10000 5.7 70 22:41 20.04.2020
6168 Clear 11 1017 34 10000 5.7 70 22:21 20.04.2020
6169 Clear 11 1017 34 10000 5.7 70 22:21 20.04.2020
6170 Clear 12 1017 32 10000 5.7 70 21:59 20.04.2020
6171 Clear 12 1016 32 10000 5.1 70 21:39 20.04.2020
6172 Clear 12 1016 32 10000 5.1 70 21:20 20.04.2020
6173 Clear 13 1016 30 10000 6.2 70 20:59 20.04.2020
6174 Clear 13 1016 30 10000 6.7 60 20:40 20.04.2020
6175 Clear 14 1016 30 10000 6.7 60 20:19 20.04.2020
6176 Clear 14 1016 30 10000 8.2 60 19:59 20.04.2020
6177 Clear 14 1016 30 10000 8.2 60 19:59 20.04.2020
6178 Clear 15 1015 29 10000 6.2 70 19:39 20.04.2020
6179 Clear 15 1015 29 10000 6.2 70 19:39 20.04.2020
6180 Clear 16 1015 29 10000 6.2 70 19:19 20.04.2020
6181 Clear 16 1015 31 10000 7.2 70 18:54 20.04.2020
6182 Clear 16 1015 31 10000 7.2 70 18:54 20.04.2020
6183 Rain 17 1015 29 10000 7.7 70 18:36 20.04.2020
6184 Rain 17 1015 29 10000 7.7 70 18:36 20.04.2020
6185 Rain 17 1015 27 10000 8.7 80 18:18 20.04.2020
6186 Rain 17 1015 29 10000 7.7 80 17:40 20.04.2020
6187 Rain 18 1015 27 10000 8.2 70 17:22 20.04.2020
6188 Rain 18 1015 27 10000 8.2 70 16:59 20.04.2020
6189 Rain 18 1016 29 10000 7.2 70 16:40 20.04.2020
6190 Rain 17 1016 29 10000 7.2 70 16:19 20.04.2020
6191 Rain 18 1016 27 10000 8.2 80 15:45 20.04.2020
6192 Clear 17 1016 25 10000 7.7 70 15:25 20.04.2020
6193 Rain 17 1016 25 10000 7.7 70 14:59 20.04.2020
6194 Rain 17 1016 26 10000 8.2 60 14:40 20.04.2020
6195 Rain 17 1016 26 10000 8.2 60 14:19 20.04.2020
6196 Clear 16 1017 25 10000 7.2 70 13:56 20.04.2020
6197 Clear 16 1017 25 10000 7.2 70 13:56 20.04.2020
6198 Clear 16 1017 25 10000 7.2 70 13:56 20.04.2020
6199 Clear 16 1017 26 10000 6.7 80 13:37 20.04.2020
6200 Clear 15 1017 30 10000 8.2 70 13:19 20.04.2020
6201 Clear 14 1017 30 10000 8.2 70 12:43 20.04.2020
6202 Clear 14 1017 32 10000 7.7 70 12:22 20.04.2020
6203 Clear 14 1017 32 10000 6.7 70 11:43 20.04.2020
6204 Clear 13 1017 32 10000 6.7 70 11:23 20.04.2020
6205 Clear 12 1017 34 10000 7.2 80 10:57 20.04.2020
6206 Clear 11 1018 34 10000 7.7 80 10:39 20.04.2020
6207 Clear 12 1018 34 10000 7.7 80 10:20 20.04.2020
6208 Clear 11 1018 39 10000 7.2 80 09:59 20.04.2020
6209 Clear 9 1018 42 10000 6.7 70 09:40 20.04.2020
6210 Clear 9 1018 42 10000 6.7 70 09:21 20.04.2020
6211 Clear 8 1018 45 10000 5.1 70 08:42 20.04.2020
6212 Clear 7 1018 45 10000 5.1 70 08:23 20.04.2020
6213 Clear 7 1018 48 10000 4.1 70 07:56 20.04.2020
6214 Clear 6 1018 56 10000 4.6 70 07:37 20.04.2020
6215 Clear 6 1018 56 10000 3.6 70 07:19 20.04.2020
6216 Clear 6 1018 56 10000 3.6 70 07:19 20.04.2020
6217 Clear 6 1018 56 10000 3.6 60 06:37 20.04.2020
6218 Clear 7 1018 56 10000 4.1 60 05:48 20.04.2020
6219 Clear 7 1018 52 10000 4.6 70 04:33 20.04.2020
6220 Clear 8 1018 65 10000 2.6 50 02:47 20.04.2020
6221 Clear 8 1018 65 10000 2.6 50 02:19 20.04.2020
6222 Clear 9 1018 61 10000 2.1 60 01:29 20.04.2020
6223 Clear 9 1018 65 10000 1.5 30 00:42 20.04.2020
6224 Clear 9 1018 65 10000 1.5 30 00:20 20.04.2020
6225 Clear 10 1018 57 10000 1.5 20 23:39 19.04.2020
6226 Clear 10 1018 57 10000 1.5 20 23:21 19.04.2020
6227 Clear 11 1018 53 10000 1.5 40 22:55 19.04.2020
6228 Clear 11 1017 50 10000 2.1 60 22:36 19.04.2020
6229 Clear 11 1017 50 10000 3.1 70 22:18 19.04.2020
6230 Clear 12 1017 54 10000 3.1 60 21:42 19.04.2020
6231 Clouds 12 1017 54 10000 3.1 60 21:23 19.04.2020
6232 Clouds 13 1017 50 10000 2.6 50 20:56 19.04.2020
6233 Clouds 13 1016 47 10000 3.6 60 20:38 19.04.2020
6234 Clouds 14 1016 47 10000 3.6 60 20:20 19.04.2020
6235 Clouds 15 1016 44 10000 4.6 70 19:56 19.04.2020
6236 Clouds 15 1016 44 10000 4.6 70 19:37 19.04.2020
6237 Clouds 15 1016 44 10000 4.6 70 19:19 19.04.2020
6238 Clouds 16 1016 58 10000 5.7 40 18:54 19.04.2020
6239 Clouds 16 1016 58 10000 5.7 40 18:36 19.04.2020
6240 Clouds 16 1016 55 10000 6.2 60 18:18 19.04.2020
6241 Clouds 17 1016 55 10000 6.2 60 17:54 19.04.2020
6242 Clouds 17 1015 48 10000 5.7 30 17:36 19.04.2020
6243 Clouds 17 1015 48 10000 5.7 30 17:36 19.04.2020
6244 Clouds 17 1015 48 10000 5.7 30 17:18 19.04.2020
6245 Clouds 17 1016 51 10000 5.7 50 16:39 19.04.2020
6246 Clouds 17 1016 51 10000 5.7 50 16:21 19.04.2020
6247 Clouds 17 1016 51 10000 5.7 50 15:57 19.04.2020
6248 Clouds 17 1016 59 10000 6.7 40 15:39 19.04.2020
6249 Clouds 17 1016 51 10000 4.6 20 15:18 19.04.2020
6250 Clouds 17 1016 51 10000 3.6 30 14:39 19.04.2020
6251 Clouds 17 1016 51 10000 3.6 80 14:20 19.04.2020
6252 Clouds 17 1016 51 10000 3.6 80 13:56 19.04.2020
6253 Clouds 17 1016 55 10000 5.1 110 13:36 19.04.2020
6254 Clouds 17 1016 55 10000 5.1 110 13:18 19.04.2020
6255 Clouds 15 1017 71 10000 3.6 60 12:43 19.04.2020
6256 Clouds 15 1017 71 10000 3.6 60 12:24 19.04.2020
6257 Clouds 14 1016 71 10000 2.1 20 11:39 19.04.2020
6258 Clouds 14 1016 76 10000 2.1 120 11:20 19.04.2020
6259 Clouds 14 1016 76 10000 2.1 120 10:59 19.04.2020
6260 Clouds 14 1016 82 10000 2.1 70 10:41 19.04.2020
6261 Clouds 13 1016 76 10000 4.1 30 10:20 19.04.2020
6262 Clouds 13 1016 76 10000 4.1 30 09:55 19.04.2020
6263 Clouds 13 1015 82 8000 2.1 50 09:36 19.04.2020
6264 Clouds 13 1015 82 8000 2.1 50 09:18 19.04.2020
6265 Mist 12 1015 93 4000 1.5 320 08:39 19.04.2020
6266 Mist 12 1015 93 4000 1.5 320 08:20 19.04.2020
6267 Clouds 11 1015 93 10000 1 0 07:45 19.04.2020
6268 Clouds 11 1015 93 10000 1 0 07:25 19.04.2020
6269 Clouds 10 1015 93 10000 1 220 06:55 19.04.2020
6270 Rain 10 1015 93 10000 0.5 330 06:19 19.04.2020
6271 Rain 10 1014 93 10000 1 70 04:56 19.04.2020
6272 Rain 11 1014 87 10000 1 330 03:34 19.04.2020
6273 Rain 12 1014 81 10000 1.5 180 02:22 19.04.2020
6274 Rain 13 1014 82 10000 1.5 260 01:39 19.04.2020
6275 Rain 13 1014 82 10000 1.5 260 01:21 19.04.2020
6276 Clouds 14 1014 72 10000 4.1 30 00:40 19.04.2020
6277 Clouds 15 1014 72 10000 4.1 30 00:19 19.04.2020
6278 Clouds 16 1014 63 10000 2.6 130 23:41 18.04.2020
6279 Clouds 16 1014 63 10000 2.6 130 23:19 18.04.2020
6280 Clouds 15 1014 59 10000 2.6 100 22:43 18.04.2020
6281 Clouds 15 1014 59 10000 2.6 100 22:24 18.04.2020
6282 Rain 17 1014 55 10000 2.1 120 21:58 18.04.2020
6283 Rain 17 1014 55 10000 2.1 120 21:39 18.04.2020
6284 Rain 17 1014 55 10000 2.1 120 21:21 18.04.2020
6285 Rain 17 1013 52 10000 1.5 70 20:58 18.04.2020
6286 Rain 18 1013 45 10000 1 20 20:40 18.04.2020
6287 Rain 19 1013 45 10000 1 20 20:18 18.04.2020
6288 Rain 20 1014 40 10000 2.1 330 19:40 18.04.2020
6289 Rain 21 1014 40 10000 2.1 330 19:22 18.04.2020
6290 Rain 22 1014 40 10000 1.5 0 18:39 18.04.2020
6291 Rain 22 1014 40 10000 1.5 0 18:20 18.04.2020
6292 Rain 22 1014 38 10000 2.1 280 17:57 18.04.2020
6293 Rain 22 1014 40 10000 1.5 0 17:39 18.04.2020
6294 Rain 22 1014 40 10000 1.5 0 17:18 18.04.2020
6295 Clouds 22 1014 40 10000 1 0 16:43 18.04.2020
6296 Clouds 22 1015 36 10000 2.1 0 16:22 18.04.2020
6297 Clouds 22 1015 36 10000 2.1 0 15:55 18.04.2020
6298 Clouds 21 1015 37 10000 2.1 0 15:37 18.04.2020
6299 Clouds 21 1015 43 10000 2.1 0 15:19 18.04.2020
6300 Clouds 20 1015 43 10000 1.5 320 14:44 18.04.2020
6301 Clouds 19 1016 48 10000 2.1 90 14:20 18.04.2020
6302 Clouds 18 1016 52 10000 1.5 90 13:43 18.04.2020
6303 Clouds 18 1016 52 10000 1.5 90 13:21 18.04.2020
6304 Rain 18 1016 48 10000 2.1 250 12:44 18.04.2020
6305 Clouds 18 1016 48 10000 2.1 250 12:26 18.04.2020
6306 Clouds 18 1016 42 10000 1 0 11:59 18.04.2020
6307 Clouds 18 1016 45 10000 1 0 11:40 18.04.2020
6308 Clouds 18 1016 45 10000 1 0 11:22 18.04.2020
6309 Clouds 18 1016 48 10000 1 0 10:56 18.04.2020
6310 Clouds 17 1016 48 10000 1.5 140 10:36 18.04.2020
6311 Clouds 16 1016 48 10000 1.5 140 10:18 18.04.2020
6312 Clouds 14 1016 66 10000 1 0 09:41 18.04.2020
6313 Clouds 13 1016 62 10000 0.5 0 09:21 18.04.2020
6314 Clouds 12 1016 71 10000 0.5 0 08:43 18.04.2020
6315 Clouds 11 1016 71 10000 0.5 0 08:23 18.04.2020
6316 Clouds 9 1015 81 10000 1 320 07:49 18.04.2020
6317 Clouds 8 1015 81 10000 1 360 07:30 18.04.2020
6318 Clouds 8 1015 87 10000 1 90 06:50 18.04.2020
6319 Clouds 8 1015 81 10000 1 50 05:50 18.04.2020
6320 Clouds 9 1014 81 10000 1 100 04:57 18.04.2020
6321 Clouds 9 1015 81 10000 1.5 20 04:32 18.04.2020
6322 Clouds 9 1015 81 10000 1.5 20 04:32 18.04.2020
6323 Clouds 10 1015 81 10000 0.5 0 03:43 18.04.2020
6324 Rain 11 1015 76 10000 1 350 02:42 18.04.2020
6325 Clouds 11 1015 76 10000 1 350 02:21 18.04.2020
6326 Clouds 11 1015 76 10000 1 350 02:21 18.04.2020
6327 Clouds 11 1015 76 10000 1 350 02:21 18.04.2020
6328 Clouds 11 1015 71 10000 0.5 0 01:48 18.04.2020
6329 Clouds 12 1015 71 10000 1 300 01:27 18.04.2020
6330 Clouds 13 1015 71 10000 1.5 330 00:38 18.04.2020
6331 Rain 13 1014 58 10000 2.1 70 00:18 18.04.2020
6332 Rain 14 1014 54 10000 1.5 70 23:41 17.04.2020
6333 Rain 14 1014 54 10000 1.5 70 23:20 17.04.2020
6334 -273 0 0 0 0 0 22:59 17.04.2020
6335 Rain 15 1014 51 10000 1.5 100 22:40 17.04.2020
6336 Rain 15 1014 51 10000 1.5 100 22:20 17.04.2020
6337 Rain 16 1014 51 10000 1 80 21:58 17.04.2020
6338 Rain 17 1014 45 10000 1.5 30 21:39 17.04.2020
6339 Rain 18 1014 42 10000 1 310 21:19 17.04.2020
6340 Rain 18 1014 42 10000 1 310 20:55 17.04.2020
6341 Rain 20 1014 40 10000 1.5 320 20:36 17.04.2020
6342 Rain 21 1014 35 10000 2.6 320 20:18 17.04.2020
6343 Rain 22 1013 33 10000 3.1 310 19:46 17.04.2020
6344 Rain 22 1013 33 10000 3.1 310 19:24 17.04.2020
6345 Rain 23 1013 29 10000 3.6 290 18:55 17.04.2020
6346 Rain 23 1013 29 10000 3.6 290 18:36 17.04.2020
6347 Clouds 24 1013 31 10000 4.1 290 18:18 17.04.2020
6348 Clouds 24 1014 29 10000 3.6 330 17:38 17.04.2020
6349 Clouds 24 1014 29 10000 3.6 330 17:19 17.04.2020
6350 Clouds 23 1014 33 10000 3.1 300 16:44 17.04.2020
6351 Clouds 23 1014 33 10000 3.1 300 16:24 17.04.2020
6352 Clouds 24 1014 31 10000 2.6 330 15:59 17.04.2020
6353 Clouds 23 1014 33 10000 2.6 340 15:39 17.04.2020
6354 Clouds 23 1014 33 10000 2.6 340 15:20 17.04.2020
6355 Clouds 23 1015 33 10000 2.1 0 14:42 17.04.2020
6356 Rain 23 1015 33 10000 2.1 0 14:23 17.04.2020
6357 Rain 23 1015 33 10000 3.1 290 13:58 17.04.2020
6358 Rain 23 1015 28 10000 2.1 0 13:39 17.04.2020
6359 Rain 23 1015 28 10000 2.1 0 13:20 17.04.2020
6360 Rain 22 1016 33 10000 1.5 0 12:48 17.04.2020
6361 Clouds 21 1016 33 10000 1.5 0 12:26 17.04.2020
6362 Clear 20 1017 37 10000 2.1 250 11:58 17.04.2020
6363 Clouds 20 1016 37 10000 1 0 11:37 17.04.2020
6364 Clouds 18 1016 39 10000 1 0 11:18 17.04.2020
6365 Clouds 17 1016 45 10000 1 0 10:40 17.04.2020
6366 Clouds 16 1016 45 10000 1 0 10:19 17.04.2020
6367 Clouds 14 1016 51 10000 1.5 130 09:55 17.04.2020
6368 Clouds 13 1016 58 10000 1.5 80 09:36 17.04.2020
6369 Clouds 12 1016 58 10000 1.5 80 09:18 17.04.2020
6370 Clouds 10 1016 66 10000 2.1 90 08:45 17.04.2020
6371 Clouds 9 1016 70 10000 2.6 100 08:25 17.04.2020
6372 Clouds 8 1016 75 10000 2.6 150 07:44 17.04.2020
6373 Clouds 8 1016 70 10000 2.6 100 07:25 17.04.2020
6374 Clouds 7 1016 75 10000 3.1 110 06:57 17.04.2020
6375 Clouds 7 1016 70 10000 3.1 100 06:27 17.04.2020
6376 Clouds 8 1016 66 10000 3.1 100 05:38 17.04.2020
6377 Clear 8 1016 66 10000 3.6 100 03:22 17.04.2020
6378 Clear 8 1016 66 10000 3.6 100 03:22 17.04.2020
6379 Clear 8 1016 70 10000 3.1 110 02:37 17.04.2020
6380 Clouds 9 1016 57 10000 3.6 100 01:30 17.04.2020
6381 Clouds 9 1016 61 10000 3.1 100 00:59 17.04.2020
6382 Clear 10 1016 61 10000 1 110 00:20 17.04.2020
6383 Clear 11 1016 62 10000 1.5 100 23:46 16.04.2020
6384 Clear 12 1016 54 10000 1 100 23:23 16.04.2020
6385 Clear 12 1016 47 10000 1 0 22:58 16.04.2020
6386 Clear 13 1016 47 10000 1 0 22:39 16.04.2020
6387 Clear 13 1016 47 10000 1 0 22:20 16.04.2020
6388 Clear 15 1015 42 10000 1.5 210 21:56 16.04.2020
6389 Clouds 15 1015 39 10000 1.5 240 21:37 16.04.2020
6390 Clouds 16 1015 39 10000 1.5 240 21:18 16.04.2020
6391 Clouds 18 1015 37 10000 2.1 240 20:40 16.04.2020
6392 Clouds 18 1015 32 10000 2.1 250 20:22 16.04.2020
6393 Clouds 20 1015 32 10000 2.1 280 19:56 16.04.2020
6394 Clouds 21 1015 28 10000 4.6 270 19:37 16.04.2020
6395 Clouds 21 1015 28 10000 4.6 270 19:19 16.04.2020
6396 Clouds 21 1015 26 10000 5.1 280 18:45 16.04.2020
6397 Clouds 22 1015 25 10000 3.6 280 18:26 16.04.2020
6398 Clouds 22 1015 25 10000 4.1 300 17:58 16.04.2020
6399 Clouds 22 1015 25 10000 4.1 300 17:39 16.04.2020
6400 Clouds 22 1016 23 10000 4.1 280 17:20 16.04.2020
6401 Clouds 22 1016 47 10000 4.1 270 16:44 16.04.2020
6402 Clouds 22 1016 23 10000 4.1 270 16:26 16.04.2020
6403 Clouds 22 1017 47 10000 5.7 270 15:55 16.04.2020
6404 Clouds 22 1017 47 10000 5.7 270 15:36 16.04.2020
6405 Clouds 22 1017 24 10000 2.6 0 15:18 16.04.2020
6406 Clouds 21 1017 24 10000 3.6 270 14:45 16.04.2020
6407 Clouds 21 1018 33 10000 2.6 290 14:25 16.04.2020
6408 Clouds 21 1018 22 10000 1.5 0 13:59 16.04.2020
6409 Clouds 21 1018 22 10000 1.5 0 13:40 16.04.2020
6410 Clouds 21 1018 22 10000 1.5 0 13:40 16.04.2020
6411 Clouds 20 1018 22 10000 2.1 170 13:21 16.04.2020
6412 Clouds 19 1018 22 10000 2.6 180 12:58 16.04.2020
6413 Clouds 19 1018 22 10000 2.6 180 12:39 16.04.2020
6414 Clouds 18 1018 23 10000 2.6 180 12:19 16.04.2020
6415 Clouds 17 1019 23 10000 2.6 200 11:57 16.04.2020
6416 Clouds 16 1019 23 10000 2.6 200 11:38 16.04.2020
6417 Clouds 16 1019 29 10000 2.1 190 11:20 16.04.2020
6418 Clouds 14 1019 33 10000 2.1 160 10:55 16.04.2020
6419 Clouds 13 1019 37 10000 2.1 110 10:36 16.04.2020
6420 Clouds 12 1019 37 10000 2.1 110 10:18 16.04.2020
6421 Clouds 10 1020 37 10000 1.5 110 09:39 16.04.2020
6422 Clouds 8 1020 56 10000 2.1 130 09:20 16.04.2020
6423 Clouds 6 1020 56 10000 2.1 140 08:56 16.04.2020
6424 Clouds 5 1020 56 10000 2.1 140 08:36 16.04.2020
6425 Clouds 5 1020 56 10000 1.5 110 08:18 16.04.2020
6426 Clouds 5 1020 56 10000 1.5 110 08:18 16.04.2020
6427 Clouds 4 1020 80 10000 2.6 110 07:42 16.04.2020
6428 Clouds 3 1020 56 10000 2.6 110 07:20 16.04.2020
6429 Clouds 2 1020 80 10000 1.5 100 06:41 16.04.2020
6430 Clouds 2 1020 86 10000 1.5 110 06:22 16.04.2020
6431 Clouds 3 1020 80 10000 1.5 110 04:53 16.04.2020
6432 Clouds 3 1021 74 10000 1.5 100 03:28 16.04.2020
6433 Clouds 4 1021 65 10000 2.6 90 02:59 16.04.2020
6434 Clouds 4 1021 65 10000 2.6 90 02:36 16.04.2020
6435 Clouds 5 1021 69 10000 1.5 150 01:28 16.04.2020
6436 Clouds 5 1021 65 10000 2.1 100 00:53 16.04.2020
6437 Clear 6 1021 65 10000 1.5 80 00:21 16.04.2020
6438 Clear 6 1021 65 10000 1.5 80 00:21 16.04.2020
6439 Clear 6 1021 56 10000 2.1 130 23:54 15.04.2020
6440 Clear 6 1021 56 10000 2.1 130 23:36 15.04.2020
6441 Clear 7 1021 56 10000 2.1 100 23:18 15.04.2020
6442 Clear 8 1021 56 10000 1 0 22:38 15.04.2020
6443 Clear 8 1022 49 10000 1 0 22:20 15.04.2020
6444 Clear 9 1022 40 10000 1 90 21:55 15.04.2020
6445 Clear 10 1022 40 10000 1 90 21:37 15.04.2020
6446 Clouds 11 1022 37 10000 1 30 21:18 15.04.2020
6447 Clouds 13 1021 33 10000 1.5 30 20:54 15.04.2020
6448 Clouds 13 1021 33 10000 1.5 30 20:36 15.04.2020
6449 Clouds 14 1022 29 10000 2.1 10 20:18 15.04.2020
6450 Clear 15 1022 30 10000 0.62 30 19:40 15.04.2020
6451 Clouds 16 1022 23 10000 0.5 0 19:20 15.04.2020
6452 Clouds 17 1022 25 10000 2.1 270 18:41 15.04.2020
6453 Clouds 16 1022 25 10000 2.1 270 18:23 15.04.2020
6454 Clouds 16 1022 25 10000 1.5 0 17:58 15.04.2020
6455 Clouds 16 1022 25 10000 1.5 0 17:39 15.04.2020
6456 Clouds 17 1023 23 10000 1.5 100 17:20 15.04.2020
6457 Clouds 16 1023 21 10000 1.5 0 16:56 15.04.2020
6458 Clouds 16 1023 21 10000 1.5 0 16:37 15.04.2020
6459 Clouds 16 1023 23 10000 1 120 16:19 15.04.2020
6460 Clouds 16 1024 25 10000 1 0 15:56 15.04.2020
6461 Clouds 15 1024 25 10000 1 0 15:38 15.04.2020
6462 Clouds 15 1024 24 10000 1.5 0 15:19 15.04.2020
6463 Clouds 14 1024 26 10000 1.5 0 14:55 15.04.2020
6464 Clouds 14 1024 26 10000 1.5 0 14:55 15.04.2020
6465 Clouds 14 1024 26 10000 1.5 0 14:37 15.04.2020
6466 Clouds 14 1024 26 10000 1.5 0 14:19 15.04.2020
6467 Clouds 13 1025 28 10000 1 0 13:56 15.04.2020
6468 Clouds 13 1025 28 10000 1 0 13:36 15.04.2020
6469 Clouds 12 1025 32 10000 2.1 0 13:18 15.04.2020
6470 Clouds 11 1025 32 10000 2.1 0 12:42 15.04.2020
6471 Clouds 11 1025 32 10000 2.1 0 12:23 15.04.2020
6472 Clouds 10 1026 34 10000 1.5 0 11:58 15.04.2020
6473 Clouds 9 1026 34 10000 1.5 0 11:39 15.04.2020
6474 Clouds 9 1026 36 10000 2.1 220 11:21 15.04.2020
6475 Clouds 7 1026 39 10000 2.1 0 10:39 15.04.2020
6476 Clouds 6 1026 45 10000 1 0 10:20 15.04.2020
6477 Clouds 5 1026 52 10000 1.5 0 09:57 15.04.2020
6478 Clouds 4 1026 52 10000 1.5 0 09:39 15.04.2020
6479 Clear 3 1026 55 10000 2.1 140 09:20 15.04.2020
6480 Clear 1 1026 69 10000 1.5 100 08:55 15.04.2020
6481 Clear 1 1026 69 10000 1.5 100 08:37 15.04.2020
6482 Clear 0 1026 61 10000 1 0 08:37 15.04.2020
6483 Clear 0 1026 61 10000 1 0 08:18 15.04.2020
6484 Clear -1 1025 74 10000 2.1 110 07:46 15.04.2020
6485 Clear -2 1025 79 10000 3.1 100 07:28 15.04.2020
6486 Clear -2 1024 79 10000 2.6 110 06:32 15.04.2020
6487 Clear -2 1025 74 10000 3.6 110 05:50 15.04.2020
6488 Clear -2 1024 74 10000 3.6 110 04:48 15.04.2020
6489 Clear -1 1025 74 10000 3.1 100 04:23 15.04.2020
6490 Clear -1 1025 68 10000 3.6 100 03:23 15.04.2020
6491 Clear -1 1025 74 10000 4.1 100 02:50 15.04.2020
6492 Clear -1 1025 68 10000 4.1 100 01:53 15.04.2020
6493 Clear 0 1025 68 10000 2.6 100 01:25 15.04.2020
6494 Clear 0 1025 68 10000 2.1 90 00:51 15.04.2020
6495 Clear 0 1025 66 10000 2.6 100 00:29 15.04.2020
6496 Clear 0 1025 66 10000 1 0 23:57 14.04.2020
6497 Clear 1 1025 66 10000 1 0 23:38 14.04.2020
6498 Clear 2 1025 59 10000 1.5 140 23:20 14.04.2020
6499 Clear 2 1025 51 10000 0.5 0 22:58 14.04.2020
6500 Clear 3 1025 51 10000 0.5 0 22:39 14.04.2020
6501 Clear 3 1025 51 10000 1 0 22:21 14.04.2020
6502 Clear 4 1025 48 10000 1.5 230 21:57 14.04.2020
6503 Clear 4 1025 48 10000 1.5 230 21:39 14.04.2020
6504 Clouds 5 1025 48 10000 1.5 250 21:19 14.04.2020
6505 Clouds 6 1024 39 10000 2.1 240 20:58 14.04.2020
6506 Clouds 6 1024 39 10000 2.1 240 20:39 14.04.2020
6507 Clouds 7 1024 36 10000 2.6 260 20:20 14.04.2020
6508 Clouds 8 1024 33 10000 2.1 250 19:41 14.04.2020
6509 Clouds 9 1024 31 10000 1.5 240 19:22 14.04.2020
6510 Clouds 8 1024 34 10000 3.1 250 18:58 14.04.2020
6511 Clouds 9 1024 34 10000 3.1 250 18:39 14.04.2020
6512 Clouds 9 1024 31 10000 3.1 280 18:21 14.04.2020
6513 Clouds 9 1024 31 10000 4.1 320 17:58 14.04.2020
6514 Clouds 9 1024 31 10000 4.1 320 17:38 14.04.2020
6515 Clouds 9 1024 34 10000 3.6 290 17:19 14.04.2020
6516 Clouds 9 1024 34 10000 4.6 300 16:56 14.04.2020
6517 Clouds 9 1024 34 10000 4.6 300 16:37 14.04.2020
6518 Clouds 8 1024 34 10000 2.6 0 16:19 14.04.2020
6519 Clouds 8 1024 36 10000 3.6 0 15:42 14.04.2020
6520 Clouds 7 1024 33 10000 3.1 330 15:23 14.04.2020
6521 Clouds 7 1024 36 10000 4.1 340 14:59 14.04.2020
6522 Clouds 7 1024 36 10000 4.1 340 14:41 14.04.2020
6523 Clouds 7 1024 36 10000 3.1 350 14:22 14.04.2020
6524 Clouds 7 1024 39 10000 3.1 320 13:58 14.04.2020
6525 Clouds 7 1024 39 10000 3.1 320 13:40 14.04.2020
6526 Clouds 7 1024 38 10000 4.1 320 13:21 14.04.2020
6527 Clouds 6 1024 41 10000 4.1 350 12:42 14.04.2020
6528 Clear 6 1024 39 10000 4.1 350 12:22 14.04.2020
6529 Clouds 5 1023 48 10000 3.6 330 11:57 14.04.2020
6530 Clouds 5 1023 48 10000 3.6 330 11:38 14.04.2020
6531 Clouds 5 1023 48 10000 4.1 360 11:19 14.04.2020
6532 Clouds 5 1023 56 10000 4.1 340 10:46 14.04.2020
6533 Clouds 4 1023 60 10000 4.6 330 10:27 14.04.2020
6534 Clear 4 1023 64 10000 4.1 320 09:58 14.04.2020
6535 Clouds 3 1023 64 10000 4.1 320 09:40 14.04.2020
6536 Clear 3 1023 64 10000 4.1 320 09:22 14.04.2020
6537 Clear 1 1022 59 10000 3.6 300 08:42 14.04.2020
6538 Clear 0 1022 74 10000 0.5 0 08:24 14.04.2020
6539 Clear -1 1022 79 10000 0.5 0 07:56 14.04.2020
6540 Clear -1 1022 79 10000 0.5 0 07:32 14.04.2020
6541 Clear -2 1021 86 10000 1.5 330 06:57 14.04.2020
6542 Clear -1 1021 92 10000 1 280 06:33 14.04.2020
6543 Clear -1 1021 74 10000 1 0 04:48 14.04.2020
6544 Clouds 1 1020 92 10000 1 350 03:00 14.04.2020
6545 Clouds 1 1020 86 10000 0.5 0 02:18 14.04.2020
6546 Clouds 1 1020 72 10000 1 320 01:25 14.04.2020
6547 Clouds 3 1020 86 10000 1.5 350 00:39 14.04.2020
6548 Clouds 3 1019 69 10000 0.5 0 00:19 14.04.2020
6549 Clouds 3 1019 69 10000 0.5 0 23:45 13.04.2020
6550 Clouds 4 1019 63 10000 1.5 340 23:26 13.04.2020
6551 Clouds 4 1019 63 10000 1.5 340 22:59 13.04.2020
6552 Clouds 4 1019 63 10000 1.5 340 22:41 13.04.2020
6553 Clouds 5 1018 75 10000 2.1 350 22:22 13.04.2020
6554 Clouds 5 1018 80 10000 1.5 10 21:57 13.04.2020
6555 Clouds 5 1018 80 10000 1.5 10 21:37 13.04.2020
6556 Clouds 5 1017 93 10000 1.5 350 21:19 13.04.2020
6557 Clouds 6 1017 87 10000 1 0 20:56 13.04.2020
6558 Clouds 6 1017 87 10000 1 0 20:38 13.04.2020
6559 Clouds 7 1016 81 10000 1 0 20:18 13.04.2020
6560 Clouds 8 1016 81 10000 4.1 350 19:39 13.04.2020
6561 Clouds 8 1016 81 10000 4.1 350 19:20 13.04.2020
6562 Clouds 8 1016 81 10000 4.1 330 19:00 13.04.2020
6563 Clouds 8 1016 81 10000 4.1 330 18:39 13.04.2020
6564 Clouds 8 1016 87 10000 5.1 330 18:20 13.04.2020
6565 Rain 8 1016 87 10000 6.2 340 17:59 13.04.2020
6566 Rain 8 1016 87 10000 6.2 340 17:39 13.04.2020
6567 Rain 8 1016 81 10000 7.7 340 17:20 13.04.2020
6568 Rain 8 1016 81 10000 7.7 340 17:20 13.04.2020
6569 Rain 8 1016 81 10000 7.7 340 17:20 13.04.2020
6570 Clouds 9 1015 87 10000 5.7 330 16:59 13.04.2020
6571 Clouds 9 1015 87 10000 5.7 330 16:41 13.04.2020
6572 Rain 11 1015 87 10000 8.2 330 16:21 13.04.2020
6573 Rain 11 1015 71 10000 9.8 330 15:59 13.04.2020
6574 Rain 12 1015 71 10000 9.8 330 15:41 13.04.2020
6575 Rain 14 1014 71 10000 7.2 340 15:23 13.04.2020
6576 Rain 13 1014 71 10000 8.7 330 14:56 13.04.2020
6577 Rain 13 1014 71 10000 8.7 330 14:38 13.04.2020
6578 Rain 15 1013 67 10000 8.2 290 14:20 13.04.2020
6579 Rain 15 1013 48 10000 9.3 270 13:55 13.04.2020
6580 Rain 15 1013 48 10000 9.3 270 13:55 13.04.2020
6581 Rain 16 1013 48 10000 9.3 270 13:37 13.04.2020
6582 Rain 17 1013 42 10000 6.2 310 13:18 13.04.2020
6583 Rain 17 1013 39 10000 3.6 270 12:56 13.04.2020
6584 Rain 18 1013 39 10000 3.6 270 12:38 13.04.2020
6585 Rain 18 1013 39 10000 4.1 300 12:19 13.04.2020
6586 Rain 18 1013 42 10000 4.6 290 11:43 13.04.2020
6587 Rain 17 1013 48 10000 2.6 310 11:19 13.04.2020
6588 Rain 17 1013 48 10000 2.1 310 10:56 13.04.2020
6589 Rain 16 1013 48 10000 2.1 310 10:38 13.04.2020
6590 Rain 15 1013 51 10000 1.5 200 10:19 13.04.2020
6591 Rain 14 1013 54 10000 1.5 160 09:55 13.04.2020
6592 Rain 12 1013 54 10000 1.5 160 09:36 13.04.2020
6593 Clouds 10 1013 62 10000 2.6 120 09:18 13.04.2020
6594 Clouds 9 1013 71 10000 1.5 80 08:42 13.04.2020
6595 Clouds 9 1013 71 10000 1.5 80 08:42 13.04.2020
6596 Clouds 8 1012 81 10000 3.6 110 08:24 13.04.2020
6597 Clouds 7 1012 81 10000 4.1 100 07:42 13.04.2020
6598 Clouds 7 1012 81 10000 3.6 110 07:24 13.04.2020
6599 Clouds 7 1012 81 10000 3.6 100 06:47 13.04.2020
6600 Rain 7 1012 75 10000 4.1 100 06:25 13.04.2020
6601 Rain 8 1012 75 10000 3.1 110 05:32 13.04.2020
6602 Rain 8 1012 76 10000 2.6 100 04:53 13.04.2020
6603 Rain 8 1012 75 10000 1.5 0 04:24 13.04.2020
6604 Rain 9 1012 70 10000 1.5 120 03:48 13.04.2020
6605 Rain 10 1013 66 10000 1 0 02:59 13.04.2020
6606 Rain 10 1013 66 10000 1 0 02:37 13.04.2020
6607 Rain 12 1013 62 10000 1 0 01:43 13.04.2020
6608 Rain 12 1013 58 10000 2.1 120 01:25 13.04.2020
6609 Rain 14 1013 54 10000 1 330 00:42 13.04.2020
6610 Rain 13 1013 54 10000 1 0 00:20 13.04.2020
6611 Rain 14 1013 54 10000 1 0 00:20 13.04.2020
6612 Rain 15 1014 48 10000 2.1 270 23:48 12.04.2020
6613 Rain 15 1014 45 10000 5.7 250 23:23 12.04.2020
6614 Rain 14 1014 51 10000 2.1 0 22:58 12.04.2020
6615 Rain 15 1014 51 10000 2.1 0 22:37 12.04.2020
6616 Rain 14 1013 58 10000 1 0 22:19 12.04.2020
6617 Rain 15 1013 47 10000 0.5 0 21:40 12.04.2020
6618 Clouds 16 1013 42 10000 0.5 240 21:21 12.04.2020
6619 Clouds 18 1013 34 10000 1.5 210 20:58 12.04.2020
6620 Clouds 18 1013 32 10000 0.5 0 20:39 12.04.2020
6621 Clouds 18 1013 32 10000 0.5 0 20:39 12.04.2020
6622 Clouds 19 1013 32 10000 0.5 0 20:21 12.04.2020
6623 Clouds 20 1013 30 10000 1 0 19:55 12.04.2020
6624 Clouds 21 1013 28 10000 2.1 190 19:36 12.04.2020
6625 Clouds 21 1013 28 10000 2.1 190 19:18 12.04.2020
6626 Clouds 22 1013 27 10000 1 0 18:40 12.04.2020
6627 Clouds 22 1014 27 10000 1.5 0 18:21 12.04.2020
6628 Clouds 22 1014 27 10000 1.5 0 17:57 12.04.2020
6629 Clouds 22 1014 27 10000 1.5 0 17:38 12.04.2020
6630 Clouds 22 1014 30 10000 2.1 190 17:19 12.04.2020
6631 Clouds 22 1014 30 10000 3.1 210 16:56 12.04.2020
6632 Clouds 21 1014 30 10000 3.1 210 16:37 12.04.2020
6633 Clouds 22 1015 28 10000 3.1 250 16:19 12.04.2020
6634 Clouds 22 1015 26 10000 2.6 350 15:42 12.04.2020
6635 Clear 22 1016 26 10000 1.5 350 15:22 12.04.2020
6636 Clear 22 1016 25 10000 1 0 14:41 12.04.2020
6637 Clear 22 1016 27 10000 3.1 240 14:22 12.04.2020
6638 Clear 22 1017 26 10000 2.6 330 13:58 12.04.2020
6639 Clear 22 1017 26 10000 2.6 330 13:40 12.04.2020
6640 Clear 21 1017 24 10000 1.5 0 13:21 12.04.2020
6641 Clear 21 1017 28 10000 1 0 12:47 12.04.2020
6642 Clear 20 1018 30 10000 1.28 208 12:22 12.04.2020
6643 Clear 18 1018 32 10000 1.5 0 11:59 12.04.2020
6644 Clear 18 1018 32 10000 1.5 0 11:59 12.04.2020
6645 Clear 18 1018 32 10000 1.5 0 11:39 12.04.2020
6646 Clear 17 1019 36 10000 2.1 110 11:20 12.04.2020
6647 Clear 15 1019 41 10000 2.1 140 10:57 12.04.2020
6648 Clear 15 1019 41 10000 2.1 140 10:39 12.04.2020
6649 Clear 14 1019 44 10000 2.1 140 10:20 12.04.2020
6650 Clear 12 1019 54 10000 2.1 130 09:58 12.04.2020
6651 Clear 12 1019 54 10000 2.1 130 09:39 12.04.2020
6652 Clear 9 1020 57 10000 2.1 120 09:19 12.04.2020
6653 Clear 8 1020 70 10000 2.1 110 08:50 12.04.2020
6654 Clear 6 1020 80 10000 2.6 100 08:31 12.04.2020
6655 Clear 5 1020 58 10000 0.5 0 07:47 12.04.2020
6656 Clear 4 1020 58 10000 1.5 100 07:20 12.04.2020
6657 Clear 4 1020 58 10000 1.5 100 06:54 12.04.2020
6658 Clear 4 1020 58 10000 1 0 06:30 12.04.2020
6659 Clear 4 1020 59 10000 1.5 100 05:49 12.04.2020
6660 Clear 4 1020 75 10000 2.1 110 04:44 12.04.2020
6661 Clear 6 1021 75 10000 1 90 03:30 12.04.2020
6662 Clear 6 1021 75 10000 1 50 02:49 12.04.2020
6663 Clear 7 1021 65 10000 1.5 110 02:29 12.04.2020
6664 Clear 7 1022 61 10000 1.59 136 01:23 12.04.2020
6665 Clear 8 1022 61 10000 0.5 0 00:43 12.04.2020
6666 Clear 8 1022 57 10000 1 0 00:21 12.04.2020
6667 Clear 9 1022 57 10000 0.5 0 23:58 11.04.2020
6668 Clear 9 1022 57 10000 0.5 0 23:40 11.04.2020
6669 Clear 9 1022 57 10000 0.5 0 23:22 11.04.2020
6670 Clear 10 1022 57 10000 1 20 22:38 11.04.2020
6671 Clear 11 1022 50 10000 1.5 60 22:20 11.04.2020
6672 Clear 11 1022 43 10000 0.5 10 21:55 11.04.2020
6673 Clear 13 1022 43 10000 0.5 10 21:36 11.04.2020
6674 Clouds 14 1022 44 10000 1 330 21:18 11.04.2020
6675 Clouds 15 1022 36 10000 1.5 320 20:56 11.04.2020
6676 Clouds 15 1022 36 10000 1.5 320 20:56 11.04.2020
6677 Clouds 16 1022 36 10000 1.5 320 20:37 11.04.2020
6678 Clouds 17 1022 31 10000 2.6 290 20:19 11.04.2020
6679 Clouds 17 1022 31 10000 2.6 290 20:19 11.04.2020
6680 Clouds 18 1022 29 10000 3.6 290 19:56 11.04.2020
6681 Clouds 19 1022 29 10000 3.6 290 19:38 11.04.2020
6682 Clouds 19 1022 29 10000 3.6 290 19:38 11.04.2020
6683 Clouds 19 1022 45 10000 3.1 280 19:18 11.04.2020
6684 Clouds 20 1022 45 10000 2.6 300 18:55 11.04.2020
6685 Clouds 20 1022 45 10000 3.1 280 18:37 11.04.2020
6686 Clouds 20 1022 31 10000 3.1 280 18:18 11.04.2020
6687 Clouds 20 1022 31 10000 2.6 290 17:57 11.04.2020
6688 Clouds 20 1022 31 10000 2.6 290 17:57 11.04.2020
6689 Clouds 20 1022 31 10000 2.6 290 17:37 11.04.2020
6690 Clouds 20 1022 31 10000 4.1 310 17:19 11.04.2020
6691 Clouds 20 1022 24 10000 3.1 0 16:42 11.04.2020
6692<